# Wetter Temperatur Luftdruck Luftfeuchtigkeit Sichtweite Windgeschwindigkeit Windrichtung Zeit
1 Clear 21 1014 68 10000 1.5 0 13:38 14.10.2019
2 Clear 21 1015 68 10000 2.1 320 13:19 14.10.2019
3 Clouds 20 1015 68 10000 2.1 330 12:41 14.10.2019
4 Clouds 19 1015 68 10000 2.6 330 12:19 14.10.2019
5 Clouds 18 1015 72 10000 2.6 310 11:47 14.10.2019
6 Clouds 18 1015 72 10000 2.6 310 11:27 14.10.2019
7 Clouds 18 1015 72 10000 2.1 300 10:59 14.10.2019
8 Clouds 17 1015 77 10000 2.1 290 10:40 14.10.2019
9 Clouds 16 1015 82 10000 2.6 300 10:21 14.10.2019
10 Clouds 16 1015 82 10000 2.6 300 09:57 14.10.2019
11 Clear 16 1015 82 10000 2.1 280 09:38 14.10.2019
12 Clear 15 1014 82 10000 1 0 09:19 14.10.2019
13 Clouds 14 1014 87 10000 2.1 280 08:45 14.10.2019
14 Clouds 14 1014 93 10000 1 330 08:22 14.10.2019
15 Clouds 15 1014 87 10000 2.1 310 07:43 14.10.2019
16 Clouds 14 1014 82 10000 2.1 300 07:19 14.10.2019
17 Clouds 15 1015 91 0 2.12 246.216 06:54 14.10.2019
18 Clouds 16 1012 86 0 2.12 246.216 06:27 14.10.2019
19 Clouds 16 1010 85 0 4.25 234.621 05:50 14.10.2019
20 Clouds 17 1012 80 0 0.45 270 04:49 14.10.2019
21 Clouds 18 1013 89 0 4.25 234.621 03:28 14.10.2019
22 Clouds 18 1011 76 0 0.89 292 02:56 14.10.2019
23 Clouds 20 1010 73 0 0.89 270 01:36 14.10.2019
24 Clouds 20 1008 76 0 4.67 222.872 01:18 14.10.2019
25 Clouds 20 1008 75 0 5.01 211.931 00:21 14.10.2019
26 Clouds 20 1008 74 0 5.01 211.931 23:46 13.10.2019
27 Clouds 20 1008 75 0 5.01 211.931 23:21 13.10.2019
28 Clouds 20 1011 76 0 5.01 211.931 23:00 13.10.2019
29 Clouds 20 1009 71 0 1.34 292 22:41 13.10.2019
30 Clouds 20 1011 67 0 5.01 211.931 22:22 13.10.2019
31 Clouds 20 1009 69 0 1.34 292 21:58 13.10.2019
32 Clouds 20 1009 69 0 1.34 292 21:58 13.10.2019
33 Clear 20 1009 56 10000 4.6 220 21:38 13.10.2019
34 Clear 21 1009 56 10000 4.6 220 21:19 13.10.2019
35 Clear 21 1009 56 10000 4.6 220 20:58 13.10.2019
36 Clear 21 1009 56 10000 4.6 220 20:58 13.10.2019
37 Clear 21 1009 56 10000 4.6 220 20:58 13.10.2019
38 Clear 21 1009 56 10000 4.6 220 20:39 13.10.2019
39 Clear 21 1009 56 10000 4.6 220 20:39 13.10.2019
40 Clear 21 1008 64 10000 3.1 170 20:21 13.10.2019
41 Clear 21 1008 64 10000 3.1 170 19:59 13.10.2019
42 Clear 21 1008 64 10000 3.1 150 19:39 13.10.2019
43 Clear 21 1008 64 10000 3.1 140 19:21 13.10.2019
44 Clear 21 1008 64 10000 3.1 140 18:59 13.10.2019
45 Clear 21 1008 60 10000 3.6 190 18:38 13.10.2019
46 Clear 22 1008 56 10000 3.6 190 18:20 13.10.2019
47 Clear 22 1008 56 10000 3.6 190 17:58 13.10.2019
48 -273 0 0 0 0 0 17:40 13.10.2019
49 Clear 23 1008 73 10000 3.1 160 17:22 13.10.2019
50 Clouds 23 1009 73 10000 2.6 150 16:43 13.10.2019
51 Rain 22 1009 77 10000 2.1 130 16:19 13.10.2019
52 Rain 22 1009 77 10000 2.1 130 15:57 13.10.2019
53 Rain 22 1009 77 10000 2.1 130 15:57 13.10.2019
54 Clear 22 1009 78 10000 3.1 120 15:38 13.10.2019
55 Clear 22 1010 83 10000 3.1 130 15:20 13.10.2019
56 Clear 22 1010 83 10000 3.1 130 14:57 13.10.2019
57 Clear 21 1010 83 10000 2.6 150 14:39 13.10.2019
58 Clear 21 1011 82 10000 3.1 170 14:20 13.10.2019
59 Clouds 21 1011 88 10000 2.6 200 13:43 13.10.2019
60 Clouds 21 1011 88 10000 2.6 200 13:24 13.10.2019
61 -273 0 0 0 0 0 12:59 13.10.2019
62 Rain 21 1012 88 10000 4.1 220 12:59 13.10.2019
63 Clear 21 1011 68 10000 3.6 230 12:40 13.10.2019
64 Clear 21 1011 68 10000 4.6 230 12:21 13.10.2019
65 Clear 20 1011 68 10000 4.6 230 11:59 13.10.2019
66 Clear 20 1011 73 10000 3.6 220 11:40 13.10.2019
67 Clear 20 1011 72 10000 5.1 220 11:21 13.10.2019
68 Clear 20 1011 72 10000 5.1 220 10:59 13.10.2019
69 -273 0 0 0 0 0 10:40 13.10.2019
70 Clear 18 1011 77 10000 4.1 200 10:22 13.10.2019
71 Clear 17 1011 82 10000 2.1 170 09:40 13.10.2019
72 Clear 17 1011 87 10000 1.5 140 09:21 13.10.2019
73 Clear 16 1011 87 10000 1.5 140 08:55 13.10.2019
74 Clouds 16 1010 87 0 1.34 292 08:27 13.10.2019
75 Clouds 16 1010 87 0 1.34 292 08:27 13.10.2019
76 Clouds 16 1010 88 0 0.89 292 07:56 13.10.2019
77 Clouds 16 1010 88 0 0.89 292 07:38 13.10.2019
78 Clouds 15 1009 89 0 0.45 292 06:55 13.10.2019
79 Clouds 15 1009 89 0 0.45 270 06:26 13.10.2019
80 Clouds 15 1010 88 0 0.45 292 05:34 13.10.2019
81 Clouds 16 1010 86 0 0.45 292 04:46 13.10.2019
82 Clouds 16 1010 83 0 0.45 292 03:39 13.10.2019
83 Rain 17 1010 81 0 1.34 270 02:35 13.10.2019
84 Rain 17 1012 82 0 3.56 221.856 01:53 13.10.2019
85 Clouds 17 1012 82 0 3.3 222.531 01:22 13.10.2019
86 Clouds 17 1008 85 0 3.3 222.531 00:44 13.10.2019
87 Rain 17 1010 78 0 1.34 270 00:21 13.10.2019
88 Rain 17 1010 77 0 0.89 270 23:55 12.10.2019
89 Rain 17 1010 78 0 0.89 292 23:36 12.10.2019
90 Rain 17 1010 78 0 0.89 270 23:18 12.10.2019
91 Rain 17 1009 78 0 0.89 270 22:56 12.10.2019
92 Rain 16 1009 78 0 1.34 270 22:37 12.10.2019
93 Rain 16 1008 82 0 3.71 221.096 22:19 12.10.2019
94 Clear 17 1010 67 10000 2.1 210 21:42 12.10.2019
95 Clear 17 1010 67 10000 2.1 210 21:24 12.10.2019
96 Clear 17 1010 67 10000 2.1 210 20:58 12.10.2019
97 Clear 17 1010 67 10000 2.1 210 20:58 12.10.2019
98 Clear 17 1010 67 10000 2.1 210 20:39 12.10.2019
99 Clear 17 1010 67 10000 2.1 210 20:20 12.10.2019
100 Clear 17 1010 63 10000 4.1 250 19:37 12.10.2019
101 Clear 17 1010 67 10000 2.1 240 19:19 12.10.2019
102 Clear 17 1010 67 10000 2.1 240 18:56 12.10.2019
103 Clear 18 1010 67 10000 2.1 240 18:36 12.10.2019
104 Clear 18 1010 63 10000 3.6 250 18:18 12.10.2019
105 Clear 18 1010 63 10000 4.1 270 17:42 12.10.2019
106 Clouds 19 1011 63 10000 3.6 240 17:19 12.10.2019
107 Clouds 19 1011 63 10000 3.6 240 16:54 12.10.2019
108 Clouds 19 1011 63 10000 3.6 240 16:36 12.10.2019
109 Clouds 19 1010 63 10000 4.6 250 16:18 12.10.2019
110 Clouds 19 1010 63 10000 4.6 250 15:40 12.10.2019
111 Clouds 19 1010 63 10000 4.6 240 15:22 12.10.2019
112 Clouds 18 1010 63 10000 5.7 250 14:43 12.10.2019
113 Clouds 18 1010 63 10000 5.7 250 14:22 12.10.2019
114 Clouds 18 1010 63 10000 5.7 250 13:57 12.10.2019
115 Clouds 18 1010 63 10000 4.6 230 13:38 12.10.2019
116 Clouds 18 1009 68 10000 5.7 240 13:20 12.10.2019
117 Clouds 18 1009 63 10000 6.2 230 12:39 12.10.2019
118 Clouds 17 1009 68 10000 7.7 240 12:21 12.10.2019
119 Clouds 17 1009 68 10000 7.7 240 11:58 12.10.2019
120 Clouds 17 1009 67 10000 7.2 230 11:38 12.10.2019
121 Clouds 16 1009 72 10000 6.7 230 11:19 12.10.2019
122 Clouds 16 1008 72 10000 5.1 230 10:41 12.10.2019
123 Clouds 15 1008 72 10000 5.1 230 10:23 12.10.2019
124 Clouds 15 1008 72 10000 5.1 230 09:58 12.10.2019
125 Clouds 15 1008 72 10000 5.1 230 09:58 12.10.2019
126 Clouds 15 1008 72 10000 5.1 220 09:39 12.10.2019
127 Clouds 14 1008 72 10000 6.2 220 09:21 12.10.2019
128 Clouds 14 1008 72 10000 6.2 220 08:57 12.10.2019
129 Clouds 14 1008 72 10000 6.2 220 08:37 12.10.2019
130 Clouds 13 1006 91 0 6.11 221.987 08:18 12.10.2019
131 Clouds 13 1006 85 0 6.11 221.987 07:33 12.10.2019
132 Clouds 13 1006 85 0 6.11 221.987 06:50 12.10.2019
133 Clouds 14 1006 85 0 5.92 222.027 05:46 12.10.2019
134 Clouds 14 1006 85 0 5.92 222.027 05:22 12.10.2019
135 Clouds 15 1007 81 0 1.79 270 03:58 12.10.2019
136 Clouds 15 1008 82 0 1.79 292 02:57 12.10.2019
137 Clouds 15 1008 82 0 1.79 270 01:38 12.10.2019
138 Clouds 15 1010 82 0 3.58 189 01:19 12.10.2019
139 Clouds 15 1008 83 0 1.79 292 00:40 12.10.2019
140 Clouds 15 1008 82 0 1.34 270 23:57 11.10.2019
141 Clouds 15 1008 81 0 2.24 292 23:39 11.10.2019
142 Clouds 15 1009 72 10000 6.2 230 23:20 11.10.2019
143 Clouds 15 1009 72 10000 6.2 230 22:40 11.10.2019
144 Clouds 15 1009 72 10000 6.2 230 22:40 11.10.2019
145 Clouds 15 1009 72 10000 6.2 230 22:21 11.10.2019
146 Clouds 15 1009 72 10000 6.2 230 21:56 11.10.2019
147 Clouds 15 1008 72 10000 6.2 220 21:38 11.10.2019
148 Clouds 15 1009 72 10000 6.2 230 21:20 11.10.2019
149 Clouds 15 1009 72 10000 5.7 230 20:44 11.10.2019
150 Clouds 14 1009 72 10000 5.7 230 20:26 11.10.2019
151 Clouds 14 1009 72 10000 5.7 220 19:58 11.10.2019
152 Clouds 14 1009 72 10000 5.7 220 19:39 11.10.2019
153 Clear 14 1009 72 10000 6.2 220 19:18 11.10.2019
154 Clear 14 1009 72 10000 6.2 220 18:58 11.10.2019
155 Clear 14 1010 72 10000 6.2 220 18:38 11.10.2019
156 Clear 15 1010 72 10000 6.7 220 18:19 11.10.2019
157 Clear 15 1010 72 10000 6.7 220 18:19 11.10.2019
158 Clear 15 1010 72 10000 6.7 220 17:58 11.10.2019
159 Clear 15 1010 72 10000 7.7 220 17:38 11.10.2019
160 Clear 15 1011 72 10000 6.2 230 17:19 11.10.2019
161 Clear 15 1011 72 10000 6.2 230 16:58 11.10.2019
162 Clear 15 1011 72 10000 6.2 230 16:39 11.10.2019
163 Clear 15 1011 67 10000 5.1 220 16:19 11.10.2019
164 Clear 15 1011 67 10000 5.7 220 15:41 11.10.2019
165 Clear 15 1011 67 10000 5.7 220 15:21 11.10.2019
166 Clear 15 1011 67 10000 5.7 220 14:58 11.10.2019
167 Clear 15 1011 72 10000 4.6 230 14:39 11.10.2019
168 Clear 15 1011 67 10000 7.2 240 14:20 11.10.2019
169 Clear 15 1012 63 10000 7.7 230 13:45 11.10.2019
170 Clear 15 1012 63 10000 7.7 230 13:25 11.10.2019
171 Clouds 15 1012 67 10000 7.7 240 12:57 11.10.2019
172 Clouds 15 1012 71 10000 7.2 240 12:39 11.10.2019
173 Clouds 14 1012 71 10000 6.7 240 12:20 11.10.2019
174 Clouds 14 1012 71 10000 6.7 240 11:58 11.10.2019
175 Clouds 13 1012 71 10000 7.7 240 11:38 11.10.2019
176 Clouds 13 1012 71 10000 8.2 240 11:20 11.10.2019
177 Clouds 12 1012 71 10000 8.2 240 10:55 11.10.2019
178 Clouds 12 1012 71 10000 8.2 240 10:55 11.10.2019
179 Clouds 12 1012 71 10000 7.2 230 10:36 11.10.2019
180 Clouds 12 1012 71 10000 6.2 230 10:18 11.10.2019
181 Clouds 12 1012 76 10000 5.7 220 09:42 11.10.2019
182 Clouds 11 1012 71 10000 6.2 220 09:21 11.10.2019
183 Clouds 11 1012 71 10000 6.2 220 08:57 11.10.2019
184 Clouds 11 1012 71 10000 6.2 230 08:38 11.10.2019
185 Clear 11 1012 71 10000 5.7 230 08:20 11.10.2019
186 Clear 11 1012 71 10000 5.1 230 07:53 11.10.2019
187 Clear 11 1012 71 10000 5.1 230 07:34 11.10.2019
188 Clouds 11 1014 93 0 7.71 217.87 06:50 11.10.2019
189 Clouds 11 1012 86 0 1.34 292 06:25 11.10.2019
190 Clouds 11 1013 86 0 1.34 292 05:47 11.10.2019
191 Clouds 11 1013 86 0 1.34 292 05:47 11.10.2019
192 Clouds 11 1015 92 0 5.61 218.418 05:29 11.10.2019
193 Clouds 11 1013 85 0 1.34 292 04:58 11.10.2019
194 Clouds 11 1013 86 0 0.89 292 03:40 11.10.2019
195 Clouds 11 1014 85 0 1.34 270 01:26 11.10.2019
196 Clouds 11 1013 85 0 0.89 292 00:41 11.10.2019
197 Rain 10 1013 85 0 0.89 270 00:20 11.10.2019
198 Rain 10 1014 84 0 0.45 270 23:41 10.10.2019
199 Clouds 10 1014 76 10000 4.1 240 23:20 10.10.2019
200 Clouds 10 1014 76 10000 4.1 240 22:56 10.10.2019
201 Clouds 10 1014 76 10000 4.1 240 22:36 10.10.2019
202 Clouds 10 1014 76 10000 4.1 240 22:18 10.10.2019
203 Clear 11 1013 76 10000 4.6 240 21:42 10.10.2019
204 Clear 11 1013 81 10000 3.6 240 21:22 10.10.2019
205 Clear 11 1013 81 10000 3.6 240 20:59 10.10.2019
206 Clear 11 1013 81 10000 3.6 240 20:59 10.10.2019
207 Rain 11 1013 76 10000 3.6 250 20:40 10.10.2019
208 Rain 11 1013 76 10000 3.6 250 20:20 10.10.2019
209 Rain 11 1013 76 10000 3.6 250 19:57 10.10.2019
210 Rain 11 1013 81 10000 3.1 260 19:39 10.10.2019
211 Rain 11 1012 87 10000 4.6 300 19:19 10.10.2019
212 Rain 12 1012 76 10000 4.6 260 18:54 10.10.2019
213 Rain 12 1012 76 10000 4.6 260 18:36 10.10.2019
214 Clouds 12 1012 71 10000 5.1 250 18:18 10.10.2019
215 Clouds 13 1011 67 10000 6.2 240 17:40 10.10.2019
216 Clouds 13 1011 71 10000 5.1 240 17:19 10.10.2019
217 Clouds 13 1011 71 10000 5.1 240 16:57 10.10.2019
218 Clouds 13 1011 66 10000 5.7 260 16:38 10.10.2019
219 Clouds 13 1011 71 10000 5.1 260 16:20 10.10.2019
220 Clouds 13 1011 71 10000 6.7 260 15:43 10.10.2019
221 Clouds 13 1011 71 10000 7.2 260 15:23 10.10.2019
222 Clouds 13 1011 71 10000 7.2 260 14:59 10.10.2019
223 Clouds 12 1011 76 10000 6.7 260 14:37 10.10.2019
224 Clouds 12 1011 71 10000 6.7 260 14:19 10.10.2019
225 Clouds 12 1011 71 10000 6.7 260 14:19 10.10.2019
226 Clouds 12 1011 71 10000 6.7 260 13:59 10.10.2019
227 Clouds 12 1010 71 10000 6.2 260 13:39 10.10.2019
228 Clouds 12 1010 71 10000 7.2 250 13:18 10.10.2019
229 Clouds 12 1010 71 10000 7.2 250 12:54 10.10.2019
230 Clouds 12 1010 71 10000 6.2 260 12:36 10.10.2019
231 Clouds 12 1009 71 10000 7.2 260 12:18 10.10.2019
232 Clouds 12 1009 71 10000 7.7 250 11:41 10.10.2019
233 Clouds 11 1009 76 10000 6.7 250 11:20 10.10.2019
234 Clouds 11 1009 76 10000 6.7 250 10:59 10.10.2019
235 Clouds 11 1008 76 10000 5.1 240 10:41 10.10.2019
236 Clouds 11 1008 81 10000 5.1 240 10:22 10.10.2019
237 -273 0 0 0 0 0 09:54 10.10.2019
238 Clear 10 1008 87 10000 4.6 240 09:36 10.10.2019
239 Clear 10 1007 81 10000 4.1 240 09:18 10.10.2019
240 Clouds 9 1007 87 10000 3.6 240 08:41 10.10.2019
241 Clouds 9 1007 87 10000 3.1 230 08:22 10.10.2019
242 Clouds 9 1007 87 10000 3.1 230 07:58 10.10.2019
243 Clear 9 1006 87 10000 3.1 230 07:38 10.10.2019
244 Clouds 9 1006 87 10000 4.1 230 07:19 10.10.2019
245 Rain 9 1005 93 0 0.45 225 06:45 10.10.2019
246 Rain 9 1007 95 0 7.27 240.647 06:22 10.10.2019
247 Rain 9 1008 91 0 7.27 240.647 05:23 10.10.2019
248 Rain 9 1005 93 0 0.45 292 04:37 10.10.2019
249 Rain 9 1006 95 0 0.89 215 02:54 10.10.2019
250 Rain 10 1004 92 0 0.89 270 01:42 10.10.2019
251 Rain 10 1004 92 0 0.89 270 01:42 10.10.2019
252 Rain 10 1007 92 0 8.04 239.875 01:23 10.10.2019
253 Rain 10 1004 91 0 0.89 270 00:45 10.10.2019
254 Rain 10 1004 91 0 0.89 270 00:20 10.10.2019
255 Rain 10 1004 90 0 0.89 270 23:39 09.10.2019
256 Clouds 10 1004 93 10000 3.6 240 23:20 09.10.2019
257 Clouds 10 1004 93 10000 3.6 240 22:43 09.10.2019
258 Clouds 10 1004 93 10000 3.6 240 22:24 09.10.2019
259 Clouds 10 1004 93 10000 3.6 240 21:59 09.10.2019
260 Rain 10 1004 87 10000 3.6 240 21:40 09.10.2019
261 Rain 10 1004 87 10000 2.6 210 21:20 09.10.2019
262 Rain 10 1004 87 10000 2.6 210 20:56 09.10.2019
263 Rain 10 1004 87 10000 2.6 210 20:56 09.10.2019
264 Rain 10 1004 87 10000 2.6 210 20:56 09.10.2019
265 Rain 10 1004 93 10000 3.1 200 20:37 09.10.2019
266 Rain 10 1004 93 10000 3.1 200 20:37 09.10.2019
267 Rain 10 1004 93 10000 3.1 200 20:19 09.10.2019
268 Rain 10 1004 93 10000 3.1 200 19:57 09.10.2019
269 Rain 10 1005 93 10000 4.1 230 19:39 09.10.2019
270 Rain 10 1004 93 10000 5.7 240 19:20 09.10.2019
271 Rain 11 1004 76 10000 3.1 220 18:38 09.10.2019
272 Clear 12 1004 66 10000 4.6 210 18:19 09.10.2019
273 Clear 12 1004 66 10000 4.6 210 17:57 09.10.2019
274 Clear 13 1004 67 10000 5.7 210 17:37 09.10.2019
275 Clear 13 1004 67 10000 5.7 210 17:19 09.10.2019
276 Clear 13 1004 67 10000 5.7 210 16:55 09.10.2019
277 Clouds 14 1004 62 10000 6.2 210 16:36 09.10.2019
278 Clouds 14 1005 62 10000 6.2 220 16:18 09.10.2019
279 Clouds 14 1005 62 10000 6.2 220 15:55 09.10.2019
280 Clouds 14 1005 62 10000 5.7 220 15:36 09.10.2019
281 Clouds 14 1005 67 10000 4.1 210 15:18 09.10.2019
282 Clouds 14 1005 67 10000 4.1 210 15:18 09.10.2019
283 Clouds 14 1006 71 10000 5.7 210 14:41 09.10.2019
284 Clouds 14 1006 71 10000 5.7 220 14:18 09.10.2019
285 Clouds 14 1006 71 10000 5.7 220 13:55 09.10.2019
286 Clouds 14 1006 67 10000 4.6 230 13:36 09.10.2019
287 Clouds 14 1007 67 10000 5.1 240 13:18 09.10.2019
288 Clouds 14 1007 67 10000 6.7 240 12:42 09.10.2019
289 Clouds 14 1007 71 10000 5.7 240 12:22 09.10.2019
290 Clouds 14 1007 71 10000 5.7 240 11:57 09.10.2019
291 Clouds 14 1007 71 10000 5.7 230 11:39 09.10.2019
292 Clouds 14 1007 76 10000 5.1 220 11:20 09.10.2019
293 Clouds 14 1007 76 10000 5.1 220 10:55 09.10.2019
294 Clouds 13 1007 76 10000 3.6 210 10:37 09.10.2019
295 Clouds 12 1007 81 10000 4.1 220 10:18 09.10.2019
296 Clear 12 1007 81 10000 3.6 230 09:42 09.10.2019
297 Clouds 11 1007 87 10000 2.6 210 09:19 09.10.2019
298 Clouds 11 1007 87 10000 2.6 210 08:56 09.10.2019
299 Clouds 10 1007 87 10000 2.1 180 08:37 09.10.2019
300 Clouds 10 1007 93 10000 1.5 200 08:18 09.10.2019
301 Clouds 10 1007 93 10000 1.5 200 08:18 09.10.2019
302 Clouds 10 1007 87 10000 2.6 230 07:43 09.10.2019
303 Clouds 10 1007 87 10000 2.6 220 07:23 09.10.2019
304 Clouds 10 1008 95 0 5.55 233.566 06:52 09.10.2019
305 Clouds 10 1005 99 0 7.19 241.638 06:20 09.10.2019
306 Clouds 11 1004 99 0 7.19 241.638 05:46 09.10.2019
307 Clouds 11 1004 99 0 7.19 241.638 05:46 09.10.2019
308 Clouds 11 1006 91 0 0.89 270 04:27 09.10.2019
309 Clouds 11 1007 95 0 6.05 237.264 03:24 09.10.2019
310 Clouds 11 1003 10 0 6.05 237.264 01:48 09.10.2019
311 Rain 11 1003 10 0 5.97 231.406 01:22 09.10.2019
312 Rain 11 1006 97 0 5.97 231.406 00:58 09.10.2019
313 Rain 11 1006 97 0 5.97 231.406 00:40 09.10.2019
314 Rain 11 1006 98 0 6.23 237.647 00:21 09.10.2019
315 Rain 12 1004 94 0 0.89 225 23:57 08.10.2019
316 Rain 12 1004 94 0 0.45 225 23:37 08.10.2019
317 Clear 12 1004 87 10000 3.1 230 23:18 08.10.2019
318 Clear 12 1004 87 10000 3.1 230 22:39 08.10.2019
319 Clear 12 1004 87 10000 3.1 230 22:20 08.10.2019
320 Clear 12 1004 87 10000 3.1 230 21:58 08.10.2019
321 Clear 12 1004 82 10000 3.1 220 21:39 08.10.2019
322 Clear 12 1004 82 10000 3.1 220 21:39 08.10.2019
323 Clear 12 1004 87 10000 3.6 220 21:20 08.10.2019
324 Clear 12 1004 87 10000 3.6 220 20:57 08.10.2019
325 Clear 12 1004 87 10000 2.6 210 20:39 08.10.2019
326 Clear 12 1004 87 10000 1.5 0 20:21 08.10.2019
327 Clear 12 1004 87 10000 1.5 0 19:59 08.10.2019
328 Clouds 13 1005 87 10000 2.6 230 19:41 08.10.2019
329 Clouds 13 1005 87 10000 3.1 230 19:23 08.10.2019
330 Clouds 13 1005 87 10000 3.1 230 18:55 08.10.2019
331 Clouds 13 1005 87 10000 3.1 230 18:55 08.10.2019
332 Clouds 13 1005 82 10000 4.1 240 18:37 08.10.2019
333 Clouds 13 1004 82 10000 4.6 250 18:19 08.10.2019
334 Clouds 13 1004 82 10000 4.6 250 17:55 08.10.2019
335 Clouds 13 1004 82 10000 4.6 250 17:55 08.10.2019
336 Clouds 13 1004 82 10000 5.1 240 17:36 08.10.2019
337 Clouds 13 1004 82 10000 5.1 240 17:36 08.10.2019
338 Clouds 13 1005 77 10000 5.1 260 17:18 08.10.2019
339 Clouds 13 1005 77 10000 5.1 260 17:18 08.10.2019
340 Clouds 14 1005 77 10000 4.6 250 16:40 08.10.2019
341 Clouds 14 1005 82 10000 5.1 250 16:22 08.10.2019
342 Clouds 14 1005 82 10000 5.1 250 15:56 08.10.2019
343 Clouds 13 1005 82 10000 4.1 270 15:37 08.10.2019
344 Clouds 14 1005 82 10000 5.7 260 15:19 08.10.2019
345 Clouds 14 1005 87 10000 5.7 270 14:42 08.10.2019
346 Clouds 13 1005 87 10000 6.2 260 14:21 08.10.2019
347 Clouds 13 1005 87 10000 6.2 260 13:57 08.10.2019
348 Clouds 13 1005 93 10000 5.1 250 13:39 08.10.2019
349 Clouds 13 1005 87 10000 4.6 250 13:20 08.10.2019
350 Clouds 12 1005 87 10000 4.6 250 12:59 08.10.2019
351 Clouds 12 1005 93 6000 4.6 250 12:38 08.10.2019
352 Drizzle 12 1005 93 3100 4.6 250 12:19 08.10.2019
353 Clouds 12 1005 87 10000 5.1 230 11:43 08.10.2019
354 Clouds 12 1005 87 10000 5.1 230 11:24 08.10.2019
355 Drizzle 11 1005 87 7000 5.7 230 10:59 08.10.2019
356 Drizzle 12 1006 87 8000 4.6 230 10:40 08.10.2019
357 Clouds 11 1006 93 10000 5.1 230 10:20 08.10.2019
358 Clouds 11 1006 93 10000 5.1 230 09:58 08.10.2019
359 Drizzle 11 1006 93 7000 4.6 210 09:39 08.10.2019
360 Rain 11 1006 87 6000 3.1 200 09:20 08.10.2019
361 Drizzle 11 1006 93 7000 3.1 180 08:43 08.10.2019
362 Drizzle 10 1006 93 7000 3.1 180 08:25 08.10.2019
363 Rain 10 1008 93 7000 3.6 190 07:46 08.10.2019
364 Rain 10 1008 93 9000 3.6 210 07:23 08.10.2019
365 Rain 10 1008 93 9000 3.6 210 06:57 08.10.2019
366 Rain 10 1007 93 0 0.89 270 06:35 08.10.2019
367 Clouds 10 1008 92 0 0.45 270 05:57 08.10.2019
368 Clouds 10 1008 92 0 0.45 270 05:57 08.10.2019
369 Clouds 10 1008 91 0 0.45 292 05:38 08.10.2019
370 Clouds 10 1009 88 0 0.89 270 04:55 08.10.2019
371 Clouds 10 1011 86 0 0.89 270 03:30 08.10.2019
372 Clouds 9 1011 85 0 0.89 292 02:40 08.10.2019
373 Clouds 9 1012 85 0 1.34 270 01:51 08.10.2019
374 Clouds 9 1015 88 0 2.5 203.902 01:32 08.10.2019
375 Clouds 9 1012 84 0 0.89 292 00:55 08.10.2019
376 Clouds 8 1012 91 0 2.15 177.895 00:22 08.10.2019
377 Clouds 8 1016 87 0 2.15 177.895 23:43 07.10.2019
378 Clouds 8 1013 91 0 2.15 177.895 23:21 07.10.2019
379 Clouds 8 1014 82 0 0.89 292 22:58 07.10.2019
380 Clouds 8 1014 82 0 0.89 292 22:58 07.10.2019
381 Clear 8 1017 87 10000 2.1 100 22:40 07.10.2019
382 Clear 8 1017 87 10000 2.1 100 22:21 07.10.2019
383 Clear 8 1017 87 10000 2.1 100 21:59 07.10.2019
384 Clear 8 1017 87 10000 2.1 100 21:40 07.10.2019
385 Clear 8 1017 81 10000 2.1 90 21:20 07.10.2019
386 Clear 8 1017 81 10000 2.1 90 20:58 07.10.2019
387 Clear 8 1017 87 10000 2.1 100 20:39 07.10.2019
388 Clear 8 1017 87 10000 2.1 100 20:39 07.10.2019
389 Clear 8 1017 87 10000 2.1 100 20:39 07.10.2019
390 Clear 8 1017 87 10000 2.1 100 20:39 07.10.2019
391 Clear 8 1017 87 10000 2.1 90 20:21 07.10.2019
392 Clear 8 1017 87 10000 2.1 90 19:59 07.10.2019
393 Clear 8 1018 75 10000 2.1 100 19:41 07.10.2019
394 Clear 8 1018 75 10000 2.1 100 19:41 07.10.2019
395 Clear 9 1017 75 10000 2.1 130 19:20 07.10.2019
396 Clear 9 1017 75 10000 2.1 130 18:59 07.10.2019
397 Clear 9 1017 66 10000 1.5 100 18:39 07.10.2019
398 Clear 10 1018 57 10000 2.1 130 18:19 07.10.2019
399 -273 0 0 0 0 0 17:54 07.10.2019
400 Clear 11 1018 57 10000 2.1 140 17:54 07.10.2019
401 Clear 11 1018 57 10000 2.1 140 17:36 07.10.2019
402 Clear 12 1018 46 10000 2.1 170 17:18 07.10.2019
403 Clear 12 1019 46 10000 2.1 0 16:43 07.10.2019
404 Clear 12 1019 46 10000 2.1 0 16:25 07.10.2019
405 Clear 12 1019 50 10000 2.1 100 15:46 07.10.2019
406 Clear 12 1019 50 10000 2.1 100 15:26 07.10.2019
407 Clear 12 1019 54 10000 2.6 120 14:58 07.10.2019
408 Clear 12 1019 54 10000 2.6 120 14:58 07.10.2019
409 Clear 12 1020 54 10000 3.6 120 14:40 07.10.2019
410 Clear 12 1020 54 10000 2.6 110 14:22 07.10.2019
411 Clear 12 1020 53 10000 3.6 100 13:44 07.10.2019
412 Clouds 12 1020 53 10000 3.6 100 13:21 07.10.2019
413 Clouds 11 1020 53 10000 3.6 100 12:57 07.10.2019
414 Clear 11 1021 57 10000 4.1 110 12:39 07.10.2019
415 Clear 10 1021 57 10000 3.1 120 12:19 07.10.2019
416 Clear 10 1021 57 10000 3.1 120 11:58 07.10.2019
417 Clear 9 1021 61 10000 2.6 110 11:39 07.10.2019
418 Clear 8 1021 70 10000 3.1 100 11:20 07.10.2019
419 Clear 7 1021 75 10000 2.6 100 10:42 07.10.2019
420 Clear 5 1021 86 10000 3.1 110 10:21 07.10.2019
421 Clear 5 1021 86 10000 3.1 110 09:56 07.10.2019
422 Clear 4 1021 86 10000 2.1 100 09:38 07.10.2019
423 Clear 3 1020 86 10000 1 0 09:19 07.10.2019
424 Clear 2 1020 86 10000 2.1 100 08:42 07.10.2019
425 Clear 1 1019 86 10000 2.6 90 08:20 07.10.2019
426 Clear 1 1019 86 10000 2.6 90 07:47 07.10.2019
427 Clear 1 1019 86 10000 2.6 90 07:27 07.10.2019
428 Clear 1 1019 86 10000 2.6 100 06:58 07.10.2019
429 Clear 2 1017 89 0 2.42 115.199 06:38 07.10.2019
430 Clear 1 1017 95 0 2.09 113.181 06:18 07.10.2019
431 Clear 2 1016 94 0 2.09 113.181 05:26 07.10.2019
432 Clear 3 1015 91 0 2.09 113.181 04:49 07.10.2019
433 Clear 3 1018 89 0 2.09 113.181 03:46 07.10.2019
434 Clear 4 1016 93 0 2.09 113.181 03:27 07.10.2019
435 Clouds 5 1015 90 0 2.91 98.713 02:37 07.10.2019
436 Clouds 5 1013 90 0 2.91 98.713 02:19 07.10.2019
437 Clouds 5 1013 90 0 2.91 98.713 02:19 07.10.2019
438 Clouds 6 1017 85 0 3.15 94.718 01:23 07.10.2019
439 Clouds 6 1017 86 0 3.15 94.718 00:53 07.10.2019
440 Clouds 6 1014 83 0 0.89 90 00:26 07.10.2019
441 Clouds 6 1013 86 0 3.96 95.797 23:59 06.10.2019
442 Clouds 7 1014 81 0 1.34 90 23:40 06.10.2019
443 Clouds 7 1013 86 0 3.96 95.797 23:20 06.10.2019
444 Clouds 7 1014 81 0 0.89 90 22:56 06.10.2019
445 Clouds 7 1014 82 0 1.34 90 22:37 06.10.2019
446 Clouds 7 1013 82 0 0.89 90 22:19 06.10.2019
447 Clouds 7 1013 82 0 0.89 90 21:55 06.10.2019
448 Clear 8 1016 70 10000 4.6 100 21:36 06.10.2019
449 Clear 7 1016 70 10000 4.6 100 21:18 06.10.2019
450 Clear 8 1016 70 10000 4.6 100 20:55 06.10.2019
451 Clear 8 1016 70 10000 4.6 100 20:36 06.10.2019
452 Clear 8 1016 70 10000 4.6 100 20:18 06.10.2019
453 Clear 8 1016 70 10000 4.6 100 19:55 06.10.2019
454 Clear 8 1016 70 10000 5.1 110 19:36 06.10.2019
455 Clear 8 1016 75 10000 4.1 100 19:18 06.10.2019
456 Clear 8 1016 75 10000 4.1 100 18:55 06.10.2019
457 Clear 8 1016 70 10000 4.6 100 18:36 06.10.2019
458 Clear 9 1016 70 10000 5.7 110 18:18 06.10.2019
459 Clear 9 1016 70 10000 5.7 110 18:18 06.10.2019
460 Clouds 9 1016 76 10000 5.7 110 17:42 06.10.2019
461 Clouds 9 1016 76 10000 6.2 110 17:20 06.10.2019
462 Clouds 9 1016 76 10000 6.2 110 17:20 06.10.2019
463 Clouds 9 1016 76 10000 6.2 110 16:55 06.10.2019
464 Clouds 9 1017 76 10000 6.2 100 16:37 06.10.2019
465 Clouds 9 1017 81 10000 5.7 100 16:18 06.10.2019
466 Clouds 9 1017 76 10000 6.2 110 15:42 06.10.2019
467 Clouds 9 1017 81 10000 6.7 110 15:21 06.10.2019
468 Clouds 10 1018 76 10000 6.2 110 14:44 06.10.2019
469 Clouds 10 1018 76 10000 6.2 110 14:26 06.10.2019
470 Clouds 10 1018 81 10000 6.7 100 13:59 06.10.2019
471 Clouds 10 1018 81 10000 6.2 110 13:40 06.10.2019
472 Clouds 10 1018 87 10000 4.6 100 13:22 06.10.2019
473 Clouds 9 1018 87 10000 4.6 100 12:59 06.10.2019
474 Clouds 9 1019 93 10000 3.6 100 12:40 06.10.2019
475 Clouds 9 1019 93 8000 4.1 100 12:21 06.10.2019
476 Clouds 9 1019 93 8000 4.1 100 11:59 06.10.2019
477 Mist 8 1019 93 4500 3.6 110 11:40 06.10.2019
478 Mist 8 1020 93 1500 3.1 100 11:21 06.10.2019
479 Mist 8 1020 93 1500 3.1 100 10:55 06.10.2019
480 Fog 7 1020 93 800 2.6 110 10:37 06.10.2019
481 Fog 7 1020 100 550 2.6 90 10:19 06.10.2019
482 Fog 6 1020 93 400 3.1 90 09:41 06.10.2019
483 Clouds 6 1017 94 0 2.23 121.198 09:19 06.10.2019
484 Clouds 6 1017 94 0 2.23 121.198 09:19 06.10.2019
485 Fog 5 1020 93 650 3.6 100 08:48 06.10.2019
486 Fog 5 1020 93 650 3.6 100 08:48 06.10.2019
487 Clouds 4 1017 99 0 2.18 118.692 08:22 06.10.2019
488 Clouds 4 1017 96 0 2.18 118.692 07:58 06.10.2019
489 Clouds 4 1018 97 0 2.18 118.692 07:39 06.10.2019
490 Clouds 4 1016 98 0 2.18 118.692 06:49 06.10.2019
491 Clouds 4 1019 96 0 1.78 124.119 05:40 06.10.2019
492 Clouds 4 1017 98 0 1.78 124.119 04:32 06.10.2019
493 Clouds 5 1018 95 0 1.73 122.461 02:52 06.10.2019
494 Clouds 5 1018 95 0 1.73 122.461 02:29 06.10.2019
495 Clouds 5 1018 96 0 1.73 122.461 01:46 06.10.2019
496 Clouds 5 1019 95 0 1.83 116.986 01:28 06.10.2019
497 Clouds 5 1019 94 0 1.83 116.986 00:59 06.10.2019
498 Clouds 6 1017 97 0 1.83 116.986 00:31 06.10.2019
499 Clouds 6 1019 92 0 1.44 129.463 23:58 05.10.2019
500 Clouds 6 1019 91 0 1.44 129.463 23:40 05.10.2019
501 Clouds 6 1018 97 0 1.44 129.463 23:19 05.10.2019
502 Clouds 7 1021 89 0 1.44 129.463 22:54 05.10.2019
503 Clouds 7 1018 91 0 1.44 129.463 22:36 05.10.2019
504 Clouds 7 1019 95 0 1.44 129.463 22:18 05.10.2019
505 Clouds 7 1020 87 10000 1 0 21:41 05.10.2019
506 Clouds 7 1020 87 10000 1 0 21:22 05.10.2019
507 Clouds 7 1020 87 10000 1 0 20:57 05.10.2019
508 Clouds 7 1020 87 10000 1 0 20:39 05.10.2019
509 Clouds 8 1020 93 10000 1 160 20:19 05.10.2019
510 Clouds 8 1020 93 10000 1 160 19:55 05.10.2019
511 Clouds 8 1019 81 10000 4.1 90 19:36 05.10.2019
512 Clear 8 1019 66 10000 1 0 19:18 05.10.2019
513 Clouds 9 1018 71 10000 1.41 99.402 18:54 05.10.2019
514 Clouds 9 1018 71 10000 1.41 99.402 18:36 05.10.2019
515 Clouds 10 1018 66 10000 1.5 0 18:18 05.10.2019
516 Clouds 11 1017 62 10000 1 0 17:40 05.10.2019
517 Clear 11 1017 58 10000 2.6 0 17:21 05.10.2019
518 Clear 12 1017 58 10000 2.6 0 16:55 05.10.2019
519 Clouds 12 1017 58 10000 2.6 20 16:36 05.10.2019
520 Clouds 12 1017 54 10000 2.6 20 16:18 05.10.2019
521 -273 0 0 0 0 0 15:55 05.10.2019
522 Clear 12 1016 62 10000 2.6 40 15:36 05.10.2019
523 Clouds 12 1016 58 10000 3.1 10 15:18 05.10.2019
524 Clouds 11 1016 62 10000 2.6 50 14:41 05.10.2019
525 Clouds 11 1016 62 10000 2.6 50 14:41 05.10.2019
526 Clouds 11 1016 66 10000 3.1 30 14:20 05.10.2019
527 Clouds 11 1016 66 10000 2.6 10 13:43 05.10.2019
528 Clouds 11 1016 66 10000 2.6 10 13:25 05.10.2019
529 Clouds 10 1015 66 10000 3.1 10 12:58 05.10.2019
530 Clouds 10 1015 76 10000 3.1 10 12:40 05.10.2019
531 Clouds 9 1015 76 10000 2.6 0 12:18 05.10.2019
532 Clouds 9 1014 87 10000 2.6 360 11:39 05.10.2019
533 Clouds 9 1014 87 10000 2.6 360 11:20 05.10.2019
534 Clouds 9 1014 87 10000 2.6 360 10:55 05.10.2019
535 Clouds 8 1013 87 10000 2.6 350 10:37 05.10.2019
536 Clouds 8 1013 87 10000 3.1 350 10:18 05.10.2019
537 Clouds 8 1012 87 10000 1.5 0 09:40 05.10.2019
538 Clouds 8 1011 87 10000 2.1 10 09:22 05.10.2019
539 Rain 8 1009 95 0 5.17 19.554 08:42 05.10.2019
540 Rain 8 1009 95 0 5.17 19.554 08:22 05.10.2019
541 Rain 7 1009 95 0 5.17 19.554 07:59 05.10.2019
542 Rain 8 1008 95 0 5.17 19.554 07:38 05.10.2019
543 Rain 8 1008 95 0 5.17 19.554 07:19 05.10.2019
544 Rain 8 1005 10 0 5.17 19.554 06:50 05.10.2019
545 Rain 8 1004 10 0 6.18 20.886 06:18 05.10.2019
546 Rain 8 1007 92 0 6.18 20.886 04:44 05.10.2019
547 Rain 8 1000 10 0 6.18 20.886 03:30 05.10.2019
548 Rain 8 1002 96 0 4.72 23.132 02:25 05.10.2019
549 Rain 9 1001 96 0 0.45 90 01:25 05.10.2019
550 Rain 9 998 10 0 4.8 339.109 00:47 05.10.2019
551 Rain 9 999 95 0 4.8 339.109 00:27 05.10.2019
552 Rain 9 999 95 0 0.45 292 23:55 04.10.2019
553 Rain 9 999 95 0 0.45 270 23:37 04.10.2019
554 Rain 9 1003 93 10000 5.1 90 23:18 04.10.2019
555 Rain 9 1003 93 10000 5.1 90 22:41 04.10.2019
556 Rain 9 1003 93 10000 5.1 90 22:23 04.10.2019
557 Rain 9 1003 93 10000 5.1 90 21:58 04.10.2019
558 Rain 9 1003 93 10000 4.6 100 21:40 04.10.2019
559 Rain 9 1003 93 10000 6.2 100 21:22 04.10.2019
560 Rain 9 1003 93 10000 6.2 100 20:58 04.10.2019
561 Rain 9 1004 93 10000 6.2 100 20:39 04.10.2019
562 Clouds 9 1004 87 10000 5.1 100 20:21 04.10.2019
563 Clouds 9 1004 87 10000 5.1 100 19:55 04.10.2019
564 Clouds 9 1004 93 10000 4.6 100 19:37 04.10.2019
565 Clouds 9 1004 87 10000 3.6 110 19:18 04.10.2019
566 Drizzle 9 1004 87 10000 4.6 120 18:40 04.10.2019
567 Clouds 9 1004 93 10000 4.1 110 18:20 04.10.2019
568 Clouds 9 1004 93 10000 4.1 110 18:20 04.10.2019
569 Clouds 9 1004 93 10000 4.1 110 17:58 04.10.2019
570 Clouds 9 1004 87 10000 3.6 110 17:39 04.10.2019
571 Clouds 9 1005 87 10000 3.1 120 17:21 04.10.2019
572 Clouds 9 1005 87 10000 3.1 120 16:55 04.10.2019
573 Clouds 9 1005 87 10000 3.1 130 16:37 04.10.2019
574 Rain 9 1006 81 10000 3.1 130 16:18 04.10.2019
575 Rain 9 1006 81 10000 3.1 130 15:55 04.10.2019
576 Rain 9 1006 81 10000 3.1 130 15:37 04.10.2019
577 Rain 9 1006 81 10000 3.6 130 15:19 04.10.2019
578 Rain 9 1006 81 10000 3.6 130 15:19 04.10.2019
579 Rain 10 1006 81 10000 3.6 130 14:54 04.10.2019
580 -273 0 0 0 0 0 14:36 04.10.2019
581 Clouds 10 1007 76 10000 3.1 150 14:18 04.10.2019
582 Clouds 10 1007 76 10000 3.1 150 13:43 04.10.2019
583 Clouds 10 1007 81 10000 3.1 150 13:20 04.10.2019
584 Clouds 10 1008 81 10000 3.1 150 12:47 04.10.2019
585 Clouds 10 1008 81 10000 3.1 150 12:29 04.10.2019
586 Clouds 10 1008 81 10000 2.6 160 11:59 04.10.2019
587 Clouds 10 1008 81 10000 2.6 160 11:59 04.10.2019
588 Clouds 10 1008 81 10000 2.6 160 11:59 04.10.2019
589 Rain 10 1009 87 10000 2.6 130 11:41 04.10.2019
590 Rain 10 1009 87 10000 2.6 120 11:20 04.10.2019
591 Rain 9 1009 93 10000 2.6 120 10:41 04.10.2019
592 Rain 9 1009 93 8000 2.1 160 10:21 04.10.2019
593 Clear 9 1010 93 10000 2.1 120 09:48 04.10.2019
594 Clear 9 1010 93 10000 2.1 120 09:30 04.10.2019
595 Clear 9 1010 93 10000 2.1 120 08:57 04.10.2019
596 Clouds 8 1010 93 9000 2.1 120 08:38 04.10.2019
597 Clouds 8 1010 93 8000 2.1 150 08:20 04.10.2019
598 Clouds 8 1011 93 8000 1.5 100 07:45 04.10.2019
599 Clouds 8 1011 87 10000 1 0 07:22 04.10.2019
600 Clouds 8 1009 95 0 0.45 270 06:47 04.10.2019
601 Clouds 8 1009 95 0 0.45 270 06:47 04.10.2019
602 Clouds 8 1009 95 0 0.45 270 06:27 04.10.2019
603 Clouds 8 1008 10 0 1.77 187.612 05:52 04.10.2019
604 Clouds 8 1008 10 0 1.77 187.612 05:19 04.10.2019
605 Clouds 8 1011 94 0 1.77 187.612 03:50 04.10.2019
606 Clouds 8 1013 93 10000 2.1 180 02:54 04.10.2019
607 Clouds 8 1013 93 10000 2.1 180 02:54 04.10.2019
608 Clouds 8 1013 100 10000 1 0 02:18 04.10.2019
609 Clouds 9 1013 100 10000 1 0 01:42 04.10.2019
610 Clouds 8 1013 93 10000 1 100 01:23 04.10.2019
611 Rain 8 1014 97 0 2.62 223.807 00:18 04.10.2019
612 Rain 9 1013 95 0 2.62 223.807 23:37 03.10.2019
613 Rain 9 1013 94 0 2.62 223.807 23:18 03.10.2019
614 Rain 9 1013 95 0 2.62 223.807 22:57 03.10.2019
615 Rain 9 1013 95 0 2.62 223.807 22:39 03.10.2019
616 Rain 9 1012 10 0 2.62 223.807 22:21 03.10.2019
617 Rain 9 1012 10 0 2.62 223.807 22:21 03.10.2019
618 Rain 9 1013 95 0 2.62 223.807 21:56 03.10.2019
619 Clouds 9 1015 93 10000 0.5 0 21:37 03.10.2019
620 Clouds 9 1015 93 10000 0.5 0 21:19 03.10.2019
621 Clouds 10 1015 93 10000 0.5 0 20:56 03.10.2019
622 Clouds 10 1015 93 10000 0.5 0 20:56 03.10.2019
623 Clouds 10 1015 93 10000 0.5 0 20:37 03.10.2019
624 Clouds 10 1015 93 10000 0.5 0 20:37 03.10.2019
625 Clouds 10 1014 93 10000 2.1 260 20:19 03.10.2019
626 -273 0 0 0 0 0 19:55 03.10.2019
627 Clouds 10 1014 93 10000 1.5 270 19:36 03.10.2019
628 Clear 10 1014 87 10000 3.1 250 19:18 03.10.2019
629 Clouds 11 1014 81 10000 2.6 270 18:40 03.10.2019
630 Clear 12 1014 81 10000 3.1 280 18:19 03.10.2019
631 Clear 11 1014 81 10000 3.1 280 17:59 03.10.2019
632 Clouds 12 1014 81 10000 3.1 290 17:41 03.10.2019
633 Rain 12 1014 81 10000 3.6 290 17:20 03.10.2019
634 Rain 12 1014 81 10000 3.6 290 16:54 03.10.2019
635 Rain 12 1014 82 10000 2.6 310 16:36 03.10.2019
636 Rain 12 1014 87 10000 3.1 300 16:18 03.10.2019
637 Rain 13 1014 76 8000 4.6 290 15:41 03.10.2019
638 Clouds 12 1014 71 10000 5.7 280 15:23 03.10.2019
639 Clouds 12 1014 71 10000 5.7 280 14:54 03.10.2019
640 Clouds 12 1014 81 10000 5.7 280 14:36 03.10.2019
641 Clouds 12 1014 76 10000 4.1 290 14:18 03.10.2019
642 Rain 12 1014 81 10000 4.6 280 13:41 03.10.2019
643 Rain 12 1014 71 10000 4.1 310 13:22 03.10.2019
644 Rain 12 1014 71 10000 4.1 310 12:58 03.10.2019
645 Clouds 11 1014 71 10000 4.6 300 12:39 03.10.2019
646 Clouds 11 1014 71 10000 4.6 300 12:39 03.10.2019
647 Clouds 11 1014 76 10000 5.1 320 12:19 03.10.2019
648 Clouds 11 1014 76 10000 5.1 320 12:19 03.10.2019
649 -273 0 0 0 0 0 11:56 03.10.2019
650 Clouds 11 1014 76 10000 5.1 320 11:56 03.10.2019
651 Clouds 11 1014 76 10000 5.1 320 11:56 03.10.2019
652 Clouds 11 1014 76 10000 5.1 320 11:37 03.10.2019
653 Clouds 11 1014 76 10000 4.6 320 11:19 03.10.2019
654 Clouds 10 1014 76 10000 6.2 310 10:41 03.10.2019
655 Clouds 10 1014 81 10000 5.1 300 10:19 03.10.2019
656 Clouds 10 1014 81 10000 5.1 300 09:59 03.10.2019
657 Clouds 10 1013 87 10000 5.1 300 09:40 03.10.2019
658 Clouds 10 1013 93 10000 4.6 290 09:22 03.10.2019
659 Clouds 10 1013 93 10000 4.6 290 09:00 03.10.2019
660 Clouds 9 1013 93 10000 4.1 290 08:40 03.10.2019
661 Clouds 9 1013 93 10000 4.6 300 08:22 03.10.2019
662 Rain 9 1012 94 0 4.7 283.361 07:41 03.10.2019
663 Rain 9 1012 94 0 4.7 283.361 07:41 03.10.2019
664 Rain 9 1012 94 0 4.7 283.361 07:41 03.10.2019
665 Rain 9 1013 97 0 2.24 286 07:20 03.10.2019
666 Rain 9 1012 94 0 4.7 283.361 06:52 03.10.2019
667 Rain 9 1012 94 0 4.7 283.361 06:26 03.10.2019
668 Rain 9 1012 97 0 1.79 295 05:47 03.10.2019
669 Rain 9 1011 94 0 6.73 286.371 05:25 03.10.2019
670 Rain 9 1011 94 0 6.73 286.371 04:39 03.10.2019
671 Rain 9 1012 96 0 3.58 239 03:30 03.10.2019
672 Rain 9 1010 94 0 0.89 270 02:45 03.10.2019
673 Rain 9 1011 94 0 0.45 270 02:20 03.10.2019
674 Rain 9 1010 92 0 0.45 270 01:37 03.10.2019
675 Rain 9 1010 92 0 0.89 270 00:52 03.10.2019
676 Rain 9 1010 91 0 0.89 270 00:28 03.10.2019
677 Clear 9 1010 87 0 0.89 270 23:44 02.10.2019
678 Clear 9 1010 81 10000 5.1 250 23:24 02.10.2019
679 Clear 9 1010 81 10000 5.1 250 22:57 02.10.2019
680 Clear 8 1010 81 10000 5.1 250 22:38 02.10.2019
681 Clear 8 1010 81 10000 5.1 250 22:18 02.10.2019
682 Clear 8 1010 81 10000 5.1 250 21:55 02.10.2019
683 Clear 8 1010 81 10000 5.1 250 21:54 02.10.2019
684 -273 0 0 0 0 0 21:54 02.10.2019
685 -273 0 0 0 0 0 21:54 02.10.2019
686 Clear 8 1010 81 10000 5.1 250 21:54 02.10.2019
687 Clear 8 1009 76 10000 5.1 260 21:36 02.10.2019
688 Clear 8 1009 76 10000 4.1 260 21:18 02.10.2019
689 Clear 8 1009 76 10000 3.6 260 20:54 02.10.2019
690 Clear 8 1009 76 10000 3.6 260 20:36 02.10.2019
691 Clear 8 1009 76 10000 3.6 250 20:18 02.10.2019
692 Clear 8 1009 76 10000 3.6 250 20:18 02.10.2019
693 Clear 8 1009 76 10000 3.1 250 19:42 02.10.2019
694 Clear 9 1009 76 10000 4.1 270 19:21 02.10.2019
695 Clear 9 1009 76 10000 4.1 270 18:57 02.10.2019
696 Clouds 10 1009 71 10000 4.6 270 18:38 02.10.2019
697 Clouds 10 1009 71 10000 4.1 270 18:20 02.10.2019
698 Clouds 10 1009 71 10000 4.1 270 17:56 02.10.2019
699 Clouds 10 1009 71 10000 6.2 290 17:37 02.10.2019
700 Rain 11 1008 71 10000 5.7 290 17:19 02.10.2019
701 Clouds 11 1008 62 10000 5.7 290 16:42 02.10.2019
702 Clouds 12 1008 62 10000 5.7 290 16:22 02.10.2019
703 Clear 13 1007 58 10000 5.1 280 15:59 02.10.2019
704 Clouds 12 1007 71 10000 3.1 280 15:40 02.10.2019
705 Clouds 12 1007 71 10000 3.1 280 15:22 02.10.2019
706 Clouds 12 1007 71 10000 3.1 280 15:22 02.10.2019
707 Rain 12 1007 71 10000 8.2 300 14:57 02.10.2019
708 Clouds 12 1007 58 10000 4.6 320 14:39 02.10.2019
709 Clouds 12 1007 58 10000 4.6 320 14:39 02.10.2019
710 Clouds 12 1007 58 10000 4.6 320 14:20 02.10.2019
711 Clouds 12 1007 66 10000 5.1 290 13:45 02.10.2019
712 Clouds 12 1007 71 10000 5.7 290 13:25 02.10.2019
713 Clouds 12 1006 71 10000 5.1 300 12:58 02.10.2019
714 Clouds 11 1006 76 10000 5.7 300 12:38 02.10.2019
715 Clouds 11 1006 76 10000 5.7 300 12:20 02.10.2019
716 Clouds 11 1006 76 10000 5.1 280 11:44 02.10.2019
717 Clouds 10 1006 87 10000 4.1 290 11:23 02.10.2019
718 Clouds 9 1005 87 10000 4.1 290 10:42 02.10.2019
719 Clouds 8 1005 93 10000 3.1 290 10:20 02.10.2019
720 Clouds 8 1004 93 10000 3.6 280 09:59 02.10.2019
721 Clouds 8 1004 93 10000 3.1 280 09:38 02.10.2019
722 Clouds 8 1004 93 10000 3.1 280 09:20 02.10.2019
723 Clear 8 1003 93 10000 2.1 270 08:45 02.10.2019
724 Clear 8 1003 87 10000 1.5 290 08:25 02.10.2019
725 Clouds 7 1002 93 10000 1 0 07:59 02.10.2019
726 Rain 7 1002 87 10000 1.5 0 07:39 02.10.2019
727 Rain 7 1002 87 10000 1.5 0 07:20 02.10.2019
728 Rain 7 1002 87 10000 1.5 0 07:20 02.10.2019
729 Rain 7 1000 95 0 4.25 337.67 06:40 02.10.2019
730 Rain 9 999 94 0 0.45 90 05:55 02.10.2019
731 Rain 9 999 94 0 0.45 90 05:55 02.10.2019
732 Rain 10 1000 92 0 6.62 0.623 05:24 02.10.2019
733 Rain 10 994 99 0 6.62 0.623 04:53 02.10.2019
734 Rain 11 994 99 0 6.62 0.623 03:52 02.10.2019
735 Rain 13 997 89 0 2.78 219.239 02:42 02.10.2019
736 Rain 13 1000 10 0 2.78 219.239 02:23 02.10.2019
737 Rain 14 997 91 0 0.45 225 01:40 02.10.2019
738 Rain 14 996 95 0 2.53 265.937 00:50 02.10.2019
739 Rain 14 997 91 0 0.45 292 00:26 02.10.2019
740 Rain 14 999 90 0 3.32 237.09 23:43 01.10.2019
741 Rain 14 998 90 0 0.45 270 23:25 01.10.2019
742 Clouds 15 999 77 10000 4.6 250 22:59 01.10.2019
743 Clouds 15 999 77 10000 4.6 250 22:40 01.10.2019
744 Clouds 15 999 77 10000 4.6 250 22:19 01.10.2019
745 Clouds 15 999 77 10000 4.6 250 22:19 01.10.2019
746 Clouds 15 998 77 10000 4.1 250 21:57 01.10.2019
747 Clouds 15 998 77 10000 3.6 240 21:38 01.10.2019
748 Clouds 15 998 77 10000 3.6 240 21:20 01.10.2019
749 Clouds 16 998 77 10000 2.6 250 20:56 01.10.2019
750 Clouds 16 998 77 10000 3.6 240 20:37 01.10.2019
751 Clouds 16 998 77 10000 3.6 240 20:19 01.10.2019
752 Clouds 16 998 77 10000 3.6 250 19:56 01.10.2019
753 Clouds 16 998 72 10000 5.7 260 19:38 01.10.2019
754 Clouds 16 998 72 10000 5.7 260 19:18 01.10.2019
755 Clouds 17 998 72 10000 6.2 260 18:40 01.10.2019
756 Clouds 17 998 72 10000 6.2 260 18:22 01.10.2019
757 Clouds 17 998 72 10000 6.7 250 17:58 01.10.2019
758 Clouds 17 998 72 10000 6.2 250 17:40 01.10.2019
759 Clouds 17 998 72 10000 6.2 250 17:19 01.10.2019
760 Clouds 17 998 72 10000 6.2 250 16:57 01.10.2019
761 Clouds 17 998 77 10000 6.2 260 16:39 01.10.2019
762 Clouds 18 998 77 10000 6.2 260 16:21 01.10.2019
763 Clouds 18 998 77 10000 7.2 240 15:46 01.10.2019
764 Clouds 17 998 82 10000 6.2 240 15:23 01.10.2019
765 Clouds 16 998 87 10000 6.2 240 14:55 01.10.2019
766 Clouds 16 998 87 10000 6.2 230 14:37 01.10.2019
767 Clouds 16 998 87 10000 6.2 230 14:18 01.10.2019
768 Clouds 15 999 87 10000 5.7 230 13:40 01.10.2019
769 Clouds 15 999 87 10000 5.7 230 13:21 01.10.2019
770 Rain 15 999 93 10000 6.2 230 12:59 01.10.2019
771 Clouds 14 999 93 10000 5.7 230 12:41 01.10.2019
772 Clouds 14 999 93 10000 5.7 230 12:20 01.10.2019
773 Clouds 14 999 93 10000 5.1 220 11:58 01.10.2019
774 Drizzle 14 999 87 10000 4.6 230 11:38 01.10.2019
775 Drizzle 14 999 87 10000 4.6 230 11:19 01.10.2019
776 Drizzle 14 1000 93 10000 3.6 230 10:58 01.10.2019
777 Drizzle 14 1000 93 10000 3.1 210 10:40 01.10.2019
778 Drizzle 14 1000 93 10000 3.1 210 10:22 01.10.2019
779 Drizzle 13 1000 87 10000 2.1 220 09:42 01.10.2019
780 Rain 13 1000 93 5000 2.1 200 09:21 01.10.2019
781 Rain 13 1001 93 10000 2.1 150 08:43 01.10.2019
782 Rain 13 1001 93 10000 2.1 150 08:43 01.10.2019
783 Rain 13 1001 93 5000 2.1 120 08:25 01.10.2019
784 Rain 12 1002 93 4800 1 0 07:49 01.10.2019
785 Rain 12 1002 87 10000 2.1 130 07:25 01.10.2019
786 Rain 12 1002 87 10000 2.1 130 07:25 01.10.2019
787 Rain 12 1000 93 0 1.79 292 06:50 01.10.2019
788 Rain 12 1003 90 0 3.53 209.097 06:23 01.10.2019
789 Rain 12 1002 89 0 1.79 292 05:46 01.10.2019
790 Rain 12 1003 90 0 1.34 270 05:19 01.10.2019
791 Rain 12 1006 89 0 3.53 209.097 04:34 01.10.2019
792 Rain 12 1005 86 0 1.34 292 03:25 01.10.2019
793 Clouds 11 1005 97 0 3.57 208.217 02:18 01.10.2019
794 Clear 11 1007 88 0 0.45 292 01:28 01.10.2019
795 Clear 11 1008 90 0 0.89 292 00:40 01.10.2019
796 Clouds 11 1007 96 0 4.37 227.485 00:22 01.10.2019
797 Clouds 11 1008 90 0 4.37 227.485 23:41 30.09.2019
798 Clouds 11 1008 90 0 4.37 227.485 23:41 30.09.2019
799 Clouds 11 1008 90 0 4.37 227.485 23:41 30.09.2019
800 Clear 11 1009 76 10000 4.6 260 23:22 30.09.2019
801 Clouds 11 1007 95 0 4.37 227.485 22:45 30.09.2019
802 Clouds 11 1009 90 0 4.37 227.485 22:26 30.09.2019
803 Clouds 12 1009 71 10000 4.6 260 21:58 30.09.2019
804 Clear 12 1009 67 10000 6.2 280 21:39 30.09.2019
805 Clear 13 1009 67 10000 6.2 280 21:20 30.09.2019
806 Clear 13 1009 67 10000 6.2 280 20:58 30.09.2019
807 Clear 13 1008 67 10000 5.1 270 20:39 30.09.2019
808 Clear 13 1008 67 10000 5.1 270 20:21 30.09.2019
809 Clear 13 1008 67 10000 5.7 270 19:58 30.09.2019
810 Clear 13 1008 71 10000 6.7 280 19:40 30.09.2019
811 Clear 13 1008 71 10000 6.7 280 19:20 30.09.2019
812 Clouds 14 1008 67 10000 8.2 270 18:58 30.09.2019
813 Clouds 14 1007 63 10000 8.2 280 18:40 30.09.2019
814 Clouds 15 1007 63 10000 8.2 280 18:20 30.09.2019
815 -273 0 0 0 0 0 17:55 30.09.2019
816 Clear 15 1007 59 10000 9.8 270 17:36 30.09.2019
817 Clear 15 1007 59 10000 9.8 270 17:18 30.09.2019
818 Clouds 16 1007 55 10000 9.8 280 16:41 30.09.2019
819 Clouds 16 1007 55 10000 9.8 280 16:41 30.09.2019
820 Clouds 16 1006 59 10000 8.2 280 16:20 30.09.2019
821 Clouds 16 1006 59 10000 8.2 280 16:20 30.09.2019
822 Clouds 15 1006 63 10000 9.3 290 15:59 30.09.2019
823 Clouds 15 1006 63 10000 9.3 290 15:59 30.09.2019
824 Clouds 16 1006 67 10000 8.2 280 15:38 30.09.2019
825 Clouds 16 1006 67 10000 8.2 280 15:19 30.09.2019
826 Clouds 16 1005 63 10000 10.8 290 14:58 30.09.2019
827 Clouds 16 1005 72 10000 9.3 280 14:38 30.09.2019
828 Clouds 16 1005 72 10000 9.3 280 14:19 30.09.2019
829 Clouds 16 1005 67 10000 9.3 280 13:59 30.09.2019
830 Clouds 16 1005 67 10000 9.3 280 13:40 30.09.2019
831 Clouds 15 1005 76 10000 9.3 280 13:21 30.09.2019
832 Clouds 15 1004 82 10000 8.2 270 12:44 30.09.2019
833 Clouds 14 1003 76 10000 9.3 280 12:25 30.09.2019
834 Clouds 14 1002 76 10000 9.8 280 11:59 30.09.2019
835 Clouds 14 1002 76 10000 9.8 280 11:59 30.09.2019
836 Clouds 14 1002 76 10000 9.8 280 11:40 30.09.2019
837 Clouds 14 1002 76 10000 9.8 280 11:21 30.09.2019
838 Rain 13 1001 82 10000 9.8 280 10:56 30.09.2019
839 Clouds 13 1000 82 10000 9.3 290 10:37 30.09.2019
840 Clouds 13 1000 82 10000 9.3 290 10:18 30.09.2019
841 Clouds 13 999 87 10000 9.8 290 09:40 30.09.2019
842 Rain 13 998 87 10000 10.3 280 09:22 30.09.2019
843 Clouds 13 997 87 10000 12.3 280 08:52 30.09.2019
844 Drizzle 13 995 93 6000 12.3 280 08:34 30.09.2019
845 Rain 13 998 87 0 2.68 270 07:59 30.09.2019
846 Drizzle 13 992 82 7000 10.8 250 07:40 30.09.2019
847 Drizzle 13 992 82 7000 10.8 250 07:40 30.09.2019
848 Drizzle 13 992 82 7000 10.8 250 07:18 30.09.2019
849 Rain 14 995 86 0 2.24 292 06:42 30.09.2019
850 Rain 14 997 95 0 4.92 267 06:23 30.09.2019
851 Rain 14 994 92 0 3.13 292 05:40 30.09.2019
852 Rain 15 995 92 0 9.83 249.163 02:53 30.09.2019
853 Rain 15 992 91 0 2.24 270 02:25 30.09.2019
854 Rain 15 991 97 0 9.02 242.719 01:31 30.09.2019
855 Rain 15 992 95 0 1.79 292 00:38 30.09.2019
856 Rain 15 992 94 0 1.34 292 00:19 30.09.2019
857 Rain 15 995 92 0 1.79 229 23:42 29.09.2019
858 Rain 15 992 89 0 0.89 292 23:21 29.09.2019
859 Rain 16 993 92 0 2.68 270 22:55 29.09.2019
860 Rain 16 994 90 0 2.24 292 22:36 29.09.2019
861 Rain 16 994 90 0 2.24 292 22:36 29.09.2019
862 Rain 16 995 87 10000 5.7 220 22:18 29.09.2019
863 Rain 16 995 87 10000 5.7 220 21:56 29.09.2019
864 Rain 16 995 87 10000 5.7 220 21:36 29.09.2019
865 Rain 16 995 87 10000 5.7 220 21:18 29.09.2019
866 Clouds 16 996 77 10000 5.1 230 20:43 29.09.2019
867 Clouds 16 996 77 10000 5.7 240 20:20 29.09.2019
868 Clouds 16 996 77 10000 5.1 230 19:58 29.09.2019
869 Drizzle 16 997 77 10000 7.2 240 19:37 29.09.2019
870 Drizzle 16 997 77 10000 7.2 240 19:19 29.09.2019
871 Drizzle 16 997 72 10000 6.7 230 18:55 29.09.2019
872 Drizzle 16 997 72 10000 6.7 230 18:55 29.09.2019
873 Clouds 16 997 77 10000 5.7 240 18:37 29.09.2019
874 Clouds 16 997 77 10000 5.7 240 18:37 29.09.2019
875 Clouds 16 997 77 10000 5.7 240 18:19 29.09.2019
876 Drizzle 16 998 82 10000 6.2 230 17:56 29.09.2019
877 Drizzle 16 998 82 10000 6.2 230 17:38 29.09.2019
878 Drizzle 16 998 82 10000 6.2 230 17:19 29.09.2019
879 Drizzle 16 999 72 10000 5.7 230 16:57 29.09.2019
880 Clouds 16 999 72 10000 7.2 240 16:39 29.09.2019
881 Clouds 16 999 72 10000 7.2 240 16:19 29.09.2019
882 Clouds 17 999 68 10000 5.1 230 15:41 29.09.2019
883 Clouds 16 1000 77 10000 4.1 210 15:20 29.09.2019
884 Clouds 17 1000 77 10000 4.1 220 14:59 29.09.2019
885 Clouds 16 1000 77 10000 4.1 220 14:40 29.09.2019
886 Clouds 15 1001 77 10000 4.1 200 14:20 29.09.2019
887 Drizzle 15 1001 77 10000 3.1 200 13:58 29.09.2019
888 Drizzle 15 1001 77 10000 3.1 200 13:40 29.09.2019
889 Rain 16 1002 82 10000 2.6 180 13:19 29.09.2019
890 Drizzle 16 1003 82 10000 2.6 200 12:58 29.09.2019
891 Clouds 15 1003 87 10000 2.6 160 12:39 29.09.2019
892 Clouds 15 1003 87 10000 2.6 160 12:21 29.09.2019
893 Rain 15 1004 87 10000 3.6 180 11:57 29.09.2019
894 Rain 15 1004 93 10000 2.6 150 11:38 29.09.2019
895 Rain 15 1004 93 10000 2.6 150 11:18 29.09.2019
896 Rain 14 1005 93 10000 2.6 150 10:56 29.09.2019
897 Rain 14 1005 87 10000 2.1 160 10:36 29.09.2019
898 Rain 14 1005 87 10000 2.1 160 10:18 29.09.2019
899 Rain 14 1006 87 10000 3.6 210 09:44 29.09.2019
900 Rain 13 1006 87 10000 3.6 210 09:21 29.09.2019
901 Rain 13 1004 89 0 0.89 292 08:58 29.09.2019
902 Rain 13 1004 89 0 0.45 225 08:38 29.09.2019
903 Rain 13 1007 93 0 4.49 210.441 08:18 29.09.2019
904 Rain 13 1005 90 0 1.34 292 07:41 29.09.2019
905 Rain 13 1005 90 0 1.34 292 07:41 29.09.2019
906 Rain 13 1007 91 0 4.49 210.441 07:23 29.09.2019
907 Rain 13 1006 87 0 0.45 292 06:42 29.09.2019
908 Clouds 13 1009 88 0 4.55 218.106 05:23 29.09.2019
909 Clouds 13 1010 93 0 4.55 218.106 04:38 29.09.2019
910 Clouds 14 1007 88 0 1.79 270 04:18 29.09.2019
911 Clouds 14 1008 87 0 1.79 292 02:47 29.09.2019
912 Clouds 14 1008 88 0 6.12 229.81 02:18 29.09.2019
913 Clouds 14 1009 86 0 1.79 270 01:32 29.09.2019
914 Clouds 14 1009 86 0 1.79 270 00:52 29.09.2019
915 Clouds 14 1009 87 0 1.79 270 00:21 29.09.2019
916 Clouds 14 1012 88 0 7.09 234.961 23:43 28.09.2019
917 Clouds 14 1009 88 0 1.34 292 23:23 28.09.2019
918 Clouds 14 1009 88 0 1.34 270 22:59 28.09.2019
919 Clouds 14 1009 89 0 1.79 292 22:38 28.09.2019
920 Clouds 14 1009 89 0 1.79 292 22:38 28.09.2019
921 Clouds 14 1010 77 10000 5.1 240 22:20 28.09.2019
922 Clouds 14 1010 77 10000 5.1 240 21:57 28.09.2019
923 Clouds 14 1010 77 10000 5.1 240 21:38 28.09.2019
924 Clouds 14 1010 77 10000 5.1 240 21:38 28.09.2019
925 Clouds 14 1010 77 10000 5.1 240 21:20 28.09.2019
926 Clouds 14 1010 77 10000 4.6 230 20:57 28.09.2019
927 Clouds 14 1009 77 10000 3.6 240 20:38 28.09.2019
928 Clouds 14 1009 77 10000 3.6 240 20:18 28.09.2019
929 Clouds 14 1009 77 10000 3.6 240 20:18 28.09.2019
930 Clouds 14 1009 82 10000 3.1 230 19:56 28.09.2019
931 Clouds 14 1009 82 10000 3.1 230 19:56 28.09.2019
932 Clouds 15 1009 82 10000 2.6 250 19:37 28.09.2019
933 Clouds 15 1009 82 10000 2.6 250 19:19 28.09.2019
934 Clear 15 1009 77 10000 3.6 250 18:54 28.09.2019
935 Clear 16 1009 82 10000 4.1 260 18:36 28.09.2019
936 Clear 16 1009 82 10000 4.1 260 18:18 28.09.2019
937 Clear 16 1010 77 10000 4.6 240 17:42 28.09.2019
938 Rain 16 1010 77 10000 5.1 270 17:22 28.09.2019
939 Rain 16 1010 77 10000 5.1 270 17:22 28.09.2019
940 Clear 17 1010 72 10000 5.1 260 16:57 28.09.2019
941 Clouds 17 1010 82 10000 4.6 260 16:38 28.09.2019
942 Clouds 16 1010 82 10000 4.6 260 16:20 28.09.2019
943 Drizzle 16 1010 87 7000 6.7 280 15:41 28.09.2019
944 Clouds 16 1010 72 10000 9.3 250 15:22 28.09.2019
945 Clouds 17 1010 63 10000 7.2 250 14:56 28.09.2019
946 Clouds 18 1010 68 10000 7.2 240 14:38 28.09.2019
947 Clouds 18 1010 68 10000 7.2 240 14:19 28.09.2019
948 Clouds 17 1010 72 10000 5.7 250 13:56 28.09.2019
949 Clouds 17 1010 72 10000 6.7 250 13:37 28.09.2019
950 Clouds 17 1010 72 10000 6.7 250 13:19 28.09.2019
951 Clouds 16 1010 82 10000 7.2 250 12:40 28.09.2019
952 Clouds 16 1010 82 10000 7.2 250 12:40 28.09.2019
953 Clouds 16 1010 82 10000 7.2 250 12:19 28.09.2019
954 Clouds 16 1010 77 10000 6.2 240 11:54 28.09.2019
955 Clouds 16 1010 82 10000 5.7 240 11:36 28.09.2019
956 Clouds 16 1010 82 10000 5.7 240 11:18 28.09.2019
957 Clouds 15 1010 77 10000 4.6 230 10:40 28.09.2019
958 Clouds 15 1010 77 10000 4.6 230 10:20 28.09.2019
959 Clouds 15 1009 82 10000 5.1 220 09:42 28.09.2019
960 Rain 14 1009 77 10000 5.1 230 09:23 28.09.2019
961 Clouds 14 1009 88 0 1.34 292 08:58 28.09.2019
962 Clouds 14 1009 88 0 1.34 292 08:58 28.09.2019
963 Rain 14 1009 89 0 0.89 270 08:40 28.09.2019
964 Rain 14 1009 90 0 0.45 270 08:22 28.09.2019
965 Rain 14 1012 96 0 4.8 219.712 07:44 28.09.2019
966 Rain 14 1008 91 0 0.45 292 07:20 28.09.2019
967 Rain 14 1008 91 0 0.89 270 06:53 28.09.2019
968 Rain 14 1008 91 0 0.89 270 06:31 28.09.2019
969 Rain 14 1011 88 0 4.59 210.625 05:43 28.09.2019
970 Rain 14 1008 91 0 0.45 292 05:20 28.09.2019
971 Rain 14 1008 91 0 0.45 292 04:38 28.09.2019
972 Rain 14 1009 90 0 0.45 270 03:49 28.09.2019
973 Clouds 14 1008 90 0 0.89 292 03:21 28.09.2019
974 Clouds 14 1009 90 0 0.45 270 02:45 28.09.2019
975 Clouds 14 1009 90 0 0.45 292 02:27 28.09.2019
976 Clouds 13 1008 91 0 0.89 292 01:48 28.09.2019
977 Clear 13 1008 91 0 0.89 270 01:26 28.09.2019
978 Clear 13 1008 90 0 0.45 292 00:52 28.09.2019
979 Clear 13 1010 96 0 4.14 205.167 00:31 28.09.2019
980 Clear 13 1008 89 0 0.45 292 23:58 27.09.2019
981 Clear 13 1008 90 0 0.45 292 23:36 27.09.2019
982 Clear 13 1009 87 10000 2.1 170 23:18 27.09.2019
983 Clear 13 1009 87 10000 2.1 170 22:44 27.09.2019
984 Clear 13 1009 87 10000 2.1 170 22:19 27.09.2019
985 Clear 13 1009 87 10000 2.1 180 21:56 27.09.2019
986 Clear 13 1009 87 10000 2.1 170 21:37 27.09.2019
987 Clear 13 1009 87 10000 2.1 170 21:18 27.09.2019
988 Clear 13 1008 87 10000 1.5 0 20:55 27.09.2019
989 Clear 14 1008 87 10000 1 190 20:37 27.09.2019
990 Clear 14 1008 87 10000 1 190 20:18 27.09.2019
991 Clear 15 1008 77 10000 1.5 0 19:43 27.09.2019
992 Clear 15 1008 67 10000 3.1 250 19:23 27.09.2019
993 Clouds 16 1008 63 10000 4.1 250 18:59 27.09.2019
994 Clear 16 1008 59 10000 4.6 250 18:40 27.09.2019
995 Clear 17 1008 59 10000 4.6 250 18:21 27.09.2019
996 Clouds 17 1008 68 10000 2.6 220 17:55 27.09.2019
997 Clouds 18 1008 63 10000 3.6 240 17:37 27.09.2019
998 Clouds 18 1008 63 10000 3.6 240 17:18 27.09.2019
999 -273 0 0 0 0 0 16:54 27.09.2019
1000 Clouds 18 1008 63 10000 3.6 260 16:36 27.09.2019
1001 Clouds 19 1008 63 10000 3.6 260 16:18 27.09.2019
1002 Clouds 18 1008 77 10000 3.6 250 15:43 27.09.2019
1003 Clouds 18 1008 72 10000 4.6 250 15:20 27.09.2019
1004 Clouds 17 1008 77 10000 3.6 240 14:56 27.09.2019
1005 Clouds 17 1008 82 10000 3.6 230 14:38 27.09.2019
1006 Clouds 17 1008 82 10000 3.6 230 14:38 27.09.2019
1007 Clouds 16 1008 82 10000 3.6 230 14:18 27.09.2019
1008 Clouds 16 1008 87 10000 3.6 240 13:57 27.09.2019
1009 Clouds 16 1009 87 10000 4.1 230 13:38 27.09.2019
1010 Clouds 16 1009 87 10000 4.1 230 13:19 27.09.2019
1011 Clouds 15 1008 87 10000 3.6 220 12:44 27.09.2019
1012 Rain 15 1009 87 10000 3.6 230 12:22 27.09.2019
1013 Clouds 14 1009 87 10000 3.6 250 11:55 27.09.2019
1014 Clouds 14 1009 93 10000 2.6 0 11:37 27.09.2019
1015 Clouds 14 1009 93 10000 2.6 0 11:19 27.09.2019
1016 Rain 14 1009 93 10000 2.1 210 10:41 27.09.2019
1017 Rain 14 1009 87 10000 2.1 200 10:21 27.09.2019
1018 Rain 14 1009 93 10000 2.1 240 09:56 27.09.2019
1019 Rain 14 1009 93 10000 2.1 240 09:56 27.09.2019
1020 Clouds 14 1009 93 10000 2.6 250 09:37 27.09.2019
1021 Clouds 14 1009 93 10000 2.6 250 09:18 27.09.2019
1022 Clouds 14 1008 87 10000 2.6 230 08:41 27.09.2019
1023 Clouds 14 1008 87 10000 3.6 230 08:20 27.09.2019
1024 Clouds 14 1008 87 10000 1.5 220 07:49 27.09.2019
1025 Clouds 14 1008 87 10000 3.6 240 07:24 27.09.2019
1026 Rain 14 1007 96 0 2.25 209.751 06:46 27.09.2019
1027 Rain 14 1007 96 0 2.25 209.751 06:46 27.09.2019
1028 Rain 14 1007 96 0 2.25 209.751 06:27 27.09.2019
1029 Rain 15 1006 10 0 3.43 229.711 05:52 27.09.2019
1030 Rain 15 1009 98 0 3.43 229.711 05:33 27.09.2019
1031 Rain 16 1007 95 0 0.45 270 03:59 27.09.2019
1032 Rain 16 1008 95 0 0.89 292 03:38 27.09.2019
1033 Rain 16 1010 93 0 3.33 219.426 01:53 27.09.2019
1034 Rain 16 1008 94 0 0.45 270 01:30 27.09.2019
1035 Rain 16 1008 93 0 0.45 292 00:40 27.09.2019
1036 Rain 16 1008 93 0 0.45 292 23:57 26.09.2019
1037 Rain 16 1009 94 0 0.45 292 23:39 26.09.2019
1038 Clouds 16 1010 93 10000 2.6 130 23:19 26.09.2019
1039 Clouds 16 1010 93 10000 2.6 130 22:58 26.09.2019
1040 Clouds 16 1010 93 10000 2.6 130 22:39 26.09.2019
1041 Clouds 16 1010 93 10000 2.6 130 22:18 26.09.2019
1042 Clouds 16 1010 93 10000 2.6 140 21:58 26.09.2019
1043 Clouds 16 1010 93 10000 2.1 150 21:38 26.09.2019
1044 Clouds 16 1010 93 10000 2.1 150 21:19 26.09.2019
1045 Clouds 16 1010 93 10000 2.1 150 21:19 26.09.2019
1046 Clear 16 1010 93 10000 2.6 140 20:58 26.09.2019
1047 Clouds 16 1010 93 10000 2.6 150 20:39 26.09.2019
1048 Clouds 16 1010 93 10000 2.6 150 20:21 26.09.2019
1049 Drizzle 16 1010 87 10000 2.1 150 19:58 26.09.2019
1050 Drizzle 16 1010 87 10000 2.1 190 19:39 26.09.2019
1051 Drizzle 16 1010 87 10000 2.1 190 19:18 26.09.2019
1052 Drizzle 16 1010 87 10000 2.6 210 18:54 26.09.2019
1053 Drizzle 16 1010 77 10000 2.6 200 18:36 26.09.2019
1054 Drizzle 16 1010 77 10000 2.6 200 18:18 26.09.2019
1055 Clouds 17 1010 68 10000 3.6 220 17:38 26.09.2019
1056 Clouds 17 1010 68 10000 3.6 220 17:38 26.09.2019
1057 Clouds 17 1010 68 10000 3.6 220 17:19 26.09.2019
1058 Clouds 17 1010 63 10000 4.1 200 16:56 26.09.2019
1059 Clouds 17 1010 63 10000 4.1 220 16:37 26.09.2019
1060 Clouds 18 1010 63 10000 4.1 220 16:19 26.09.2019
1061 Clouds 18 1010 63 10000 4.1 230 15:56 26.09.2019
1062 Clouds 18 1010 63 10000 4.1 220 15:36 26.09.2019
1063 Clouds 18 1010 63 10000 4.1 220 15:18 26.09.2019
1064 Clouds 18 1010 63 10000 4.1 210 14:41 26.09.2019
1065 Clouds 19 1010 68 10000 4.6 220 14:22 26.09.2019
1066 Clouds 18 1010 68 10000 3.6 200 13:58 26.09.2019
1067 Clouds 19 1010 72 10000 4.1 210 13:40 26.09.2019
1068 Clouds 18 1010 72 10000 4.1 210 13:19 26.09.2019
1069 Clouds 18 1010 72 10000 4.1 210 13:19 26.09.2019
1070 Clouds 18 1010 72 10000 4.6 220 12:56 26.09.2019
1071 Clouds 18 1010 77 10000 4.6 220 12:38 26.09.2019
1072 Clouds 18 1010 77 10000 4.6 220 12:19 26.09.2019
1073 Clouds 17 1010 87 10000 2.1 200 11:42 26.09.2019
1074 Clouds 17 1010 87 10000 2.1 200 11:21 26.09.2019
1075 Clouds 16 1010 93 10000 2.1 190 10:43 26.09.2019
1076 Clear 15 1009 93 10000 2.1 180 10:25 26.09.2019
1077 Clear 15 1009 93 10000 2.1 180 09:59 26.09.2019
1078 Clear 15 1009 93 10000 2.1 180 09:41 26.09.2019
1079 Clouds 14 1009 93 10000 1.5 0 09:23 26.09.2019
1080 Clouds 14 1009 93 10000 1.5 0 08:54 26.09.2019
1081 Clouds 14 1009 93 10000 2.1 170 08:32 26.09.2019
1082 Drizzle 13 1009 93 8000 1.5 150 07:59 26.09.2019
1083 Drizzle 13 1009 93 8000 1.5 150 07:41 26.09.2019
1084 Clouds 13 1009 97 0 2.71 206.575 07:20 26.09.2019
1085 Clouds 13 1007 95 0 2.71 206.575 06:43 26.09.2019
1086 Clear 13 1009 93 0 2.87 209.378 06:24 26.09.2019
1087 Clear 13 1007 94 0 2.87 209.378 05:40 26.09.2019
1088 Clear 13 1007 94 0 0.45 292 05:21 26.09.2019
1089 Clouds 13 1006 92 0 0.45 292 02:41 26.09.2019
1090 Clouds 12 1005 10 0 3.17 212.491 01:49 26.09.2019
1091 Clouds 12 1006 92 0 3.41 214.967 01:27 26.09.2019
1092 -273 0 0 0 0 0 00:54 26.09.2019
1093 Clouds 12 1006 95 0 3.41 214.967 00:36 26.09.2019
1094 Clear 12 1007 100 10000 1 0 23:47 25.09.2019
1095 Clear 12 1007 100 10000 1 0 23:28 25.09.2019
1096 Clear 12 1007 93 10000 3.43 212.916 22:57 25.09.2019
1097 Clouds 12 1007 100 10000 0.5 0 22:39 25.09.2019
1098 Clouds 12 1007 100 10000 0.5 0 22:20 25.09.2019
1099 Clouds 13 1007 93 10000 1 0 21:56 25.09.2019
1100 Clouds 13 1007 100 10000 0.5 0 21:38 25.09.2019
1101 Clouds 13 1007 100 10000 0.5 0 21:19 25.09.2019
1102 Clouds 13 1006 87 10000 1.5 0 20:56 25.09.2019
1103 Clouds 13 1006 87 10000 1.5 0 20:56 25.09.2019
1104 Clouds 13 1006 87 10000 1.5 160 20:38 25.09.2019
1105 Clouds 14 1006 87 10000 1.5 160 20:19 25.09.2019
1106 Clouds 14 1006 87 10000 1.5 160 19:41 25.09.2019
1107 Clouds 14 1006 87 10000 1.5 160 19:41 25.09.2019
1108 Clouds 15 1006 87 10000 1 0 19:22 25.09.2019
1109 Rain 15 1006 82 10000 2.6 220 18:57 25.09.2019
1110 Clouds 16 1006 87 10000 2.6 200 18:39 25.09.2019
1111 Clouds 16 1006 87 10000 2.6 200 18:21 25.09.2019
1112 Clouds 17 1005 68 10000 3.1 250 17:58 25.09.2019
1113 Clouds 17 1005 72 10000 3.6 260 17:37 25.09.2019
1114 Clouds 17 1005 72 10000 3.6 260 17:19 25.09.2019
1115 Clouds 17 1005 77 10000 2.6 280 16:45 25.09.2019
1116 Clouds 17 1005 77 10000 4.1 270 16:27 25.09.2019
1117 Clouds 17 1006 77 10000 3.6 260 15:58 25.09.2019
1118 Clouds 17 1006 77 10000 3.6 260 15:40 25.09.2019
1119 Clouds 18 1006 77 10000 4.6 250 15:21 25.09.2019
1120 Clouds 17 1006 82 10000 4.1 260 14:55 25.09.2019
1121 Clouds 17 1006 87 10000 3.6 260 14:36 25.09.2019
1122 Clouds 17 1006 87 10000 3.6 260 14:36 25.09.2019
1123 Clouds 17 1006 87 10000 3.6 260 14:36 25.09.2019
1124 Clouds 17 1006 87 10000 3.6 260 14:18 25.09.2019
1125 Clouds 16 1006 93 10000 3.6 260 13:41 25.09.2019
1126 Clouds 16 1006 93 10000 3.6 260 13:22 25.09.2019
1127 Drizzle 16 1006 93 4500 4.1 250 12:58 25.09.2019
1128 Drizzle 15 1005 93 6000 3.6 260 12:39 25.09.2019
1129 Drizzle 15 1005 93 6000 3.6 260 12:21 25.09.2019
1130 Drizzle 15 1005 93 2400 3.1 240 11:42 25.09.2019
1131 Drizzle 14 1005 93 2400 3.1 240 11:22 25.09.2019
1132 Drizzle 14 1005 93 2600 2.6 190 10:59 25.09.2019
1133 Drizzle 14 1005 93 2600 2.6 190 10:41 25.09.2019
1134 Drizzle 14 1005 93 5000 2.6 160 10:21 25.09.2019
1135 Drizzle 14 1004 100 5000 2.6 150 09:56 25.09.2019
1136 Drizzle 14 1004 100 4000 2.1 130 09:36 25.09.2019
1137 Drizzle 14 1004 100 4000 2.1 130 09:18 25.09.2019
1138 Drizzle 13 1004 93 2800 2.1 130 08:42 25.09.2019
1139 Drizzle 13 1004 93 2900 2.1 110 08:21 25.09.2019
1140 Drizzle 13 1004 100 4100 1 0 07:56 25.09.2019
1141 Clouds 13 1005 93 10000 1 110 07:37 25.09.2019
1142 Clouds 13 1005 93 10000 1 110 07:19 25.09.2019
1143 Rain 13 1003 93 0 1.55 213.289 06:43 25.09.2019
1144 Rain 13 1001 98 0 1.81 119.122 06:21 25.09.2019
1145 Rain 13 1003 92 0 1.81 119.122 05:27 25.09.2019
1146 Rain 13 1005 95 0 0.45 96 04:50 25.09.2019
1147 Clouds 14 1003 86 0 1.42 187.36 02:19 25.09.2019
1148 Clouds 14 1004 85 0 1.52 189.803 00:45 25.09.2019
1149 Clouds 14 1007 82 0 1.52 189.803 00:24 25.09.2019
1150 Clouds 14 1006 81 0 2.03 188.746 23:57 24.09.2019
1151 Clouds 14 1006 81 0 2.03 188.746 23:38 24.09.2019
1152 Clouds 14 1004 83 0 2.03 188.746 23:19 24.09.2019
1153 Clear 14 1008 71 10000 1.5 90 22:39 24.09.2019
1154 Clear 14 1008 71 10000 1.5 90 22:39 24.09.2019
1155 Clear 15 1008 71 10000 1.5 90 22:20 24.09.2019
1156 Clear 14 1008 71 10000 1.5 90 21:58 24.09.2019
1157 Clear 15 1008 62 10000 1.5 90 21:37 24.09.2019
1158 Clear 15 1008 62 10000 1.5 90 21:19 24.09.2019
1159 Clear 15 1008 62 10000 1.5 90 21:19 24.09.2019
1160 Clear 15 1008 62 10000 1.5 90 20:58 24.09.2019
1161 Clear 15 1008 59 10000 2.2 182.577 20:40 24.09.2019
1162 Clear 15 1008 59 10000 2.2 182.577 20:21 24.09.2019
1163 Clear 15 1008 55 10000 1 0 19:57 24.09.2019
1164 Clear 15 1008 55 10000 1 0 19:57 24.09.2019
1165 Clouds 16 1008 75 0 0.89 80 19:39 24.09.2019
1166 Clear 17 1008 48 10000 2.1 220 19:18 24.09.2019
1167 Clouds 18 1009 45 10000 3.1 220 18:55 24.09.2019
1168 Clouds 19 1009 52 10000 3.1 210 18:36 24.09.2019
1169 Clouds 19 1009 52 10000 3.1 210 18:18 24.09.2019
1170 Clouds 19 1009 52 10000 1.5 0 17:54 24.09.2019
1171 Clouds 20 1009 52 10000 2.6 160 17:36 24.09.2019
1172 Clouds 20 1009 52 10000 2.6 160 17:18 24.09.2019
1173 Clouds 20 1009 52 10000 2.6 160 16:41 24.09.2019
1174 Clear 20 1010 52 10000 3.1 130 16:19 24.09.2019
1175 Clear 21 1010 52 10000 3.1 150 15:43 24.09.2019
1176 Clouds 21 1010 56 10000 3.1 160 15:24 24.09.2019
1177 Clouds 21 1011 60 10000 2.6 140 14:58 24.09.2019
1178 Clouds 20 1011 64 10000 2.1 170 14:37 24.09.2019
1179 Clouds 20 1011 64 10000 2.1 170 14:18 24.09.2019
1180 Clouds 20 1012 64 10000 2.6 150 13:40 24.09.2019
1181 Clouds 20 1012 68 10000 2.6 170 13:21 24.09.2019
1182 Clouds 19 1013 72 10000 2.6 150 12:42 24.09.2019
1183 Clouds 18 1013 72 10000 2.6 150 12:21 24.09.2019
1184 Clear 18 1013 77 10000 2.1 160 11:57 24.09.2019
1185 Clear 18 1013 82 10000 2.1 140 11:39 24.09.2019
1186 Clear 17 1013 82 10000 2.1 140 11:21 24.09.2019
1187 Clear 16 1014 87 10000 1 0 10:40 24.09.2019
1188 Clear 15 1014 87 10000 1 0 10:21 24.09.2019
1189 Clouds 15 1014 87 8000 2.1 200 09:57 24.09.2019
1190 Clouds 14 1013 93 6000 2.1 190 09:39 24.09.2019
1191 Clouds 14 1013 93 6000 2.1 190 09:19 24.09.2019
1192 Clouds 13 1013 93 5000 0.5 0 08:55 24.09.2019
1193 Clouds 13 1013 93 5000 0.5 0 08:55 24.09.2019
1194 Clouds 13 1014 100 6000 1.59 203.699 08:37 24.09.2019
1195 Clouds 13 1014 100 6000 1.59 203.699 08:18 24.09.2019
1196 Clouds 13 1014 93 6000 1.59 203.699 07:42 24.09.2019
1197 Clouds 13 1014 93 6000 1.59 203.699 07:42 24.09.2019
1198 Clouds 12 1014 100 6000 0.5 0 07:24 24.09.2019
1199 Clouds 12 1016 99 0 1.59 203.699 06:47 24.09.2019
1200 Clouds 12 1016 99 0 1.59 203.699 06:27 24.09.2019
1201 Clouds 13 1017 99 0 2.06 212.734 05:27 24.09.2019
1202 Clouds 13 1017 99 0 0.45 135 04:58 24.09.2019
1203 Clouds 13 1017 99 0 2.06 212.734 03:42 24.09.2019
1204 Clouds 13 1017 99 0 2.18 231.767 02:45 24.09.2019
1205 Clouds 14 1015 93 10000 1.5 260 01:45 24.09.2019
1206 Clouds 14 1015 93 10000 1.5 260 00:43 24.09.2019
1207 Clouds 14 1015 87 10000 1 290 00:23 24.09.2019
1208 Clouds 14 1015 93 10000 1.5 270 23:44 23.09.2019
1209 Rain 14 1016 91 0 2.17 226.681 23:24 23.09.2019
1210 Clouds 14 1015 87 10000 2.1 340 22:59 23.09.2019
1211 Clouds 14 1015 87 10000 2.1 340 22:39 23.09.2019
1212 Clouds 14 1015 87 10000 2.1 340 22:20 23.09.2019
1213 Clouds 15 1016 87 10000 2.1 320 21:56 23.09.2019
1214 Clouds 15 1015 87 10000 1.5 330 21:37 23.09.2019
1215 Clouds 15 1015 87 10000 1.5 330 21:19 23.09.2019
1216 Clouds 15 1015 87 10000 1.5 330 21:19 23.09.2019
1217 Clouds 15 1015 82 10000 2.1 300 20:41 23.09.2019
1218 Clouds 15 1015 82 10000 2.1 290 20:20 23.09.2019
1219 Clouds 15 1015 82 10000 2.6 310 19:58 23.09.2019
1220 Clouds 16 1015 82 10000 3.1 290 19:38 23.09.2019
1221 Clouds 16 1015 82 10000 3.1 290 19:20 23.09.2019
1222 Clouds 16 1014 87 10000 2.1 290 18:55 23.09.2019
1223 Clouds 16 1014 87 10000 2.1 290 18:55 23.09.2019
1224 Clouds 16 1014 87 10000 3.1 290 18:36 23.09.2019
1225 Clouds 16 1014 87 10000 3.1 290 18:18 23.09.2019
1226 Clouds 16 1014 87 10000 2.6 280 17:54 23.09.2019
1227 Clouds 16 1014 87 10000 3.1 290 17:36 23.09.2019
1228 Clouds 16 1014 87 10000 3.1 290 17:18 23.09.2019
1229 Clouds 16 1014 93 9000 3.1 300 16:39 23.09.2019
1230 Clouds 16 1014 93 9000 3.1 300 16:21 23.09.2019
1231 Rain 16 1014 93 10000 3.6 310 15:59 23.09.2019
1232 Clouds 16 1013 93 10000 4.1 300 15:40 23.09.2019
1233 Clouds 16 1013 93 10000 4.1 300 15:19 23.09.2019
1234 Drizzle 16 1013 93 7000 4.6 290 14:58 23.09.2019
1235 Mist 16 1013 93 4000 4.6 280 14:37 23.09.2019
1236 Mist 16 1013 93 4000 4.6 280 14:19 23.09.2019
1237 Drizzle 16 1013 93 4000 2.1 290 13:40 23.09.2019
1238 Drizzle 16 1013 93 4000 2.1 290 13:19 23.09.2019
1239 Drizzle 16 1013 93 4000 2.1 290 13:19 23.09.2019
1240 Drizzle 16 1013 100 1800 2.6 280 12:59 23.09.2019
1241 Mist 16 1013 93 1500 3.1 260 12:40 23.09.2019
1242 Mist 16 1013 93 1500 3.1 260 12:21 23.09.2019
1243 Clouds 16 1013 77 10000 3.6 260 11:45 23.09.2019
1244 Clouds 16 1013 77 10000 3.1 300 11:27 23.09.2019
1245 Clouds 15 1012 72 10000 3.1 280 10:57 23.09.2019
1246 Clouds 16 1012 63 10000 1.5 0 10:39 23.09.2019
1247 Clouds 15 1012 63 10000 1.5 0 10:20 23.09.2019
1248 Clouds 15 1015 85 0 1.79 248 09:40 23.09.2019
1249 Clouds 15 1015 85 0 1.79 248 09:40 23.09.2019
1250 Clear 14 1011 71 10000 1.5 0 09:21 23.09.2019
1251 Clouds 14 1014 91 0 0.89 180 08:58 23.09.2019
1252 Clear 13 1011 76 10000 2.1 80 08:38 23.09.2019
1253 Clear 12 1011 76 10000 2.1 80 08:18 23.09.2019
1254 Clear 12 1011 76 10000 2.1 80 08:18 23.09.2019
1255 Clear 12 1011 76 10000 2.1 80 08:18 23.09.2019
1256 Clear 10 1010 87 10000 1 0 07:33 23.09.2019
1257 Clouds 11 1013 94 0 0.45 0 06:58 23.09.2019
1258 Clouds 10 1013 92 0 0.89 45 06:20 23.09.2019
1259 Clouds 10 1013 93 0 0.7 176.979 05:28 23.09.2019
1260 Clouds 11 1013 91 0 0.89 45 04:56 23.09.2019
1261 Clouds 11 1013 90 0 0.45 0 03:59 23.09.2019
1262 Clouds 12 1013 82 0 0.45 45 01:26 23.09.2019
1263 Clouds 12 1009 66 0 0.89 40 00:38 23.09.2019
1264 Clouds 14 1013 79 0 0.89 0 00:18 23.09.2019
1265 Clouds 14 1013 66 0 0.89 0 23:41 22.09.2019
1266 Clouds 13 1013 61 0 0.89 135 23:22 22.09.2019
1267 Clouds 13 1013 57 0 0.89 90 22:56 22.09.2019
1268 Clouds 14 1013 55 0 0.89 90 22:37 22.09.2019
1269 Clouds 13 1008 77 0 1.69 146.197 22:19 22.09.2019
1270 Clear 16 1009 45 10000 4.1 90 21:43 22.09.2019
1271 Clear 16 1009 45 10000 4.1 90 21:43 22.09.2019
1272 Clear 17 1009 45 10000 4.1 90 21:21 22.09.2019
1273 Clear 17 1010 45 10000 3.6 100 20:45 22.09.2019
1274 Clear 17 1009 42 10000 4.1 100 20:27 22.09.2019
1275 Clear 18 1009 40 10000 4.1 110 19:59 22.09.2019
1276 Clear 18 1009 40 10000 4.1 110 19:59 22.09.2019
1277 Clear 18 1009 31 10000 5.7 120 19:41 22.09.2019
1278 Clear 20 1009 31 10000 5.7 120 19:21 22.09.2019
1279 Clear 20 1009 31 10000 5.7 120 19:21 22.09.2019
1280 Clear 20 1009 31 10000 5.7 120 18:57 22.09.2019
1281 Clear 23 1009 29 10000 5.1 120 18:38 22.09.2019
1282 Clear 24 1009 29 10000 5.1 120 18:18 22.09.2019
1283 Clear 25 1009 29 10000 4.6 110 17:48 22.09.2019
1284 Clear 25 1009 27 10000 5.7 110 17:27 22.09.2019
1285 Clear 25 1009 27 10000 5.7 110 16:59 22.09.2019
1286 Clear 25 1009 27 10000 5.7 110 16:59 22.09.2019
1287 Clear 25 1009 27 10000 5.7 110 16:59 22.09.2019
1288 Clear 26 1010 27 10000 6.2 90 16:40 22.09.2019
1289 Clear 26 1010 27 10000 6.2 90 16:40 22.09.2019
1290 Clear 26 1010 27 10000 6.2 90 16:21 22.09.2019
1291 Clear 26 1010 26 10000 5.7 110 15:46 22.09.2019
1292 Clear 26 1010 24 10000 5.1 100 15:27 22.09.2019
1293 Clear 25 1010 26 10000 3.6 140 14:58 22.09.2019
1294 Clear 25 1011 27 10000 5.1 100 14:40 22.09.2019
1295 Clear 25 1011 27 10000 5.1 100 14:21 22.09.2019
1296 Clear 25 1011 27 10000 5.1 120 13:55 22.09.2019
1297 Clear 25 1011 29 10000 4.6 110 13:36 22.09.2019
1298 Clear 24 1011 29 10000 4.6 110 13:18 22.09.2019
1299 Clear 23 1012 35 10000 5.1 100 12:42 22.09.2019
1300 Clear 22 1012 35 10000 5.1 100 12:22 22.09.2019
1301 Clear 21 1013 48 10000 3.6 90 11:56 22.09.2019
1302 Clear 20 1013 48 10000 3.6 90 11:38 22.09.2019
1303 Clear 19 1013 48 10000 3.6 90 11:19 22.09.2019
1304 Clear 18 1013 59 10000 2.1 110 10:43 22.09.2019
1305 Clear 16 1013 67 10000 2.1 110 10:20 22.09.2019
1306 Clear 15 1014 71 10000 2.52 123.388 09:57 22.09.2019
1307 Clear 15 1014 76 10000 2.52 123.388 09:37 22.09.2019
1308 Clear 12 1014 76 10000 1.8 145.188 09:19 22.09.2019
1309 Clear 10 1014 87 10000 0.5 0 08:43 22.09.2019
1310 Clear 9 1012 90 0 1.59 150.313 08:23 22.09.2019
1311 Clear 8 1016 98 0 0.45 0 07:52 22.09.2019
1312 Clear 8 1016 97 0 1.59 150.313 07:33 22.09.2019
1313 Clear 7 1016 95 0 0.45 45 06:59 22.09.2019
1314 Clear 8 1016 96 0 1.59 150.313 06:38 22.09.2019
1315 Clear 8 1016 95 0 0.89 45 05:22 22.09.2019
1316 Clear 9 1017 84 0 0.89 45 02:46 22.09.2019
1317 Clear 10 1018 83 0 0.89 90 02:26 22.09.2019
1318 Clear 10 1018 80 0 1.34 45 01:53 22.09.2019
1319 Clear 10 1019 78 0 0.89 135 00:57 22.09.2019
1320 Clear 11 1019 77 0 1.34 0 00:33 22.09.2019
1321 Clear 12 1019 71 0 0.45 0 23:57 21.09.2019
1322 Clear 12 1019 70 0 0.89 0 23:39 21.09.2019
1323 Clear 13 1020 54 0 0.89 90 22:57 21.09.2019
1324 Clear 12 1016 78 0 2.28 140.352 22:38 21.09.2019
1325 Clear 13 1018 58 10000 2.6 90 22:20 21.09.2019
1326 Clear 13 1018 58 10000 2.6 90 22:20 21.09.2019
1327 Clear 13 1018 58 10000 2.6 90 22:20 21.09.2019
1328 Clear 14 1018 58 10000 2.6 90 21:42 21.09.2019
1329 Clear 14 1018 58 10000 2.6 90 21:20 21.09.2019
1330 Clear 15 1018 58 10000 2.1 100 20:58 21.09.2019
1331 Clear 15 1018 45 10000 2.1 90 20:38 21.09.2019
1332 Clear 15 1018 45 10000 2.1 90 20:38 21.09.2019
1333 Clear 16 1018 45 10000 2.1 90 20:19 21.09.2019
1334 Clear 17 1018 45 10000 2.1 100 19:46 21.09.2019
1335 Clear 18 1018 40 10000 3.1 110 19:22 21.09.2019
1336 Clear 20 1019 35 10000 3.1 90 18:42 21.09.2019
1337 Clear 22 1019 35 10000 3.1 90 18:22 21.09.2019
1338 Clear 22 1019 33 10000 3.6 90 17:56 21.09.2019
1339 Clear 23 1019 33 10000 3.1 80 17:38 21.09.2019
1340 Clear 23 1019 33 10000 3.1 80 17:19 21.09.2019
1341 Clear 23 1020 33 10000 3.1 100 16:42 21.09.2019
1342 Clear 23 1020 35 10000 2.6 0 16:24 21.09.2019
1343 Clear 23 1021 33 10000 2.6 0 15:48 21.09.2019
1344 Clear 22 1021 35 10000 1.5 0 15:25 21.09.2019
1345 Clear 22 1021 35 10000 1.5 0 14:50 21.09.2019
1346 Clear 21 1021 37 10000 2.1 0 14:32 21.09.2019
1347 Clear 21 1022 40 10000 2.1 0 13:58 21.09.2019
1348 Clear 21 1022 40 10000 1.5 0 13:40 21.09.2019
1349 Clear 21 1022 40 10000 1.5 0 13:40 21.09.2019
1350 Clear 21 1022 40 10000 1.5 0 13:22 21.09.2019
1351 Clear 20 1023 42 10000 2.1 150 12:56 21.09.2019
1352 Clear 20 1023 45 10000 2.1 140 12:38 21.09.2019
1353 Clear 19 1023 45 10000 2.1 140 12:20 21.09.2019
1354 Clear 18 1023 48 10000 1.5 0 11:47 21.09.2019
1355 Clear 16 1023 58 10000 1 0 11:24 21.09.2019
1356 Clear 15 1023 62 10000 1.5 0 10:55 21.09.2019
1357 Clear 14 1023 71 10000 1.5 0 10:37 21.09.2019
1358 Clear 13 1023 71 10000 1.5 0 10:18 21.09.2019
1359 Clear 11 1024 87 10000 1 0 09:40 21.09.2019
1360 Clear 9 1024 87 10000 1 0 09:21 21.09.2019
1361 Clear 8 1024 93 10000 1.5 90 08:59 21.09.2019
1362 Clear 8 1023 83 0 0.45 38 08:40 21.09.2019
1363 Clear 5 1022 96 0 0.81 168.235 07:55 21.09.2019
1364 Clear 5 1022 96 0 0.81 168.235 07:55 21.09.2019
1365 Clear 4 1022 96 0 0.81 168.235 07:37 21.09.2019
1366 Clear 5 1020 83 0 0.81 168.235 07:18 21.09.2019
1367 Clear 5 1022 95 0 0.81 168.235 06:35 21.09.2019
1368 Clear 5 1023 87 0 0.89 38 05:51 21.09.2019
1369 Clear 5 1023 94 0 0.9 187.834 04:39 21.09.2019
1370 Clear 5 1023 94 0 0.9 187.834 04:39 21.09.2019
1371 Clear 6 1023 93 0 0.9 187.834 03:25 21.09.2019
1372 Clear 6 1023 93 0 1.63 179.718 02:25 21.09.2019
1373 Clear 7 1024 91 0 1.63 179.718 01:48 21.09.2019
1374 Clear 7 1023 81 0 1.63 179.718 01:23 21.09.2019
1375 Clear 7 1023 81 0 1.49 166.764 00:23 21.09.2019
1376 Clear 8 1023 81 0 1.49 166.764 23:49 20.09.2019
1377 Clear 8 1023 78 0 1.49 166.764 23:30 20.09.2019
1378 Clear 9 1024 84 0 1.49 166.764 22:55 20.09.2019
1379 Clear 9 1024 82 0 1.49 166.764 22:36 20.09.2019
1380 Clear 9 1026 76 10000 1 80 22:18 20.09.2019
1381 Clear 10 1026 76 10000 1 80 21:40 20.09.2019
1382 Clear 10 1026 76 10000 1 80 21:22 20.09.2019
1383 Clear 11 1026 81 10000 0.28 145.62 20:59 20.09.2019
1384 Clear 11 1026 81 10000 0.17 217.067 20:41 20.09.2019
1385 Clear 12 1026 76 10000 0.17 217.067 20:20 20.09.2019
1386 Clear 13 1026 58 10000 0.17 217.067 19:56 20.09.2019
1387 Clear 14 1026 55 10000 0.17 217.067 19:37 20.09.2019
1388 Clear 14 1026 55 10000 0.17 217.067 19:18 20.09.2019
1389 Clear 16 1027 48 10000 1.5 0 18:39 20.09.2019
1390 Clear 17 1027 48 10000 1.5 0 18:20 20.09.2019
1391 Clear 18 1027 45 10000 1.5 0 17:56 20.09.2019
1392 Clouds 18 1027 48 10000 2.1 280 17:38 20.09.2019
1393 Clouds 18 1027 48 10000 2.1 280 17:18 20.09.2019
1394 Clouds 18 1028 48 10000 1.5 0 16:38 20.09.2019
1395 Clouds 18 1028 48 10000 1.5 0 16:19 20.09.2019
1396 Clouds 18 1028 45 10000 1 0 15:42 20.09.2019
1397 Clouds 17 1028 51 10000 2.1 0 15:23 20.09.2019
1398 Clouds 17 1028 51 10000 2.1 0 15:23 20.09.2019
1399 Clouds 17 1028 51 10000 2.1 0 14:56 20.09.2019
1400 Clouds 17 1029 54 10000 2.1 260 14:38 20.09.2019
1401 Clouds 16 1029 62 10000 2.6 280 14:18 20.09.2019
1402 Clouds 16 1029 62 10000 2.6 280 13:45 20.09.2019
1403 Clear 15 1029 62 10000 3.1 270 13:27 20.09.2019
1404 Clear 15 1029 62 10000 3.1 270 12:56 20.09.2019
1405 Clear 15 1029 62 10000 3.6 270 12:36 20.09.2019
1406 Clear 14 1029 62 10000 3.6 270 12:18 20.09.2019
1407 Clear 14 1029 62 10000 3.6 270 12:18 20.09.2019
1408 Clear 14 1029 62 10000 3.6 270 12:18 20.09.2019
1409 Clear 13 1030 66 10000 2.6 280 11:44 20.09.2019
1410 Clear 13 1030 71 10000 2.6 280 11:19 20.09.2019
1411 Clear 12 1030 76 10000 2.1 240 10:43 20.09.2019
1412 Clear 12 1030 76 10000 2.1 240 10:43 20.09.2019
1413 Clear 12 1030 76 10000 2.1 240 10:43 20.09.2019
1414 Clear 10 1030 76 10000 2.1 240 10:23 20.09.2019
1415 Clouds 9 1029 87 10000 1.5 250 09:39 20.09.2019
1416 Clouds 8 1029 87 10000 1.5 250 09:19 20.09.2019
1417 Clouds 6 1029 93 10000 1.54 233.981 08:59 20.09.2019
1418 Clouds 6 1029 93 10000 1.54 233.981 08:59 20.09.2019
1419 Clouds 6 1028 94 0 1.54 233.981 08:40 20.09.2019
1420 Clouds 6 1028 94 0 1.54 233.981 08:40 20.09.2019
1421 Clouds 5 1026 91 0 1.54 233.981 08:21 20.09.2019
1422 Clouds 4 1026 92 0 1.54 233.981 07:45 20.09.2019
1423 Clouds 3 1028 95 0 1.62 233.511 07:25 20.09.2019
1424 Clouds 3 1026 91 0 1.62 233.511 06:44 20.09.2019
1425 Clouds 3 1026 91 0 1.62 233.511 06:44 20.09.2019
1426 Clouds 3 1024 99 0 1.64 238.354 06:20 20.09.2019
1427 Clouds 4 1028 92 0 1.64 238.354 05:42 20.09.2019
1428 Clouds 5 1029 91 0 1.64 238.354 03:30 20.09.2019
1429 Clouds 5 1026 87 0 1.65 230.622 02:50 20.09.2019
1430 Clouds 5 1027 86 0 1.65 230.622 01:44 20.09.2019
1431 Clouds 6 1027 82 0 1.74 229.652 00:46 20.09.2019
1432 Clouds 6 1027 82 0 1.55 255.073 00:21 20.09.2019
1433 Clouds 7 1028 87 0 1.55 255.073 23:41 19.09.2019
1434 Clear 7 1029 70 10000 1.55 255.073 23:19 19.09.2019
1435 Clear 8 1029 70 10000 1.55 255.073 22:54 19.09.2019
1436 Clear 7 1029 70 10000 1.55 255.073 22:36 19.09.2019
1437 Clear 8 1029 70 10000 1.55 255.073 22:18 19.09.2019
1438 Clear 8 1029 70 10000 1.55 255.073 21:55 19.09.2019
1439 Clear 8 1029 66 10000 1 0 21:36 19.09.2019
1440 Clear 8 1029 66 10000 1 0 21:18 19.09.2019
1441 Clear 9 1029 62 10000 1.94 286.877 20:43 19.09.2019
1442 Clouds 9 1026 73 0 1.55 317.15 20:20 19.09.2019
1443 Clouds 10 1027 76 0 1.55 317.15 19:55 19.09.2019
1444 Clouds 11 1027 68 0 1.55 317.15 19:37 19.09.2019
1445 Clouds 12 1026 73 0 1.55 317.15 19:19 19.09.2019
1446 Clear 14 1028 38 10000 3.6 310 18:42 19.09.2019
1447 Clear 14 1028 38 10000 3.6 310 18:24 19.09.2019
1448 Clear 14 1028 38 10000 3.6 310 18:24 19.09.2019
1449 Clear 15 1028 38 10000 4.6 310 17:54 19.09.2019
1450 Clear 15 1028 41 10000 5.1 310 17:36 19.09.2019
1451 Clear 15 1028 41 10000 5.1 310 17:18 19.09.2019
1452 Clear 16 1028 38 10000 4.1 320 16:42 19.09.2019
1453 Clear 16 1028 38 10000 5.1 310 16:20 19.09.2019
1454 Clouds 16 1029 44 10000 3.6 330 15:55 19.09.2019
1455 Clouds 16 1029 44 10000 3.6 330 15:55 19.09.2019
1456 Clouds 16 1029 44 10000 3.6 330 15:55 19.09.2019
1457 Clouds 16 1029 44 10000 3.6 330 15:55 19.09.2019
1458 Clouds 16 1029 44 10000 3.6 330 15:55 19.09.2019
1459 Clouds 15 1029 47 10000 5.1 310 15:36 19.09.2019
1460 Clouds 15 1029 47 10000 5.1 310 15:18 19.09.2019
1461 Clouds 15 1029 50 10000 4.6 310 14:41 19.09.2019
1462 Clouds 15 1029 50 10000 4.6 310 14:22 19.09.2019
1463 Clouds 15 1029 51 10000 4.1 320 13:58 19.09.2019
1464 Clouds 15 1029 54 10000 4.1 300 13:38 19.09.2019
1465 Clouds 15 1029 54 10000 4.1 300 13:38 19.09.2019
1466 Clouds 15 1029 54 10000 4.1 300 13:19 19.09.2019
1467 Clouds 14 1029 66 10000 3.6 280 12:38 19.09.2019
1468 Clouds 13 1029 66 10000 3.6 280 12:18 19.09.2019
1469 Clouds 13 1029 71 10000 3.6 300 11:56 19.09.2019
1470 Clouds 13 1029 71 10000 3.6 270 11:37 19.09.2019
1471 Clouds 12 1029 71 10000 3.6 270 11:18 19.09.2019
1472 Clouds 11 1028 81 10000 3.1 280 10:40 19.09.2019
1473 Clouds 10 1028 81 10000 3.1 280 10:21 19.09.2019
1474 Clouds 9 1028 81 10000 2.6 280 09:58 19.09.2019
1475 Clouds 9 1028 81 10000 3.1 280 09:40 19.09.2019
1476 Clouds 8 1028 81 10000 3.1 280 09:20 19.09.2019
1477 Clouds 8 1027 81 10000 2.6 280 08:51 19.09.2019
1478 Clouds 7 1027 81 10000 2.6 280 08:26 19.09.2019
1479 Clouds 6 1027 81 10000 2.6 270 07:45 19.09.2019
1480 Clouds 6 1027 81 10000 3.1 280 07:24 19.09.2019
1481 Clouds 6 1026 93 0 3.5 275.065 06:59 19.09.2019
1482 Clouds 6 1026 93 0 3.5 275.065 06:40 19.09.2019
1483 Clouds 6 1024 97 0 3.21 266.5 06:21 19.09.2019
1484 Clouds 6 1023 96 0 3.21 266.5 05:49 19.09.2019
1485 Clouds 6 1023 89 0 3.21 266.5 04:20 19.09.2019
1486 Clouds 6 1023 94 0 3.07 257.078 03:20 19.09.2019
1487 Clouds 6 1026 88 0 3.07 257.078 01:40 19.09.2019
1488 Clouds 6 1023 87 0 2.88 259.962 01:19 19.09.2019
1489 Clouds 7 1026 91 0 2.88 259.962 00:43 19.09.2019
1490 Clouds 7 1026 91 0 2.88 259.962 00:43 19.09.2019
1491 Clouds 7 1023 83 0 2.74 280.744 00:20 19.09.2019
1492 Clouds 7 1025 89 0 2.74 280.744 23:38 18.09.2019
1493 Clear 8 1025 66 10000 3.1 300 23:19 18.09.2019
1494 Clear 8 1025 66 10000 3.1 300 22:42 18.09.2019
1495 Clear 9 1025 66 10000 3.1 300 22:20 18.09.2019
1496 Clear 9 1025 70 10000 3.1 300 21:58 18.09.2019
1497 Clear 9 1025 66 10000 3.1 300 21:40 18.09.2019
1498 Clear 10 1025 66 10000 3.1 300 21:18 18.09.2019
1499 Clear 10 1024 62 10000 3.6 300 20:57 18.09.2019
1500 Clear 11 1024 58 10000 3.6 310 20:39 18.09.2019
1501 Clear 11 1024 58 10000 3.6 310 20:21 18.09.2019
1502 Clear 11 1024 54 10000 4.1 300 19:57 18.09.2019
1503 Clear 11 1024 54 10000 4.1 300 19:57 18.09.2019
1504 Clouds 12 1024 50 10000 5.7 300 19:38 18.09.2019
1505 Clouds 13 1024 50 10000 5.7 300 19:19 18.09.2019
1506 Clouds 13 1024 54 10000 5.1 300 18:55 18.09.2019
1507 Clouds 13 1023 58 10000 5.7 280 18:37 18.09.2019
1508 Clouds 13 1023 58 10000 5.7 280 18:37 18.09.2019
1509 Clouds 14 1023 58 10000 5.7 280 18:18 18.09.2019
1510 Clouds 14 1023 58 10000 5.7 280 18:18 18.09.2019
1511 Clear 14 1023 58 10000 5.1 280 17:56 18.09.2019
1512 Clear 14 1023 58 10000 5.1 280 17:56 18.09.2019
1513 Clouds 14 1024 66 10000 4.6 300 17:38 18.09.2019
1514 Clouds 14 1024 66 10000 4.6 300 17:38 18.09.2019
1515 Clouds 14 1024 66 10000 4.6 300 17:18 18.09.2019
1516 Clouds 14 1024 62 10000 5.1 300 16:55 18.09.2019
1517 Clouds 14 1024 62 10000 3.6 310 16:36 18.09.2019
1518 Clouds 15 1024 62 10000 3.6 310 16:18 18.09.2019
1519 Clouds 14 1024 66 10000 3.1 300 15:54 18.09.2019
1520 Clear 15 1023 58 10000 5.7 280 15:36 18.09.2019
1521 Clear 15 1023 58 10000 5.7 280 15:18 18.09.2019
1522 Clear 15 1024 62 10000 5.1 270 14:55 18.09.2019
1523 Clear 15 1024 66 10000 6.7 280 14:36 18.09.2019
1524 Clear 14 1024 66 10000 6.7 280 14:18 18.09.2019
1525 Clouds 14 1024 62 10000 4.6 280 13:40 18.09.2019
1526 Clouds 15 1024 62 10000 4.6 280 13:19 18.09.2019
1527 Clouds 15 1024 66 10000 5.1 290 12:53 18.09.2019
1528 Clouds 14 1024 71 10000 5.1 280 12:31 18.09.2019
1529 Rain 14 1024 76 10000 6.2 290 11:57 18.09.2019
1530 Clouds 13 1024 71 10000 4.6 290 11:38 18.09.2019
1531 Clouds 13 1024 71 10000 4.6 290 11:19 18.09.2019
1532 Clouds 13 1024 71 10000 3.6 280 10:40 18.09.2019
1533 Clouds 12 1024 71 10000 3.6 280 10:21 18.09.2019
1534 Clouds 12 1024 71 10000 3.6 280 10:21 18.09.2019
1535 Clouds 11 1024 81 10000 5.1 290 09:58 18.09.2019
1536 Clouds 11 1023 81 10000 4.1 280 09:38 18.09.2019
1537 Clouds 10 1023 81 10000 4.1 280 09:20 18.09.2019
1538 Clouds 10 1023 87 10000 3.6 270 08:45 18.09.2019
1539 Clouds 9 1022 87 10000 3.1 270 08:26 18.09.2019
1540 Clouds 9 1022 87 10000 3.6 270 07:59 18.09.2019
1541 Clouds 8 1022 87 10000 3.1 270 07:40 18.09.2019
1542 Clouds 8 1022 87 10000 3.1 270 07:22 18.09.2019
1543 Rain 8 1021 89 0 4.52 271.178 06:40 18.09.2019
1544 Clear 8 1019 96 0 4.15 252.465 05:51 18.09.2019
1545 Clear 8 1019 96 0 4.15 252.465 05:21 18.09.2019
1546 Rain 8 1021 91 0 4.91 272.056 03:21 18.09.2019
1547 Rain 8 1021 91 0 4.91 272.056 02:39 18.09.2019
1548 Clear 9 1020 85 0 4.86 261.925 01:25 18.09.2019
1549 Clear 9 1018 90 0 4.86 261.925 00:49 18.09.2019
1550 Clear 9 1020 86 0 5.27 272.774 00:22 18.09.2019
1551 Clear 9 1019 84 0 5.27 272.774 23:46 17.09.2019
1552 Clouds 10 1018 66 10000 6.2 280 23:23 17.09.2019
1553 Clouds 10 1018 66 10000 6.2 280 22:44 17.09.2019
1554 Clouds 10 1018 66 10000 6.2 280 22:25 17.09.2019
1555 Clouds 10 1018 66 10000 5.7 280 21:56 17.09.2019
1556 Clouds 10 1018 71 10000 5.1 290 21:37 17.09.2019
1557 Clouds 10 1018 71 10000 5.1 290 21:37 17.09.2019
1558 Clouds 11 1018 71 10000 5.1 290 21:19 17.09.2019
1559 Clouds 11 1018 71 10000 5.1 310 20:59 17.09.2019
1560 Clouds 11 1017 76 10000 6.2 290 20:40 17.09.2019
1561 Clouds 11 1017 76 10000 6.2 290 20:40 17.09.2019
1562 Clouds 11 1017 76 10000 6.2 290 20:22 17.09.2019
1563 Clouds 11 1017 76 10000 6.2 290 20:22 17.09.2019
1564 Clouds 12 1017 66 10000 4.6 290 19:59 17.09.2019
1565 Rain 12 1017 66 10000 6.2 330 19:39 17.09.2019
1566 Rain 12 1017 66 10000 6.2 330 19:20 17.09.2019
1567 Clouds 12 1017 58 10000 9.3 310 18:57 17.09.2019
1568 Clouds 12 1017 58 10000 9.3 310 18:57 17.09.2019
1569 Clear 13 1016 54 10000 10.3 310 18:39 17.09.2019
1570 Clear 13 1016 54 10000 10.3 310 18:21 17.09.2019
1571 Clear 14 1015 41 10000 8.7 310 17:46 17.09.2019
1572 Clear 14 1015 41 10000 8.7 310 17:20 17.09.2019
1573 Clear 14 1015 38 10000 10.8 310 16:59 17.09.2019
1574 Clouds 14 1015 48 10000 9.8 290 16:40 17.09.2019
1575 Clouds 14 1015 48 10000 9.8 290 16:40 17.09.2019
1576 Clouds 14 1015 48 10000 9.8 290 16:22 17.09.2019
1577 Clouds 14 1015 48 10000 9.8 290 16:22 17.09.2019
1578 Clouds 14 1015 62 10000 9.3 290 15:54 17.09.2019
1579 Clouds 13 1015 76 10000 7.7 280 15:36 17.09.2019
1580 Clouds 14 1015 76 10000 7.7 280 15:18 17.09.2019
1581 Clouds 14 1015 87 10000 7.2 290 14:54 17.09.2019
1582 Clouds 14 1015 87 10000 6.2 290 14:36 17.09.2019
1583 Clouds 14 1015 87 10000 6.2 290 14:18 17.09.2019
1584 Clouds 15 1015 62 10000 7.7 290 13:41 17.09.2019
1585 Clouds 15 1015 62 10000 7.7 290 13:22 17.09.2019
1586 Clouds 15 1016 62 10000 7.7 280 12:54 17.09.2019
1587 Clouds 15 1016 62 10000 8.2 280 12:36 17.09.2019
1588 Clouds 14 1016 62 10000 8.2 280 12:18 17.09.2019
1589 Clouds 14 1016 67 10000 8.2 280 11:41 17.09.2019
1590 Clouds 14 1016 67 10000 8.2 280 11:19 17.09.2019
1591 Clouds 14 1016 67 10000 8.2 280 11:19 17.09.2019
1592 Clouds 14 1016 71 10000 7.2 270 10:42 17.09.2019
1593 Clear 13 1016 76 10000 6.7 270 10:23 17.09.2019
1594 Clear 12 1016 81 10000 5.1 270 09:59 17.09.2019
1595 Clear 12 1016 87 10000 5.1 260 09:40 17.09.2019
1596 Clear 12 1016 87 10000 5.1 260 09:40 17.09.2019
1597 Clear 11 1016 87 10000 5.1 260 09:20 17.09.2019
1598 Clear 11 1016 87 10000 5.1 260 09:20 17.09.2019
1599 Clouds 11 1016 87 10000 4.6 260 08:45 17.09.2019
1600 Clouds 10 1016 87 10000 3.6 260 08:25 17.09.2019
1601 Clouds 10 1017 93 10000 3.6 270 07:56 17.09.2019
1602 Clouds 10 1017 87 10000 3.6 270 07:38 17.09.2019
1603 Clouds 10 1017 87 10000 3.6 270 07:19 17.09.2019
1604 Clouds 10 1016 96 0 4.46 247.483 06:45 17.09.2019
1605 Clouds 9 1014 99 0 3.68 242.815 06:19 17.09.2019
1606 Clouds 9 1016 96 0 3.68 242.815 05:38 17.09.2019
1607 Clouds 9 1017 98 0 3.68 242.815 04:28 17.09.2019
1608 Clouds 10 1017 95 0 3.02 247.871 02:55 17.09.2019
1609 Clouds 10 1017 95 0 3.02 247.871 02:35 17.09.2019
1610 Clouds 11 1020 93 0 2.96 248.249 01:24 17.09.2019
1611 Clouds 11 1015 99 0 2.96 248.249 00:32 17.09.2019
1612 Clear 11 1018 93 10000 2.1 280 23:38 16.09.2019
1613 Clear 11 1018 93 10000 2.1 280 23:18 16.09.2019
1614 Clear 11 1018 93 10000 2.1 280 22:43 16.09.2019
1615 Clouds 12 1018 87 10000 2.1 270 22:25 16.09.2019
1616 Clouds 12 1018 87 10000 2.1 280 21:59 16.09.2019
1617 Clouds 12 1018 87 10000 2.6 280 21:40 16.09.2019
1618 Clouds 12 1018 87 10000 2.6 280 21:40 16.09.2019
1619 Clouds 12 1018 87 10000 2.6 280 21:21 16.09.2019
1620 Clouds 12 1018 87 10000 2.6 280 20:59 16.09.2019
1621 Clouds 12 1018 87 10000 3.1 280 20:40 16.09.2019
1622 Clouds 13 1018 87 10000 3.1 280 20:20 16.09.2019
1623 Clouds 13 1018 82 10000 3.1 280 19:57 16.09.2019
1624 Clouds 13 1018 76 10000 4.1 290 19:38 16.09.2019
1625 Clouds 13 1018 76 10000 4.1 290 19:18 16.09.2019
1626 Clouds 14 1018 82 10000 3.6 290 18:46 16.09.2019
1627 Clouds 13 1018 82 10000 4.1 280 18:27 16.09.2019
1628 Clouds 14 1018 82 10000 3.6 270 17:57 16.09.2019
1629 Clouds 14 1018 82 10000 2.6 270 17:38 16.09.2019
1630 Clouds 13 1018 82 10000 2.6 270 17:19 16.09.2019
1631 Clouds 13 1018 82 10000 2.6 260 16:44 16.09.2019
1632 Clouds 13 1018 82 10000 2.6 260 16:22 16.09.2019
1633 Clouds 13 1019 87 10000 2.6 280 15:58 16.09.2019
1634 Clouds 13 1019 82 10000 2.6 270 15:39 16.09.2019
1635 Clouds 13 1019 82 10000 2.6 270 15:21 16.09.2019
1636 Clouds 13 1019 87 10000 3.1 270 14:58 16.09.2019
1637 Clouds 13 1019 93 10000 3.1 260 14:40 16.09.2019
1638 Clouds 13 1019 93 10000 3.1 260 14:22 16.09.2019
1639 Drizzle 13 1019 93 10000 3.6 260 13:55 16.09.2019
1640 Drizzle 13 1019 93 5000 3.1 260 13:37 16.09.2019
1641 Drizzle 12 1019 93 5000 3.1 260 13:18 16.09.2019
1642 Drizzle 12 1019 93 5000 3.1 260 13:18 16.09.2019
1643 Rain 12 1020 87 4300 2.6 250 12:40 16.09.2019
1644 Rain 12 1020 87 4300 2.6 250 12:22 16.09.2019
1645 Rain 12 1020 87 10000 3.1 250 11:46 16.09.2019
1646 Rain 12 1020 81 10000 3.6 240 11:23 16.09.2019
1647 Clouds 12 1020 87 10000 3.1 230 10:58 16.09.2019
1648 Clouds 12 1020 87 10000 3.1 250 10:38 16.09.2019
1649 Clouds 12 1020 87 10000 3.1 250 10:19 16.09.2019
1650 Rain 12 1020 87 10000 3.6 250 09:57 16.09.2019
1651 Rain 11 1020 93 10000 3.1 250 09:38 16.09.2019
1652 Rain 12 1020 93 10000 3.1 250 09:18 16.09.2019
1653 Rain 11 1019 87 10000 3.1 250 08:42 16.09.2019
1654 Rain 11 1020 87 10000 3.1 240 08:24 16.09.2019
1655 Rain 12 1020 87 10000 3.1 260 07:44 16.09.2019
1656 Rain 12 1020 93 10000 3.1 260 07:25 16.09.2019
1657 Rain 12 1021 97 0 2.31 265.895 06:59 16.09.2019
1658 Rain 12 1021 97 0 2.31 265.895 06:40 16.09.2019
1659 Rain 12 1022 97 0 2.71 289.739 06:22 16.09.2019
1660 Rain 13 1020 93 0 2.71 289.739 05:43 16.09.2019
1661 Rain 13 1016 88 0 2.71 289.739 05:23 16.09.2019
1662 Rain 13 1019 90 0 2.71 289.739 03:51 16.09.2019
1663 Clouds 14 1022 93 0 0.89 0 01:40 16.09.2019
1664 Clouds 15 1022 91 0 0.89 270 00:39 16.09.2019
1665 Rain 15 1022 90 0 1.34 225 00:21 16.09.2019
1666 Rain 16 1022 86 0 1.79 45 23:39 15.09.2019
1667 Rain 16 1022 82 0 0.45 45 23:20 15.09.2019
1668 Rain 16 1022 70 0 0.89 180 22:40 15.09.2019
1669 Rain 16 1022 52 0 0.89 0 22:21 15.09.2019
1670 Rain 17 1022 51 0 3.3 292.914 21:58 15.09.2019
1671 Clouds 17 1019 64 10000 6.7 310 21:39 15.09.2019
1672 Clouds 17 1019 64 10000 6.7 310 21:39 15.09.2019
1673 Clouds 18 1019 64 10000 6.7 310 21:21 15.09.2019
1674 Clouds 18 1019 64 10000 6.7 310 20:57 15.09.2019
1675 Clear 19 1019 49 10000 5.7 310 20:39 15.09.2019
1676 Clear 19 1019 49 10000 5.7 310 20:21 15.09.2019
1677 Clear 18 1019 40 10000 5.1 290 19:44 15.09.2019
1678 Clear 20 1018 30 10000 5.1 280 19:23 15.09.2019
1679 Clear 21 1018 28 10000 7.2 290 18:43 15.09.2019
1680 Clear 23 1018 28 10000 7.2 290 18:24 15.09.2019
1681 Clear 23 1018 27 10000 8.7 280 17:58 15.09.2019
1682 Clear 23 1018 23 10000 8.2 280 17:39 15.09.2019
1683 Clear 23 1018 23 10000 8.2 280 17:20 15.09.2019
1684 Clear 23 1019 39 10000 7.2 270 16:44 15.09.2019
1685 Clear 23 1019 25 10000 6.7 260 16:26 15.09.2019
1686 Clear 23 1019 24 10000 7.7 270 15:59 15.09.2019
1687 Clear 22 1020 28 10000 7.2 250 15:41 15.09.2019
1688 Clear 23 1020 28 10000 7.2 250 15:21 15.09.2019
1689 Clear 22 1020 28 10000 7.2 250 14:58 15.09.2019
1690 Clear 22 1020 37 10000 6.2 260 14:40 15.09.2019
1691 Clear 22 1020 37 10000 6.2 260 14:20 15.09.2019
1692 Clear 21 1021 40 10000 5.7 260 13:47 15.09.2019
1693 Clear 21 1021 40 10000 6.7 260 13:24 15.09.2019
1694 Clear 21 1021 40 10000 6.7 270 12:56 15.09.2019
1695 Clear 20 1021 42 10000 7.2 270 12:38 15.09.2019
1696 Clear 20 1021 42 10000 7.2 270 12:18 15.09.2019
1697 Clear 19 1021 42 10000 6.2 260 11:42 15.09.2019
1698 Clear 18 1021 42 10000 6.2 260 11:22 15.09.2019
1699 Clear 18 1021 42 10000 6.2 260 11:22 15.09.2019
1700 Clear 18 1021 45 10000 6.2 260 10:58 15.09.2019
1701 Clear 18 1022 55 10000 5.1 250 10:39 15.09.2019
1702 Clear 16 1022 55 10000 5.1 250 10:21 15.09.2019
1703 Clear 15 1022 67 10000 4.1 250 09:40 15.09.2019
1704 Clear 14 1022 67 10000 4.1 250 09:20 15.09.2019
1705 Clouds 13 1025 63 0 3.13 225 08:53 15.09.2019
1706 Clear 12 1025 67 0 2.68 225 08:30 15.09.2019
1707 Clear 11 1025 73 0 1.34 225 07:57 15.09.2019
1708 Clear 10 1025 80 0 1.79 270 07:39 15.09.2019
1709 Clear 9 1025 85 0 1.79 270 06:43 15.09.2019
1710 Clear 9 1026 94 0 0.89 45 04:38 15.09.2019
1711 Clouds 8 1027 91 0 0.45 90 02:55 15.09.2019
1712 Clouds 8 1027 95 0 0.45 45 01:58 15.09.2019
1713 Clouds 8 1027 95 0 0.45 45 01:58 15.09.2019
1714 Clouds 8 1028 94 0 0.89 0 01:35 15.09.2019
1715 Clouds 9 1028 93 0 0.45 0 00:56 15.09.2019
1716 Clouds 8 1029 92 0 0.45 45 00:36 15.09.2019
1717 Clouds 9 1029 92 0 0.45 45 00:18 15.09.2019
1718 Clouds 9 1029 92 0 0.89 45 23:54 14.09.2019
1719 Clouds 9 1029 92 0 0.89 45 23:54 14.09.2019
1720 Clouds 9 1029 92 0 0.45 0 23:36 14.09.2019
1721 Clouds 9 1030 92 0 0.89 0 23:18 14.09.2019
1722 -273 0 0 0 0 0 22:55 14.09.2019
1723 Clouds 10 1030 92 0 0.89 45 22:36 14.09.2019
1724 Clouds 10 1030 92 0 0.89 45 22:18 14.09.2019
1725 Clear 11 1030 62 10000 0.5 140 21:40 14.09.2019
1726 Clear 12 1030 62 10000 0.5 140 21:20 14.09.2019
1727 Clear 12 1030 62 10000 0.5 140 20:57 14.09.2019
1728 Clear 13 1030 54 10000 1 350 20:38 14.09.2019
1729 Clear 14 1030 54 10000 1 350 20:20 14.09.2019
1730 Clear 15 1030 45 10000 1 350 19:46 14.09.2019
1731 Clear 16 1030 36 10000 1.5 320 19:21 14.09.2019
1732 Clear 17 1030 45 10000 1 300 18:57 14.09.2019
1733 Clear 18 1031 32 10000 2.1 310 18:38 14.09.2019
1734 Clear 19 1031 32 10000 2.1 310 18:19 14.09.2019
1735 Clear 19 1031 32 10000 2.1 310 17:44 14.09.2019
1736 Clouds 19 1031 37 10000 2.1 260 17:24 14.09.2019
1737 Clear 19 1031 37 10000 2.1 250 16:50 14.09.2019
1738 Clear 19 1032 39 10000 1.5 0 16:29 14.09.2019
1739 Clear 20 1032 39 10000 2.6 0 15:59 14.09.2019
1740 Clear 20 1033 39 10000 2.1 320 15:40 14.09.2019
1741 Clear 20 1033 39 10000 2.1 320 15:22 14.09.2019
1742 Clear 20 1033 39 10000 2.1 320 15:22 14.09.2019
1743 Clear 20 1033 39 10000 2.1 320 15:22 14.09.2019
1744 Clear 19 1033 45 10000 2.1 290 14:45 14.09.2019
1745 Clear 19 1033 45 10000 1.5 0 14:20 14.09.2019
1746 Clear 19 1033 48 10000 1.5 0 13:56 14.09.2019
1747 Clouds 19 1034 45 10000 1 0 13:38 14.09.2019
1748 Clouds 18 1034 45 10000 1 0 13:20 14.09.2019
1749 Clouds 18 1034 51 10000 1.5 0 12:45 14.09.2019
1750 Clouds 17 1035 55 10000 2.1 300 12:22 14.09.2019
1751 Clear 16 1035 67 10000 1 0 11:41 14.09.2019
1752 Clear 16 1035 67 10000 1 0 11:20 14.09.2019
1753 Clear 14 1035 76 10000 0.5 0 10:40 14.09.2019
1754 Clear 13 1035 76 10000 0.5 0 10:22 14.09.2019
1755 Clear 13 1035 81 10000 1.83 79.488 09:58 14.09.2019
1756 Clear 13 1035 81 10000 1.83 79.488 09:58 14.09.2019
1757 Clear 12 1035 87 10000 1.83 79.488 09:40 14.09.2019
1758 Clear 11 1035 87 10000 1.16 140.498 09:21 14.09.2019
1759 Clear 10 1033 95 0 1.16 140.498 08:56 14.09.2019
1760 Clear 10 1033 95 0 1.16 140.498 08:56 14.09.2019
1761 Clouds 8 1033 96 0 1.03 141.297 08:37 14.09.2019
1762 Clouds 8 1034 93 0 1.03 141.297 08:18 14.09.2019
1763 Clouds 6 1035 98 0 0.89 0 07:42 14.09.2019
1764 Clouds 6 1035 97 0 0.89 0 07:20 14.09.2019
1765 Clouds 5 1035 96 0 1.03 141.297 06:33 14.09.2019
1766 Clouds 5 1035 96 0 0.89 45 05:43 14.09.2019
1767 Clouds 7 1035 94 0 0.45 0 03:59 14.09.2019
1768 Clear 8 1035 81 10000 1.5 310 03:20 14.09.2019
1769 Clear 8 1035 81 10000 1.5 310 02:42 14.09.2019
1770 Clear 9 1035 87 10000 1 330 01:45 14.09.2019
1771 Clear 9 1034 81 10000 1 0 01:19 14.09.2019
1772 Clouds 10 1035 83 0 0.89 45 00:40 14.09.2019
1773 Clouds 10 1035 82 0 1.34 0 00:21 14.09.2019
1774 Clouds 11 1035 80 0 0.89 22 23:56 13.09.2019
1775 Clouds 11 1035 80 0 0.89 45 23:37 13.09.2019
1776 Clear 11 1033 66 10000 1.51 321.572 23:18 13.09.2019
1777 Clear 12 1033 66 10000 1.51 321.572 22:55 13.09.2019
1778 Clear 12 1033 66 10000 1.51 321.572 22:36 13.09.2019
1779 Clear 13 1033 66 10000 1.51 321.572 22:18 13.09.2019
1780 Clear 14 1033 58 10000 1 0 21:39 13.09.2019
1781 Clear 14 1033 58 10000 1 0 21:19 13.09.2019
1782 Clear 15 1033 55 10000 1.5 0 20:58 13.09.2019
1783 Clear 15 1032 51 10000 3.1 330 20:37 13.09.2019
1784 Clear 16 1032 51 10000 3.1 330 20:19 13.09.2019
1785 Clear 16 1032 48 10000 3.6 330 19:54 13.09.2019
1786 Clear 16 1032 48 10000 3.6 330 19:54 13.09.2019
1787 Clear 17 1031 52 10000 4.1 330 19:36 13.09.2019
1788 Clear 17 1031 52 10000 4.1 330 19:18 13.09.2019
1789 Clouds 18 1031 49 10000 5.1 340 18:38 13.09.2019
1790 Clouds 19 1031 49 10000 5.1 340 18:20 13.09.2019
1791 Clouds 19 1031 49 10000 5.1 330 17:55 13.09.2019
1792 Clouds 19 1031 49 10000 5.1 330 17:55 13.09.2019
1793 Clouds 20 1031 46 10000 5.1 320 17:36 13.09.2019
1794 Clouds 20 1031 46 10000 5.1 320 17:18 13.09.2019
1795 Clear 20 1030 49 10000 5.7 320 16:40 13.09.2019
1796 Clear 20 1030 49 10000 5.7 320 16:20 13.09.2019
1797 Clouds 20 1030 49 10000 5.1 330 15:44 13.09.2019
1798 Clouds 20 1030 52 10000 5.1 300 15:25 13.09.2019
1799 Clouds 19 1030 56 10000 6.7 300 14:56 13.09.2019
1800 Clouds 20 1030 64 10000 5.1 330 14:38 13.09.2019
1801 Clouds 19 1030 64 10000 5.1 330 14:19 13.09.2019
1802 Clouds 19 1029 68 10000 5.1 320 13:44 13.09.2019
1803 Clouds 19 1029 72 10000 7.2 320 13:22 13.09.2019
1804 Clouds 19 1029 68 10000 5.1 290 12:54 13.09.2019
1805 Clouds 19 1028 77 10000 6.2 280 12:36 13.09.2019
1806 Clouds 19 1028 77 10000 6.2 280 12:18 13.09.2019
1807 Clouds 19 1028 88 10000 5.7 280 11:54 13.09.2019
1808 Clouds 19 1028 77 10000 5.7 280 11:18 13.09.2019
1809 Clouds 18 1028 77 10000 5.1 260 10:37 13.09.2019
1810 Clouds 18 1028 77 10000 5.1 260 10:19 13.09.2019
1811 Clouds 18 1027 82 10000 5.1 260 09:44 13.09.2019
1812 Clouds 17 1027 77 10000 5.1 260 09:24 13.09.2019
1813 Clouds 17 1027 77 10000 5.1 260 08:58 13.09.2019
1814 Clouds 17 1027 77 10000 5.7 260 08:40 13.09.2019
1815 Clouds 17 1027 77 10000 5.7 260 08:20 13.09.2019
1816 Clouds 17 1027 77 10000 4.1 240 07:45 13.09.2019
1817 Clouds 17 1026 77 10000 3.6 240 07:27 13.09.2019
1818 Clouds 17 1024 87 0 6.53 243.89 06:45 13.09.2019
1819 Clouds 16 1027 76 0 5.28 246.004 05:47 13.09.2019
1820 Clouds 16 1027 76 0 5.28 246.004 04:51 13.09.2019
1821 Clouds 17 1029 81 0 2.68 225 03:39 13.09.2019
1822 Clear 17 1030 80 0 0.89 225 02:20 13.09.2019
1823 Clear 17 1030 80 0 1.79 225 01:42 13.09.2019
1824 Clear 16 1030 80 0 2.68 248 01:22 13.09.2019
1825 Clear 16 1030 81 0 0.89 225 00:38 13.09.2019
1826 Clear 16 1030 83 0 2.24 270 23:58 12.09.2019
1827 Clear 16 1030 82 0 2.24 270 23:35 12.09.2019
1828 Clear 16 1027 77 10000 2.6 280 22:59 12.09.2019
1829 Clear 16 1027 77 10000 2.6 280 22:41 12.09.2019
1830 Clear 16 1027 77 10000 2.6 280 22:23 12.09.2019
1831 Clear 17 1027 72 10000 2.6 250 21:57 12.09.2019
1832 Clear 17 1027 72 10000 2.6 260 21:37 12.09.2019
1833 Clear 18 1027 72 10000 2.6 260 21:19 12.09.2019
1834 Clear 18 1027 72 10000 2.6 260 21:19 12.09.2019
1835 Clear 18 1026 68 10000 2.1 250 20:55 12.09.2019
1836 Clear 19 1026 64 10000 2.6 250 20:37 12.09.2019
1837 Clear 19 1026 64 10000 2.6 250 20:19 12.09.2019
1838 Clear 20 1026 56 10000 4.1 270 19:41 12.09.2019
1839 Clear 20 1026 56 10000 4.1 270 19:20 12.09.2019
1840 Clouds 21 1026 56 10000 5.1 270 18:58 12.09.2019
1841 Clouds 21 1026 53 10000 5.1 260 18:37 12.09.2019
1842 Clouds 22 1026 53 10000 5.1 260 18:18 12.09.2019
1843 Clear 22 1026 53 10000 5.7 250 17:54 12.09.2019
1844 Clouds 22 1026 56 10000 5.1 270 17:36 12.09.2019
1845 Clouds 22 1026 56 10000 5.1 270 17:18 12.09.2019
1846 Clouds 22 1026 56 10000 5.7 270 16:41 12.09.2019
1847 Clouds 22 1026 56 10000 5.7 270 16:21 12.09.2019
1848 Clouds 22 1026 60 10000 5.7 260 15:43 12.09.2019
1849 Clouds 22 1026 60 10000 6.7 260 15:24 12.09.2019
1850 Clouds 22 1027 60 10000 6.2 270 14:56 12.09.2019
1851 Clouds 21 1027 72 10000 4.6 250 14:38 12.09.2019
1852 Clouds 21 1027 72 10000 4.6 250 14:20 12.09.2019
1853 Clouds 21 1027 77 10000 5.7 260 13:39 12.09.2019
1854 Clouds 21 1027 77 10000 5.7 260 13:21 12.09.2019
1855 Clouds 21 1027 77 10000 5.1 250 12:49 12.09.2019
1856 Clouds 18 1027 82 10000 4.6 240 12:20 12.09.2019
1857 Clouds 18 1027 88 10000 3.6 230 11:58 12.09.2019
1858 Clouds 18 1026 82 10000 4.1 230 11:40 12.09.2019
1859 Clouds 18 1026 82 10000 4.1 230 11:21 12.09.2019
1860 Clouds 17 1026 87 10000 4.6 230 10:50 12.09.2019
1861 Clouds 16 1026 87 10000 5.1 240 10:28 12.09.2019
1862 Clouds 16 1025 87 10000 4.1 240 09:57 12.09.2019
1863 Clouds 16 1025 87 10000 4.1 240 09:39 12.09.2019
1864 Clouds 15 1025 87 10000 4.1 240 09:20 12.09.2019
1865 Clouds 15 1025 93 10000 4.1 230 08:44 12.09.2019
1866 Clouds 14 1025 87 10000 3.6 240 08:23 12.09.2019
1867 Clouds 14 1025 87 10000 3.6 240 07:55 12.09.2019
1868 Clouds 14 1024 87 10000 3.6 230 07:36 12.09.2019
1869 Clouds 14 1024 87 10000 3.6 230 07:18 12.09.2019
1870 Clouds 14 1027 99 0 3.13 225 06:45 12.09.2019
1871 Clouds 14 1025 97 0 3.82 216.452 06:18 12.09.2019
1872 Clouds 14 1027 99 0 1.79 225 05:42 12.09.2019
1873 Clouds 14 1026 99 0 1.79 225 05:19 12.09.2019
1874 Clouds 14 1026 99 0 2.24 225 03:58 12.09.2019
1875 Rain 14 1024 91 0 0.45 283 01:44 12.09.2019
1876 Rain 14 1022 94 0 0.45 270 01:26 12.09.2019
1877 Rain 14 1025 99 0 3.58 225 00:50 12.09.2019
1878 Rain 14 1025 99 0 4.47 225 00:31 12.09.2019
1879 Clouds 14 1025 99 0 4.47 225 23:47 11.09.2019
1880 Clouds 14 1022 94 0 0.45 292 23:27 11.09.2019
1881 Clouds 14 1022 93 0 0.89 270 22:58 11.09.2019
1882 Clear 14 1022 82 10000 3.6 270 22:38 11.09.2019
1883 Clear 14 1022 82 10000 3.6 270 22:20 11.09.2019
1884 Clear 14 1022 82 10000 3.6 270 21:59 11.09.2019
1885 Clear 15 1021 77 10000 4.6 270 21:41 11.09.2019
1886 Clear 16 1021 77 10000 4.6 270 21:22 11.09.2019
1887 Clear 16 1021 63 10000 5.7 280 20:56 11.09.2019
1888 Clear 17 1021 48 10000 5.7 270 20:38 11.09.2019
1889 Clear 17 1021 48 10000 5.7 270 20:19 11.09.2019
1890 Clear 17 1020 45 10000 2.6 260 19:56 11.09.2019
1891 Clear 18 1020 42 10000 3.6 250 19:37 11.09.2019
1892 Clear 18 1020 42 10000 3.6 250 19:37 11.09.2019
1893 Clear 18 1020 42 10000 3.6 250 19:19 11.09.2019
1894 Clear 20 1020 40 10000 4.1 260 18:44 11.09.2019
1895 Clear 20 1020 40 10000 4.1 260 18:26 11.09.2019
1896 Clear 21 1020 40 10000 5.1 260 17:59 11.09.2019
1897 Clear 21 1020 37 10000 5.1 250 17:41 11.09.2019
1898 Clear 21 1020 37 10000 5.1 250 17:21 11.09.2019
1899 Clear 21 1020 40 10000 5.7 250 16:56 11.09.2019
1900 Clear 21 1020 40 10000 6.2 250 16:38 11.09.2019
1901 Clear 21 1020 40 10000 6.2 250 16:19 11.09.2019
1902 Clear 21 1020 37 10000 6.2 260 15:46 11.09.2019
1903 Clear 21 1020 37 10000 5.1 220 15:24 11.09.2019
1904 Clear 21 1021 37 10000 6.7 230 14:58 11.09.2019
1905 Clear 21 1021 37 10000 6.7 230 14:40 11.09.2019
1906 Clear 21 1021 37 10000 6.7 230 14:20 11.09.2019
1907 Clear 21 1021 37 10000 6.7 230 14:20 11.09.2019
1908 Clear 21 1021 40 10000 5.1 230 13:58 11.09.2019
1909 Clear 21 1021 40 10000 6.2 240 13:37 11.09.2019
1910 Clear 21 1021 40 10000 6.2 240 13:18 11.09.2019
1911 Clear 21 1021 42 10000 4.1 240 12:42 11.09.2019
1912 Clear 20 1021 42 10000 4.1 240 12:21 11.09.2019
1913 Clear 19 1022 55 10000 3.6 210 11:58 11.09.2019
1914 Clear 18 1022 55 10000 3.6 210 11:38 11.09.2019
1915 Clear 18 1022 55 10000 3.6 210 11:19 11.09.2019
1916 Clear 16 1021 58 10000 3.1 180 10:41 11.09.2019
1917 Clear 15 1021 58 10000 3.1 180 10:22 11.09.2019
1918 Clear 14 1021 71 10000 3.1 170 09:57 11.09.2019
1919 Clear 14 1021 71 10000 2.6 160 09:37 11.09.2019
1920 Clear 12 1021 71 10000 2.6 160 09:18 11.09.2019
1921 Clear 10 1021 81 10000 1.5 0 08:40 11.09.2019
1922 Clear 9 1021 81 10000 1.5 0 08:21 11.09.2019
1923 Clear 7 1021 87 10000 0.5 0 07:53 11.09.2019
1924 Clear 7 1021 81 10000 1 0 07:24 11.09.2019
1925 Clear 7 1020 90 0 2.38 189.732 06:59 11.09.2019
1926 Clear 7 1020 88 0 2.38 189.732 06:38 11.09.2019
1927 Clear 6 1023 99 0 0.45 45 06:19 11.09.2019
1928 Clear 6 1023 99 0 2.29 200.009 05:33 11.09.2019
1929 Clear 6 1022 99 0 2.29 200.009 04:52 11.09.2019
1930 Clear 7 1023 99 0 0.45 45 03:59 11.09.2019
1931 Clear 7 1022 98 0 0.45 0 03:26 11.09.2019
1932 Clear 7 1022 98 0 0.89 0 02:31 11.09.2019
1933 Clear 8 1019 86 0 1.95 218.568 01:31 11.09.2019
1934 Clear 8 1022 96 0 0.89 0 00:37 11.09.2019
1935 Clear 9 1017 80 0 2.38 214.903 00:19 11.09.2019
1936 Clear 9 1019 81 0 2.38 214.903 23:40 10.09.2019
1937 Clear 10 1019 66 10000 2.38 214.903 23:21 10.09.2019
1938 Clear 10 1019 66 10000 2.38 214.903 22:55 10.09.2019
1939 Clear 10 1019 66 10000 2.38 214.903 22:37 10.09.2019
1940 Clear 11 1019 66 10000 2.38 214.903 22:18 10.09.2019
1941 Clear 11 1019 62 10000 2.38 214.903 21:54 10.09.2019
1942 Clear 11 1018 62 10000 2.38 214.903 21:36 10.09.2019
1943 Clear 11 1018 62 10000 2.26 259.436 21:18 10.09.2019
1944 Clear 12 1018 54 10000 2.1 280 20:55 10.09.2019
1945 Clear 13 1018 54 10000 2.6 280 20:37 10.09.2019
1946 Clear 13 1018 54 10000 2.6 280 20:18 10.09.2019
1947 -273 0 0 0 0 0 19:55 10.09.2019
1948 Clouds 15 1017 45 10000 3.1 270 19:36 10.09.2019
1949 Clouds 15 1017 45 10000 3.1 270 19:36 10.09.2019
1950 Clouds 16 1017 45 10000 3.1 270 19:18 10.09.2019
1951 Clear 18 1017 45 10000 4.6 280 18:43 10.09.2019
1952 Clear 18 1017 45 10000 4.6 280 18:22 10.09.2019
1953 Clear 18 1017 39 10000 5.7 270 17:57 10.09.2019
1954 Clear 18 1017 39 10000 5.1 280 17:39 10.09.2019
1955 Clear 18 1017 39 10000 5.1 280 17:20 10.09.2019
1956 Clear 18 1017 42 10000 5.7 280 16:57 10.09.2019
1957 Clear 18 1016 45 10000 6.2 290 16:38 10.09.2019
1958 Clear 18 1016 45 10000 6.2 290 16:38 10.09.2019
1959 Clear 18 1016 45 10000 6.2 290 16:19 10.09.2019
1960 Clear 18 1016 48 10000 5.7 280 15:44 10.09.2019
1961 Clear 18 1016 48 10000 5.1 280 15:23 10.09.2019
1962 Clouds 18 1016 51 10000 6.7 300 14:58 10.09.2019
1963 Clouds 18 1016 48 10000 6.7 290 14:39 10.09.2019
1964 Clouds 18 1016 48 10000 6.7 290 14:21 10.09.2019
1965 Clouds 18 1016 51 10000 6.2 280 13:48 10.09.2019
1966 Clouds 17 1016 55 10000 7.2 270 13:24 10.09.2019
1967 Clouds 17 1016 55 10000 6.2 270 12:55 10.09.2019
1968 Clouds 17 1016 55 10000 6.2 270 12:55 10.09.2019
1969 Clouds 17 1016 59 10000 6.2 280 12:36 10.09.2019
1970 Clouds 17 1016 59 10000 6.2 280 12:18 10.09.2019
1971 Clouds 16 1016 67 10000 5.7 280 11:42 10.09.2019
1972 Clouds 16 1016 67 10000 5.7 280 11:22 10.09.2019
1973 Clear 15 1016 62 10000 5.7 280 10:59 10.09.2019
1974 Clear 15 1015 76 10000 5.1 260 10:37 10.09.2019
1975 Clear 14 1015 76 10000 5.1 260 10:18 10.09.2019
1976 Clear 13 1015 81 10000 3.6 260 09:44 10.09.2019
1977 Clear 12 1015 81 10000 3.6 260 09:20 10.09.2019
1978 Clear 11 1015 87 10000 2.6 270 08:56 10.09.2019
1979 Clear 10 1015 93 10000 2.6 270 08:38 10.09.2019
1980 Clear 10 1015 93 10000 2.6 270 08:19 10.09.2019
1981 Clear 9 1014 93 10000 2.6 270 07:43 10.09.2019
1982 Clear 9 1014 93 10000 2.6 270 07:25 10.09.2019
1983 Clear 8 1017 99 0 3.51 231.47 06:46 10.09.2019
1984 Clear 8 1016 99 0 3.51 231.47 06:28 10.09.2019
1985 Clear 9 1016 99 0 3.5 234.978 04:25 10.09.2019
1986 Clouds 9 1016 99 0 0.45 0 02:41 10.09.2019
1987 Clouds 10 1016 99 0 0.45 0 02:21 10.09.2019
1988 Clouds 10 1016 97 0 2.76 241.429 01:52 10.09.2019
1989 Clouds 10 1016 97 0 2.76 241.429 01:52 10.09.2019
1990 Clouds 10 1016 97 0 2.76 241.429 01:52 10.09.2019
1991 Clouds 10 1015 98 0 0.45 225 01:23 10.09.2019
1992 Clouds 10 1015 97 0 3.02 241.964 00:43 10.09.2019
1993 Rain 11 1015 96 0 3.19 261.893 00:23 10.09.2019
1994 Rain 11 1016 95 0 3.19 261.893 23:41 09.09.2019
1995 Clear 11 1013 87 10000 2.1 280 23:19 09.09.2019
1996 Clear 12 1013 87 10000 2.1 280 22:55 09.09.2019
1997 Clear 12 1013 87 10000 2.1 280 22:37 09.09.2019
1998 Clear 12 1013 87 10000 2.1 280 22:19 09.09.2019
1999 Clear 12 1013 93 10000 2.6 290 21:56 09.09.2019
2000 Clouds 12 1013 93 10000 2.1 290 21:37 09.09.2019
2001 Clouds 13 1013 93 10000 2.1 290 21:19 09.09.2019
2002 Clouds 13 1013 93 10000 2.6 280 20:55 09.09.2019
2003 Clear 13 1012 93 10000 2.1 270 20:36 09.09.2019
2004 Clear 13 1012 93 10000 2.1 270 20:18 09.09.2019
2005 Clouds 13 1012 93 10000 1 0 19:56 09.09.2019
2006 Clouds 14 1012 93 10000 2.6 310 19:38 09.09.2019
2007 Clear 14 1012 93 10000 3.6 290 19:19 09.09.2019
2008 Clear 14 1012 93 10000 3.6 290 19:19 09.09.2019
2009 Clear 14 1012 93 10000 3.6 290 18:56 09.09.2019
2010 Clear 14 1012 93 10000 3.6 290 18:37 09.09.2019
2011 Rain 15 1012 93 10000 2.6 280 18:19 09.09.2019
2012 Rain 15 1012 93 10000 2.6 280 17:56 09.09.2019
2013 Rain 15 1012 87 7000 3.1 290 17:38 09.09.2019
2014 Rain 14 1012 87 7000 3.1 290 17:20 09.09.2019
2015 Drizzle 15 1012 82 10000 1.5 0 16:41 09.09.2019
2016 Drizzle 14 1012 82 10000 1.5 0 16:21 09.09.2019
2017 Clouds 15 1012 77 10000 4.1 300 15:57 09.09.2019
2018 Clouds 15 1012 77 10000 4.1 300 15:57 09.09.2019
2019 Clouds 15 1012 77 10000 4.1 300 15:57 09.09.2019
2020 Clouds 15 1012 77 10000 4.1 290 15:39 09.09.2019
2021 Clouds 15 1012 77 10000 4.1 290 15:21 09.09.2019
2022 Clouds 14 1012 77 10000 4.1 300 14:57 09.09.2019
2023 Clouds 14 1012 77 10000 4.1 300 14:57 09.09.2019
2024 Clouds 15 1012 82 10000 4.1 300 14:39 09.09.2019
2025 Clouds 15 1012 82 10000 4.1 300 14:39 09.09.2019
2026 Clouds 14 1012 82 10000 4.1 300 14:21 09.09.2019
2027 Clear 14 1012 77 10000 4.1 290 13:55 09.09.2019
2028 Clouds 14 1013 77 10000 3.6 280 13:36 09.09.2019
2029 Clouds 14 1013 77 10000 3.6 280 13:18 09.09.2019
2030 Clear 14 1013 77 10000 3.6 290 12:42 09.09.2019
2031 Clear 14 1013 77 10000 3.6 290 12:22 09.09.2019
2032 Clear 14 1013 82 10000 3.6 280 11:59 09.09.2019
2033 Clear 14 1013 82 10000 3.1 300 11:40 09.09.2019
2034 Clear 13 1013 82 10000 3.1 300 11:18 09.09.2019
2035 Clear 13 1013 87 10000 3.1 290 10:42 09.09.2019
2036 Clear 13 1013 87 10000 3.1 290 10:24 09.09.2019
2037 Clear 13 1013 87 10000 2.6 280 09:59 09.09.2019
2038 Clear 13 1013 87 10000 2.6 280 09:59 09.09.2019
2039 Clear 13 1014 87 10000 2.6 290 09:40 09.09.2019
2040 Clear 12 1014 87 10000 2.6 290 09:22 09.09.2019
2041 Clear 12 1014 93 10000 2.1 290 08:56 09.09.2019
2042 Clear 12 1014 87 10000 2.1 310 08:37 09.09.2019
2043 Clear 12 1014 87 10000 2.1 310 08:18 09.09.2019
2044 Clear 11 1014 87 10000 1.5 0 07:41 09.09.2019
2045 Clear 11 1014 87 10000 1.5 0 07:20 09.09.2019
2046 Clouds 11 1016 99 0 0.89 45 06:53 09.09.2019
2047 Clouds 11 1013 93 0 1.45 285.516 06:27 09.09.2019
2048 Clouds 11 1014 92 0 0.72 293.962 03:21 09.09.2019
2049 Clouds 12 1014 92 0 0.72 293.962 02:42 09.09.2019
2050 Clouds 12 1015 88 0 0.47 7.651 01:24 09.09.2019
2051 Clouds 13 1018 92 0 0.89 270 00:24 09.09.2019
2052 Clouds 13 1018 94 0 0.65 139.753 23:56 08.09.2019
2053 Clouds 13 1018 94 0 0.65 139.753 23:38 08.09.2019
2054 Clouds 13 1013 81 0 0.65 139.753 23:19 08.09.2019
2055 Clouds 14 1015 83 0 0.65 139.753 22:41 08.09.2019
2056 Clouds 14 1015 82 0 0.65 139.753 22:22 08.09.2019
2057 Clouds 14 1015 82 0 0.65 139.753 21:59 08.09.2019
2058 Clear 14 1017 55 10000 1.5 0 21:40 08.09.2019
2059 Clear 15 1017 55 10000 1.5 0 21:22 08.09.2019
2060 Clear 15 1017 55 10000 1.5 0 20:55 08.09.2019
2061 Clear 15 1017 55 10000 1.5 0 20:37 08.09.2019
2062 Clear 15 1017 55 10000 1.5 0 20:18 08.09.2019
2063 Clear 16 1016 52 10000 1.5 0 19:39 08.09.2019
2064 Clear 16 1016 52 10000 1.5 0 19:21 08.09.2019
2065 Clear 17 1016 48 10000 1 0 18:59 08.09.2019
2066 Clear 17 1017 48 10000 1.5 0 18:39 08.09.2019
2067 Clear 17 1017 48 10000 1.5 0 18:20 08.09.2019
2068 Clear 17 1016 45 10000 1.5 0 17:59 08.09.2019
2069 Clouds 18 1016 45 10000 2.1 20 17:37 08.09.2019
2070 Clouds 18 1016 45 10000 2.1 20 17:19 08.09.2019
2071 Clouds 18 1017 45 10000 1.5 0 16:58 08.09.2019
2072 Clouds 19 1017 42 10000 1.5 0 16:40 08.09.2019
2073 Clouds 19 1017 42 10000 1.5 0 16:20 08.09.2019
2074 Clear 19 1017 42 10000 2.6 0 15:56 08.09.2019
2075 Clear 18 1017 42 10000 2.1 0 15:36 08.09.2019
2076 Clear 18 1017 42 10000 2.1 0 15:18 08.09.2019
2077 Clouds 18 1017 42 10000 2.1 0 14:40 08.09.2019
2078 Clouds 18 1017 42 10000 2.1 0 14:22 08.09.2019
2079 Clouds 18 1017 48 10000 2.1 0 13:58 08.09.2019
2080 Clear 18 1018 55 10000 2.1 80 13:40 08.09.2019
2081 Clear 18 1018 55 10000 2.1 80 13:22 08.09.2019
2082 Clouds 18 1018 59 10000 2.1 0 12:55 08.09.2019
2083 Clouds 17 1018 59 10000 1.5 0 12:37 08.09.2019
2084 Clouds 17 1018 59 10000 1.5 0 12:19 08.09.2019
2085 Clouds 17 1018 59 10000 1.5 0 12:19 08.09.2019
2086 Clear 17 1018 63 10000 1 0 11:56 08.09.2019
2087 Clear 16 1018 63 10000 1 0 11:37 08.09.2019
2088 Clear 16 1018 63 10000 1 0 11:37 08.09.2019
2089 Clear 16 1018 63 10000 1 0 11:19 08.09.2019
2090 Clear 15 1018 76 10000 1 0 10:42 08.09.2019
2091 Clear 14 1018 76 10000 1 0 10:23 08.09.2019
2092 Clear 13 1018 81 10000 1.5 0 09:56 08.09.2019
2093 Clouds 12 1019 73 0 0.89 90 09:37 08.09.2019
2094 Clear 10 1018 93 10000 1 100 09:19 08.09.2019
2095 Clouds 10 1019 99 0 0.76 239.814 08:40 08.09.2019
2096 Clouds 10 1019 99 0 0.76 239.814 08:40 08.09.2019
2097 Clouds 9 1019 99 0 0.76 239.814 08:19 08.09.2019
2098 Clouds 9 1019 99 0 0.76 239.814 08:19 08.09.2019
2099 Clouds 8 1019 99 0 0.76 239.814 07:59 08.09.2019
2100 Clouds 7 1019 99 0 0.45 0 07:37 08.09.2019
2101 Clouds 7 1019 99 0 0.76 239.814 07:19 08.09.2019
2102 Clouds 7 1019 99 0 0.89 0 06:44 08.09.2019
2103 Clouds 8 1019 99 0 0.45 0 05:45 08.09.2019
2104 Clouds 8 1019 99 0 0.45 0 05:27 08.09.2019
2105 Clouds 9 1019 99 0 1.19 215.292 03:30 08.09.2019
2106 Clouds 9 1014 90 0 1.63 212.151 02:51 08.09.2019
2107 Clouds 9 1019 99 0 1.63 212.151 01:57 08.09.2019
2108 Clouds 9 1019 99 0 1.56 196.727 01:33 08.09.2019
2109 Clouds 9 1018 87 0 0.89 38 00:50 08.09.2019
2110 Clouds 10 1015 86 0 1.56 196.727 00:32 08.09.2019
2111 Clouds 10 1018 87 0 2.68 32 23:59 07.09.2019
2112 Clouds 10 1016 89 0 1.88 173.663 23:37 07.09.2019
2113 Clouds 10 1015 86 0 1.88 173.663 23:19 07.09.2019
2114 Clouds 10 1016 88 0 1.88 173.663 22:56 07.09.2019
2115 Clouds 10 1016 88 0 1.88 173.663 22:37 07.09.2019
2116 Clouds 11 1015 86 0 1.88 173.663 22:18 07.09.2019
2117 Clear 11 1018 71 10000 2.1 270 21:40 07.09.2019
2118 Clear 11 1018 71 10000 2.1 270 21:40 07.09.2019
2119 Clear 12 1018 71 10000 2.1 270 21:22 07.09.2019
2120 Clear 12 1018 71 10000 2.1 270 21:22 07.09.2019
2121 Clear 13 1017 67 10000 2.6 260 20:42 07.09.2019
2122 Clear 14 1017 67 10000 2.6 260 20:22 07.09.2019
2123 Clear 14 1017 67 10000 2.6 250 19:58 07.09.2019
2124 Clear 14 1017 63 10000 3.1 240 19:39 07.09.2019
2125 Clear 16 1017 63 10000 3.1 240 19:21 07.09.2019
2126 Clear 16 1017 67 10000 3.1 240 18:59 07.09.2019
2127 Clear 16 1018 63 10000 3.6 230 18:40 07.09.2019
2128 Clear 16 1018 63 10000 3.6 230 18:22 07.09.2019
2129 Clouds 16 1018 67 10000 3.1 250 17:59 07.09.2019
2130 Clouds 16 1018 67 10000 4.1 260 17:40 07.09.2019
2131 Clouds 16 1018 67 10000 4.1 260 17:19 07.09.2019
2132 Clouds 16 1018 67 10000 4.1 260 17:19 07.09.2019
2133 Clouds 16 1018 67 10000 4.6 250 16:59 07.09.2019
2134 Clear 16 1018 63 10000 4.6 240 16:40 07.09.2019
2135 Clear 16 1018 63 10000 4.6 240 16:19 07.09.2019
2136 Clear 16 1018 59 10000 5.1 240 15:47 07.09.2019
2137 Clear 15 1018 63 10000 4.1 230 15:26 07.09.2019
2138 Clear 15 1018 67 10000 4.6 230 14:57 07.09.2019
2139 Clear 15 1018 67 10000 4.1 240 14:37 07.09.2019
2140 Clear 14 1018 67 10000 4.1 240 14:19 07.09.2019
2141 Clear 15 1018 76 10000 3.6 230 13:57 07.09.2019
2142 Drizzle 15 1018 76 10000 4.6 230 13:39 07.09.2019
2143 Drizzle 15 1018 76 10000 4.6 230 13:39 07.09.2019
2144 Drizzle 15 1018 76 10000 4.6 230 13:39 07.09.2019
2145 Drizzle 15 1018 76 10000 4.6 230 13:20 07.09.2019
2146 Clouds 14 1018 67 10000 3.6 250 12:44 07.09.2019
2147 Clouds 15 1018 67 10000 3.6 250 12:25 07.09.2019
2148 Clear 15 1018 59 10000 3.1 260 11:55 07.09.2019
2149 Clouds 15 1018 59 10000 4.1 270 11:36 07.09.2019
2150 Clouds 15 1018 59 10000 4.1 270 11:18 07.09.2019
2151 Clear 15 1018 62 10000 3.1 270 10:38 07.09.2019
2152 Clear 15 1018 62 10000 3.1 270 10:20 07.09.2019
2153 Clear 14 1018 58 10000 2.6 230 09:43 07.09.2019
2154 Clear 14 1018 58 10000 2.6 230 09:25 07.09.2019
2155 Clouds 14 1020 66 0 2.68 225 08:59 07.09.2019
2156 Clouds 13 1020 75 0 1.79 180 08:41 07.09.2019
2157 Clouds 12 1020 86 0 0.45 45 08:23 07.09.2019
2158 Clouds 12 1020 86 0 2.51 215.75 07:45 07.09.2019
2159 Clouds 12 1020 86 0 2.51 215.75 07:26 07.09.2019
2160 Clouds 11 1020 87 0 0.89 270 06:47 07.09.2019
2161 Clouds 12 1016 64 0 2.71 222.918 06:20 07.09.2019
2162 Clouds 11 1019 84 0 0.45 270 04:49 07.09.2019
2163 Clouds 11 1019 83 0 2.71 222.918 04:20 07.09.2019
2164 Clouds 11 1020 79 0 2.79 216.948 02:48 07.09.2019
2165 Clouds 11 1020 74 0 2.79 216.948 01:53 07.09.2019
2166 Clouds 11 1020 74 0 2.79 216.948 01:53 07.09.2019
2167 Clouds 12 1020 72 0 0.45 270 01:23 07.09.2019
2168 Clouds 13 1021 67 0 2.45 209.17 00:40 07.09.2019
2169 Clouds 13 1021 61 0 1.98 196.879 00:19 07.09.2019
2170 Clouds 13 1021 64 0 1.34 225 23:41 06.09.2019
2171 Clouds 13 1021 78 0 1.34 180 23:22 06.09.2019
2172 Clouds 13 1021 80 0 0.89 45 22:58 06.09.2019
2173 Clouds 13 1021 80 0 0.89 45 22:58 06.09.2019
2174 Clear 14 1019 54 10000 1.5 0 22:38 06.09.2019
2175 Clear 13 1019 54 10000 1.5 0 22:19 06.09.2019
2176 Clear 13 1019 54 10000 1.5 0 21:57 06.09.2019
2177 Clear 13 1019 48 10000 1.5 180 21:39 06.09.2019
2178 Clear 13 1019 48 10000 1.5 180 21:39 06.09.2019
2179 Clear 14 1019 48 10000 1.5 180 21:20 06.09.2019
2180 Clear 14 1019 51 10000 1.5 180 20:58 06.09.2019
2181 Clear 14 1019 45 10000 1.5 220 20:39 06.09.2019
2182 Clear 14 1019 45 10000 1.5 220 20:39 06.09.2019
2183 Clear 15 1019 45 10000 1.5 220 20:21 06.09.2019
2184 Clear 15 1019 42 10000 2.6 220 19:57 06.09.2019
2185 Clear 16 1020 39 10000 3.6 240 19:39 06.09.2019
2186 Clear 17 1020 39 10000 3.6 240 19:20 06.09.2019
2187 Clear 18 1020 34 10000 3.6 250 18:46 06.09.2019
2188 Clear 19 1020 34 10000 3.6 250 18:25 06.09.2019
2189 Clear 19 1020 39 10000 4.1 250 17:59 06.09.2019
2190 Clear 20 1020 37 10000 3.1 240 17:38 06.09.2019
2191 Clear 19 1020 37 10000 3.1 240 17:19 06.09.2019
2192 Clear 19 1020 37 10000 3.1 240 17:19 06.09.2019
2193 Clear 20 1021 37 10000 4.6 240 16:41 06.09.2019
2194 Clear 19 1021 37 10000 4.6 240 16:19 06.09.2019
2195 Clear 19 1022 37 10000 3.1 240 15:56 06.09.2019
2196 Clear 19 1022 37 10000 3.6 220 15:38 06.09.2019
2197 Clear 19 1022 37 10000 3.6 220 15:20 06.09.2019
2198 Clear 19 1023 39 10000 4.1 280 14:39 06.09.2019
2199 Clear 18 1023 39 10000 4.1 280 14:18 06.09.2019
2200 Clouds 18 1023 42 10000 4.6 270 13:43 06.09.2019
2201 Clouds 18 1023 42 10000 4.6 270 13:22 06.09.2019
2202 Clouds 17 1024 51 10000 5.1 250 12:41 06.09.2019
2203 Clouds 16 1024 51 10000 5.1 250 12:23 06.09.2019
2204 Clouds 16 1024 54 10000 5.7 260 11:58 06.09.2019
2205 Clear 15 1024 58 10000 5.1 240 11:40 06.09.2019
2206 Clear 15 1024 58 10000 5.1 240 11:21 06.09.2019
2207 Clear 13 1024 67 10000 4.1 220 10:43 06.09.2019
2208 Clear 13 1024 67 10000 4.1 220 10:22 06.09.2019
2209 Clear 13 1024 71 10000 4.1 220 09:58 06.09.2019
2210 Clear 12 1024 76 10000 3.1 210 09:37 06.09.2019
2211 Clear 11 1024 76 10000 3.1 210 09:19 06.09.2019
2212 Clear 10 1024 87 10000 1.5 230 08:45 06.09.2019
2213 Clear 9 1024 87 10000 1.5 230 08:26 06.09.2019
2214 Clear 7 1024 87 10000 1 0 07:51 06.09.2019
2215 Clear 7 1024 87 10000 1 0 07:28 06.09.2019
2216 Clear 6 1026 99 0 0.45 0 06:59 06.09.2019
2217 Clear 6 1026 99 0 2.91 220.854 06:41 06.09.2019
2218 Clear 7 1025 99 0 0.45 0 05:47 06.09.2019
2219 Clear 7 1023 93 0 2.83 229.902 04:56 06.09.2019
2220 Clear 7 1025 99 0 0.45 0 04:25 06.09.2019
2221 Clear 8 1023 92 0 3.16 242.908 02:46 06.09.2019
2222 Clear 9 1025 94 0 2.91 245.215 01:31 06.09.2019
2223 Rain 10 1025 89 0 1.34 248 00:22 06.09.2019
2224 Rain 11 1025 86 0 3.24 269.222 23:42 05.09.2019
2225 Clear 12 1022 62 10000 2.6 290 23:22 05.09.2019
2226 Rain 11 1024 85 0 0.45 0 22:46 05.09.2019
2227 Clear 12 1022 62 10000 2.6 290 22:27 05.09.2019
2228 Clear 12 1021 62 10000 3.6 310 21:58 05.09.2019
2229 Clouds 13 1021 62 10000 4.1 320 21:40 05.09.2019
2230 Clouds 13 1021 62 10000 4.1 320 21:20 05.09.2019
2231 Clouds 13 1020 58 10000 5.7 300 20:58 05.09.2019
2232 Clouds 13 1020 59 10000 5.7 280 20:40 05.09.2019
2233 Clouds 13 1020 59 10000 5.7 280 20:21 05.09.2019
2234 Clouds 13 1019 59 10000 5.7 290 19:59 05.09.2019
2235 Clouds 14 1019 55 10000 5.1 290 19:41 05.09.2019
2236 Clouds 14 1019 55 10000 5.1 290 19:22 05.09.2019
2237 Clouds 15 1018 59 10000 6.7 290 18:45 05.09.2019
2238 Clouds 15 1018 59 10000 6.7 290 18:45 05.09.2019
2239 Clouds 15 1018 59 10000 6.7 290 18:27 05.09.2019
2240 Clear 16 1018 59 10000 4.6 300 17:59 05.09.2019
2241 Clouds 16 1018 63 10000 7.7 310 17:40 05.09.2019
2242 Clouds 16 1018 63 10000 7.7 310 17:40 05.09.2019
2243 Clouds 16 1018 63 10000 7.7 310 17:22 05.09.2019
2244 Clouds 17 1017 52 10000 6.2 290 16:58 05.09.2019
2245 Clear 17 1017 52 10000 7.2 300 16:40 05.09.2019
2246 Clear 17 1017 52 10000 7.2 300 16:19 05.09.2019
2247 -273 0 0 0 0 0 15:55 05.09.2019
2248 Clouds 19 1016 55 10000 5.1 300 15:37 05.09.2019
2249 Clouds 19 1016 55 10000 5.1 300 15:18 05.09.2019
2250 Clouds 18 1016 59 10000 6.7 270 14:42 05.09.2019
2251 Clouds 18 1016 59 10000 6.7 270 14:20 05.09.2019
2252 Clouds 17 1015 59 10000 8.7 270 13:44 05.09.2019
2253 Clouds 18 1015 59 10000 8.7 270 13:23 05.09.2019
2254 Clouds 17 1014 55 10000 8.7 270 12:58 05.09.2019
2255 Clouds 17 1014 63 10000 8.7 260 12:38 05.09.2019
2256 Clouds 17 1014 63 10000 8.7 260 12:20 05.09.2019
2257 Clouds 16 1014 67 10000 7.2 260 11:43 05.09.2019
2258 Clouds 16 1014 67 10000 7.2 260 11:20 05.09.2019
2259 Clear 16 1013 67 10000 6.2 250 10:43 05.09.2019
2260 Clear 16 1013 67 10000 6.2 250 10:23 05.09.2019
2261 Clear 16 1013 67 10000 6.2 250 10:23 05.09.2019
2262 Clear 16 1013 72 10000 5.7 240 09:59 05.09.2019
2263 Clear 15 1013 82 10000 3.6 210 09:40 05.09.2019
2264 Clear 14 1013 82 10000 3.6 210 09:19 05.09.2019
2265 Clear 14 1013 87 10000 2.6 200 08:46 05.09.2019
2266 Clear 13 1013 87 10000 2.6 200 08:27 05.09.2019
2267 Clouds 12 1013 93 10000 2.1 200 07:48 05.09.2019
2268 Clear 11 1013 87 10000 2.1 160 07:29 05.09.2019
2269 Clouds 11 1016 99 0 1.79 225 06:58 05.09.2019
2270 Clouds 11 1016 99 0 2.68 225 06:33 05.09.2019
2271 Clouds 11 1016 99 0 2.68 225 06:33 05.09.2019
2272 Clouds 11 1016 99 0 1.79 225 05:59 05.09.2019
2273 Clouds 12 1016 99 0 1.79 180 05:38 05.09.2019
2274 Clouds 12 1015 99 0 2.68 225 05:19 05.09.2019
2275 Clouds 12 1015 99 0 2.24 225 04:29 05.09.2019
2276 Clouds 13 1015 99 0 3.58 225 03:41 05.09.2019
2277 Rain 14 1015 97 0 2.68 248 02:54 05.09.2019
2278 Rain 14 1015 98 0 1.79 225 02:28 05.09.2019
2279 Rain 15 1015 99 0 5.36 248 01:43 05.09.2019
2280 Rain 15 1009 94 0 4.39 253.75 00:51 05.09.2019
2281 Rain 15 1015 98 0 2.24 225 00:23 05.09.2019
2282 Rain 15 1015 97 0 1.34 225 23:59 04.09.2019
2283 Rain 15 1016 95 0 1.79 225 23:39 04.09.2019
2284 Clouds 16 1012 77 10000 4.6 290 23:19 04.09.2019
2285 Clouds 16 1012 77 10000 4.6 290 22:47 04.09.2019
2286 Clouds 17 1012 77 10000 4.6 290 22:19 04.09.2019
2287 Clear 17 1012 77 10000 8.2 300 21:55 04.09.2019
2288 Clear 17 1012 77 10000 8.2 300 21:55 04.09.2019
2289 Clear 17 1012 77 10000 8.2 300 21:55 04.09.2019
2290 Clouds 17 1016 78 0 1.34 0 21:37 04.09.2019
2291 Clouds 18 1015 66 0 3.58 0 21:18 04.09.2019
2292 Clear 19 1011 46 10000 2.1 270 20:54 04.09.2019
2293 Clear 20 1011 46 10000 3.1 240 20:36 04.09.2019
2294 Clear 21 1011 46 10000 3.1 240 20:18 04.09.2019
2295 Clear 21 1011 43 10000 3.6 250 19:39 04.09.2019
2296 Clear 21 1011 43 10000 3.6 250 19:21 04.09.2019
2297 Clear 21 1011 38 10000 5.1 260 18:42 04.09.2019
2298 Clear 23 1011 38 10000 5.1 260 18:24 04.09.2019
2299 Clear 24 1011 38 10000 4.6 230 17:58 04.09.2019
2300 Clear 24 1012 38 10000 6.2 250 17:40 04.09.2019
2301 Clear 24 1012 38 10000 6.2 250 17:21 04.09.2019
2302 Clear 24 1012 40 10000 6.7 250 16:54 04.09.2019
2303 Clouds 24 1013 40 10000 5.7 230 16:36 04.09.2019
2304 Clouds 24 1013 40 10000 5.7 230 16:18 04.09.2019
2305 Clouds 23 1013 46 10000 4.6 250 15:39 04.09.2019
2306 Clouds 23 1013 46 10000 4.6 250 15:21 04.09.2019
2307 Clouds 22 1014 46 10000 5.7 240 14:58 04.09.2019
2308 Clouds 23 1014 49 10000 5.1 240 14:38 04.09.2019
2309 Clouds 23 1014 49 10000 5.1 240 14:38 04.09.2019
2310 Clouds 22 1014 49 10000 5.1 240 14:20 04.09.2019
2311 Clouds 22 1015 52 10000 4.1 230 13:57 04.09.2019
2312 Clouds 21 1015 59 10000 4.1 220 13:38 04.09.2019
2313 Clouds 21 1015 59 10000 4.1 220 13:38 04.09.2019
2314 Clouds 21 1015 59 10000 4.1 220 13:19 04.09.2019
2315 Clouds 19 1016 55 10000 3.6 210 12:43 04.09.2019
2316 Clouds 19 1016 55 10000 3.6 210 12:24 04.09.2019
2317 Clouds 18 1017 59 10000 4.1 220 11:56 04.09.2019
2318 Clouds 18 1017 63 10000 2.1 200 11:38 04.09.2019
2319 Clouds 18 1017 63 10000 2.1 200 11:19 04.09.2019
2320 Clouds 17 1017 67 10000 2.6 180 10:55 04.09.2019
2321 Clouds 17 1017 67 10000 2.6 170 10:36 04.09.2019
2322 Clouds 17 1017 67 10000 2.6 170 10:18 04.09.2019
2323 Clear 16 1018 72 10000 2.1 160 09:42 04.09.2019
2324 Clear 16 1018 72 10000 2.1 160 09:19 04.09.2019
2325 Clouds 15 1018 77 10000 2.6 170 08:42 04.09.2019
2326 Clouds 15 1018 77 10000 2.6 170 08:24 04.09.2019
2327 Clouds 14 1018 77 10000 2.6 170 07:58 04.09.2019
2328 Clear 14 1019 77 10000 2.1 160 07:35 04.09.2019
2329 Clouds 14 1021 80 0 2.68 225 06:53 04.09.2019
2330 Clouds 13 1021 82 0 1.34 180 06:32 04.09.2019
2331 Clear 12 1022 99 0 1.91 198.056 04:54 04.09.2019
2332 Clear 13 1022 99 0 1.91 198.056 04:22 04.09.2019
2333 Clouds 13 1019 80 0 2.51 211.437 02:36 04.09.2019
2334 Clouds 13 1019 80 0 2.51 211.437 02:36 04.09.2019
2335 Clouds 13 1024 93 0 2.93 217.124 00:58 04.09.2019
2336 Clouds 13 1023 91 0 0.45 0 00:39 04.09.2019
2337 Clouds 14 1023 88 0 0.45 0 00:18 04.09.2019
2338 Clouds 15 1024 84 0 0.89 0 23:47 03.09.2019
2339 Clouds 15 1022 72 10000 3.6 260 23:23 03.09.2019
2340 Clouds 15 1022 72 10000 3.6 260 22:41 03.09.2019
2341 Clouds 16 1022 72 10000 3.6 260 22:22 03.09.2019
2342 Clouds 16 1022 72 10000 4.1 260 21:57 03.09.2019
2343 Clouds 16 1022 72 10000 4.1 260 21:38 03.09.2019
2344 Clouds 17 1022 72 10000 4.1 260 21:20 03.09.2019
2345 Clouds 17 1022 68 10000 4.1 250 20:55 03.09.2019
2346 Clouds 17 1022 63 10000 3.6 260 20:36 03.09.2019
2347 Clouds 17 1021 63 10000 4.6 260 20:18 03.09.2019
2348 Clouds 18 1022 59 10000 6.2 270 19:43 03.09.2019
2349 Clouds 18 1022 59 10000 6.2 270 19:19 03.09.2019
2350 Clouds 18 1022 59 10000 6.2 270 18:57 03.09.2019
2351 Clouds 18 1021 59 10000 6.2 260 18:38 03.09.2019
2352 Clouds 19 1022 59 10000 5.7 250 18:19 03.09.2019
2353 -273 0 0 0 0 0 17:55 03.09.2019
2354 -273 0 0 0 0 0 17:55 03.09.2019
2355 -273 0 0 0 0 0 17:55 03.09.2019
2356 Clouds 19 1022 59 10000 6.2 270 17:36 03.09.2019
2357 Clouds 19 1022 59 10000 6.2 270 17:18 03.09.2019
2358 Clouds 19 1021 56 10000 5.1 280 16:42 03.09.2019
2359 Clouds 19 1021 56 10000 5.1 280 16:22 03.09.2019
2360 Clouds 19 1021 56 10000 6.2 270 15:55 03.09.2019
2361 Clouds 20 1021 56 10000 6.7 280 15:37 03.09.2019
2362 Clouds 20 1021 56 10000 6.7 280 15:19 03.09.2019
2363 Clear 20 1022 55 10000 5.7 270 14:55 03.09.2019
2364 Clouds 19 1022 59 10000 5.1 260 14:36 03.09.2019
2365 Clouds 19 1022 59 10000 5.1 260 14:18 03.09.2019
2366 Clouds 19 1022 55 10000 5.1 260 13:55 03.09.2019
2367 Clouds 19 1022 52 10000 5.1 240 13:37 03.09.2019
2368 Clouds 19 1022 52 10000 5.1 240 13:18 03.09.2019
2369 Clear 19 1022 55 10000 4.6 230 12:46 03.09.2019
2370 Clear 18 1022 55 10000 4.6 230 12:28 03.09.2019
2371 Clear 17 1022 59 10000 4.6 250 11:44 03.09.2019
2372 Clear 17 1022 59 10000 4.6 250 11:25 03.09.2019
2373 Drizzle 17 1022 59 10000 4.1 250 10:59 03.09.2019
2374 Drizzle 17 1022 59 10000 4.1 250 10:59 03.09.2019
2375 Clear 16 1022 51 10000 4.6 240 10:40 03.09.2019
2376 Clear 16 1022 51 10000 4.6 240 10:21 03.09.2019
2377 Clear 15 1022 55 10000 3.6 220 09:51 03.09.2019
2378 Clear 15 1022 62 10000 1.5 0 09:33 03.09.2019
2379 Clear 14 1022 66 10000 1.5 0 08:57 03.09.2019
2380 Clear 13 1022 66 10000 1.5 0 08:38 03.09.2019
2381 Clear 13 1022 66 10000 1.5 0 08:19 03.09.2019
2382 Clear 12 1022 71 10000 3.49 215.036 07:43 03.09.2019
2383 Clear 12 1022 71 10000 3.49 215.036 07:24 03.09.2019
2384 Clear 11 1022 71 10000 2.1 220 06:54 03.09.2019
2385 Clear 11 1022 76 10000 2.1 180 06:36 03.09.2019
2386 Clear 10 1022 74 0 3 206.582 03:44 03.09.2019
2387 Clear 10 1020 79 0 2.06 205.819 02:49 03.09.2019
2388 Clear 10 1023 82 0 1.79 42 02:30 03.09.2019
2389 Clear 9 1022 80 0 2.06 205.819 01:58 03.09.2019
2390 Clear 9 1025 99 0 0.45 0 01:40 03.09.2019
2391 Clear 10 1020 81 0 2.15 208.78 01:21 03.09.2019
2392 Clear 10 1022 78 0 2.15 208.78 00:28 03.09.2019
2393 Clear 11 1022 77 0 0.45 90 23:56 02.09.2019
2394 Clear 11 1022 76 0 1.62 214.641 23:36 02.09.2019
2395 Clear 12 1023 62 10000 1.62 214.641 23:18 02.09.2019
2396 Clear 12 1023 62 10000 1.62 214.641 23:18 02.09.2019
2397 Clear 12 1023 62 10000 1.62 214.641 23:18 02.09.2019
2398 Clear 12 1023 62 10000 1.62 214.641 22:54 02.09.2019
2399 Clear 12 1023 62 10000 1.62 214.641 22:36 02.09.2019
2400 Clear 13 1023 62 10000 1.62 214.641 22:18 02.09.2019
2401 Clear 13 1023 58 10000 0.5 0 21:54 02.09.2019
2402 Clear 14 1022 58 10000 2.42 218.279 21:36 02.09.2019
2403 Clear 14 1022 58 10000 2.58 280.124 21:18 02.09.2019
2404 Clouds 15 1021 67 0 2.58 280.124 20:41 02.09.2019
2405 Clear 16 1022 42 10000 2.1 330 20:22 02.09.2019
2406 Clear 16 1022 42 10000 2.1 330 20:22 02.09.2019
2407 Clear 17 1022 39 10000 4.1 280 19:57 02.09.2019
2408 Clear 17 1022 39 10000 4.1 280 19:39 02.09.2019
2409 Clear 17 1022 39 10000 4.1 280 19:39 02.09.2019
2410 Clear 18 1022 34 10000 4.6 300 19:21 02.09.2019
2411 Clear 19 1021 35 10000 5.1 290 18:42 02.09.2019
2412 -273 0 0 0 0 0 18:23 02.09.2019
2413 Clear 20 1021 37 10000 5.7 290 17:59 02.09.2019
2414 Clear 20 1021 37 10000 6.2 310 17:40 02.09.2019
2415 Clear 20 1021 37 10000 6.2 310 17:21 02.09.2019
2416 Clear 20 1021 40 10000 6.2 270 16:59 02.09.2019
2417 Clear 20 1021 40 10000 5.1 270 16:39 02.09.2019
2418 Clear 20 1021 40 10000 5.1 270 16:20 02.09.2019
2419 Clear 20 1021 40 10000 5.1 270 16:20 02.09.2019
2420 Clear 20 1021 42 10000 4.6 300 15:46 02.09.2019
2421 Clear 19 1021 42 10000 4.6 300 15:27 02.09.2019
2422 Clear 19 1021 42 10000 4.6 300 15:27 02.09.2019
2423 Clear 19 1022 42 10000 5.7 310 14:58 02.09.2019
2424 Clear 19 1022 42 10000 5.7 270 14:39 02.09.2019
2425 Clear 19 1022 42 10000 5.7 270 14:21 02.09.2019
2426 Clear 19 1022 42 10000 6.2 270 13:56 02.09.2019
2427 Clouds 19 1022 45 10000 5.7 280 13:37 02.09.2019
2428 Clouds 19 1022 45 10000 5.7 280 13:18 02.09.2019
2429 Clouds 18 1021 55 10000 5.1 290 12:45 02.09.2019
2430 Clouds 18 1021 55 10000 5.1 290 12:25 02.09.2019
2431 Clouds 18 1021 55 10000 5.1 270 11:58 02.09.2019
2432 Clouds 17 1021 59 10000 4.6 290 11:39 02.09.2019
2433 Clouds 17 1021 59 10000 4.6 290 11:21 02.09.2019
2434 Clear 16 1021 59 10000 4.6 280 10:57 02.09.2019
2435 Clear 16 1021 67 10000 5.1 270 10:38 02.09.2019
2436 Clear 15 1021 67 10000 5.1 270 10:19 02.09.2019
2437 Clear 14 1020 76 10000 3.6 250 09:46 02.09.2019
2438 Clear 14 1020 76 10000 3.6 250 09:22 02.09.2019
2439 Clear 13 1020 82 10000 3.1 270 08:58 02.09.2019
2440 Clear 13 1020 87 10000 2.6 270 08:38 02.09.2019
2441 Clear 12 1020 87 10000 2.6 270 08:18 02.09.2019
2442 Clear 10 1019 93 10000 2.6 270 07:40 02.09.2019
2443 Clear 10 1019 93 10000 2.6 270 07:21 02.09.2019
2444 Clear 10 1021 99 0 3.04 240.503 06:45 02.09.2019
2445 Clear 10 1021 99 0 3.04 240.503 06:25 02.09.2019
2446 Clear 10 1021 99 0 0.89 0 05:48 02.09.2019
2447 Clear 10 1021 99 0 2.56 244.775 05:18 02.09.2019
2448 Clear 11 1015 99 0 2.56 244.775 04:20 02.09.2019
2449 Clouds 11 1020 98 0 0.45 0 01:46 02.09.2019
2450 Clouds 12 1014 93 0 2.08 253.964 00:49 02.09.2019
2451 Clouds 12 1020 97 0 2.08 253.964 00:30 02.09.2019
2452 Clouds 12 1019 95 0 3.1 274.268 23:45 01.09.2019
2453 Clear 13 1016 87 10000 3.1 270 23:23 01.09.2019
2454 Clear 13 1016 87 10000 3.1 270 23:23 01.09.2019
2455 Clear 13 1016 87 10000 3.1 270 22:59 01.09.2019
2456 Clear 13 1016 87 10000 3.1 270 22:59 01.09.2019
2457 Clear 14 1016 87 10000 3.1 270 22:40 01.09.2019
2458 Clear 14 1016 87 10000 3.1 270 22:19 01.09.2019
2459 Clear 14 1016 77 10000 3.1 260 21:57 01.09.2019
2460 Clear 14 1016 77 10000 2.1 250 21:39 01.09.2019
2461 Clear 15 1016 77 10000 2.1 250 21:20 01.09.2019
2462 Clear 15 1015 72 10000 2.1 240 20:57 01.09.2019
2463 Clear 15 1015 77 10000 1.5 0 20:38 01.09.2019
2464 Clear 16 1015 77 10000 1.5 0 20:38 01.09.2019
2465 Clear 16 1015 77 10000 1 0 20:18 01.09.2019
2466 Clear 16 1015 77 10000 1 0 19:57 01.09.2019
2467 Clear 16 1015 77 10000 1 0 19:37 01.09.2019
2468 Clear 16 1015 77 10000 2.6 270 19:19 01.09.2019
2469 Drizzle 16 1015 67 10000 3.1 310 18:43 01.09.2019
2470 Drizzle 17 1015 67 10000 3.1 310 18:25 01.09.2019
2471 Clouds 17 1014 72 10000 4.1 310 17:56 01.09.2019
2472 Clouds 17 1014 68 10000 7.2 300 17:38 01.09.2019
2473 Clouds 17 1014 68 10000 7.2 300 17:19 01.09.2019
2474 -273 0 0 0 0 0 17:19 01.09.2019
2475 Rain 17 1017 80 0 2.24 0 16:41 01.09.2019
2476 Clouds 18 1013 60 10000 7.2 300 16:19 01.09.2019
2477 Clouds 19 1012 60 10000 6.2 310 15:49 01.09.2019
2478 Clouds 20 1012 53 10000 7.2 280 15:31 01.09.2019
2479 Clouds 21 1012 50 10000 6.2 290 14:59 01.09.2019
2480 Clouds 22 1012 53 10000 6.2 290 14:40 01.09.2019
2481 Clouds 22 1012 53 10000 6.2 290 14:40 01.09.2019
2482 Clouds 22 1012 53 10000 6.2 290 14:21 01.09.2019
2483 Clouds 22 1012 60 10000 6.2 290 13:56 01.09.2019
2484 Clouds 21 1012 56 10000 6.2 290 13:37 01.09.2019
2485 Clouds 22 1012 56 10000 6.2 290 13:19 01.09.2019
2486 Clouds 21 1012 68 10000 5.7 280 12:42 01.09.2019
2487 Clouds 21 1012 68 10000 5.7 280 12:24 01.09.2019
2488 Clouds 21 1012 68 10000 5.7 290 11:55 01.09.2019
2489 Clouds 20 1011 72 10000 6.2 300 11:36 01.09.2019
2490 Clouds 20 1011 72 10000 6.2 300 11:18 01.09.2019
2491 Clouds 20 1011 77 10000 5.1 290 10:43 01.09.2019
2492 Clouds 20 1011 77 10000 5.1 290 10:23 01.09.2019
2493 Clouds 20 1010 73 10000 5.7 290 09:43 01.09.2019
2494 Clouds 20 1010 73 10000 5.7 290 09:25 01.09.2019
2495 Clouds 20 1013 90 0 1.79 270 08:45 01.09.2019
2496 Clouds 20 1013 90 0 2.68 248 08:25 01.09.2019
2497 Clouds 20 1013 88 0 3.58 225 07:59 01.09.2019
2498 Clouds 20 1013 85 0 4.02 270 07:40 01.09.2019
2499 Clouds 20 1008 79 0 4 252.715 06:59 01.09.2019
2500 Clouds 19 1012 74 0 1.34 270 06:34 01.09.2019
2501 Rain 19 1012 75 0 2.24 270 05:57 01.09.2019
2502 Rain 19 1012 75 0 2.24 270 05:57 01.09.2019
2503 Rain 20 1012 69 0 0.89 315 04:34 01.09.2019
2504 Rain 20 1012 65 0 3.13 225 03:43 01.09.2019
2505 Rain 20 1012 62 0 3.58 225 02:59 01.09.2019
2506 Rain 21 1012 61 0 1.79 270 02:29 01.09.2019
2507 Rain 21 1012 55 0 1.79 225 01:51 01.09.2019
2508 Rain 21 1012 55 0 1.79 225 01:25 01.09.2019
2509 Rain 21 1013 54 0 3.58 180 00:47 01.09.2019
2510 Clear 22 1013 64 0 1.79 180 00:23 01.09.2019
2511 Clear 21 1013 77 0 0.89 0 23:56 31.08.2019
2512 Clear 21 1013 78 0 0.89 22 23:38 31.08.2019
2513 Clear 21 1013 76 0 0.89 45 23:18 31.08.2019
2514 Clear 21 1013 76 0 0.89 45 23:18 31.08.2019
2515 Clear 21 1013 74 0 0.89 45 22:54 31.08.2019
2516 Clear 21 1014 73 0 0.89 45 22:36 31.08.2019
2517 Clear 22 1014 73 0 0.89 45 22:18 31.08.2019
2518 Clear 23 1010 44 10000 1.5 120 21:40 31.08.2019
2519 Clear 23 1010 44 10000 1.5 120 21:40 31.08.2019
2520 Clear 25 1010 44 10000 1.5 120 21:21 31.08.2019
2521 Clear 25 1010 44 10000 1.5 120 20:50 31.08.2019
2522 Clear 26 1010 39 10000 1.5 140 20:31 31.08.2019
2523 Clear 27 1010 35 10000 2.1 140 19:57 31.08.2019
2524 Clear 27 1010 33 10000 3.1 150 19:39 31.08.2019
2525 Clear 29 1010 33 10000 3.1 150 19:21 31.08.2019
2526 Clear 29 1010 33 10000 3.1 150 19:21 31.08.2019
2527 Clear 30 1011 33 10000 3.6 160 18:40 31.08.2019
2528 Clear 31 1011 33 10000 3.6 160 18:21 31.08.2019
2529 Clear 31 1011 35 10000 3.1 150 17:58 31.08.2019
2530 Clear 31 1011 31 10000 3.6 180 17:37 31.08.2019
2531 Clear 32 1011 31 10000 3.6 180 17:19 31.08.2019
2532 Clear 32 1012 35 10000 3.6 150 16:59 31.08.2019
2533 Clear 31 1012 33 10000 3.6 160 16:41 31.08.2019
2534 Clear 32 1012 33 10000 3.6 160 16:21 31.08.2019
2535 Clear 32 1013 33 10000 4.1 190 15:59 31.08.2019
2536 Clear 32 1013 38 10000 1.5 0 15:38 31.08.2019
2537 Clear 31 1013 38 10000 1.5 0 15:18 31.08.2019
2538 Clear 31 1014 40 10000 3.6 140 14:42 31.08.2019
2539 Clear 31 1014 40 10000 3.6 140 14:23 31.08.2019
2540 Clear 31 1015 45 10000 3.6 170 13:43 31.08.2019
2541 Clear 31 1015 45 10000 3.6 170 13:23 31.08.2019
2542 Clear 30 1015 45 10000 2.6 170 12:59 31.08.2019
2543 Clear 30 1016 51 10000 2.1 150 12:41 31.08.2019
2544 Clear 29 1016 51 10000 2.1 150 12:21 31.08.2019
2545 Clear 29 1016 51 10000 2.1 150 12:21 31.08.2019
2546 Clear 28 1016 57 10000 2.1 160 11:58 31.08.2019
2547 Clear 28 1016 61 10000 1 0 11:40 31.08.2019
2548 Clear 27 1016 61 10000 1 0 11:22 31.08.2019
2549 Clear 26 1017 64 10000 1.5 0 10:54 31.08.2019
2550 Clear 25 1017 68 10000 2.1 130 10:36 31.08.2019
2551 Clear 24 1017 68 10000 2.1 130 10:18 31.08.2019
2552 Clear 22 1017 73 10000 1.5 0 09:39 31.08.2019
2553 Clear 21 1017 73 10000 1.5 0 09:21 31.08.2019
2554 Clear 19 1018 91 0 0.71 120.408 08:45 31.08.2019
2555 Clear 18 1016 88 0 0.71 120.408 08:27 31.08.2019
2556 Clear 16 1021 99 0 0.45 0 07:43 31.08.2019
2557 Clear 15 1021 99 0 0.45 45 07:23 31.08.2019
2558 Clear 15 1017 96 0 0.71 120.408 06:56 31.08.2019
2559 Clear 15 1017 96 0 0.71 120.408 06:56 31.08.2019
2560 Clear 15 1021 99 0 0.45 45 06:21 31.08.2019
2561 Clear 15 1021 99 0 0.88 163.5 05:35 31.08.2019
2562 Clear 16 1021 99 0 0.88 163.5 04:45 31.08.2019
2563 Clear 16 1021 99 0 0.45 45 04:27 31.08.2019
2564 Clear 16 1022 98 0 0.89 45 03:42 31.08.2019
2565 Clouds 17 1022 95 0 0.45 45 02:20 31.08.2019
2566 Clouds 17 1023 92 0 0.45 45 01:42 31.08.2019
2567 Clouds 17 1023 91 0 0.45 45 01:23 31.08.2019
2568 Clouds 18 1023 85 0 0.89 0 00:44 31.08.2019
2569 Clouds 18 1023 85 0 0.89 0 00:44 31.08.2019
2570 Clouds 18 1023 88 0 0.45 45 00:25 31.08.2019
2571 Clouds 18 1024 94 0 0.45 45 23:48 30.08.2019
2572 Clouds 19 1024 98 0 0.45 45 23:19 30.08.2019
2573 Clouds 19 1024 98 0 0.45 45 23:19 30.08.2019
2574 Clouds 19 1024 96 0 0.89 45 22:57 30.08.2019
2575 Clouds 19 1024 97 0 0.45 45 22:37 30.08.2019
2576 Clear 19 1021 68 10000 1.5 0 22:19 30.08.2019
2577 Clear 20 1021 68 10000 1.5 0 21:56 30.08.2019
2578 Clear 20 1021 68 10000 1.5 340 21:36 30.08.2019
2579 Clear 20 1021 68 10000 1.5 340 21:36 30.08.2019
2580 Clear 21 1021 68 10000 1.5 340 21:18 30.08.2019
2581 Clear 21 1021 68 10000 1.5 340 21:18 30.08.2019
2582 Clouds 22 1021 57 10000 1 10 20:43 30.08.2019
2583 Clouds 23 1021 57 10000 1 10 20:22 30.08.2019
2584 Clear 23 1021 54 10000 1.5 0 19:59 30.08.2019
2585 Clear 24 1020 51 10000 2.1 330 19:41 30.08.2019
2586 Clear 26 1020 51 10000 2.1 330 19:22 30.08.2019
2587 Clear 25 1020 51 10000 2.1 330 18:59 30.08.2019
2588 Clouds 25 1021 51 10000 1.5 0 18:41 30.08.2019
2589 Clouds 25 1021 51 10000 1.5 0 18:41 30.08.2019
2590 Clouds 25 1021 51 10000 1.5 0 18:41 30.08.2019
2591 Clouds 27 1021 51 10000 1.5 0 18:22 30.08.2019
2592 Clouds 27 1021 48 10000 1 0 17:56 30.08.2019
2593 Clouds 27 1021 51 10000 1 0 17:38 30.08.2019
2594 Clouds 27 1021 51 10000 1 0 17:18 30.08.2019
2595 Clouds 27 1021 51 10000 1 0 17:18 30.08.2019
2596 Clear 27 1021 51 10000 1 0 16:46 30.08.2019
2597 Clear 27 1021 51 10000 1 0 16:27 30.08.2019
2598 Clouds 27 1022 51 10000 1.5 0 15:57 30.08.2019
2599 Clouds 27 1022 54 10000 1.5 0 15:37 30.08.2019
2600 Clouds 27 1022 54 10000 1.5 0 15:37 30.08.2019
2601 Clouds 26 1022 54 10000 1.5 0 15:19 30.08.2019
2602 Clouds 26 1022 53 10000 2.1 0 14:42 30.08.2019
2603 Clouds 26 1022 53 10000 2.1 0 14:42 30.08.2019
2604 Clouds 25 1022 53 10000 2.1 0 14:24 30.08.2019
2605 -273 0 0 0 0 0 13:56 30.08.2019
2606 Clouds 25 1022 60 10000 1.5 0 13:56 30.08.2019
2607 Clouds 25 1022 60 10000 1.5 0 13:56 30.08.2019
2608 Clouds 25 1023 60 10000 2.1 300 13:36 30.08.2019
2609 Clouds 25 1023 60 10000 2.1 300 13:18 30.08.2019
2610 Clear 24 1023 60 10000 1 0 12:42 30.08.2019
2611 Clear 23 1023 60 10000 1 0 12:22 30.08.2019
2612 Clear 23 1023 68 10000 1 0 11:43 30.08.2019
2613 Clear 23 1023 68 10000 1 0 11:25 30.08.2019
2614 Clear 22 1023 73 10000 0.5 0 10:59 30.08.2019
2615 Clear 22 1023 77 10000 1 0 10:37 30.08.2019
2616 Clear 22 1023 77 10000 1 0 10:18 30.08.2019
2617 Clear 21 1022 82 10000 2.1 290 09:42 30.08.2019
2618 Clear 20 1022 82 10000 2.1 290 09:20 30.08.2019
2619 Clear 20 1022 88 10000 1 340 08:58 30.08.2019
2620 Clear 19 1022 93 10000 0.47 131.289 08:39 30.08.2019
2621 Clear 19 1022 93 10000 0.47 131.289 08:21 30.08.2019
2622 Clear 18 1022 93 10000 0.47 131.289 07:43 30.08.2019
2623 Clear 18 1022 93 10000 0.47 131.289 07:23 30.08.2019
2624 Clear 17 1025 93 0 0.45 90 06:47 30.08.2019
2625 Clear 18 1024 93 0 0.89 45 06:29 30.08.2019
2626 Clouds 18 1024 91 0 0.62 217.867 05:54 30.08.2019
2627 Clouds 18 1024 91 0 0.62 217.867 05:54 30.08.2019
2628 Clouds 18 1024 89 0 0.62 217.867 04:27 30.08.2019
2629 Clouds 18 1024 89 0 0.89 45 03:46 30.08.2019
2630 Clouds 18 1024 90 0 0.62 217.867 03:27 30.08.2019
2631 Clouds 19 1024 92 0 0.45 45 02:32 30.08.2019
2632 Clouds 19 1020 87 0 0.75 258.765 01:38 30.08.2019
2633 Clouds 19 1024 85 0 0.53 253.239 00:45 30.08.2019
2634 Clouds 20 1024 85 0 0.45 0 00:18 30.08.2019
2635 Clouds 20 1024 84 0 1 264.769 23:41 29.08.2019
2636 Clear 20 1020 73 10000 0.5 0 23:21 29.08.2019
2637 Clear 20 1020 73 10000 0.5 0 22:44 29.08.2019
2638 Clear 21 1020 73 10000 0.5 0 22:26 29.08.2019
2639 Clear 21 1020 68 10000 2.6 310 21:58 29.08.2019
2640 Clear 21 1020 68 10000 3.1 310 21:39 29.08.2019
2641 Clear 21 1020 68 10000 3.1 310 21:21 29.08.2019
2642 Clear 22 1020 64 10000 3.1 310 20:56 29.08.2019
2643 Clear 22 1020 64 10000 3.1 310 20:38 29.08.2019
2644 Clear 23 1019 69 10000 3.1 320 20:18 29.08.2019
2645 Clouds 24 1019 64 10000 4.1 310 19:46 29.08.2019
2646 Clear 24 1019 61 10000 4.1 300 19:26 29.08.2019
2647 Clear 24 1018 65 10000 5.1 300 18:57 29.08.2019
2648 Clear 24 1018 65 10000 5.1 300 18:39 29.08.2019
2649 Clear 25 1018 61 10000 3.6 300 18:18 29.08.2019
2650 Clouds 26 1018 57 10000 4.6 280 17:54 29.08.2019
2651 Clouds 26 1018 57 10000 4.6 280 17:36 29.08.2019
2652 Clouds 26 1018 57 10000 4.6 280 17:18 29.08.2019
2653 Clouds 26 1018 61 10000 4.1 260 16:41 29.08.2019
2654 Clear 26 1018 61 10000 3.6 260 16:23 29.08.2019
2655 Clear 26 1018 61 10000 3.6 270 15:41 29.08.2019
2656 Clear 26 1018 61 10000 3.6 270 15:22 29.08.2019
2657 Clear 26 1018 65 10000 2.1 0 14:59 29.08.2019
2658 Clear 26 1018 73 10000 2.1 210 14:41 29.08.2019
2659 Clear 26 1018 73 10000 2.1 210 14:20 29.08.2019
2660 Clear 26 1018 73 10000 2.6 160 13:57 29.08.2019
2661 Rain 26 1021 56 0 3.58 270 13:39 29.08.2019
2662 Rain 26 1021 52 0 4.47 202 13:19 29.08.2019
2663 Rain 26 1021 60 0 0.89 90 12:56 29.08.2019
2664 Rain 25 1021 60 0 0.89 0 12:38 29.08.2019
2665 Clouds 24 1018 88 10000 2.1 200 12:20 29.08.2019
2666 Thunderstorm 22 1018 82 10000 3.1 290 11:43 29.08.2019
2667 Thunderstorm 23 1018 82 10000 3.1 290 11:21 29.08.2019
2668 Clouds 23 1018 82 10000 1 0 10:59 29.08.2019
2669 Clear 23 1017 82 10000 1.5 0 10:40 29.08.2019
2670 Clear 22 1017 82 10000 1.5 0 10:22 29.08.2019
2671 Thunderstorm 21 1018 88 5000 4.6 270 09:41 29.08.2019
2672 Thunderstorm 20 1018 88 5000 4.6 270 09:20 29.08.2019
2673 -273 0 0 0 0 0 08:56 29.08.2019
2674 Clear 19 1016 93 10000 1.5 100 08:36 29.08.2019
2675 Clear 18 1016 93 10000 1.5 100 08:18 29.08.2019
2676 Clear 18 1015 93 10000 1 0 07:41 29.08.2019
2677 Clear 17 1015 93 10000 1 0 07:23 29.08.2019
2678 Clouds 17 1014 81 0 2.39 233.591 06:41 29.08.2019
2679 Rain 17 1011 81 0 1.81 222.98 06:18 29.08.2019
2680 Rain 17 1014 83 0 1.81 222.98 05:34 29.08.2019
2681 Rain 17 1011 84 0 1.81 222.98 04:50 29.08.2019
2682 Rain 17 1014 84 0 1.81 222.98 04:28 29.08.2019
2683 Rain 18 1014 76 0 1.52 194.815 02:27 29.08.2019
2684 Rain 19 1014 75 0 1.52 194.815 01:41 29.08.2019
2685 Clouds 19 1014 73 0 1.3 225.312 00:56 29.08.2019
2686 Clouds 19 1014 72 0 1.3 225.312 00:37 29.08.2019
2687 Rain 20 1015 71 0 1.34 39 00:18 29.08.2019
2688 Rain 21 1018 90 0 0.89 0 23:41 28.08.2019
2689 Clear 22 1014 64 10000 1.85 185.439 23:23 28.08.2019
2690 Clear 21 1014 64 10000 1.85 185.439 22:58 28.08.2019
2691 Clear 21 1014 64 10000 1.85 185.439 22:38 28.08.2019
2692 Clear 22 1014 64 10000 1.85 185.439 22:18 28.08.2019
2693 Clear 22 1014 60 10000 0.5 0 21:57 28.08.2019
2694 Clear 23 1013 53 10000 1.85 206.037 21:38 28.08.2019
2695 Clear 23 1013 53 10000 1.82 235.054 21:20 28.08.2019
2696 Clear 25 1013 45 10000 2.6 300 20:41 28.08.2019
2697 Clear 25 1013 45 10000 2.6 300 20:22 28.08.2019
2698 Rain 26 1012 49 0 1.82 235.054 19:55 28.08.2019
2699 Rain 27 1017 54 0 0.45 270 19:37 28.08.2019
2700 Rain 27 1017 51 0 0.89 270 19:18 28.08.2019
2701 Clear 28 1013 40 10000 2.1 170 18:42 28.08.2019
2702 Clear 30 1013 40 10000 2.1 170 18:21 28.08.2019
2703 Clouds 30 1013 37 10000 2.1 190 17:55 28.08.2019
2704 Clear 31 1012 38 10000 2.6 200 17:37 28.08.2019
2705 Clear 30 1012 38 10000 2.6 200 17:19 28.08.2019
2706 Clear 30 1013 38 10000 4.1 0 16:42 28.08.2019
2707 Clear 31 1013 38 10000 4.1 0 16:18 28.08.2019
2708 Clear 31 1013 31 10000 3.1 260 15:54 28.08.2019
2709 Clear 31 1013 36 10000 2.6 250 15:36 28.08.2019
2710 Clear 31 1013 36 10000 2.6 250 15:36 28.08.2019
2711 Clear 31 1013 36 10000 2.6 250 15:36 28.08.2019
2712 Clear 31 1013 36 10000 2.6 250 15:18 28.08.2019
2713 Clear 32 1013 38 10000 3.6 200 14:55 28.08.2019
2714 Clear 31 1013 40 10000 3.1 240 14:36 28.08.2019
2715 Clear 32 1013 40 10000 3.1 240 14:18 28.08.2019
2716 Clear 31 1014 45 10000 2.6 220 13:39 28.08.2019
2717 Clear 31 1014 45 10000 2.6 220 13:39 28.08.2019
2718 Clear 31 1014 45 10000 2.6 220 13:20 28.08.2019
2719 Clear 30 1014 51 10000 2.6 210 12:58 28.08.2019
2720 Clear 29 1014 51 10000 2.6 220 12:40 28.08.2019
2721 Clear 29 1014 51 10000 2.6 220 12:40 28.08.2019
2722 Clear 28 1014 51 10000 2.6 220 12:21 28.08.2019
2723 Clear 27 1014 57 10000 2.1 190 11:40 28.08.2019
2724 Clear 27 1014 57 10000 2.1 190 11:22 28.08.2019
2725 Clear 26 1014 65 10000 1.5 0 10:58 28.08.2019
2726 Clear 26 1014 64 10000 2.1 180 10:40 28.08.2019
2727 Clear 24 1014 64 10000 2.1 180 10:20 28.08.2019
2728 Clear 23 1014 69 10000 1 0 09:42 28.08.2019
2729 Clear 22 1014 69 10000 1 0 09:22 28.08.2019
2730 Clear 21 1014 77 10000 1.74 209.003 08:59 28.08.2019
2731 Clear 20 1014 88 10000 1.5 90 08:38 28.08.2019
2732 Clear 20 1014 88 10000 1.5 90 08:19 28.08.2019
2733 Clouds 19 1018 99 0 1.74 209.003 07:39 28.08.2019
2734 Clouds 18 1018 99 0 0.45 45 07:20 28.08.2019
2735 Clouds 18 1011 84 0 1.74 209.003 06:50 28.08.2019
2736 Clouds 18 1011 78 0 1.74 209.003 06:31 28.08.2019
2737 Clouds 18 1011 87 0 1.97 203.951 05:24 28.08.2019
2738 Rain 18 1011 81 0 1.35 153.968 02:24 28.08.2019
2739 Rain 19 1014 85 0 1.07 185.886 01:31 28.08.2019
2740 Rain 19 1011 77 0 1.07 185.886 00:54 28.08.2019
2741 Rain 19 1014 83 0 1.07 185.886 00:34 28.08.2019
2742 Clouds 20 1014 81 0 2.1 217.214 23:58 27.08.2019
2743 Clouds 21 1014 79 0 2.1 217.214 23:38 27.08.2019
2744 Clear 21 1016 73 10000 1 0 23:19 27.08.2019
2745 Clear 21 1016 73 10000 1 0 22:42 27.08.2019
2746 Clear 21 1016 73 10000 1 0 22:23 27.08.2019
2747 Clear 21 1016 73 10000 1 0 22:23 27.08.2019
2748 Clear 21 1015 69 10000 2.1 140 21:57 27.08.2019
2749 Clear 22 1015 64 10000 2.1 110 21:38 27.08.2019
2750 Clear 22 1015 64 10000 2.1 110 21:38 27.08.2019
2751 Clear 22 1015 64 10000 2.1 110 21:20 27.08.2019
2752 Clear 23 1015 60 10000 2.1 100 20:59 27.08.2019
2753 Clear 23 1015 57 10000 2.6 120 20:40 27.08.2019
2754 Clear 24 1015 57 10000 2.6 120 20:19 27.08.2019
2755 Clear 24 1015 57 10000 3.6 120 19:46 27.08.2019
2756 Clear 25 1015 57 10000 3.6 120 19:28 27.08.2019
2757 Clear 26 1015 57 10000 1.5 100 18:59 27.08.2019
2758 Clear 26 1015 57 10000 2.6 150 18:41 27.08.2019
2759 Clouds 26 1015 60 10000 4.1 170 18:18 27.08.2019
2760 Clouds 27 1015 60 10000 4.1 170 17:56 27.08.2019
2761 Clouds 27 1015 60 10000 4.1 170 17:56 27.08.2019
2762 Rain 27 1016 54 10000 3.6 160 17:37 27.08.2019
2763 Rain 28 1016 54 10000 3.6 160 17:18 27.08.2019
2764 Clouds 28 1015 42 10000 2.6 220 16:43 27.08.2019
2765 Clouds 28 1015 42 10000 2.6 220 16:24 27.08.2019
2766 Clouds 28 1016 40 10000 3.6 220 15:57 27.08.2019
2767 Clouds 30 1016 33 10000 2.6 160 15:38 27.08.2019
2768 Clouds 31 1016 33 10000 2.6 160 15:19 27.08.2019
2769 Clear 31 1016 35 10000 3.6 180 14:43 27.08.2019
2770 Clear 31 1016 35 10000 3.6 180 14:24 27.08.2019
2771 Clear 31 1016 35 10000 3.6 180 14:24 27.08.2019
2772 Clear 32 1016 43 10000 2.6 0 13:56 27.08.2019
2773 Clear 32 1017 45 10000 3.1 150 13:36 27.08.2019
2774 Clear 31 1017 45 10000 3.1 150 13:18 27.08.2019
2775 -273 0 0 0 0 0 12:41 27.08.2019
2776 Clear 29 1017 48 10000 2.1 0 12:20 27.08.2019
2777 Clear 28 1017 51 10000 2.1 120 11:56 27.08.2019
2778 Clear 27 1017 57 10000 1 0 11:37 27.08.2019
2779 Clear 27 1017 57 10000 1 0 11:18 27.08.2019
2780 Clear 26 1017 64 10000 1.5 0 10:40 27.08.2019
2781 Clear 25 1017 64 10000 1.5 0 10:19 27.08.2019
2782 Clear 23 1018 73 10000 1.5 100 09:55 27.08.2019
2783 Clear 22 1018 73 10000 1.5 0 09:36 27.08.2019
2784 Clear 22 1018 73 10000 1.5 0 09:18 27.08.2019
2785 Clear 20 1017 82 10000 1 100 08:42 27.08.2019
2786 Clear 19 1017 82 10000 1 100 08:23 27.08.2019
2787 Clear 18 1018 88 10000 2.1 120 07:42 27.08.2019
2788 Clear 17 1018 88 10000 2.1 120 07:20 27.08.2019
2789 Clear 18 1017 82 10000 2.6 90 06:58 27.08.2019
2790 Clear 18 1017 82 10000 2.6 90 06:37 27.08.2019
2791 Rain 17 1013 84 0 1.86 128.592 06:18 27.08.2019
2792 Rain 17 1013 81 0 1.86 128.592 05:24 27.08.2019
2793 Rain 19 1016 84 0 1.86 128.592 03:42 27.08.2019
2794 Rain 19 1016 82 0 1.58 109.551 02:26 27.08.2019
2795 Rain 20 1021 89 0 0.89 0 01:45 27.08.2019
2796 Rain 20 1021 82 0 0.89 45 01:24 27.08.2019
2797 Rain 21 1021 71 0 0.45 45 00:46 27.08.2019
2798 Rain 21 1021 75 0 0.89 22 00:25 27.08.2019
2799 Clear 22 1021 78 0 1.34 45 23:40 26.08.2019
2800 Clear 22 1018 56 10000 1 0 23:21 26.08.2019
2801 Clear 22 1018 56 10000 1 0 22:54 26.08.2019
2802 Clear 22 1018 56 10000 1 0 22:36 26.08.2019
2803 Clear 23 1018 56 10000 1 0 22:18 26.08.2019
2804 Clear 24 1018 53 10000 2.1 80 21:39 26.08.2019
2805 Clear 25 1017 44 10000 2.1 60 21:20 26.08.2019
2806 Clear 25 1017 42 10000 2.6 70 20:57 26.08.2019
2807 Clear 26 1017 42 10000 2.6 70 20:39 26.08.2019
2808 Clear 27 1017 37 10000 2.6 80 20:19 26.08.2019
2809 Clear 27 1017 35 10000 2.6 80 19:54 26.08.2019
2810 Clear 27 1017 35 10000 2.6 80 19:36 26.08.2019
2811 Clear 29 1017 33 10000 3.1 80 19:18 26.08.2019
2812 Clear 28 1017 31 10000 1.5 0 18:39 26.08.2019
2813 Clear 31 1017 31 10000 3.6 100 18:20 26.08.2019
2814 Clear 31 1017 31 10000 3.6 70 17:56 26.08.2019
2815 Clear 31 1017 31 10000 3.6 70 17:37 26.08.2019
2816 Clear 31 1018 29 10000 3.6 80 17:18 26.08.2019
2817 Clear 31 1018 31 10000 3.1 130 16:55 26.08.2019
2818 Clear 31 1018 31 10000 3.1 130 16:37 26.08.2019
2819 Clear 30 1018 29 10000 3.6 120 16:18 26.08.2019
2820 Clear 31 1018 29 10000 4.1 100 15:41 26.08.2019
2821 Clear 31 1018 29 10000 2.6 0 15:21 26.08.2019
2822 Clear 31 1019 31 10000 4.6 90 14:46 26.08.2019
2823 Clear 32 1019 31 10000 3.6 110 14:23 26.08.2019
2824 Clear 32 1019 35 10000 4.6 100 13:59 26.08.2019
2825 Clear 32 1019 35 10000 4.6 100 13:39 26.08.2019
2826 Clear 32 1019 37 10000 4.6 110 13:20 26.08.2019
2827 Clear 31 1020 37 10000 4.1 120 12:43 26.08.2019
2828 Clear 30 1020 45 10000 4.1 110 12:25 26.08.2019
2829 Clear 29 1020 45 10000 5.1 100 11:56 26.08.2019
2830 Clear 29 1020 45 10000 5.1 100 11:36 26.08.2019
2831 Clear 28 1020 51 10000 3.6 100 11:18 26.08.2019
2832 Clear 28 1020 50 10000 3.1 100 10:44 26.08.2019
2833 Clear 26 1020 53 10000 2.6 100 10:22 26.08.2019
2834 Clear 26 1020 53 10000 2.6 100 10:22 26.08.2019
2835 Clear 25 1020 57 10000 2.6 90 09:57 26.08.2019
2836 Clear 25 1020 57 10000 2.6 90 09:39 26.08.2019
2837 Clear 23 1020 60 10000 2.6 100 09:19 26.08.2019
2838 Clear 22 1020 68 10000 1.5 120 08:42 26.08.2019
2839 Clear 21 1019 73 10000 1 0 08:24 26.08.2019
2840 Clear 20 1020 77 10000 2.1 100 07:59 26.08.2019
2841 Clear 19 1020 77 10000 2.1 100 07:41 26.08.2019
2842 Clear 18 1020 77 10000 1.5 150 07:22 26.08.2019
2843 Clear 18 1015 77 0 1.9 99.482 06:45 26.08.2019
2844 Clear 17 1022 94 0 0.89 0 06:24 26.08.2019
2845 Clear 18 1022 93 0 0.89 0 05:49 26.08.2019
2846 Clear 19 1023 89 0 0.89 45 04:28 26.08.2019
2847 Clouds 20 1022 64 0 0.89 90 02:55 26.08.2019
2848 Clouds 21 1023 61 0 1.34 135 01:39 26.08.2019
2849 Clear 21 1023 61 0 0.89 90 01:18 26.08.2019
2850 Clear 21 1023 66 0 0.45 45 00:38 26.08.2019
2851 Clear 22 1023 70 0 0.89 90 00:19 26.08.2019
2852 Clear 22 1023 77 0 0.89 45 23:42 25.08.2019
2853 Clear 23 1018 74 0 2.96 135 23:18 25.08.2019
2854 Clear 23 1018 74 0 2.96 135 22:56 25.08.2019
2855 Clear 23 1018 71 0 2.96 135 22:38 25.08.2019
2856 Clear 23 1018 70 0 2.96 135 22:19 25.08.2019
2857 Clear 24 1018 72 0 2.96 135 21:56 25.08.2019
2858 Clear 24 1019 48 10000 1.5 0 21:37 25.08.2019
2859 Clear 25 1019 48 10000 1.5 0 21:18 25.08.2019
2860 Clear 26 1019 48 10000 1.5 0 20:40 25.08.2019
2861 Clear 27 1019 45 10000 2.23 86.966 20:20 25.08.2019
2862 Clear 28 1018 38 10000 1 0 19:56 25.08.2019
2863 Clear 28 1018 38 10000 1 0 19:38 25.08.2019
2864 Clear 30 1018 35 10000 1 0 19:18 25.08.2019
2865 Clear 30 1018 35 10000 1.5 0 18:57 25.08.2019
2866 Clear 30 1018 35 10000 1.5 0 18:57 25.08.2019
2867 Clear 31 1018 38 10000 1.5 0 18:39 25.08.2019
2868 Clear 31 1018 38 10000 1.5 0 18:19 25.08.2019
2869 Clear 31 1018 38 10000 1.5 0 17:42 25.08.2019
2870 Clear 31 1018 40 10000 3.6 110 17:24 25.08.2019
2871 Clear 31 1018 38 10000 2.6 0 16:54 25.08.2019
2872 Clear 31 1018 38 10000 2.6 0 16:36 25.08.2019
2873 Clear 31 1019 40 10000 2.6 150 16:18 25.08.2019
2874 Clear 31 1019 40 10000 2.6 120 15:42 25.08.2019
2875 Clear 31 1019 43 10000 3.6 110 15:23 25.08.2019
2876 Clear 31 1019 45 10000 3.1 110 14:43 25.08.2019
2877 Clear 30 1019 45 10000 2.6 0 14:24 25.08.2019
2878 Clear 30 1020 45 10000 3.1 0 13:56 25.08.2019
2879 Clear 30 1020 45 10000 3.1 0 13:37 25.08.2019
2880 Clear 30 1020 45 10000 2.1 120 13:18 25.08.2019
2881 Clear 29 1020 51 10000 2.1 100 12:42 25.08.2019
2882 Clear 28 1020 50 10000 2.1 100 12:24 25.08.2019
2883 Clear 27 1020 50 10000 3.1 110 11:58 25.08.2019
2884 Clear 27 1020 50 10000 3.1 110 11:38 25.08.2019
2885 Clear 26 1020 57 10000 2.6 100 11:20 25.08.2019
2886 Clear 26 1020 53 10000 1.5 0 10:57 25.08.2019
2887 Clear 25 1020 53 10000 1.5 0 10:38 25.08.2019
2888 Clear 24 1021 60 10000 2.6 100 10:19 25.08.2019
2889 Clear 22 1020 56 10000 3.1 90 09:44 25.08.2019
2890 Clear 21 1020 64 10000 3.1 100 09:24 25.08.2019
2891 Clear 20 1020 68 10000 2.6 90 08:48 25.08.2019
2892 Clear 19 1020 72 10000 2.1 90 08:29 25.08.2019
2893 Clear 18 1020 77 10000 1.5 0 07:55 25.08.2019
2894 Clear 17 1020 77 10000 1.5 0 07:33 25.08.2019
2895 Clear 16 1018 89 0 2.43 94.652 06:40 25.08.2019
2896 Clear 15 1022 92 0 0.45 0 05:35 25.08.2019
2897 Clear 16 1023 75 0 0.89 0 03:51 25.08.2019
2898 Clear 17 1023 71 0 0.45 90 02:55 25.08.2019
2899 Clear 17 1023 70 0 1.79 90 02:36 25.08.2019
2900 Clear 18 1023 67 0 0.89 90 00:58 25.08.2019
2901 Clear 19 1023 65 0 0.89 0 00:24 25.08.2019
2902 Clear 19 1023 63 0 0.89 45 23:59 24.08.2019
2903 Clear 20 1024 63 0 1.34 45 23:40 24.08.2019
2904 Clear 19 1023 63 0 0.89 90 23:22 24.08.2019
2905 Clear 19 1023 62 0 0.45 45 22:54 24.08.2019
2906 Clear 20 1023 63 0 0.89 45 22:36 24.08.2019
2907 Clear 20 1024 64 0 0.45 45 22:18 24.08.2019
2908 Clear 20 1024 71 0 0.89 0 21:42 24.08.2019
2909 Clear 22 1020 44 10000 1.5 0 21:24 24.08.2019
2910 Clear 23 1020 44 10000 1.5 0 20:59 24.08.2019
2911 Clear 24 1020 44 10000 1.5 0 20:41 24.08.2019
2912 Clear 25 1020 39 10000 2.6 90 20:20 24.08.2019
2913 Clear 26 1020 37 10000 3.6 120 19:59 24.08.2019
2914 Clear 26 1020 37 10000 3.6 120 19:40 24.08.2019
2915 Clear 27 1020 34 10000 3.6 130 19:22 24.08.2019
2916 Clear 27 1021 30 10000 4.6 110 18:57 24.08.2019
2917 Clear 29 1021 30 10000 4.6 110 18:37 24.08.2019
2918 Clear 28 1021 30 10000 5.1 130 18:19 24.08.2019
2919 Clear 29 1021 32 10000 4.6 120 17:43 24.08.2019
2920 Clear 29 1021 32 10000 4.1 100 17:24 24.08.2019
2921 Clear 29 1021 35 10000 3.6 90 16:44 24.08.2019
2922 Clear 29 1022 32 10000 4.6 80 16:20 24.08.2019
2923 Clear 29 1022 34 10000 4.1 120 15:57 24.08.2019
2924 Clear 29 1022 34 10000 4.1 120 15:38 24.08.2019
2925 Clear 28 1022 37 10000 5.1 90 15:20 24.08.2019
2926 Clear 28 1022 36 10000 4.6 100 14:42 24.08.2019
2927 Clear 28 1023 39 10000 6.2 100 14:21 24.08.2019
2928 Clear 28 1023 39 10000 4.6 100 13:56 24.08.2019
2929 Clear 28 1023 39 10000 4.6 100 13:37 24.08.2019
2930 Clear 28 1023 39 10000 5.7 100 13:18 24.08.2019
2931 Clear 27 1023 41 10000 4.6 110 12:42 24.08.2019
2932 Clear 26 1024 44 10000 4.6 100 12:24 24.08.2019
2933 Clear 26 1024 44 10000 4.1 100 11:57 24.08.2019
2934 Clear 25 1024 44 10000 4.1 100 11:38 24.08.2019
2935 Clear 25 1024 50 10000 4.6 100 11:18 24.08.2019
2936 Clear 24 1024 53 10000 3.1 90 10:43 24.08.2019
2937 Clear 22 1024 53 10000 3.1 100 10:23 24.08.2019
2938 Clear 21 1024 56 10000 2.6 100 09:44 24.08.2019
2939 Clear 19 1024 63 10000 1.5 0 09:20 24.08.2019
2940 Clear 18 1026 53 0 1.34 180 08:56 24.08.2019
2941 Clear 17 1026 56 0 1.79 22 08:37 24.08.2019
2942 Clear 15 1022 77 0 1.87 117.948 08:18 24.08.2019
2943 Clear 14 1026 92 0 0.45 45 07:44 24.08.2019
2944 Clear 13 1026 98 0 0.89 45 07:24 24.08.2019
2945 Clear 11 1026 93 0 0.45 0 06:24 24.08.2019
2946 Clear 11 1026 91 0 0.45 0 05:40 24.08.2019
2947 Clear 13 1026 84 0 0.89 0 03:56 24.08.2019
2948 Clear 13 1026 85 0 0.89 0 03:35 24.08.2019
2949 Clear 15 1022 77 0 1.08 117.231 02:25 24.08.2019
2950 Clear 15 1022 77 0 1.08 117.231 02:25 24.08.2019
2951 Clear 16 1027 67 0 0.89 0 01:30 24.08.2019
2952 Clear 16 1023 71 0 0.88 115.08 00:52 24.08.2019
2953 Clear 16 1023 67 0 1.66 130.328 00:25 24.08.2019
2954 Clear 16 1023 67 0 1.66 130.328 23:57 23.08.2019
2955 Clear 17 1023 65 0 1.66 130.328 23:37 23.08.2019
2956 Clear 17 1024 52 10000 1.5 0 23:18 23.08.2019
2957 Clear 18 1024 52 10000 1.5 0 22:41 23.08.2019
2958 Clear 18 1024 52 10000 1.5 0 22:23 23.08.2019
2959 Clear 19 1024 49 10000 0.5 0 21:39 23.08.2019
2960 Clear 20 1024 43 10000 1 0 21:20 23.08.2019
2961 Clear 22 1024 31 10000 1.5 0 20:56 23.08.2019
2962 Clear 23 1024 31 10000 1.5 0 20:37 23.08.2019
2963 Clear 23 1024 29 10000 1 0 20:19 23.08.2019
2964 Clear 25 1024 30 10000 1.5 0 19:43 23.08.2019
2965 Clear 26 1024 28 10000 1.5 0 19:18 23.08.2019
2966 Clear 27 1024 28 10000 2.6 360 18:45 23.08.2019
2967 Clear 28 1024 25 10000 1.5 0 18:27 23.08.2019
2968 Clear 28 1024 23 10000 2.1 0 17:54 23.08.2019
2969 Clear 28 1024 23 10000 2.1 0 17:36 23.08.2019
2970 Clear 29 1024 25 10000 1.5 0 17:18 23.08.2019
2971 Clear 29 1024 26 10000 2.1 0 16:44 23.08.2019
2972 Clear 29 1025 26 10000 2.6 270 16:25 23.08.2019
2973 Clear 28 1025 26 10000 1.5 0 15:55 23.08.2019
2974 Clear 28 1025 26 10000 1.5 0 15:36 23.08.2019
2975 Clear 28 1025 26 10000 2.1 0 15:18 23.08.2019
2976 Clear 28 1025 28 10000 1.5 0 14:41 23.08.2019
2977 Clear 28 1025 30 10000 2.6 0 14:21 23.08.2019
2978 Clear 28 1026 30 10000 2.1 0 13:56 23.08.2019
2979 Clear 27 1026 30 10000 2.1 0 13:38 23.08.2019
2980 Clear 28 1026 30 10000 1.5 0 13:19 23.08.2019
2981 Clear 27 1026 31 10000 1 0 12:57 23.08.2019
2982 Clear 26 1026 31 10000 1 0 12:38 23.08.2019
2983 Clear 25 1026 36 10000 1.5 0 12:20 23.08.2019
2984 Clear 25 1026 44 10000 1.5 0 11:55 23.08.2019
2985 Clear 25 1026 44 10000 1.5 0 11:55 23.08.2019
2986 Clear 25 1026 44 10000 1.5 0 11:36 23.08.2019
2987 Clear 23 1026 43 10000 2.1 240 11:18 23.08.2019
2988 Clear 22 1026 46 10000 2.1 250 10:42 23.08.2019
2989 Clear 21 1026 52 10000 2.1 270 10:21 23.08.2019
2990 Clear 20 1026 52 10000 1.5 0 09:56 23.08.2019
2991 Clear 19 1026 52 10000 1.5 0 09:38 23.08.2019
2992 Clear 17 1026 59 10000 1 0 09:18 23.08.2019
2993 Clear 15 1026 67 10000 1 0 08:40 23.08.2019
2994 Clear 15 1026 76 10000 1 90 08:19 23.08.2019
2995 Clear 12 1026 76 10000 1 0 07:43 23.08.2019
2996 Clear 12 1026 76 10000 1 0 07:43 23.08.2019
2997 Clear 12 1026 81 10000 1 110 07:24 23.08.2019
2998 Clear 13 1025 89 0 0.15 199.855 06:57 23.08.2019
2999 Clear 13 1022 69 0 0.15 199.855 06:38 23.08.2019
3000 Clear 10 1028 95 0 0.45 45 06:20 23.08.2019
3001 Clear 10 1028 94 0 0.45 45 05:34 23.08.2019
3002 Clear 11 1028 93 0 0.45 45 04:52 23.08.2019
3003 Clear 12 1022 68 0 1.61 186.807 03:21 23.08.2019
3004 Clear 12 1022 67 0 1.61 186.807 02:23 23.08.2019
3005 Clear 13 1028 91 0 0.89 315 01:40 23.08.2019
3006 Clear 14 1022 62 0 1.71 188.292 00:45 23.08.2019
3007 Clear 14 1022 59 0 1.87 178.529 00:21 23.08.2019
3008 Clear 15 1022 59 0 1.87 178.529 23:49 22.08.2019
3009 Clear 15 1025 62 0 3.58 45 23:31 22.08.2019
3010 Clear 16 1025 59 10000 1.5 90 22:58 22.08.2019
3011 Clear 16 1025 59 10000 1.5 90 22:40 22.08.2019
3012 Clear 17 1025 59 10000 1.5 90 22:21 22.08.2019
3013 Clear 17 1025 52 10000 1.5 100 21:56 22.08.2019
3014 Clear 18 1025 52 10000 1.5 100 21:37 22.08.2019
3015 Clear 19 1024 46 10000 0.65 211.1 21:19 22.08.2019
3016 Clear 20 1024 38 10000 1 340 20:56 22.08.2019
3017 Clear 20 1024 38 10000 1 340 20:38 22.08.2019
3018 Clear 21 1024 31 10000 2.1 300 20:18 22.08.2019
3019 Clear 21 1024 29 10000 2.1 270 19:54 22.08.2019
3020 Clear 23 1024 29 10000 2.1 270 19:36 22.08.2019
3021 Clear 24 1024 27 10000 2.1 270 19:18 22.08.2019
3022 Clear 24 1024 27 10000 2.1 270 18:55 22.08.2019
3023 Clear 25 1024 27 10000 2.1 270 18:36 22.08.2019
3024 Clear 25 1024 26 10000 2.1 280 18:18 22.08.2019
3025 Clear 26 1024 26 10000 1.5 0 17:41 22.08.2019
3026 Clear 26 1025 27 10000 3.1 130 17:21 22.08.2019
3027 Clear 26 1025 27 10000 2.1 0 16:57 22.08.2019
3028 Clear 26 1025 27 10000 2.1 0 16:39 22.08.2019
3029 Clear 26 1025 28 10000 2.6 170 16:20 22.08.2019
3030 Clear 26 1025 27 10000 1.5 0 15:57 22.08.2019
3031 Clear 26 1025 27 10000 1.5 0 15:57 22.08.2019
3032 Clear 26 1025 27 10000 1.5 0 15:57 22.08.2019
3033 Clear 26 1025 27 10000 1.5 0 15:38 22.08.2019
3034 Clear 26 1025 27 10000 1.5 0 15:38 22.08.2019
3035 Clear 25 1025 27 10000 2.6 0 15:19 22.08.2019
3036 Clear 25 1025 27 10000 2.6 0 15:19 22.08.2019
3037 Clear 25 1025 27 10000 2.6 0 15:19 22.08.2019
3038 Clear 25 1025 29 10000 2.1 0 14:56 22.08.2019
3039 Clear 25 1025 29 10000 2.1 0 14:38 22.08.2019
3040 Clear 25 1026 29 10000 3.1 170 14:18 22.08.2019
3041 Clear 25 1026 29 10000 2.1 140 13:42 22.08.2019
3042 Clear 25 1026 31 10000 2.6 0 13:24 22.08.2019
3043 Clear 25 1027 31 10000 2.6 0 12:59 22.08.2019
3044 Clear 25 1027 31 10000 2.6 0 12:39 22.08.2019
3045 Clear 23 1027 31 10000 3.1 180 12:20 22.08.2019
3046 -273 0 0 0 0 0 11:55 22.08.2019
3047 Clear 23 1027 40 10000 3.1 190 11:36 22.08.2019
3048 Clear 22 1027 40 10000 3.1 180 11:18 22.08.2019
3049 Clear 22 1027 46 10000 3.1 160 10:56 22.08.2019
3050 Clear 21 1027 46 10000 3.1 160 10:36 22.08.2019
3051 Clear 21 1027 52 10000 3.1 160 10:18 22.08.2019
3052 Clear 18 1027 55 10000 2.1 150 09:39 22.08.2019
3053 Clear 17 1027 67 10000 1 0 09:21 22.08.2019
3054 Clear 15 1027 82 10000 1.5 100 08:58 22.08.2019
3055 Clear 14 1027 82 10000 1.5 100 08:39 22.08.2019
3056 Clear 13 1027 87 10000 2.1 100 08:20 22.08.2019
3057 Clear 11 1027 81 10000 1.5 90 07:41 22.08.2019
3058 Clear 11 1027 81 10000 1.5 90 07:23 22.08.2019
3059 Clear 11 1027 87 10000 2.1 90 06:55 22.08.2019
3060 Clear 10 1029 82 0 0.89 0 06:25 22.08.2019
3061 Clear 9 1029 73 0 0.89 0 05:59 22.08.2019
3062 Clear 10 1029 59 0 1.74 158.493 04:39 22.08.2019
3063 Clouds 10 1029 90 0 0.89 45 02:52 22.08.2019
3064 Clouds 10 1029 92 0 0.89 45 02:34 22.08.2019
3065 Clouds 11 1030 92 0 0.89 45 01:25 22.08.2019
3066 Clouds 12 1026 77 0 2.02 153.93 00:45 22.08.2019
3067 Clouds 12 1026 76 0 2.02 153.93 00:27 22.08.2019
3068 Clouds 13 1026 71 0 1.68 158.515 23:55 21.08.2019
3069 Clouds 13 1026 67 0 1.68 158.515 23:37 21.08.2019
3070 Clouds 13 1024 61 0 1.68 158.515 23:18 21.08.2019
3071 Clear 14 1028 55 10000 1 100 22:55 21.08.2019
3072 Clear 14 1028 55 10000 1 100 22:37 21.08.2019
3073 Clear 14 1028 55 10000 1 100 22:19 21.08.2019
3074 Clear 15 1028 55 10000 1 100 21:55 21.08.2019
3075 Clear 16 1028 55 10000 1 100 21:36 21.08.2019
3076 Clear 16 1027 45 10000 1.5 0 21:18 21.08.2019
3077 Clear 17 1027 42 10000 1.5 0 20:42 21.08.2019
3078 Clear 18 1027 40 10000 1 0 20:24 21.08.2019
3079 Clear 18 1029 64 0 0.89 0 19:57 21.08.2019
3080 Clear 19 1027 33 10000 0.5 0 19:39 21.08.2019
3081 Clear 21 1027 30 10000 2.1 300 19:20 21.08.2019
3082 Clear 21 1027 33 10000 2.1 270 18:55 21.08.2019
3083 Clear 21 1027 33 10000 2.1 270 18:37 21.08.2019
3084 Clear 22 1028 33 10000 2.1 260 18:19 21.08.2019
3085 Clear 22 1027 33 10000 3.1 0 17:42 21.08.2019
3086 Clear 22 1027 33 10000 2.6 0 17:20 21.08.2019
3087 Clear 22 1027 33 10000 3.6 280 16:55 21.08.2019
3088 Clear 22 1027 33 10000 3.6 280 16:36 21.08.2019
3089 Clear 22 1028 33 10000 2.6 290 16:18 21.08.2019
3090 Clear 22 1028 40 10000 3.6 260 15:42 21.08.2019
3091 Clear 21 1028 42 10000 3.1 290 15:22 21.08.2019
3092 Clear 21 1028 40 10000 3.6 300 14:59 21.08.2019
3093 Clear 21 1028 40 10000 3.6 300 14:39 21.08.2019
3094 Clouds 21 1028 43 10000 3.1 260 14:21 21.08.2019
3095 Clouds 21 1028 45 10000 3.6 260 13:58 21.08.2019
3096 Clouds 21 1028 45 10000 3.6 260 13:40 21.08.2019
3097 Clear 21 1028 45 10000 3.6 270 13:19 21.08.2019
3098 Clouds 21 1028 52 10000 4.1 300 12:57 21.08.2019
3099 Clouds 20 1028 52 10000 4.1 300 12:38 21.08.2019
3100 Clouds 19 1028 55 10000 4.1 290 12:19 21.08.2019
3101 Clouds 19 1028 59 10000 3.1 300 11:43 21.08.2019
3102 Clouds 18 1028 59 10000 3.6 300 11:23 21.08.2019
3103 Clouds 18 1028 67 10000 2.6 280 10:58 21.08.2019
3104 Clouds 17 1028 67 10000 2.6 280 10:38 21.08.2019
3105 Clear 17 1028 67 10000 3.1 280 10:20 21.08.2019
3106 Clear 16 1028 77 10000 3.1 290 09:58 21.08.2019
3107 Clear 16 1028 77 10000 3.1 290 09:40 21.08.2019
3108 Clear 16 1028 82 10000 3.1 280 09:21 21.08.2019
3109 Clear 15 1028 82 10000 2.1 270 08:49 21.08.2019
3110 Clear 14 1028 93 10000 1 0 08:26 21.08.2019
3111 Clear 12 1027 93 10000 1 90 07:46 21.08.2019
3112 Clear 11 1027 93 10000 2.06 247.93 07:26 21.08.2019
3113 Clouds 11 1026 93 0 2.06 247.93 06:59 21.08.2019
3114 Clouds 10 1026 93 0 2.06 247.93 06:41 21.08.2019
3115 Clouds 10 1028 99 0 0.45 45 06:18 21.08.2019
3116 Clouds 10 1026 93 0 0.89 40 05:29 21.08.2019
3117 Clouds 11 1023 91 0 2.28 231.926 04:51 21.08.2019
3118 Clouds 13 1023 81 0 2.14 230.52 02:44 21.08.2019
3119 Clouds 13 1027 90 0 0.45 0 01:36 21.08.2019
3120 Clouds 14 1027 92 0 0.45 45 00:43 21.08.2019
3121 Clouds 14 1025 79 0 0.45 40 00:21 21.08.2019
3122 Clouds 14 1021 79 0 2.04 251.396 23:45 20.08.2019
3123 Clouds 14 1021 79 0 2.04 251.396 23:45 20.08.2019
3124 Clouds 14 1023 79 0 2.04 251.396 23:21 20.08.2019
3125 -273 0 0 0 0 0 22:59 20.08.2019
3126 Clear 15 1023 59 10000 1.5 0 22:41 20.08.2019
3127 Clear 15 1023 59 10000 1.5 0 22:22 20.08.2019
3128 Clear 16 1023 59 10000 1.5 0 21:58 20.08.2019
3129 Clear 16 1023 59 10000 1.5 0 21:39 20.08.2019
3130 Clear 16 1023 59 10000 1.5 0 21:39 20.08.2019
3131 Clear 17 1023 55 10000 2.05 240.335 21:20 20.08.2019
3132 Clear 17 1023 52 10000 2.1 250 20:59 20.08.2019
3133 Clear 17 1023 52 10000 2.1 250 20:59 20.08.2019
3134 Clear 17 1023 52 10000 2.1 250 20:41 20.08.2019
3135 Clear 18 1022 45 10000 2.6 250 20:23 20.08.2019
3136 Clear 19 1022 45 10000 2.6 270 19:41 20.08.2019
3137 Clear 19 1022 42 10000 3.1 260 19:22 20.08.2019
3138 Clear 20 1022 40 10000 3.1 250 18:58 20.08.2019
3139 Clear 20 1022 40 10000 3.1 250 18:40 20.08.2019
3140 Clear 20 1022 40 10000 3.1 250 18:40 20.08.2019
3141 Clear 20 1022 40 10000 3.1 240 18:19 20.08.2019
3142 Clear 20 1022 40 10000 3.1 240 17:58 20.08.2019
3143 Clear 20 1022 43 10000 3.1 250 17:39 20.08.2019
3144 Clear 21 1022 43 10000 3.1 250 17:20 20.08.2019
3145 Clear 21 1022 43 10000 3.1 250 17:20 20.08.2019
3146 Clear 20 1022 43 10000 4.1 250 16:46 20.08.2019
3147 Clear 21 1022 43 10000 4.1 250 16:28 20.08.2019
3148 Clear 21 1022 40 10000 3.1 270 15:58 20.08.2019
3149 Clear 21 1022 40 10000 3.6 260 15:40 20.08.2019
3150 Clear 21 1022 40 10000 3.6 260 15:18 20.08.2019
3151 Clear 21 1022 43 10000 4.1 250 14:44 20.08.2019
3152 Clear 21 1022 43 10000 4.1 250 14:44 20.08.2019
3153 Clear 21 1022 43 10000 4.1 250 14:22 20.08.2019
3154 Clear 21 1022 43 10000 4.1 250 14:22 20.08.2019
3155 Clear 21 1022 43 10000 4.1 260 13:59 20.08.2019
3156 Clear 21 1022 43 10000 4.1 250 13:40 20.08.2019
3157 Clear 21 1022 43 10000 4.1 250 13:21 20.08.2019
3158 Clear 21 1022 43 10000 4.1 240 12:55 20.08.2019
3159 Clear 21 1022 52 10000 3.6 240 12:36 20.08.2019
3160 Clear 21 1022 52 10000 3.6 240 12:36 20.08.2019
3161 Clear 20 1022 52 10000 3.6 240 12:18 20.08.2019
3162 Clear 20 1022 59 10000 3.6 240 11:42 20.08.2019
3163 Clear 19 1022 59 10000 3.6 240 11:22 20.08.2019
3164 Clear 19 1021 55 10000 3.1 260 10:57 20.08.2019
3165 Clear 19 1021 63 10000 3.1 250 10:39 20.08.2019
3166 Clear 19 1021 63 10000 3.1 250 10:39 20.08.2019
3167 Clear 18 1021 63 10000 3.1 250 10:20 20.08.2019
3168 Clear 18 1021 63 10000 2.6 250 09:58 20.08.2019
3169 Clear 17 1021 72 10000 1.5 0 09:40 20.08.2019
3170 Clear 17 1021 72 10000 1.5 0 09:40 20.08.2019
3171 Clear 16 1021 72 10000 1.5 0 09:21 20.08.2019
3172 Clear 16 1021 72 10000 1.5 0 09:21 20.08.2019
3173 Clear 15 1021 87 10000 0.5 0 08:42 20.08.2019
3174 Clear 14 1021 87 10000 0.5 0 08:23 20.08.2019
3175 Clear 13 1020 87 10000 1 0 07:57 20.08.2019
3176 Clear 13 1020 87 10000 1 0 07:57 20.08.2019
3177 Clear 12 1020 87 10000 1 0 07:38 20.08.2019
3178 Clear 12 1020 87 10000 1 0 07:20 20.08.2019
3179 Clouds 12 1019 91 0 1.98 224.98 06:43 20.08.2019
3180 Clouds 10 1017 83 0 2 209.52 06:20 20.08.2019
3181 Clouds 11 1019 91 0 2 209.52 05:42 20.08.2019
3182 Clouds 11 1022 99 0 0.45 0 04:26 20.08.2019
3183 Clouds 12 1018 89 0 2.44 221.224 02:50 20.08.2019
3184 Clouds 12 1022 99 0 2.44 221.224 01:53 20.08.2019
3185 Clouds 12 1022 98 0 2.11 204.574 01:21 20.08.2019
3186 Clouds 13 1018 84 0 2.11 204.574 00:45 20.08.2019
3187 Clouds 13 1019 82 0 2.24 34 00:25 20.08.2019
3188 Clouds 13 1015 81 0 2.08 196.981 23:50 19.08.2019
3189 Clear 14 1018 71 10000 2.08 196.981 23:19 19.08.2019
3190 Clear 14 1018 71 10000 2.08 196.981 22:58 19.08.2019
3191 Clear 14 1018 71 10000 2.08 196.981 22:40 19.08.2019
3192 Clear 15 1018 71 10000 2.08 196.981 22:21 19.08.2019
3193 Clear 15 1018 55 10000 2.08 196.981 21:57 19.08.2019
3194 Clear 15 1018 55 10000 2.08 196.981 21:57 19.08.2019
3195 Clear 16 1018 55 10000 0.5 0 21:38 19.08.2019
3196 Clear 16 1018 55 10000 0.5 0 21:38 19.08.2019
3197 Clear 16 1018 55 10000 0.5 0 21:20 19.08.2019
3198 Clear 18 1017 49 10000 2.1 270 20:56 19.08.2019
3199 Clear 18 1017 46 10000 2.6 280 20:37 19.08.2019
3200 Clear 19 1017 46 10000 2.6 280 20:19 19.08.2019
3201 Clear 20 1017 46 10000 3.6 280 19:55 19.08.2019
3202 Clear 20 1017 46 10000 3.6 280 19:55 19.08.2019
3203 Clear 20 1017 46 10000 3.6 280 19:36 19.08.2019
3204 Clear 21 1017 40 10000 4.1 280 19:18 19.08.2019
3205 Clear 22 1016 35 10000 5.7 260 18:41 19.08.2019
3206 Clear 22 1016 35 10000 5.7 260 18:23 19.08.2019
3207 Clear 22 1017 38 10000 6.2 270 17:57 19.08.2019
3208 Clear 22 1016 35 10000 6.7 260 17:38 19.08.2019
3209 Clear 22 1016 35 10000 6.7 260 17:19 19.08.2019
3210 Clear 22 1016 37 10000 6.2 250 16:54 19.08.2019
3211 Clear 22 1016 37 10000 6.2 250 16:36 19.08.2019
3212 Clear 22 1016 40 10000 6.7 250 16:18 19.08.2019
3213 Clear 22 1016 38 10000 6.7 250 15:45 19.08.2019
3214 Clear 22 1016 37 10000 7.2 250 15:20 19.08.2019
3215 Clouds 22 1016 46 10000 6.2 260 14:55 19.08.2019
3216 Clouds 22 1016 46 10000 6.2 260 14:36 19.08.2019
3217 Clouds 22 1015 49 10000 6.2 250 14:18 19.08.2019
3218 Clouds 22 1015 46 10000 6.7 250 13:55 19.08.2019
3219 Clouds 22 1015 46 10000 6.7 250 13:36 19.08.2019
3220 Clouds 22 1015 46 10000 6.7 250 13:36 19.08.2019
3221 Clouds 21 1015 49 10000 6.7 250 13:18 19.08.2019
3222 Clouds 21 1015 56 10000 5.7 260 12:43 19.08.2019
3223 Clouds 20 1015 59 10000 6.2 260 12:22 19.08.2019
3224 Clouds 20 1015 59 10000 7.2 260 11:56 19.08.2019
3225 Clouds 20 1015 59 10000 7.2 260 11:36 19.08.2019
3226 Clouds 19 1014 59 10000 5.7 270 11:18 19.08.2019
3227 Clouds 18 1014 63 10000 7.2 250 10:40 19.08.2019
3228 Clouds 18 1014 63 10000 6.2 240 10:19 19.08.2019
3229 Clouds 18 1014 68 10000 5.7 250 09:56 19.08.2019
3230 Clouds 17 1014 68 10000 5.7 250 09:38 19.08.2019
3231 Clear 17 1013 72 10000 4.6 240 09:20 19.08.2019
3232 Clear 16 1013 77 10000 4.1 230 08:46 19.08.2019
3233 Clear 16 1013 82 10000 3.1 230 08:25 19.08.2019
3234 Clear 15 1013 87 10000 4.1 230 07:59 19.08.2019
3235 Clear 15 1013 87 10000 4.1 230 07:40 19.08.2019
3236 Clear 15 1013 93 10000 2.6 220 07:21 19.08.2019
3237 Clouds 14 1016 99 0 3.13 270 06:40 19.08.2019
3238 Clouds 15 1016 99 0 3.58 225 05:28 19.08.2019
3239 Clouds 15 1015 99 0 2.68 225 04:35 19.08.2019
3240 Clouds 15 1015 99 0 2.68 225 03:58 19.08.2019
3241 Clouds 15 1015 99 0 2.68 225 03:18 19.08.2019
3242 Clouds 15 1014 99 0 0.89 225 01:45 19.08.2019
3243 Clouds 15 1014 99 0 1.34 248 00:59 19.08.2019
3244 Clouds 15 1013 99 0 2.82 220.958 00:37 19.08.2019
3245 Clouds 16 1009 88 10000 3.1 280 00:18 19.08.2019
3246 Clouds 16 1009 88 10000 3.1 280 23:40 18.08.2019
3247 Clouds 16 1009 88 10000 3.1 280 23:20 18.08.2019
3248 Clouds 16 1009 88 10000 3.1 280 23:20 18.08.2019
3249 Clouds 17 1009 88 10000 3.6 300 22:40 18.08.2019
3250 Clouds 17 1012 99 0 3.58 225 22:22 18.08.2019
3251 Clouds 17 1012 99 0 4.02 225 21:57 18.08.2019
3252 Clouds 19 1007 82 10000 5.1 290 21:39 18.08.2019
3253 Clouds 19 1007 82 10000 5.1 290 21:20 18.08.2019
3254 Clouds 19 1007 82 10000 5.1 290 20:58 18.08.2019
3255 Clouds 19 1007 82 10000 5.1 290 20:40 18.08.2019
3256 Clouds 19 1007 82 10000 5.1 290 20:40 18.08.2019
3257 Clouds 19 1007 88 10000 4.6 280 20:22 18.08.2019
3258 Clouds 20 1007 82 10000 4.6 280 19:42 18.08.2019
3259 Clouds 21 1006 83 10000 5.1 270 19:23 18.08.2019
3260 Clouds 21 1006 83 10000 3.1 280 18:57 18.08.2019
3261 Clouds 21 1006 83 10000 3.1 280 18:39 18.08.2019
3262 Clouds 21 1006 83 10000 3.1 280 18:39 18.08.2019
3263 Clear 21 1005 77 10000 4.6 250 18:21 18.08.2019
3264 Clear 21 1005 77 10000 4.6 250 18:21 18.08.2019
3265 Clear 20 1005 83 10000 5.1 250 17:55 18.08.2019
3266 Clear 20 1005 83 10000 5.1 250 17:37 18.08.2019
3267 Clear 20 1005 93 10000 5.1 230 17:18 18.08.2019
3268 Rain 20 1003 93 10000 4.6 280 16:55 18.08.2019
3269 Rain 20 1003 93 10000 4.6 280 16:36 18.08.2019
3270 Rain 20 1004 88 5000 5.1 280 16:18 18.08.2019
3271 Rain 22 1004 77 10000 2.1 0 15:40 18.08.2019
3272 Rain 22 1004 77 10000 2.1 140 15:20 18.08.2019
3273 Clouds 22 1005 77 10000 2.1 160 14:58 18.08.2019
3274 Clouds 22 1005 77 10000 2.1 160 14:39 18.08.2019
3275 Clouds 22 1005 82 10000 3.1 170 14:19 18.08.2019
3276 Rain 21 1006 73 4000 3.6 220 13:56 18.08.2019
3277 Rain 21 1006 73 4000 3.6 220 13:38 18.08.2019
3278 Clouds 20 1006 77 10000 4.1 210 13:20 18.08.2019
3279 Clouds 21 1006 77 10000 3.1 210 12:45 18.08.2019
3280 Clouds 20 1006 82 10000 2.1 250 12:23 18.08.2019
3281 Clouds 19 1006 82 10000 3.1 250 11:59 18.08.2019
3282 Clouds 19 1006 82 10000 3.1 250 11:40 18.08.2019
3283 Clouds 19 1006 82 10000 4.1 240 11:21 18.08.2019
3284 Clouds 20 1006 77 10000 3.6 220 10:41 18.08.2019
3285 Clouds 19 1006 82 10000 3.1 190 10:22 18.08.2019
3286 Clouds 19 1006 82 10000 2.6 190 09:56 18.08.2019
3287 Clouds 19 1006 82 10000 2.6 190 09:37 18.08.2019
3288 Clouds 19 1006 88 10000 2.1 170 09:18 18.08.2019
3289 Rain 16 1007 96 0 1.67 175.076 08:42 18.08.2019
3290 Rain 16 1007 96 0 1.67 175.076 08:24 18.08.2019
3291 Rain 16 1007 96 0 1.67 175.076 07:49 18.08.2019
3292 Rain 16 1007 96 0 1.67 175.076 07:29 18.08.2019
3293 Clouds 17 1008 89 0 2.08 198.051 06:19 18.08.2019
3294 Clouds 17 1008 89 0 2.08 198.051 04:59 18.08.2019
3295 Clouds 17 1008 89 0 2.08 198.051 03:51 18.08.2019
3296 Clouds 17 1009 88 0 3.94 200.91 02:52 18.08.2019
3297 Clouds 17 1009 88 0 3.94 200.91 02:32 18.08.2019
3298 Clouds 17 1009 88 0 3.94 200.91 01:53 18.08.2019
3299 Rain 16 1008 88 0 2.44 204.222 01:26 18.08.2019
3300 Rain 16 1008 88 0 2.44 204.222 01:26 18.08.2019
3301 Rain 16 1008 88 0 2.44 204.222 00:41 18.08.2019
3302 Clouds 16 1010 80 0 3.6 221.49 00:20 18.08.2019
3303 Clouds 16 1010 80 0 3.6 221.49 23:58 17.08.2019
3304 Clouds 16 1010 80 0 3.6 221.49 23:38 17.08.2019
3305 Clouds 16 1010 80 0 3.6 221.49 23:38 17.08.2019
3306 Clouds 16 1010 80 0 3.6 221.49 23:19 17.08.2019
3307 Clouds 16 1010 80 0 3.6 221.49 22:57 17.08.2019
3308 Clouds 16 1010 80 0 3.6 221.49 22:39 17.08.2019
3309 Clouds 16 1010 80 0 3.6 221.49 22:20 17.08.2019
3310 Clouds 21 1008 64 10000 4.6 230 21:54 17.08.2019
3311 Clouds 21 1008 64 10000 4.6 230 21:36 17.08.2019
3312 Clouds 21 1008 64 10000 4.6 230 21:18 17.08.2019
3313 Clouds 21 1008 64 10000 4.6 230 20:38 17.08.2019
3314 Clouds 21 1008 60 10000 4.1 220 20:19 17.08.2019
3315 Clouds 22 1008 60 10000 4.1 220 19:43 17.08.2019
3316 Clouds 22 1008 56 10000 5.1 210 19:24 17.08.2019
3317 Clouds 22 1008 56 10000 4.1 220 18:59 17.08.2019
3318 Clouds 22 1008 56 10000 4.1 220 18:39 17.08.2019
3319 Clouds 22 1008 53 10000 4.1 230 18:18 17.08.2019
3320 Clouds 22 1008 53 10000 4.6 220 17:55 17.08.2019
3321 Clouds 22 1008 53 10000 4.6 220 17:37 17.08.2019
3322 Clouds 22 1008 53 10000 4.6 220 17:37 17.08.2019
3323 Clear 22 1008 53 10000 3.6 250 17:18 17.08.2019
3324 Clear 23 1008 53 10000 3.6 270 16:41 17.08.2019
3325 Clouds 23 1008 53 10000 4.6 260 16:22 17.08.2019
3326 Clouds 23 1008 50 10000 5.1 250 15:57 17.08.2019
3327 Clouds 23 1008 50 10000 5.1 250 15:38 17.08.2019
3328 Clouds 23 1008 50 10000 4.1 250 15:20 17.08.2019
3329 Clouds 23 1008 50 10000 4.1 250 15:20 17.08.2019
3330 Clear 23 1008 53 10000 5.1 230 14:41 17.08.2019
3331 Clear 24 1008 50 10000 5.7 230 14:22 17.08.2019
3332 Clear 24 1008 53 10000 5.1 230 13:47 17.08.2019
3333 Clear 24 1008 53 10000 4.1 220 13:22 17.08.2019
3334 Clear 23 1008 56 10000 3.6 210 12:58 17.08.2019
3335 Clear 23 1008 56 10000 3.6 210 12:39 17.08.2019
3336 Clear 22 1009 56 10000 4.1 210 12:19 17.08.2019
3337 Clear 22 1009 68 10000 2.6 180 11:44 17.08.2019
3338 Clear 21 1009 64 10000 3.1 170 11:21 17.08.2019
3339 Clear 21 1009 68 10000 3.6 170 10:57 17.08.2019
3340 Clear 20 1009 68 10000 3.6 170 10:38 17.08.2019
3341 Clear 19 1009 72 10000 2.6 140 10:19 17.08.2019
3342 Clear 19 1009 72 10000 4.1 150 09:48 17.08.2019
3343 Clear 18 1009 77 10000 3.1 140 09:29 17.08.2019
3344 Clouds 18 1008 69 0 0.89 292 08:54 17.08.2019
3345 Clouds 17 1008 72 0 0.89 225 08:25 17.08.2019
3346 Clouds 17 1008 73 0 0.45 292 07:51 17.08.2019
3347 Clouds 16 1008 77 0 0.45 292 07:21 17.08.2019
3348 Clouds 16 1009 80 0 0.45 270 06:53 17.08.2019
3349 Clouds 16 1008 85 0 2.85 185.336 05:32 17.08.2019
3350 Clouds 16 1009 70 0 0.89 292 04:29 17.08.2019
3351 Clouds 16 1012 83 0 1.79 41 03:20 17.08.2019
3352 Clouds 15 1011 88 0 2.57 178.885 01:47 17.08.2019
3353 Clouds 15 1011 76 0 0.45 292 01:28 17.08.2019
3354 Clouds 15 1011 88 0 3.05 184.003 00:55 17.08.2019
3355 Clouds 15 1012 74 0 0.45 270 00:28 17.08.2019
3356 Clouds 15 1012 75 0 0.45 270 23:50 16.08.2019
3357 Clouds 15 1012 74 0 0.45 292 23:27 16.08.2019
3358 Clear 15 1014 67 10000 2.1 90 22:56 16.08.2019
3359 Clear 16 1014 67 10000 2.1 90 22:38 16.08.2019
3360 Clear 16 1014 67 10000 2.1 90 22:19 16.08.2019
3361 Clear 16 1014 63 10000 1.5 90 21:41 16.08.2019
3362 Clear 17 1014 55 10000 1.18 189.782 21:20 16.08.2019
3363 Clear 18 1014 55 10000 1 50 20:56 16.08.2019
3364 Clear 19 1014 55 10000 1 50 20:38 16.08.2019
3365 Clear 20 1014 40 10000 1.5 270 20:18 16.08.2019
3366 Clear 20 1014 43 10000 2.6 270 19:43 16.08.2019
3367 Clear 22 1014 43 10000 2.6 240 19:23 16.08.2019
3368 Clear 22 1014 37 10000 2.6 270 18:54 16.08.2019
3369 Clear 23 1014 37 10000 2.6 270 18:36 16.08.2019
3370 Clear 22 1014 40 10000 3.1 240 18:18 16.08.2019
3371 Clear 22 1015 40 10000 3.6 250 17:43 16.08.2019
3372 Clear 23 1015 38 10000 4.1 270 17:24 16.08.2019
3373 Clear 22 1015 40 10000 3.6 280 16:56 16.08.2019
3374 Clear 22 1015 40 10000 3.6 280 16:37 16.08.2019
3375 Clear 22 1015 37 10000 4.6 260 16:18 16.08.2019
3376 Clear 22 1015 43 10000 4.6 270 15:40 16.08.2019
3377 Clouds 22 1016 46 10000 4.1 270 15:22 16.08.2019
3378 Clouds 22 1016 46 10000 4.1 270 15:22 16.08.2019
3379 Clouds 22 1016 46 10000 4.6 270 14:58 16.08.2019
3380 Clouds 22 1016 46 10000 4.6 270 14:39 16.08.2019
3381 Clouds 21 1016 49 10000 5.1 280 14:19 16.08.2019
3382 Clouds 21 1016 56 10000 5.1 260 13:57 16.08.2019
3383 Clouds 21 1016 56 10000 5.1 260 13:37 16.08.2019
3384 Clouds 21 1016 56 10000 5.1 260 13:37 16.08.2019
3385 Clouds 21 1016 56 10000 5.7 270 13:19 16.08.2019
3386 Clouds 19 1016 63 10000 5.7 270 12:39 16.08.2019
3387 Clouds 19 1016 68 10000 6.2 270 12:20 16.08.2019
3388 Clouds 19 1016 68 10000 6.7 260 11:43 16.08.2019
3389 Clouds 18 1016 72 10000 5.7 270 11:24 16.08.2019
3390 Clouds 18 1016 77 10000 5.1 260 10:55 16.08.2019
3391 Clouds 18 1016 77 10000 5.1 260 10:55 16.08.2019
3392 Clouds 18 1016 77 10000 5.1 260 10:36 16.08.2019
3393 Clouds 17 1016 82 10000 5.1 250 10:18 16.08.2019
3394 Clouds 16 1016 93 10000 4.1 240 09:38 16.08.2019
3395 Rain 16 1016 87 9000 4.1 250 09:19 16.08.2019
3396 Clouds 15 1016 82 10000 4.1 250 08:56 16.08.2019
3397 Clouds 15 1016 82 10000 4.1 250 08:38 16.08.2019
3398 Clouds 15 1016 87 10000 3.6 250 08:18 16.08.2019
3399 Clouds 14 1015 87 10000 3.1 250 07:44 16.08.2019
3400 Clear 14 1015 87 10000 3.1 270 07:24 16.08.2019
3401 Clear 13 1014 93 0 5.9 247.668 06:34 16.08.2019
3402 Clear 14 1014 92 0 4.5 239.925 05:58 16.08.2019
3403 Clear 14 1014 92 0 4.5 239.925 05:58 16.08.2019
3404 Clear 14 1012 10 0 4.5 239.925 05:32 16.08.2019
3405 Clouds 15 1014 90 0 4.44 244.006 03:19 16.08.2019
3406 Clouds 15 1011 10 0 4.44 244.006 01:45 16.08.2019
3407 Clouds 15 1011 10 0 4.45 242.267 01:25 16.08.2019
3408 Clouds 15 1013 93 0 4.45 242.267 00:48 16.08.2019
3409 Rain 15 1014 97 0 4.31 243.048 00:22 16.08.2019
3410 Rain 15 1010 10 0 4.31 243.048 23:46 15.08.2019
3411 Clear 15 1012 93 10000 3.1 260 23:25 15.08.2019
3412 Clear 15 1012 93 10000 3.1 260 22:59 15.08.2019
3413 Clear 16 1012 93 10000 3.1 260 22:41 15.08.2019
3414 Clear 16 1012 93 10000 3.1 260 22:22 15.08.2019
3415 Clear 16 1011 87 10000 2.6 250 21:58 15.08.2019
3416 Clear 16 1011 87 10000 2.6 250 21:39 15.08.2019
3417 Clear 16 1011 87 10000 2.6 230 21:19 15.08.2019
3418 Clear 16 1011 93 10000 3.6 240 20:56 15.08.2019
3419 Clear 16 1011 93 10000 3.6 240 20:38 15.08.2019
3420 Clouds 16 1011 93 10000 3.6 250 20:19 15.08.2019
3421 Clouds 17 1010 88 10000 4.1 250 19:39 15.08.2019
3422 Clouds 17 1010 93 10000 4.1 290 19:21 15.08.2019
3423 Thunderstorm 17 1010 88 5000 5.1 250 18:49 15.08.2019
3424 Clouds 17 1010 90 0 1.34 227 18:24 15.08.2019
3425 Clouds 18 1009 88 0 6.17 228.014 17:59 15.08.2019
3426 Clouds 19 1009 60 10000 4.1 220 17:39 15.08.2019
3427 Clouds 20 1009 60 10000 4.1 220 17:20 15.08.2019
3428 Clouds 20 1009 64 10000 4.6 230 16:59 15.08.2019
3429 Clouds 21 1009 64 10000 4.6 230 16:41 15.08.2019
3430 Clouds 21 1009 64 10000 5.1 210 16:23 15.08.2019
3431 Clouds 21 1009 64 10000 5.1 210 15:39 15.08.2019
3432 Clouds 21 1009 68 10000 3.6 220 15:20 15.08.2019
3433 Clouds 20 1009 68 10000 4.6 230 14:58 15.08.2019
3434 Clouds 20 1009 68 10000 4.6 230 14:40 15.08.2019
3435 Clouds 19 1009 68 10000 5.7 230 14:21 15.08.2019
3436 Clouds 20 1009 64 10000 4.6 230 13:57 15.08.2019
3437 Clouds 19 1009 64 10000 4.6 230 13:38 15.08.2019
3438 Clouds 19 1009 68 10000 5.1 210 13:19 15.08.2019
3439 Clouds 19 1009 68 10000 5.1 210 13:19 15.08.2019
3440 Clouds 19 1009 68 10000 5.7 230 12:40 15.08.2019
3441 Clouds 18 1009 68 10000 4.6 200 12:22 15.08.2019
3442 Clouds 18 1009 77 10000 3.1 180 11:59 15.08.2019
3443 Clouds 18 1009 77 10000 3.1 180 11:39 15.08.2019
3444 Clouds 18 1009 77 10000 3.1 180 11:39 15.08.2019
3445 Clouds 18 1009 82 10000 3.1 150 11:20 15.08.2019
3446 Rain 17 1010 82 10000 2.6 190 10:59 15.08.2019
3447 Rain 17 1010 82 10000 2.6 190 10:38 15.08.2019
3448 Rain 16 1010 77 10000 3.1 170 10:20 15.08.2019
3449 Clear 16 1010 77 10000 3.6 160 09:44 15.08.2019
3450 Clear 15 1010 82 10000 2.6 150 09:23 15.08.2019
3451 Clear 15 1010 77 10000 2.6 150 08:56 15.08.2019
3452 Clear 15 1010 77 10000 2.6 150 08:36 15.08.2019
3453 Clear 15 1011 87 10000 2.6 130 08:18 15.08.2019
3454 Clouds 14 1011 87 10000 3.1 120 07:42 15.08.2019
3455 Clouds 14 1011 87 10000 3.1 120 07:23 15.08.2019
3456 Clouds 14 1011 87 10000 3.1 120 07:23 15.08.2019
3457 Rain 13 1009 79 0 3.75 174.924 06:53 15.08.2019
3458 Rain 13 1010 79 0 3.75 174.924 06:32 15.08.2019
3459 Clouds 14 1010 85 0 3.83 185.403 05:44 15.08.2019
3460 Clouds 14 1012 65 0 3.83 185.403 05:25 15.08.2019
3461 Clouds 14 1010 61 0 3.83 185.403 04:32 15.08.2019
3462 Clouds 15 1012 59 0 0.45 270 03:39 15.08.2019
3463 Clouds 14 1012 54 0 3.01 168.104 02:44 15.08.2019
3464 Clouds 14 1012 64 0 3.01 168.104 01:52 15.08.2019
3465 Clouds 14 1012 65 0 3.38 162.161 01:30 15.08.2019
3466 Clouds 14 1013 61 0 3.38 162.161 00:41 15.08.2019
3467 Clouds 13 1012 70 0 2.55 164.808 00:21 15.08.2019
3468 Clouds 13 1013 63 0 2.55 164.808 23:57 14.08.2019
3469 Clouds 13 1013 63 0 2.55 164.808 23:57 14.08.2019
3470 Clouds 13 1014 64 0 2.55 164.808 23:37 14.08.2019
3471 Clouds 13 1015 62 10000 1.5 90 23:19 14.08.2019
3472 Clouds 14 1015 62 10000 1.5 90 22:57 14.08.2019
3473 Clouds 14 1015 62 10000 1.5 90 22:38 14.08.2019
3474 Clouds 14 1015 62 10000 1.5 90 22:19 14.08.2019
3475 Clear 15 1015 48 10000 1 0 21:55 14.08.2019
3476 Clear 15 1015 48 10000 1 0 21:37 14.08.2019
3477 Clear 15 1015 42 10000 0.31 184.626 21:18 14.08.2019
3478 Clear 17 1015 39 10000 2.6 250 20:41 14.08.2019
3479 Clear 19 1015 30 10000 3.6 250 20:21 14.08.2019
3480 Clear 19 1015 32 10000 2.6 270 19:56 14.08.2019
3481 Clear 18 1015 32 10000 2.6 270 19:37 14.08.2019
3482 Clear 21 1015 32 10000 3.6 250 19:19 14.08.2019
3483 Clear 22 1016 30 10000 4.1 270 18:56 14.08.2019
3484 Clear 22 1016 30 10000 4.1 270 18:38 14.08.2019
3485 Clear 22 1016 33 10000 4.6 270 18:19 14.08.2019
3486 Clear 21 1016 32 10000 4.6 280 17:56 14.08.2019
3487 Clear 21 1016 32 10000 4.6 280 17:37 14.08.2019
3488 Clear 22 1016 28 10000 4.6 290 17:19 14.08.2019
3489 Clear 22 1016 30 10000 5.7 280 16:43 14.08.2019
3490 Clear 21 1016 32 10000 5.1 270 16:20 14.08.2019
3491 Clear 21 1017 32 10000 4.6 270 15:55 14.08.2019
3492 Clear 21 1017 32 10000 4.6 270 15:37 14.08.2019
3493 Clear 19 1017 45 10000 4.1 270 15:18 14.08.2019
3494 Clear 21 1017 37 10000 4.6 270 14:41 14.08.2019
3495 Clouds 19 1017 45 10000 4.6 240 14:19 14.08.2019
3496 Clouds 20 1017 40 10000 5.7 270 13:59 14.08.2019
3497 Clouds 20 1017 40 10000 5.7 270 13:40 14.08.2019
3498 Clouds 20 1017 45 10000 4.6 250 13:22 14.08.2019
3499 Clouds 19 1017 52 10000 3.6 240 12:56 14.08.2019
3500 Clouds 19 1017 52 10000 3.6 240 12:38 14.08.2019
3501 Clouds 18 1018 52 10000 5.1 250 12:20 14.08.2019
3502 Clouds 18 1018 52 10000 5.7 270 11:47 14.08.2019
3503 Clouds 17 1018 63 10000 4.6 260 11:23 14.08.2019
3504 Clouds 16 1018 67 10000 4.6 250 10:59 14.08.2019
3505 Clouds 16 1018 67 10000 4.6 250 10:39 14.08.2019
3506 Clear 16 1018 67 10000 4.1 250 10:21 14.08.2019
3507 Clear 15 1018 72 10000 3.6 260 09:45 14.08.2019
3508 Clear 14 1018 76 10000 3.6 250 09:21 14.08.2019
3509 Clear 13 1018 76 10000 4.6 240 08:49 14.08.2019
3510 Clear 13 1018 76 10000 4.6 240 08:30 14.08.2019
3511 Clear 12 1017 81 10000 3.1 240 07:57 14.08.2019
3512 Clear 12 1017 81 10000 3.1 240 07:39 14.08.2019
3513 Clear 11 1017 87 10000 2.6 250 07:20 14.08.2019
3514 Clear 12 1018 79 0 4.35 241.837 06:43 14.08.2019
3515 Clear 10 1018 91 0 3.48 221.107 05:47 14.08.2019
3516 Clear 10 1018 91 0 3.48 221.107 04:45 14.08.2019
3517 Clouds 11 1018 83 0 2.38 216.508 02:52 14.08.2019
3518 Clouds 11 1018 83 0 2.38 216.508 02:25 14.08.2019
3519 Clouds 11 1018 83 0 2.38 216.508 01:38 14.08.2019
3520 Rain 12 1017 85 0 2.72 207.978 00:51 14.08.2019
3521 Clouds 14 1016 68 0 0.45 270 23:47 13.08.2019
3522 Clear 14 1017 62 10000 2.6 270 23:23 13.08.2019
3523 Clear 14 1017 62 10000 2.6 270 22:57 13.08.2019
3524 Clear 14 1017 62 10000 2.6 270 22:39 13.08.2019
3525 Clear 14 1017 62 10000 2.6 270 22:39 13.08.2019
3526 Clear 14 1017 62 10000 2.6 270 22:20 13.08.2019
3527 Clear 15 1017 55 10000 3.6 280 21:57 13.08.2019
3528 Clear 15 1017 55 10000 3.6 280 21:37 13.08.2019
3529 Clear 15 1017 48 10000 5.1 280 21:18 13.08.2019
3530 Clear 16 1016 48 10000 3.6 270 20:45 13.08.2019
3531 Clear 17 1016 45 10000 4.6 270 20:20 13.08.2019
3532 Clear 17 1016 42 10000 5.1 270 19:59 13.08.2019
3533 Clear 17 1016 42 10000 5.1 270 19:40 13.08.2019
3534 Clear 18 1016 45 10000 5.1 270 19:21 13.08.2019
3535 Clear 18 1016 52 10000 5.1 290 18:42 13.08.2019
3536 Clear 18 1016 52 10000 5.1 290 18:42 13.08.2019
3537 Clear 18 1016 52 10000 5.7 300 18:23 13.08.2019
3538 Clear 19 1016 55 10000 6.7 310 17:58 13.08.2019
3539 Clear 19 1016 55 10000 6.7 310 17:40 13.08.2019
3540 Clear 19 1015 40 10000 7.2 260 17:20 13.08.2019
3541 Clouds 20 1015 42 10000 7.2 250 16:56 13.08.2019
3542 Clouds 20 1015 42 10000 7.2 250 16:38 13.08.2019
3543 Clouds 20 1015 42 10000 7.2 250 16:38 13.08.2019
3544 Clear 20 1015 48 10000 7.2 270 16:19 13.08.2019
3545 Clouds 20 1015 45 10000 8.2 250 15:39 13.08.2019
3546 Clouds 20 1015 45 10000 7.2 250 15:20 13.08.2019
3547 Clouds 19 1016 52 10000 6.7 270 14:58 13.08.2019
3548 Clouds 19 1016 52 10000 6.7 270 14:38 13.08.2019
3549 Clouds 19 1016 52 10000 7.7 270 14:19 13.08.2019
3550 Clouds 19 1016 52 10000 7.7 270 14:19 13.08.2019
3551 Clouds 18 1016 59 10000 7.7 280 13:42 13.08.2019
3552 Clouds 18 1015 63 10000 7.2 260 13:23 13.08.2019
3553 Clouds 17 1015 72 10000 7.2 260 12:59 13.08.2019
3554 Clouds 17 1015 72 10000 7.2 260 12:41 13.08.2019
3555 Clouds 16 1015 67 10000 7.7 250 12:22 13.08.2019
3556 Clouds 16 1015 72 10000 4.1 240 11:59 13.08.2019
3557 Clouds 17 1015 72 10000 4.1 240 11:39 13.08.2019
3558 Clouds 16 1015 72 10000 4.1 240 11:20 13.08.2019
3559 Clouds 16 1015 82 10000 5.1 240 10:56 13.08.2019
3560 Clouds 16 1015 82 10000 5.1 240 10:37 13.08.2019
3561 Clouds 15 1015 82 10000 4.6 240 10:19 13.08.2019
3562 Clouds 15 1015 82 10000 4.6 240 09:44 13.08.2019
3563 Clouds 15 1015 82 10000 5.1 240 09:23 13.08.2019
3564 -273 0 0 0 0 0 09:23 13.08.2019
3565 Clouds 14 1014 87 10000 4.1 250 08:44 13.08.2019
3566 Clouds 14 1014 87 10000 3.1 240 08:23 13.08.2019
3567 Clear 14 1014 87 10000 3.1 240 07:58 13.08.2019
3568 Clear 14 1014 87 10000 3.1 240 07:58 13.08.2019
3569 Clear 13 1014 87 10000 3.1 240 07:38 13.08.2019
3570 Clear 13 1014 87 10000 3.1 240 07:38 13.08.2019
3571 Clear 13 1014 87 10000 3.1 240 07:19 13.08.2019
3572 Clear 13 1017 99 0 3.58 180 06:41 13.08.2019
3573 Clear 12 1016 99 0 1.79 202 05:37 13.08.2019
3574 Clear 12 1017 99 0 0.89 180 03:45 13.08.2019
3575 Clouds 13 1017 99 0 2.68 225 02:22 13.08.2019
3576 Rain 13 1017 99 0 3.13 180 01:21 13.08.2019
3577 Rain 13 1011 91 0 1.13 208.877 00:47 13.08.2019
3578 Rain 14 1017 96 0 0.89 270 23:58 12.08.2019
3579 Rain 14 1013 91 0 2.22 254.385 23:40 12.08.2019
3580 Rain 14 1013 90 0 2.22 254.385 23:20 12.08.2019
3581 Clear 14 1014 87 10000 3.6 250 22:40 12.08.2019
3582 Clear 15 1014 87 10000 3.6 250 22:20 12.08.2019
3583 Clear 15 1014 87 10000 3.6 250 21:57 12.08.2019
3584 Clear 15 1014 87 10000 3.6 250 21:38 12.08.2019
3585 Rain 15 1014 87 10000 6.7 260 21:19 12.08.2019
3586 Rain 15 1017 87 0 3.07 235.906 20:58 12.08.2019
3587 Rain 15 1017 87 0 3.07 235.906 20:58 12.08.2019
3588 Rain 16 1017 87 0 1.79 45 20:39 12.08.2019
3589 Rain 16 1017 88 0 0.89 0 20:20 12.08.2019
3590 Rain 18 1012 43 10000 2.6 250 19:56 12.08.2019
3591 Rain 18 1012 43 10000 2.6 250 19:37 12.08.2019
3592 Rain 20 1012 40 10000 2.6 250 19:19 12.08.2019
3593 Clear 20 1012 40 10000 2.6 240 18:56 12.08.2019
3594 Clear 21 1012 40 10000 2.6 240 18:37 12.08.2019
3595 Clear 23 1012 40 10000 3.1 230 18:19 12.08.2019
3596 Clear 23 1012 40 10000 3.1 230 17:47 12.08.2019
3597 Clear 23 1013 36 10000 2.6 210 17:28 12.08.2019
3598 Clear 23 1013 38 10000 2.1 210 16:58 12.08.2019
3599 Clear 23 1013 38 10000 2.1 210 16:39 12.08.2019
3600 Clear 23 1013 35 10000 3.6 230 16:20 12.08.2019
3601 Clear 23 1013 35 10000 3.6 230 16:20 12.08.2019
3602 Clear 23 1013 33 10000 4.1 270 15:59 12.08.2019
3603 Clear 24 1013 33 10000 4.1 270 15:41 12.08.2019
3604 -273 0 0 0 0 0 15:40 12.08.2019
3605 Clear 24 1013 33 10000 4.1 270 15:21 12.08.2019
3606 Clear 23 1014 35 10000 5.7 260 14:55 12.08.2019
3607 -273 0 0 0 0 0 14:37 12.08.2019
3608 Clear 23 1014 33 10000 5.7 260 14:18 12.08.2019
3609 Clear 23 1014 33 10000 5.7 260 14:18 12.08.2019
3610 Clear 23 1015 40 10000 5.7 260 13:43 12.08.2019
3611 Clouds 22 1015 43 10000 5.7 260 13:24 12.08.2019
3612 Clouds 22 1015 43 10000 5.7 260 12:57 12.08.2019
3613 Clouds 22 1015 43 10000 5.7 260 12:57 12.08.2019
3614 Clouds 22 1015 43 10000 5.7 260 12:39 12.08.2019
3615 -273 0 0 0 0 0 12:18 12.08.2019
3616 Clouds 21 1015 43 10000 5.7 280 11:41 12.08.2019
3617 Clouds 20 1015 52 10000 5.7 250 11:23 12.08.2019
3618 Clouds 20 1014 52 10000 5.1 250 10:42 12.08.2019
3619 Clear 20 1015 56 10000 5.1 240 10:23 12.08.2019
3620 Clear 20 1015 56 10000 5.1 240 10:23 12.08.2019
3621 Clear 19 1015 59 10000 5.1 260 09:56 12.08.2019
3622 Clear 19 1015 59 10000 5.1 260 09:38 12.08.2019
3623 Clear 18 1015 63 10000 5.1 250 09:19 12.08.2019
3624 Clear 18 1015 63 10000 5.1 250 09:19 12.08.2019
3625 -273 0 0 0 0 0 08:58 12.08.2019
3626 Clear 17 1015 63 10000 3.6 250 08:38 12.08.2019
3627 Clear 16 1015 63 10000 3.6 250 08:19 12.08.2019
3628 Clear 16 1014 63 10000 3.1 250 07:52 12.08.2019
3629 Clear 15 1015 67 10000 2.6 260 07:27 12.08.2019
3630 Clouds 14 1011 10 0 3.75 232.822 06:52 12.08.2019
3631 Clouds 14 1014 78 0 3.62 217.484 05:40 12.08.2019
3632 Rain 16 1015 91 0 0.45 40 02:44 12.08.2019
3633 Rain 17 1017 80 0 0.89 270 01:55 12.08.2019
3634 Rain 17 1017 73 0 0.45 180 01:21 12.08.2019
3635 Rain 17 1017 67 0 3.13 225 00:58 12.08.2019
3636 Rain 18 1013 60 0 2.57 242.159 00:39 12.08.2019
3637 Clouds 18 1010 92 0 3.05 292.989 00:20 12.08.2019
3638 Clouds 18 1015 64 0 3.05 292.989 23:56 11.08.2019
3639 Clouds 18 1013 56 0 0.45 270 23:37 11.08.2019
3640 Clouds 18 1014 76 0 1.34 42 23:18 11.08.2019
3641 Clouds 19 1017 58 0 0.89 270 22:40 11.08.2019
3642 Clouds 19 1017 55 0 0.89 180 22:20 11.08.2019
3643 Clouds 19 1017 55 0 1.34 225 21:59 11.08.2019
3644 Clear 20 1012 52 10000 3.05 292.989 21:41 11.08.2019
3645 Clear 20 1012 52 10000 2.32 267.673 21:22 11.08.2019
3646 Clear 21 1012 52 10000 2.49 308.814 20:58 11.08.2019
3647 Clear 21 1012 52 10000 2.49 308.814 20:40 11.08.2019
3648 Clear 22 1012 49 10000 2.49 308.814 20:22 11.08.2019
3649 Clear 22 1012 40 10000 2.1 320 19:45 11.08.2019
3650 Clear 23 1012 38 10000 2.6 310 19:22 11.08.2019
3651 Clear 23 1012 38 10000 3.6 310 18:58 11.08.2019
3652 Clear 24 1012 38 10000 3.6 310 18:38 11.08.2019
3653 Clear 24 1012 36 10000 3.6 310 18:19 11.08.2019
3654 Clear 25 1012 33 10000 3.6 270 17:42 11.08.2019
3655 Clear 25 1012 31 10000 2.6 0 17:20 11.08.2019
3656 Clear 26 1013 27 10000 5.1 250 16:59 11.08.2019
3657 Clear 26 1013 27 10000 5.1 250 16:59 11.08.2019
3658 Clear 26 1013 27 10000 5.1 250 16:40 11.08.2019
3659 Clear 26 1013 31 10000 4.1 260 16:22 11.08.2019
3660 Clear 26 1013 31 10000 3.6 260 15:57 11.08.2019
3661 Clear 26 1013 31 10000 3.6 260 15:38 11.08.2019
3662 Clear 26 1013 31 10000 4.6 240 15:20 11.08.2019
3663 Clear 25 1013 31 10000 6.2 250 14:54 11.08.2019
3664 Clear 25 1013 31 10000 6.2 250 14:36 11.08.2019
3665 Clear 25 1014 33 10000 5.1 230 14:18 11.08.2019
3666 Clear 26 1014 36 10000 6.2 250 13:41 11.08.2019
3667 Clear 25 1014 38 10000 5.1 270 13:22 11.08.2019
3668 Clear 25 1015 41 10000 5.7 240 12:41 11.08.2019
3669 Clouds 24 1015 41 10000 5.1 240 12:22 11.08.2019
3670 Clouds 23 1015 46 10000 4.1 220 11:41 11.08.2019
3671 Clouds 23 1015 49 10000 4.1 250 11:23 11.08.2019
3672 Clear 22 1015 52 10000 4.1 230 10:57 11.08.2019
3673 Clear 22 1015 52 10000 4.1 230 10:39 11.08.2019
3674 Clear 22 1015 49 10000 4.1 230 10:20 11.08.2019
3675 Clear 21 1015 49 10000 3.6 220 09:55 11.08.2019
3676 Clear 21 1015 49 10000 3.6 220 09:37 11.08.2019
3677 Clear 19 1015 52 10000 3.6 240 09:18 11.08.2019
3678 Clear 19 1019 62 0 3.58 225 08:41 11.08.2019
3679 Clear 18 1019 67 0 4.47 225 08:23 11.08.2019
3680 Clear 17 1018 70 0 3.58 225 07:47 11.08.2019
3681 Clear 16 1018 76 0 1.79 180 07:20 11.08.2019
3682 Clear 15 1018 81 0 0.45 270 06:38 11.08.2019
3683 Clear 15 1018 74 0 1.34 270 05:34 11.08.2019
3684 Clear 17 1018 72 0 2.24 225 03:36 11.08.2019
3685 Clear 17 1017 72 0 1.79 225 02:45 11.08.2019
3686 Clear 17 1018 71 0 1.79 225 01:35 11.08.2019
3687 Clear 18 1015 84 0 0.45 209 00:59 11.08.2019
3688 Clear 18 1018 69 0 4.02 225 00:40 11.08.2019
3689 Rain 18 1018 67 0 2.68 225 00:22 11.08.2019
3690 Rain 18 1018 63 0 3.13 202 23:39 10.08.2019
3691 Rain 19 1017 63 0 3.58 225 23:20 10.08.2019
3692 Rain 19 1017 61 0 4.02 225 22:43 10.08.2019
3693 Rain 20 1017 61 0 1.79 225 22:24 10.08.2019
3694 Rain 21 1017 61 0 3.13 225 21:57 10.08.2019
3695 Clear 21 1012 47 10000 3.6 240 21:36 10.08.2019
3696 Clear 22 1012 47 10000 3.6 240 21:18 10.08.2019
3697 Clear 23 1012 47 10000 3.6 240 20:42 10.08.2019
3698 Clear 23 1011 44 10000 4.6 220 20:21 10.08.2019
3699 Clear 23 1011 44 10000 4.6 230 19:57 10.08.2019
3700 Clear 22 1011 44 10000 4.6 230 19:38 10.08.2019
3701 Clear 24 1011 44 10000 5.7 220 19:19 10.08.2019
3702 Clear 24 1011 41 10000 6.2 230 18:39 10.08.2019
3703 Clear 24 1011 44 10000 6.7 220 18:21 10.08.2019
3704 Clear 25 1011 44 10000 6.7 230 17:44 10.08.2019
3705 Clear 25 1011 44 10000 7.2 220 17:25 10.08.2019
3706 Clear 25 1010 44 10000 5.1 230 16:47 10.08.2019
3707 Clear 25 1010 44 10000 6.7 240 16:28 10.08.2019
3708 Clear 25 1010 39 10000 7.2 240 15:55 10.08.2019
3709 Clear 24 1010 41 10000 7.2 250 15:26 10.08.2019
3710 Clear 24 1010 44 10000 7.2 260 14:45 10.08.2019
3711 Clear 24 1010 44 10000 7.2 250 14:23 10.08.2019
3712 Clear 24 1010 44 10000 7.2 250 13:59 10.08.2019
3713 Clear 24 1010 44 10000 7.2 250 13:39 10.08.2019
3714 Clear 24 1010 47 10000 7.7 250 13:18 10.08.2019
3715 Clear 24 1010 47 10000 7.7 250 13:18 10.08.2019
3716 Clouds 24 1010 47 10000 7.2 240 12:41 10.08.2019
3717 Clouds 23 1009 50 10000 7.2 250 12:21 10.08.2019
3718 Clouds 23 1009 53 10000 6.7 250 11:57 10.08.2019
3719 Clouds 24 1009 53 10000 6.7 250 11:38 10.08.2019
3720 Clouds 23 1009 53 10000 5.7 240 11:20 10.08.2019
3721 Clouds 22 1009 56 10000 5.7 250 10:39 10.08.2019
3722 Clouds 23 1009 56 10000 6.7 250 10:20 10.08.2019
3723 Clouds 23 1009 56 10000 6.7 250 10:20 10.08.2019
3724 Clouds 22 1009 69 10000 5.7 230 09:44 10.08.2019
3725 Clear 21 1009 73 10000 5.7 240 09:25 10.08.2019
3726 Clouds 21 1008 82 0 2.68 270 08:59 10.08.2019
3727 Clouds 21 1008 85 0 1.79 225 08:38 10.08.2019
3728 Clouds 21 1010 91 0 0.89 238 08:19 10.08.2019
3729 Clouds 20 1005 10 0 5.38 232.354 07:51 10.08.2019
3730 Clouds 20 1008 91 0 0.89 270 07:27 10.08.2019
3731 Clouds 19 1005 10 0 5.38 232.354 06:48 10.08.2019
3732 Rain 19 1005 10 0 4.18 236.511 06:21 10.08.2019
3733 Rain 19 1007 91 0 0.45 270 05:22 10.08.2019
3734 Rain 19 1004 10 0 4.18 236.511 04:21 10.08.2019
3735 Clouds 19 1005 10 0 1.78 218.504 02:53 10.08.2019
3736 Clouds 19 1007 92 0 0.89 270 01:57 10.08.2019
3737 Clouds 19 1012 92 0 3.13 180 01:39 10.08.2019
3738 Rain 19 1005 10 0 2.05 227.193 01:20 10.08.2019
3739 Rain 19 1012 91 0 1.79 180 00:43 10.08.2019
3740 Rain 19 1012 90 0 1.79 135 00:21 10.08.2019
3741 Rain 19 1012 95 0 3.58 180 23:42 09.08.2019
3742 Clear 20 1008 94 10000 1.5 150 23:22 09.08.2019
3743 Clear 20 1008 94 10000 1.5 150 22:56 09.08.2019
3744 Clear 20 1008 94 10000 1.5 150 22:38 09.08.2019
3745 Clear 20 1008 94 10000 1.5 150 22:19 09.08.2019
3746 Clear 21 1008 88 10000 2.1 90 21:41 09.08.2019
3747 Clear 21 1008 88 10000 2.1 90 21:41 09.08.2019
3748 Clear 21 1008 94 10000 3.1 100 21:23 09.08.2019
3749 Clear 21 1008 88 10000 2.1 90 20:58 09.08.2019
3750 Clear 22 1008 88 10000 2.1 90 20:40 09.08.2019
3751 Clear 22 1008 83 10000 1.5 90 20:20 09.08.2019
3752 Rain 22 1008 83 10000 2.1 90 19:56 09.08.2019
3753 Rain 22 1008 83 10000 2.1 90 19:38 09.08.2019
3754 Rain 22 1008 83 10000 2.1 90 19:38 09.08.2019
3755 Clear 22 1009 73 10000 1 0 19:18 09.08.2019
3756 Rain 23 1009 60 10000 4.6 220 18:40 09.08.2019
3757 Clear 24 1009 50 10000 1 0 18:22 09.08.2019
3758 Clear 25 1008 44 10000 2.1 130 17:56 09.08.2019
3759 -273 0 0 0 0 0 17:56 09.08.2019
3760 Clear 25 1008 44 10000 2.1 130 17:38 09.08.2019
3761 Clear 26 1009 42 10000 2.6 150 17:19 09.08.2019
3762 Clear 27 1009 42 10000 2.6 160 16:41 09.08.2019
3763 Clear 27 1009 42 10000 2.6 160 16:41 09.08.2019
3764 Clear 27 1009 39 10000 3.1 160 16:23 09.08.2019
3765 Clear 27 1009 42 10000 2.1 150 15:57 09.08.2019
3766 Clear 27 1009 42 10000 2.1 150 15:57 09.08.2019
3767 Clear 27 1009 42 10000 2.1 150 15:57 09.08.2019
3768 Clear 28 1009 42 10000 2.1 150 15:38 09.08.2019
3769 Clear 28 1010 42 10000 3.1 140 15:19 09.08.2019
3770 Clear 27 1010 44 10000 2.1 160 14:44 09.08.2019
3771 Clear 27 1010 44 10000 3.1 150 14:23 09.08.2019
3772 Clear 27 1011 44 10000 2.6 140 13:59 09.08.2019
3773 Clear 27 1011 44 10000 2.6 140 13:59 09.08.2019
3774 Clear 27 1011 44 10000 2.6 140 13:40 09.08.2019
3775 Clear 27 1011 47 10000 3.1 120 13:20 09.08.2019
3776 Clear 26 1011 47 10000 2.1 0 12:46 09.08.2019
3777 Clear 24 1011 47 10000 2.6 130 12:24 09.08.2019
3778 Clear 24 1011 53 10000 2.6 130 11:58 09.08.2019
3779 Clear 24 1011 53 10000 2.6 130 11:37 09.08.2019
3780 Clear 23 1011 49 10000 2.1 0 11:18 09.08.2019
3781 Clear 23 1011 56 10000 2.6 140 10:40 09.08.2019
3782 Clear 22 1012 60 10000 2.1 130 10:21 09.08.2019
3783 Clear 21 1012 64 10000 2.1 120 09:46 09.08.2019
3784 Clear 20 1012 77 10000 1.5 0 09:20 09.08.2019
3785 Clouds 19 1011 69 0 0.45 270 08:58 09.08.2019
3786 Clear 17 1012 87 10000 1 0 08:39 09.08.2019
3787 Clear 16 1012 87 10000 1 0 08:19 09.08.2019
3788 Clear 15 1012 93 10000 1.5 90 07:44 09.08.2019
3789 Clear 13 1012 93 10000 1 0 07:23 09.08.2019
3790 Clouds 13 1011 88 0 0.97 159.749 06:56 09.08.2019
3791 Clouds 13 1011 88 0 0.97 159.749 06:56 09.08.2019
3792 Clouds 13 1011 88 0 0.97 159.749 06:56 09.08.2019
3793 Clouds 13 1011 88 0 0.97 159.749 06:56 09.08.2019
3794 Clouds 13 1011 90 0 0.97 159.749 06:30 09.08.2019
3795 Clouds 12 1011 89 0 1.56 205.908 05:58 09.08.2019
3796 Clouds 13 1012 90 0 1.56 205.908 04:22 09.08.2019
3797 Clouds 14 1011 88 0 1.41 203.502 02:18 09.08.2019
3798 Clouds 16 1011 81 0 1.82 213.551 00:49 09.08.2019
3799 Clouds 16 1011 77 0 1.82 213.551 00:27 09.08.2019
3800 Clear 16 1011 74 0 1.97 228.183 23:59 08.08.2019
3801 Clear 16 1011 73 0 1.97 228.183 23:38 08.08.2019
3802 Clear 17 1011 63 10000 1.97 228.183 23:20 08.08.2019
3803 Clear 17 1011 63 10000 1.97 228.183 22:59 08.08.2019
3804 Clear 17 1011 63 10000 1.97 228.183 22:59 08.08.2019
3805 Clear 17 1011 63 10000 1.97 228.183 22:37 08.08.2019
3806 Clear 17 1011 63 10000 1.97 228.183 22:37 08.08.2019
3807 Clear 18 1011 63 10000 1.97 228.183 22:19 08.08.2019
3808 Clear 18 1011 49 10000 2.1 310 21:58 08.08.2019
3809 Clear 19 1011 49 10000 2.1 310 21:40 08.08.2019
3810 Clear 20 1011 46 10000 2.1 300 21:21 08.08.2019
3811 Clear 22 1011 43 10000 3.6 280 20:55 08.08.2019
3812 Clear 22 1011 43 10000 3.6 280 20:37 08.08.2019
3813 Clear 23 1010 40 10000 4.1 280 20:19 08.08.2019
3814 Clear 22 1010 38 10000 5.1 280 19:43 08.08.2019
3815 Clear 23 1010 38 10000 6.7 260 19:21 08.08.2019
3816 Clear 24 1010 36 10000 6.7 260 18:43 08.08.2019
3817 Clear 24 1010 38 10000 6.2 270 18:24 08.08.2019
3818 Clear 25 1010 38 10000 5.7 260 17:58 08.08.2019
3819 Clear 25 1010 38 10000 5.7 260 17:58 08.08.2019
3820 Clear 25 1010 38 10000 5.7 260 17:40 08.08.2019
3821 Clear 25 1010 36 10000 6.2 270 17:21 08.08.2019
3822 Clear 25 1010 38 10000 5.7 270 16:55 08.08.2019
3823 Clear 25 1010 38 10000 5.7 270 16:37 08.08.2019
3824 Clear 25 1010 38 10000 5.7 270 16:37 08.08.2019
3825 Clear 25 1010 36 10000 5.7 270 16:18 08.08.2019
3826 Clear 25 1010 36 10000 6.2 260 15:41 08.08.2019
3827 Clear 25 1010 38 10000 6.2 270 15:23 08.08.2019
3828 Clear 24 1010 43 10000 5.7 270 14:56 08.08.2019
3829 Clear 24 1010 43 10000 5.7 270 14:37 08.08.2019
3830 Clear 24 1010 41 10000 5.7 250 14:18 08.08.2019
3831 Clear 24 1010 44 10000 6.2 250 13:40 08.08.2019
3832 Clear 24 1010 43 10000 6.2 250 13:20 08.08.2019
3833 Clouds 23 1010 41 10000 7.2 250 12:40 08.08.2019
3834 Clouds 23 1010 46 10000 7.2 260 12:21 08.08.2019
3835 Clouds 22 1010 49 10000 5.7 260 11:59 08.08.2019
3836 Clouds 22 1010 49 10000 5.7 260 11:39 08.08.2019
3837 Clouds 21 1010 49 10000 6.7 250 11:21 08.08.2019
3838 Clouds 21 1010 52 10000 5.7 250 10:41 08.08.2019
3839 Clear 20 1010 60 10000 4.6 250 10:22 08.08.2019
3840 Clear 19 1010 68 10000 4.6 240 09:53 08.08.2019
3841 Clear 19 1010 68 10000 5.7 240 09:31 08.08.2019
3842 Clear 18 1010 72 10000 4.6 220 08:59 08.08.2019
3843 Clear 18 1010 72 10000 4.6 220 08:39 08.08.2019
3844 Clear 17 1009 77 10000 3.1 220 08:19 08.08.2019
3845 Clear 16 1009 87 10000 1.5 0 07:41 08.08.2019
3846 Clouds 15 1009 87 10000 1 0 07:20 08.08.2019
3847 Clear 15 1006 98 0 3.6 218.888 06:56 08.08.2019
3848 Clear 14 1009 88 0 3.6 218.888 06:37 08.08.2019
3849 Clear 13 1006 97 0 3.06 211.875 05:53 08.08.2019
3850 Clear 14 1006 96 0 3.06 211.875 05:20 08.08.2019
3851 Clear 14 1010 93 0 0.89 39 03:54 08.08.2019
3852 Clouds 15 1008 88 0 3.4 220.119 02:58 08.08.2019
3853 Clouds 15 1008 86 0 3.4 220.119 01:38 08.08.2019
3854 Clouds 16 1008 85 0 3.19 217.545 00:44 08.08.2019
3855 Clouds 17 1005 88 0 2.75 229.082 00:18 08.08.2019
3856 Clear 17 1007 68 10000 2.75 229.082 23:22 07.08.2019
3857 Clear 18 1007 68 10000 2.75 229.082 22:59 07.08.2019
3858 Clear 18 1007 68 10000 2.75 229.082 22:59 07.08.2019
3859 Clear 18 1007 68 10000 2.75 229.082 22:40 07.08.2019
3860 Clear 18 1007 68 10000 2.75 229.082 22:20 07.08.2019
3861 Clear 18 1007 63 10000 2.75 229.082 21:56 07.08.2019
3862 Clear 19 1007 63 10000 2.75 229.082 21:38 07.08.2019
3863 Clear 19 1007 63 10000 2.75 229.082 21:38 07.08.2019
3864 Clear 19 1006 56 10000 2.6 320 21:19 07.08.2019
3865 Clear 21 1006 46 10000 3.1 290 20:57 07.08.2019
3866 Clear 21 1006 46 10000 3.1 290 20:38 07.08.2019
3867 Clear 22 1006 43 10000 3.6 290 20:19 07.08.2019
3868 Clear 22 1006 40 10000 4.6 290 19:55 07.08.2019
3869 Clear 21 1006 40 10000 4.6 290 19:36 07.08.2019
3870 Clear 23 1006 43 10000 4.6 280 19:18 07.08.2019
3871 Clear 23 1006 46 10000 4.6 270 18:40 07.08.2019
3872 Clear 23 1006 44 10000 4.6 260 18:19 07.08.2019
3873 Clear 23 1006 44 10000 5.1 260 17:55 07.08.2019
3874 Clear 24 1006 44 10000 5.1 260 17:37 07.08.2019
3875 Clear 24 1006 44 10000 5.7 260 17:18 07.08.2019
3876 Clear 24 1006 41 10000 5.7 280 16:56 07.08.2019
3877 Clear 24 1006 41 10000 5.7 280 16:37 07.08.2019
3878 Clear 24 1006 41 10000 5.7 280 16:37 07.08.2019
3879 Clear 24 1006 44 10000 6.7 270 16:19 07.08.2019
3880 Clear 24 1006 44 10000 5.7 250 15:43 07.08.2019
3881 Clouds 24 1006 50 10000 5.1 260 15:21 07.08.2019
3882 Clouds 23 1006 47 10000 6.2 260 14:50 07.08.2019
3883 Clouds 23 1006 47 10000 6.2 260 14:31 07.08.2019
3884 Clouds 23 1006 56 10000 5.1 280 13:59 07.08.2019
3885 Clouds 23 1006 56 10000 5.1 280 13:59 07.08.2019
3886 Clouds 24 1006 56 10000 5.1 280 13:40 07.08.2019
3887 Clouds 23 1006 60 10000 4.1 260 13:19 07.08.2019
3888 Clouds 23 1006 60 10000 5.1 280 12:57 07.08.2019
3889 Clouds 23 1006 60 10000 5.1 280 12:38 07.08.2019
3890 Clouds 21 1006 64 10000 5.1 270 12:19 07.08.2019
3891 Clouds 21 1006 68 10000 4.6 260 11:58 07.08.2019
3892 Clouds 21 1006 68 10000 4.6 260 11:40 07.08.2019
3893 Clouds 21 1006 68 10000 4.6 260 11:18 07.08.2019
3894 Clouds 21 1006 68 10000 4.6 250 10:41 07.08.2019
3895 Clear 21 1006 73 10000 4.6 250 10:20 07.08.2019
3896 Clear 20 1006 72 10000 5.1 250 09:59 07.08.2019
3897 Clear 20 1006 72 10000 5.1 250 09:40 07.08.2019
3898 Clouds 20 1006 77 10000 3.6 230 09:20 07.08.2019
3899 Clouds 19 1006 82 10000 1.5 0 08:45 07.08.2019
3900 Clouds 19 1006 82 10000 2.1 130 08:25 07.08.2019
3901 Clouds 18 1003 96 0 3.39 222.981 07:51 07.08.2019
3902 Clouds 18 1006 87 10000 1 100 07:31 07.08.2019
3903 Clouds 17 1003 10 0 3.39 222.981 06:48 07.08.2019
3904 Clouds 17 1005 87 0 0.45 270 06:26 07.08.2019
3905 Clouds 17 1005 86 0 0.89 270 05:42 07.08.2019
3906 Clouds 18 1006 88 0 0.45 292 04:41 07.08.2019
3907 Clouds 17 1004 93 0 1.7 180.135 03:18 07.08.2019
3908 Clouds 17 1011 97 0 1.7 180.135 02:39 07.08.2019
3909 Clouds 18 1008 87 0 0.89 37 01:52 07.08.2019
3910 Clouds 18 1008 86 0 0.89 39 01:23 07.08.2019
3911 Clouds 18 1007 75 0 1.59 176.424 00:37 07.08.2019
3912 Clouds 18 1004 90 0 1.3 205.185 00:18 07.08.2019
3913 Clouds 18 1007 72 0 1.3 205.185 23:38 06.08.2019
3914 Clear 19 1008 63 10000 1 330 23:20 06.08.2019
3915 Clear 18 1008 63 10000 1 330 22:42 06.08.2019
3916 Clear 19 1008 63 10000 1 330 22:22 06.08.2019
3917 Clouds 19 1007 80 0 1.3 205.185 21:59 06.08.2019
3918 Clear 19 1008 56 10000 2.1 310 21:40 06.08.2019
3919 Clear 20 1008 56 10000 2.1 300 21:19 06.08.2019
3920 Clear 20 1008 56 10000 2.1 300 21:19 06.08.2019
3921 Clear 20 1008 56 10000 2.1 300 21:19 06.08.2019
3922 Clear 20 1008 56 10000 2.1 300 21:19 06.08.2019
3923 Clear 21 1008 53 10000 2.6 310 20:47 06.08.2019
3924 Clear 22 1008 46 10000 3.1 320 20:29 06.08.2019
3925 Clear 23 1008 47 10000 3.6 320 19:58 06.08.2019
3926 Clear 23 1008 47 10000 3.6 320 19:38 06.08.2019
3927 Clear 23 1008 44 10000 4.6 280 19:19 06.08.2019
3928 Clear 23 1008 47 10000 4.1 290 18:43 06.08.2019
3929 Clear 24 1008 47 10000 4.6 310 18:25 06.08.2019
3930 Clear 24 1008 47 10000 4.6 300 17:58 06.08.2019
3931 Clear 24 1008 47 10000 4.6 300 17:38 06.08.2019
3932 Clear 25 1009 50 10000 5.7 280 17:19 06.08.2019
3933 Clear 24 1009 50 10000 6.2 280 16:54 06.08.2019
3934 Clear 25 1009 50 10000 6.2 280 16:36 06.08.2019
3935 Clouds 25 1009 50 10000 6.7 270 16:18 06.08.2019
3936 Clouds 25 1009 57 10000 5.7 270 15:56 06.08.2019
3937 Clouds 25 1009 57 10000 5.7 270 15:37 06.08.2019
3938 Clouds 24 1009 64 10000 4.6 260 15:18 06.08.2019
3939 Clouds 24 1009 69 10000 4.1 260 14:40 06.08.2019
3940 Clouds 23 1010 73 10000 4.6 270 14:22 06.08.2019
3941 Clouds 24 1010 77 10000 4.1 250 13:57 06.08.2019
3942 Clouds 22 1010 77 10000 4.1 250 13:38 06.08.2019
3943 Clouds 22 1010 88 10000 2.6 280 13:19 06.08.2019
3944 Rain 21 1010 64 0 2.24 269 12:42 06.08.2019
3945 Rain 21 1011 82 7000 5.7 300 12:24 06.08.2019
3946 Clear 21 1010 64 10000 3.1 230 11:59 06.08.2019
3947 Clear 21 1010 64 10000 3.1 230 11:40 06.08.2019
3948 Clouds 21 1010 73 10000 2.6 230 11:18 06.08.2019
3949 Rain 21 1010 68 10000 3.6 220 10:41 06.08.2019
3950 Clear 21 1010 64 10000 2.6 230 10:22 06.08.2019
3951 Clear 21 1010 68 10000 3.1 220 09:48 06.08.2019
3952 Clear 20 1010 82 10000 1.5 0 09:24 06.08.2019
3953 Clear 20 1010 88 10000 2.1 180 08:57 06.08.2019
3954 Clear 19 1010 88 10000 2.1 180 08:37 06.08.2019
3955 Clear 19 1010 93 10000 1.5 0 08:19 06.08.2019
3956 Clear 17 1010 100 10000 1.5 0 07:35 06.08.2019
3957 Clouds 16 1007 89 0 3.72 223.921 06:51 06.08.2019
3958 Clouds 16 1009 83 0 3.72 223.921 06:29 06.08.2019
3959 Clouds 15 1007 91 0 2.41 208.806 05:47 06.08.2019
3960 Rain 16 1010 91 0 0.89 38 02:59 06.08.2019
3961 Rain 17 1007 90 0 2.08 225.058 01:46 06.08.2019
3962 Rain 17 1010 90 0 0.89 37 01:22 06.08.2019
3963 Rain 18 1009 86 0 2.43 223.385 00:29 06.08.2019
3964 Rain 18 1009 85 0 2.51 226.147 23:44 05.08.2019
3965 Clouds 18 1010 100 10000 1.5 100 23:18 05.08.2019
3966 Clouds 18 1010 100 10000 1.5 100 22:40 05.08.2019
3967 Clouds 18 1010 100 10000 1.5 100 22:22 05.08.2019
3968 Clouds 18 1010 93 10000 1.5 90 21:54 05.08.2019
3969 Clouds 19 1010 93 10000 1.5 90 21:36 05.08.2019
3970 Clouds 20 1010 100 10000 2.1 0 21:18 05.08.2019
3971 Rain 21 1010 100 10000 1 0 20:54 05.08.2019
3972 Rain 20 1010 100 10000 1 0 20:36 05.08.2019
3973 Rain 21 1010 88 4500 8.7 250 20:18 05.08.2019
3974 Thunderstorm 22 1009 57 10000 1.5 0 19:40 05.08.2019
3975 Clear 23 1009 47 10000 1 0 19:21 05.08.2019
3976 Clear 24 1009 47 10000 2.6 260 18:45 05.08.2019
3977 Clear 26 1009 47 10000 3.6 290 18:22 05.08.2019
3978 Clear 26 1009 50 10000 3.1 260 17:58 05.08.2019
3979 Clear 26 1009 50 10000 3.1 260 17:40 05.08.2019
3980 Clear 25 1009 50 10000 4.6 250 17:22 05.08.2019
3981 Clear 25 1009 50 10000 4.6 230 16:46 05.08.2019
3982 Clear 26 1009 50 10000 4.1 240 16:25 05.08.2019
3983 Clear 25 1009 53 10000 4.1 230 15:45 05.08.2019
3984 Clear 25 1009 50 10000 4.6 220 15:22 05.08.2019
3985 Clear 24 1010 53 10000 3.6 210 14:58 05.08.2019
3986 Clear 24 1010 53 10000 3.6 210 14:38 05.08.2019
3987 Clear 24 1010 60 10000 2.1 190 14:19 05.08.2019
3988 Clouds 23 1010 68 10000 1.5 0 13:41 05.08.2019
3989 Clear 23 1010 73 10000 1.5 0 13:21 05.08.2019
3990 Clear 22 1010 68 10000 1.5 0 12:45 05.08.2019
3991 Clear 21 1010 68 10000 1 0 12:20 05.08.2019
3992 Clear 21 1011 64 10000 2.1 170 11:46 05.08.2019
3993 Clear 20 1011 64 10000 3.1 140 11:27 05.08.2019
3994 Clear 20 1011 64 10000 3.1 150 10:51 05.08.2019
3995 Clear 20 1011 64 10000 3.1 150 10:33 05.08.2019
3996 Clear 19 1011 72 10000 2.1 180 09:59 05.08.2019
3997 Clear 18 1011 72 10000 2.1 180 09:40 05.08.2019
3998 Clear 18 1011 88 10000 1.5 120 09:21 05.08.2019
3999 Clear 17 1011 93 10000 2.6 100 08:47 05.08.2019
4000 Clear 17 1012 87 10000 0.5 0 08:25 05.08.2019
4001 Clear 17 1012 93 10000 2.6 110 07:54 05.08.2019
4002 Clear 16 1012 93 10000 2.6 110 07:31 05.08.2019
4003 Rain 16 1012 82 0 2.24 96 06:59 05.08.2019
4004 Rain 16 1011 71 0 0.89 292 06:29 05.08.2019
4005 Rain 17 1010 74 0 0.45 292 05:41 05.08.2019
4006 Rain 17 1016 65 0 1.79 180 04:56 05.08.2019
4007 Rain 17 1016 64 0 4.47 225 03:56 05.08.2019
4008 Clouds 16 1016 65 0 3.58 180 03:20 05.08.2019
4009 Clouds 16 1012 82 0 0.45 270 02:26 05.08.2019
4010 Clouds 15 1011 82 0 1.73 157.232 01:32 05.08.2019
4011 Clouds 16 1012 80 0 1.73 157.232 00:41 05.08.2019
4012 Clouds 16 1011 80 0 1.93 156.4 00:21 05.08.2019
4013 Clouds 16 1011 75 0 1.93 156.4 23:55 04.08.2019
4014 Clouds 17 1013 75 0 1.93 156.4 23:36 04.08.2019
4015 Clouds 17 1011 72 0 1.93 156.4 23:18 04.08.2019
4016 Clouds 17 1013 72 0 1.93 156.4 22:54 04.08.2019
4017 Clouds 17 1013 72 0 1.93 156.4 22:36 04.08.2019
4018 Clouds 18 1013 69 0 1.93 156.4 22:18 04.08.2019
4019 Clouds 18 1013 68 0 1.93 156.4 21:41 04.08.2019
4020 Clouds 19 1011 83 0 0.15 21.448 21:20 04.08.2019
4021 Clear 21 1014 46 10000 1.5 0 20:43 04.08.2019
4022 Clear 21 1014 46 10000 1.5 0 20:19 04.08.2019
4023 Clear 22 1014 46 10000 2.1 330 19:57 04.08.2019
4024 Clear 23 1014 46 10000 2.1 330 19:37 04.08.2019
4025 Clouds 23 1015 46 10000 1.5 0 19:19 04.08.2019
4026 Clouds 23 1015 46 10000 2.1 0 18:42 04.08.2019
4027 Clouds 24 1015 46 10000 3.1 340 18:20 04.08.2019
4028 Clouds 24 1015 46 10000 2.6 0 17:45 04.08.2019
4029 Clouds 24 1015 46 10000 2.1 290 17:25 04.08.2019
4030 Clouds 24 1016 49 10000 2.6 290 16:56 04.08.2019
4031 Clouds 24 1016 49 10000 2.6 290 16:38 04.08.2019
4032 Clear 23 1016 46 10000 3.1 290 16:19 04.08.2019
4033 Clouds 24 1016 49 10000 2.6 270 15:40 04.08.2019
4034 Clouds 22 1016 52 10000 3.6 290 15:20 04.08.2019
4035 Clouds 22 1017 52 10000 2.6 300 14:44 04.08.2019
4036 Clouds 21 1017 56 10000 4.1 290 14:26 04.08.2019
4037 Clouds 21 1017 52 10000 4.1 320 13:47 04.08.2019
4038 Clouds 22 1017 49 10000 3.6 300 13:28 04.08.2019
4039 Clouds 21 1017 52 10000 4.1 290 12:59 04.08.2019
4040 Clouds 21 1017 52 10000 4.1 290 12:40 04.08.2019
4041 Clouds 20 1017 52 10000 3.6 310 12:22 04.08.2019
4042 Clouds 20 1017 52 10000 5.1 300 11:50 04.08.2019
4043 Clouds 20 1017 59 10000 4.1 280 11:23 04.08.2019
4044 Clouds 20 1017 68 10000 3.1 280 10:54 04.08.2019
4045 Clouds 19 1017 68 10000 3.1 280 10:36 04.08.2019
4046 Clear 19 1017 72 10000 2.6 290 10:18 04.08.2019
4047 Clear 17 1017 77 10000 2.1 270 09:41 04.08.2019
4048 Clear 17 1017 82 10000 2.1 280 09:20 04.08.2019
4049 Clouds 16 1019 99 0 0.89 270 08:41 04.08.2019
4050 Clouds 15 1013 10 0 2.23 276.142 08:20 04.08.2019
4051 Clouds 15 1016 97 0 2.23 276.142 07:48 04.08.2019
4052 Clouds 14 1019 99 0 2.23 276.142 06:47 04.08.2019
4053 Clouds 14 1019 99 0 1.6 257.421 06:24 04.08.2019
4054 Clouds 14 1019 99 0 1.6 257.421 03:44 04.08.2019
4055 Clear 15 1019 99 0 1.8 267.031 02:22 04.08.2019
4056 Clouds 15 1013 10 0 1.76 263.645 01:33 04.08.2019
4057 Clouds 15 1019 99 0 0.45 0 00:45 04.08.2019
4058 Clouds 16 1016 95 0 1.76 263.645 00:26 04.08.2019
4059 Rain 16 1016 95 0 2.02 278.604 23:57 03.08.2019
4060 Rain 16 1019 99 0 2.02 278.604 23:39 03.08.2019
4061 Rain 16 1013 99 0 2.02 278.604 23:18 03.08.2019
4062 Rain 16 1019 99 0 2.02 278.604 22:43 03.08.2019
4063 Rain 17 1013 98 0 2.02 278.604 22:20 03.08.2019
4064 Clear 18 1015 60 10000 3.1 310 21:40 03.08.2019
4065 Clear 18 1015 60 10000 3.1 310 21:22 03.08.2019
4066 Clear 19 1015 60 10000 3.1 310 20:46 03.08.2019
4067 Clear 19 1015 53 10000 2.1 320 20:27 03.08.2019
4068 Clear 20 1015 53 10000 2.1 330 19:58 03.08.2019
4069 Clear 20 1015 53 10000 2.1 330 19:40 03.08.2019
4070 Clear 21 1015 53 10000 4.1 310 19:21 03.08.2019
4071 Clouds 21 1015 53 10000 5.1 310 18:46 03.08.2019
4072 Clear 21 1015 56 10000 4.6 280 18:26 03.08.2019
4073 Clouds 22 1015 56 10000 4.6 300 17:46 03.08.2019
4074 Clouds 22 1015 56 10000 5.1 290 17:20 03.08.2019
4075 Clear 23 1015 53 10000 4.6 260 16:55 03.08.2019
4076 Clear 22 1015 53 10000 4.6 260 16:37 03.08.2019
4077 Clear 22 1015 56 10000 3.1 280 16:18 03.08.2019
4078 Clear 22 1015 60 10000 2.1 280 15:42 03.08.2019
4079 Clear 21 1015 60 10000 0.5 0 15:20 03.08.2019
4080 Clear 22 1015 72 10000 1.5 0 14:38 03.08.2019
4081 Clouds 22 1015 72 10000 2.1 320 14:19 03.08.2019
4082 Clouds 22 1015 64 10000 4.1 320 13:49 03.08.2019
4083 Clouds 21 1015 60 10000 2.6 0 13:23 03.08.2019
4084 Clouds 22 1015 73 10000 2.6 290 12:56 03.08.2019
4085 Clouds 22 1015 73 10000 2.6 290 12:37 03.08.2019
4086 Clouds 21 1015 100 10000 2.1 290 12:19 03.08.2019
4087 Clouds 20 1015 100 10000 2.1 290 11:45 03.08.2019
4088 Clouds 19 1015 100 10000 2.1 300 11:25 03.08.2019
4089 Clouds 18 1015 100 6000 2.1 270 10:40 03.08.2019
4090 Mist 17 1015 100 3200 2.1 280 10:21 03.08.2019
4091 Mist 17 1015 100 1700 1.5 0 09:39 03.08.2019
4092 Fog 16 1015 100 350 2.1 310 09:19 03.08.2019
4093 Clear 16 1013 92 0 1.51 301.493 08:46 03.08.2019
4094 Clear 15 1010 97 0 1.51 301.493 07:47 03.08.2019
4095 Clear 15 1013 94 0 1.51 301.493 07:28 03.08.2019
4096 Rain 14 1010 10 0 0.92 267.619 06:22 03.08.2019
4097 Rain 15 1016 99 0 0.92 267.619 03:58 03.08.2019
4098 Rain 15 1016 99 0 0.45 45 02:28 03.08.2019
4099 Clouds 16 1010 98 0 1.36 249.138 01:22 03.08.2019
4100 Clouds 16 1010 97 0 1.36 249.138 00:33 03.08.2019
4101 Clouds 16 1013 88 0 0.83 233.82 23:57 02.08.2019
4102 Clouds 16 1013 88 0 0.83 233.82 23:57 02.08.2019
4103 Clouds 16 1013 87 0 0.83 233.82 23:37 02.08.2019
4104 Clouds 17 1010 92 0 0.83 233.82 23:18 02.08.2019
4105 Clear 17 1013 82 10000 1.5 0 22:54 02.08.2019
4106 Clear 17 1013 82 10000 1.5 0 22:36 02.08.2019
4107 Clear 17 1013 82 10000 1.5 0 22:18 02.08.2019
4108 Clear 17 1013 82 10000 1.5 0 21:41 02.08.2019
4109 Clear 18 1013 77 10000 2.6 70 21:22 02.08.2019
4110 Clouds 19 1014 82 10000 3.6 30 20:45 02.08.2019
4111 Clear 18 1013 82 10000 3.1 80 20:27 02.08.2019
4112 Clouds 19 1013 82 10000 2.6 70 19:56 02.08.2019
4113 Clouds 19 1013 82 10000 2.6 70 19:34 02.08.2019
4114 Clouds 20 1012 49 10000 5.1 80 18:57 02.08.2019
4115 Clouds 21 1012 49 10000 5.1 80 18:39 02.08.2019
4116 Clear 22 1012 36 10000 2.1 0 18:20 02.08.2019
4117 Clear 23 1013 41 10000 3.6 290 17:42 02.08.2019
4118 Clear 23 1013 41 10000 3.1 290 17:22 02.08.2019
4119 Clear 24 1013 41 10000 4.1 230 16:40 02.08.2019
4120 Clear 24 1013 41 10000 4.1 230 16:40 02.08.2019
4121 Clear 24 1013 36 10000 3.1 310 16:21 02.08.2019
4122 Clear 24 1013 36 10000 3.1 0 15:58 02.08.2019
4123 Clear 24 1013 36 10000 3.1 0 15:38 02.08.2019
4124 Clear 24 1013 41 10000 2.1 0 15:18 02.08.2019
4125 Clouds 24 1014 44 10000 3.6 240 14:45 02.08.2019
4126 Clouds 24 1014 53 10000 3.1 270 14:18 02.08.2019
4127 Clouds 24 1014 44 10000 3.1 320 13:47 02.08.2019
4128 Clouds 23 1014 44 10000 2.1 0 13:23 02.08.2019
4129 Clouds 24 1014 47 10000 2.1 0 12:44 02.08.2019
4130 Clear 23 1014 53 10000 2.6 310 12:21 02.08.2019
4131 Clouds 23 1015 53 10000 2.6 310 11:46 02.08.2019
4132 Clear 23 1015 64 10000 3.1 280 11:26 02.08.2019
4133 Clear 22 1015 72 10000 2.6 290 10:55 02.08.2019
4134 Clear 22 1015 72 10000 2.6 290 10:37 02.08.2019
4135 Clear 21 1015 72 10000 2.6 290 10:18 02.08.2019
4136 Clear 20 1015 68 10000 2.6 290 09:44 02.08.2019
4137 Clear 19 1015 72 10000 1.5 0 09:24 02.08.2019
4138 Clear 18 1015 77 10000 1 260 08:44 02.08.2019
4139 Clear 17 1015 77 10000 1 0 08:21 02.08.2019
4140 Clear 16 1015 87 10000 1.29 246.078 07:48 02.08.2019
4141 Clear 16 1015 87 10000 1.29 246.078 07:28 02.08.2019
4142 Clouds 15 1014 87 0 1.29 246.078 06:42 02.08.2019
4143 Clouds 15 1014 82 0 1.44 220.7 05:50 02.08.2019
4144 Clouds 15 1014 83 0 1.44 220.7 03:55 02.08.2019
4145 Clear 15 1015 82 0 0.89 28 03:25 02.08.2019
4146 Clear 16 1014 75 0 1.14 210.014 01:46 02.08.2019
4147 Clear 17 1015 73 0 1.6 198.333 00:35 02.08.2019
4148 Clear 18 1015 72 0 1.56 182.534 23:46 01.08.2019
4149 Clear 18 1015 72 0 1.56 182.534 23:28 01.08.2019
4150 Clear 18 1015 68 10000 1.56 182.534 22:56 01.08.2019
4151 Clear 19 1015 68 10000 1.56 182.534 22:37 01.08.2019
4152 Clear 19 1015 68 10000 1.56 182.534 22:19 01.08.2019
4153 Clear 19 1015 56 10000 1.56 182.534 21:42 01.08.2019
4154 Clear 20 1015 56 10000 1.1 279.488 21:23 01.08.2019
4155 Clear 21 1015 46 10000 0.5 360 20:48 01.08.2019
4156 Clear 22 1015 40 10000 1.5 0 20:24 01.08.2019
4157 Clear 22 1015 40 10000 2.6 330 20:00 01.08.2019
4158 Clear 22 1015 40 10000 2.6 330 20:00 01.08.2019
4159 Clear 23 1015 40 10000 2.6 330 19:38 01.08.2019
4160 Clear 23 1015 40 10000 2.6 300 19:19 01.08.2019
4161 Clear 24 1015 38 10000 3.1 250 18:43 01.08.2019
4162 Clear 24 1015 36 10000 3.6 240 18:24 01.08.2019
4163 Clear 24 1016 36 10000 2.6 270 17:51 01.08.2019
4164 Clear 24 1016 36 10000 2.6 270 17:32 01.08.2019
4165 Clear 24 1016 38 10000 4.6 220 16:57 01.08.2019
4166 Clear 23 1016 38 10000 4.6 220 16:39 01.08.2019
4167 Clear 24 1016 38 10000 3.6 240 16:19 01.08.2019
4168 Clear 23 1016 44 10000 2.1 0 15:41 01.08.2019
4169 Clear 23 1016 41 10000 3.6 270 15:19 01.08.2019
4170 Clear 23 1016 43 10000 2.1 230 14:42 01.08.2019
4171 Clear 22 1016 49 10000 2.6 260 14:19 01.08.2019
4172 Clear 22 1016 49 10000 2.6 260 14:19 01.08.2019
4173 Clear 22 1017 52 10000 4.1 250 13:58 01.08.2019
4174 Clear 22 1017 52 10000 4.1 250 13:39 01.08.2019
4175 Clouds 22 1017 46 10000 4.1 270 13:20 01.08.2019
4176 Clouds 22 1017 53 10000 3.6 230 12:46 01.08.2019
4177 Clouds 22 1017 53 10000 3.6 240 12:27 01.08.2019
4178 Clear 22 1017 56 10000 3.1 240 11:43 01.08.2019
4179 Clear 21 1017 53 10000 3.6 240 11:24 01.08.2019
4180 Clouds 21 1017 60 10000 3.1 210 10:56 01.08.2019
4181 Clouds 20 1017 60 10000 3.1 210 10:38 01.08.2019
4182 Clear 20 1017 64 10000 2.6 210 10:20 01.08.2019
4183 Clear 19 1017 68 10000 2.1 210 09:44 01.08.2019
4184 Clear 19 1017 68 10000 2.1 210 09:23 01.08.2019
4185 Clear 17 1017 93 10000 1 0 08:47 01.08.2019
4186 Clouds 16 1017 93 10000 0.5 0 08:21 01.08.2019
4187 Clouds 16 1017 93 10000 0.5 0 07:52 01.08.2019
4188 Clouds 16 1017 93 10000 0.5 0 07:52 01.08.2019
4189 Clouds 15 1017 100 10000 1.35 236.216 07:28 01.08.2019
4190 Clear 14 1014 99 0 1.35 236.216 06:49 01.08.2019
4191 Clear 14 1014 99 0 1.35 236.216 06:49 01.08.2019
4192 Clear 13 1016 91 0 1.35 236.216 06:29 01.08.2019
4193 Clear 13 1013 99 0 1.45 213.514 05:31 01.08.2019
4194 Rain 14 1013 96 0 1.18 214.082 02:35 01.08.2019
4195 Rain 15 1013 95 0 1.78 232.48 00:51 01.08.2019
4196 Rain 16 1016 84 0 1.78 232.48 00:26 01.08.2019
4197 Rain 16 1016 84 0 1.78 232.48 00:26 01.08.2019
4198 Rain 16 1013 99 0 1.62 233.158 23:55 31.07.2019
4199 Rain 16 1016 79 0 1.62 233.158 23:36 31.07.2019
4200 Rain 16 1013 99 0 1.62 233.158 23:18 31.07.2019
4201 Clear 17 1016 63 10000 4.1 320 22:42 31.07.2019
4202 Clear 17 1016 63 10000 4.1 320 22:23 31.07.2019
4203 Clear 18 1016 63 10000 4.1 320 21:40 31.07.2019
4204 Clear 18 1016 88 10000 3.1 0 21:22 31.07.2019
4205 Clear 19 1015 88 10000 2.6 90 20:49 31.07.2019
4206 Clear 20 1014 88 10000 1.5 0 20:24 31.07.2019
4207 Clear 21 1014 82 10000 2.6 80 19:49 31.07.2019
4208 Clouds 21 1014 77 10000 3.1 140 19:31 31.07.2019
4209 Thunderstorm 22 1015 68 10000 5.7 180 18:57 31.07.2019
4210 Thunderstorm 22 1015 68 10000 5.7 180 18:37 31.07.2019
4211 Clear 23 1014 56 10000 3.6 160 18:18 31.07.2019
4212 Clear 25 1014 57 10000 4.1 130 17:44 31.07.2019
4213 Clear 25 1014 60 10000 3.6 130 17:20 31.07.2019
4214 Clear 25 1014 56 10000 5.1 0 16:52 31.07.2019
4215 Clear 24 1014 36 10000 2.6 0 16:27 31.07.2019
4216 Clouds 24 1014 53 10000 2.6 250 15:58 31.07.2019
4217 Clouds 24 1014 53 10000 2.6 250 15:38 31.07.2019
4218 Clouds 24 1014 53 10000 2.6 250 15:38 31.07.2019
4219 Clear 24 1014 44 10000 3.6 270 15:20 31.07.2019
4220 Clouds 25 1015 44 10000 3.6 280 14:42 31.07.2019
4221 Clouds 25 1015 44 10000 3.6 270 14:19 31.07.2019
4222 Clouds 25 1015 53 10000 3.1 280 13:55 31.07.2019
4223 Clouds 25 1015 53 10000 3.1 280 13:37 31.07.2019
4224 Clouds 24 1015 53 10000 3.1 300 13:18 31.07.2019
4225 Clouds 24 1015 56 10000 3.6 300 12:40 31.07.2019
4226 Clear 23 1015 60 10000 4.6 290 12:22 31.07.2019
4227 Clear 23 1015 60 10000 4.1 310 11:39 31.07.2019
4228 Clear 22 1015 68 10000 3.6 280 11:21 31.07.2019
4229 Clear 22 1015 68 10000 3.6 270 10:55 31.07.2019
4230 Clear 21 1015 68 10000 3.6 270 10:37 31.07.2019
4231 Clear 21 1014 68 10000 4.1 280 10:18 31.07.2019
4232 Clear 20 1014 68 10000 3.6 260 09:42 31.07.2019
4233 Clear 20 1014 72 10000 2.6 250 09:23 31.07.2019
4234 Clear 19 1014 77 10000 3.6 260 08:43 31.07.2019
4235 Clear 19 1013 77 10000 2.6 260 08:24 31.07.2019
4236 Clear 19 1014 88 10000 1.5 230 07:48 31.07.2019
4237 Clear 18 1013 93 10000 1.5 0 07:30 31.07.2019
4238 Rain 17 1009 10 0 0.73 278.764 05:23 31.07.2019
4239 Rain 18 1012 89 0 0.73 278.764 03:56 31.07.2019
4240 Rain 20 1011 73 0 1.67 215.138 00:38 31.07.2019
4241 Clear 20 1008 69 0 1.44 133.336 23:51 30.07.2019
4242 Clear 20 1010 70 0 1.44 133.336 23:29 30.07.2019
4243 Clear 20 1011 60 10000 2.6 80 22:49 30.07.2019
4244 Clear 21 1011 60 10000 2.6 80 22:26 30.07.2019
4245 Clear 21 1011 57 10000 3.1 80 21:59 30.07.2019
4246 Clear 22 1011 57 10000 3.1 80 21:37 30.07.2019
4247 Clear 24 1011 50 10000 2.1 60 21:19 30.07.2019
4248 Clear 26 1010 32 10000 1.5 0 20:56 30.07.2019
4249 Clear 26 1010 32 10000 1.5 0 20:37 30.07.2019
4250 Clear 27 1010 32 10000 1.5 0 20:18 30.07.2019
4251 Clear 28 1010 35 10000 2.1 0 19:44 30.07.2019
4252 Clear 28 1010 35 10000 3.1 0 19:26 30.07.2019
4253 Clear 28 1010 35 10000 3.1 330 18:48 30.07.2019
4254 Clear 29 1010 35 10000 3.6 300 18:23 30.07.2019
4255 Clear 29 1010 32 10000 3.6 310 17:57 30.07.2019
4256 Clear 29 1010 32 10000 3.6 310 17:39 30.07.2019
4257 Clear 28 1011 35 10000 3.1 310 17:18 30.07.2019
4258 Clear 28 1011 37 10000 2.6 0 16:41 30.07.2019
4259 Clear 29 1011 37 10000 4.1 330 16:19 30.07.2019
4260 Clear 29 1011 39 10000 2.6 0 15:39 30.07.2019
4261 Clear 28 1011 39 10000 2.1 0 15:19 30.07.2019
4262 Clear 28 1011 44 10000 3.1 320 14:43 30.07.2019
4263 Clear 28 1012 42 10000 3.6 310 14:22 30.07.2019
4264 Clouds 28 1012 50 10000 4.1 300 13:55 30.07.2019
4265 Clouds 27 1012 50 10000 4.1 300 13:36 30.07.2019
4266 Clear 27 1012 50 10000 3.6 270 13:18 30.07.2019
4267 Clear 26 1012 54 10000 4.6 310 12:43 30.07.2019
4268 Clear 26 1012 57 10000 4.6 280 12:24 30.07.2019
4269 Clear 26 1012 57 10000 4.6 280 12:24 30.07.2019
4270 -273 0 0 0 0 0 11:46 30.07.2019
4271 Clear 24 1012 68 10000 2.1 290 11:26 30.07.2019
4272 Clear 23 1012 68 10000 2.1 290 10:57 30.07.2019
4273 Clear 23 1012 68 10000 2.1 290 10:38 30.07.2019
4274 Clear 23 1012 68 10000 2.6 300 10:20 30.07.2019
4275 Clouds 22 1012 72 10000 2.1 300 09:46 30.07.2019
4276 Clouds 21 1012 77 10000 2.6 280 09:28 30.07.2019
4277 Clouds 20 1012 72 10000 2.6 290 08:41 30.07.2019
4278 Clouds 19 1012 77 10000 3.1 290 08:19 30.07.2019
4279 Clouds 19 1012 77 10000 3.1 290 07:43 30.07.2019
4280 Clouds 18 1011 77 10000 2.6 290 07:23 30.07.2019
4281 Clouds 18 1011 93 0 2.49 271.383 06:44 30.07.2019
4282 Clouds 18 1010 94 0 2.67 260.827 05:36 30.07.2019
4283 Clouds 18 1009 97 0 1.79 286 04:42 30.07.2019
4284 Clouds 18 1007 97 0 2.14 276.624 01:23 30.07.2019
4285 Clouds 18 1010 93 0 2.14 276.624 00:28 30.07.2019
4286 Clouds 19 1009 97 0 1.79 286 23:59 29.07.2019
4287 Clouds 19 1010 93 0 1.97 320.127 23:40 29.07.2019
4288 Clouds 20 1011 88 10000 2.1 310 23:21 29.07.2019
4289 Clouds 20 1011 88 10000 2.1 310 22:55 29.07.2019
4290 Clouds 20 1011 88 10000 2.1 310 22:55 29.07.2019
4291 Clouds 20 1011 88 10000 2.1 310 22:37 29.07.2019
4292 Clouds 20 1011 88 10000 2.1 310 22:18 29.07.2019
4293 Clouds 21 1010 83 10000 2.6 280 21:42 29.07.2019
4294 Clouds 21 1010 83 10000 2.6 290 21:23 29.07.2019
4295 Clouds 21 1010 83 10000 2.6 280 20:58 29.07.2019
4296 Clouds 21 1010 83 10000 2.6 280 20:39 29.07.2019
4297 Clouds 21 1010 83 10000 2.6 290 20:19 29.07.2019
4298 Clouds 22 1010 83 10000 2.6 320 19:47 29.07.2019
4299 Clouds 22 1010 83 10000 3.1 310 19:23 29.07.2019
4300 Clouds 22 1010 83 10000 3.1 320 18:58 29.07.2019
4301 Clouds 22 1010 83 10000 3.1 320 18:39 29.07.2019
4302 Clouds 22 1010 83 10000 3.1 300 18:20 29.07.2019
4303 Clouds 22 1010 88 10000 4.6 300 17:47 29.07.2019
4304 Clouds 22 1010 88 10000 3.6 280 17:29 29.07.2019
4305 Clouds 22 1010 88 10000 3.6 290 16:55 29.07.2019
4306 Clouds 21 1010 88 10000 3.6 290 16:37 29.07.2019
4307 Clouds 21 1010 83 10000 3.6 300 16:18 29.07.2019
4308 Clouds 21 1010 88 10000 3.6 270 15:45 29.07.2019
4309 Clouds 21 1010 88 10000 3.1 280 15:27 29.07.2019
4310 Clouds 20 1010 88 10000 4.6 290 14:42 29.07.2019
4311 Clouds 20 1010 94 7000 3.6 290 14:21 29.07.2019
4312 Rain 20 1010 94 5000 4.6 300 13:46 29.07.2019
4313 Rain 20 1010 93 3700 4.6 290 13:24 29.07.2019
4314 Rain 19 1010 93 7000 4.1 280 12:57 29.07.2019
4315 Rain 19 1010 93 7000 4.1 280 12:38 29.07.2019
4316 Rain 19 1010 88 8000 5.1 270 12:20 29.07.2019
4317 Rain 19 1010 82 10000 6.2 270 11:41 29.07.2019
4318 Clouds 19 1010 82 10000 5.7 280 11:19 29.07.2019
4319 Clouds 19 1010 82 10000 5.7 280 10:43 29.07.2019
4320 Clouds 19 1009 82 10000 5.7 280 10:21 29.07.2019
4321 Clouds 19 1009 82 10000 5.1 290 09:44 29.07.2019
4322 Clouds 19 1009 82 9000 5.7 290 09:21 29.07.2019
4323 Clouds 19 1008 82 9000 5.1 280 08:49 29.07.2019
4324 Clouds 19 1008 82 8000 4.6 290 08:27 29.07.2019
4325 Clouds 19 1008 82 10000 5.1 300 07:50 29.07.2019
4326 Clouds 19 1008 88 10000 4.1 290 07:30 29.07.2019
4327 Rain 19 1011 99 0 4.62 277.737 06:40 29.07.2019
4328 Rain 19 1011 97 0 3.89 262.943 05:37 29.07.2019
4329 Rain 20 1011 96 0 0.89 315 04:23 29.07.2019
4330 Rain 20 1001 86 0 3.53 250.934 01:52 29.07.2019
4331 Rain 20 1006 88 0 0.45 273 01:34 29.07.2019
4332 Rain 20 1010 83 0 0.45 158 00:58 29.07.2019
4333 Rain 21 1010 82 0 0.89 225 00:30 29.07.2019
4334 Rain 22 1004 69 0 2.64 251.654 23:44 28.07.2019
4335 Rain 22 1006 89 0 2.64 251.654 23:26 28.07.2019
4336 Rain 20 1009 83 0 0.45 45 22:46 28.07.2019
4337 Rain 21 1008 81 0 0.45 0 22:28 28.07.2019
4338 Rain 22 1008 76 0 2.64 251.654 21:56 28.07.2019
4339 Clear 24 1003 39 10000 1 0 21:37 28.07.2019
4340 Clear 25 1003 39 10000 1 0 21:18 28.07.2019
4341 Clear 26 1003 39 10000 1 0 20:42 28.07.2019
4342 Clear 27 1002 35 10000 1.5 0 20:24 28.07.2019
4343 Rain 27 1001 50 0 0.45 22 19:41 28.07.2019
4344 Rain 27 1007 54 0 0.45 315 19:21 28.07.2019
4345 Rain 27 1006 54 0 0.89 135 18:46 28.07.2019
4346 Clear 28 1001 35 10000 4.1 140 18:28 28.07.2019
4347 Clear 28 1001 35 10000 3.6 110 17:57 28.07.2019
4348 Clear 28 1001 35 10000 3.6 110 17:38 28.07.2019
4349 Clear 29 1001 33 10000 4.6 130 17:19 28.07.2019
4350 Clear 29 1001 33 10000 3.6 0 16:45 28.07.2019
4351 Clear 28 1001 37 10000 4.1 120 16:25 28.07.2019
4352 Clear 28 1001 37 10000 4.1 90 15:48 28.07.2019
4353 Clear 29 1001 38 10000 3.1 0 15:27 28.07.2019
4354 Clear 27 1001 39 10000 4.1 110 14:56 28.07.2019
4355 Clear 28 1001 39 10000 4.1 110 14:37 28.07.2019
4356 Clear 28 1001 45 10000 3.1 0 14:18 28.07.2019
4357 Clouds 27 1001 42 10000 3.6 100 13:40 28.07.2019
4358 Clouds 27 1001 47 10000 3.6 90 13:21 28.07.2019
4359 Clouds 27 1001 50 10000 3.1 90 12:46 28.07.2019
4360 Clear 27 1001 47 10000 3.1 0 12:28 28.07.2019
4361 Clear 26 1001 53 10000 3.1 80 11:52 28.07.2019
4362 Clear 25 1001 53 10000 3.1 80 11:31 28.07.2019
4363 Clear 24 1001 60 10000 3.1 100 10:59 28.07.2019
4364 Clear 24 1001 60 10000 3.1 100 10:39 28.07.2019
4365 Clear 23 1001 60 10000 3.6 100 10:19 28.07.2019
4366 Clear 22 1001 64 10000 4.1 90 09:41 28.07.2019
4367 Clear 21 1002 68 10000 4.1 100 09:23 28.07.2019
4368 Clouds 21 1004 71 0 0.89 135 08:44 28.07.2019
4369 Clouds 21 1004 73 0 0.89 45 08:26 28.07.2019
4370 Clouds 20 1004 72 0 0.45 0 07:44 28.07.2019
4371 Clouds 18 1004 73 0 0.45 45 07:26 28.07.2019
4372 Clouds 17 1004 77 0 0.45 45 06:36 28.07.2019
4373 Clouds 17 1004 76 0 1.34 0 05:23 28.07.2019
4374 Clouds 18 1004 64 0 1.79 90 03:21 28.07.2019
4375 Clouds 19 1005 63 0 1.79 22 02:18 28.07.2019
4376 Clouds 20 1005 62 0 1.34 0 01:18 28.07.2019
4377 Clouds 21 1000 53 0 1.34 0 00:44 28.07.2019
4378 Clouds 21 1006 60 0 0.89 45 23:56 27.07.2019
4379 Clouds 22 1001 51 0 1.34 0 23:38 27.07.2019
4380 Clouds 22 998 56 0 2.51 88.627 23:18 27.07.2019
4381 Clouds 23 1001 50 0 0.89 0 22:40 27.07.2019
4382 Clear 23 1003 44 10000 3.1 70 22:18 27.07.2019
4383 Clear 23 1003 44 10000 3.1 70 21:39 27.07.2019
4384 Clear 25 1003 44 10000 3.1 70 21:20 27.07.2019
4385 Clear 26 1003 36 10000 4.1 80 20:50 27.07.2019
4386 Clear 26 1003 36 10000 4.1 80 20:23 27.07.2019
4387 Clear 27 1003 32 10000 4.6 100 19:46 27.07.2019
4388 Clear 27 1003 34 10000 5.7 90 19:26 27.07.2019
4389 Clear 27 1003 32 10000 5.1 80 18:51 27.07.2019
4390 Clear 28 1003 32 10000 5.1 80 18:32 27.07.2019
4391 Clear 29 1003 34 10000 5.7 90 17:52 27.07.2019
4392 Clear 28 1003 34 10000 5.7 90 17:33 27.07.2019
4393 Clear 28 1004 32 10000 5.1 80 16:59 27.07.2019
4394 Clear 29 1004 32 10000 5.1 80 16:39 27.07.2019
4395 Clear 29 1004 32 10000 5.7 110 16:21 27.07.2019
4396 Clear 29 1004 32 10000 6.2 110 15:48 27.07.2019
4397 Clear 29 1005 35 10000 6.2 120 15:20 27.07.2019
4398 Clear 28 1005 32 10000 6.7 100 14:50 27.07.2019
4399 Clear 28 1005 32 10000 6.7 100 14:31 27.07.2019
4400 Clear 28 1006 34 10000 6.7 90 13:55 27.07.2019
4401 Clear 28 1006 36 10000 6.2 100 13:25 27.07.2019
4402 Clear 28 1006 39 10000 6.2 100 12:59 27.07.2019
4403 Clear 28 1006 39 10000 6.2 100 12:41 27.07.2019
4404 Clear 27 1007 39 10000 6.2 90 12:21 27.07.2019
4405 Clear 27 1007 44 10000 5.7 100 11:41 27.07.2019
4406 Clear 27 1007 47 10000 5.1 90 11:23 27.07.2019
4407 Clear 26 1007 44 10000 5.1 90 10:42 27.07.2019
4408 Clear 26 1007 50 10000 5.7 100 10:23 27.07.2019
4409 Clear 25 1008 53 10000 5.1 100 09:43 27.07.2019
4410 Clear 24 1007 56 10000 5.1 90 09:23 27.07.2019
4411 Clear 23 1010 47 0 3.58 0 08:52 27.07.2019
4412 Clear 23 1010 47 0 1.79 180 08:33 27.07.2019
4413 Clear 22 1010 50 0 1.34 45 07:57 27.07.2019
4414 Clear 21 1010 54 0 1.79 45 07:38 27.07.2019
4415 Clear 20 1010 58 0 1.34 90 07:18 27.07.2019
4416 Clear 19 1010 60 0 2.68 135 06:49 27.07.2019
4417 Clear 17 1010 60 0 0.89 0 06:20 27.07.2019
4418 Clear 18 1010 61 0 0.89 90 05:34 27.07.2019
4419 Clear 18 1010 57 0 1.34 90 04:38 27.07.2019
4420 Clear 19 1010 56 0 0.89 135 03:39 27.07.2019
4421 Clear 20 1011 60 0 0.89 135 02:42 27.07.2019
4422 Clear 20 1011 60 0 1.34 270 01:57 27.07.2019
4423 Clear 21 1011 60 0 2.24 90 01:32 27.07.2019
4424 Clear 22 1007 55 0 2.44 113.186 00:38 27.07.2019
4425 Clear 22 1012 61 0 1.79 0 00:18 27.07.2019
4426 Clear 23 1012 57 0 3.13 45 23:41 26.07.2019
4427 Clear 24 1012 55 0 3.58 45 23:23 26.07.2019
4428 Clear 24 1013 53 0 2.68 45 22:42 26.07.2019
4429 Clear 24 1010 36 10000 4.1 70 22:24 26.07.2019
4430 Clear 25 1010 36 10000 4.1 70 21:49 26.07.2019
4431 Clear 26 1010 32 10000 2.6 80 21:20 26.07.2019
4432 Clear 28 1010 30 10000 5.7 100 20:51 26.07.2019
4433 Clear 29 1010 30 10000 5.7 100 20:32 26.07.2019
4434 Clear 29 1010 30 10000 5.7 90 19:45 26.07.2019
4435 Clear 30 1010 31 10000 4.6 90 19:26 26.07.2019
4436 Clear 30 1010 31 10000 5.7 80 18:59 26.07.2019
4437 Clear 31 1010 31 10000 5.7 80 18:41 26.07.2019
4438 Clear 31 1010 25 10000 6.2 100 18:20 26.07.2019
4439 Clear 31 1011 29 10000 5.7 90 17:56 26.07.2019
4440 Clear 31 1011 29 10000 5.7 90 17:37 26.07.2019
4441 Clear 31 1011 29 10000 4.6 100 17:18 26.07.2019
4442 Clear 32 1011 29 10000 5.1 80 16:41 26.07.2019
4443 Clear 32 1012 29 10000 5.7 100 16:21 26.07.2019
4444 Clear 32 1012 29 10000 5.1 90 15:59 26.07.2019
4445 Clear 32 1012 29 10000 5.1 90 15:40 26.07.2019
4446 Clear 31 1012 33 10000 5.7 80 15:20 26.07.2019
4447 Clear 32 1013 33 10000 5.7 100 14:44 26.07.2019
4448 Clear 32 1013 37 10000 5.1 100 14:25 26.07.2019
4449 Clear 31 1013 37 10000 6.2 90 13:47 26.07.2019
4450 Clear 31 1013 40 10000 6.7 110 13:28 26.07.2019
4451 Clear 31 1014 45 10000 6.2 100 12:50 26.07.2019
4452 Clear 30 1014 48 10000 5.7 100 12:24 26.07.2019
4453 Clear 29 1014 48 10000 6.2 90 11:58 26.07.2019
4454 Clear 29 1014 48 10000 6.2 90 11:37 26.07.2019
4455 Clear 29 1016 40 0 1.79 338 11:18 26.07.2019
4456 Clear 28 1016 36 0 3.58 0 10:42 26.07.2019
4457 Clear 27 1015 53 10000 4.1 80 10:24 26.07.2019
4458 Clear 26 1015 60 10000 3.6 90 09:50 26.07.2019
4459 Clear 26 1017 40 0 1.79 45 09:30 26.07.2019
4460 Clear 23 1015 64 10000 4.1 90 08:41 26.07.2019
4461 Clear 23 1015 64 10000 4.6 90 08:21 26.07.2019
4462 Clear 23 1015 68 10000 4.6 90 07:52 26.07.2019
4463 Clear 22 1015 68 10000 4.1 90 07:26 26.07.2019
4464 Clouds 19 1017 70 0 0.89 45 06:31 26.07.2019
4465 Clouds 20 1013 73 0 2.57 111.289 04:31 26.07.2019
4466 Clouds 21 1010 57 0 2.57 111.289 03:55 26.07.2019
4467 Clouds 24 1010 54 0 3.15 104.041 02:25 26.07.2019
4468 Clouds 25 1013 52 0 2.76 113.91 01:31 26.07.2019
4469 Clouds 27 1019 45 0 1.79 45 00:33 26.07.2019
4470 Clouds 28 1014 38 0 0.89 90 23:55 25.07.2019
4471 Clear 28 1015 32 10000 3.1 80 23:23 25.07.2019
4472 Clear 28 1015 32 10000 3.1 80 22:42 25.07.2019
4473 Clear 29 1015 32 10000 3.1 80 22:23 25.07.2019
4474 Clear 28 1015 30 10000 3.1 70 21:58 25.07.2019
4475 Clear 28 1015 30 10000 3.1 70 21:58 25.07.2019
4476 Clear 29 1015 30 10000 3.1 70 21:40 25.07.2019
4477 Clear 30 1015 29 10000 2.6 70 21:20 25.07.2019
4478 Clear 30 1015 29 10000 2.6 70 21:20 25.07.2019
4479 Clear 31 1015 27 10000 2.1 60 20:41 25.07.2019
4480 Clear 32 1015 26 10000 2.6 80 20:21 25.07.2019
4481 Clear 33 1015 24 10000 3.1 70 19:42 25.07.2019
4482 Clear 34 1015 23 10000 3.1 70 19:23 25.07.2019
4483 Clear 35 1015 22 10000 2.1 60 18:45 25.07.2019
4484 Clear 35 1015 21 10000 3.1 90 18:27 25.07.2019
4485 Clear 35 1015 23 10000 3.1 70 17:52 25.07.2019
4486 Clear 36 1015 23 10000 3.1 70 17:34 25.07.2019
4487 Clear 36 1016 20 10000 3.1 90 16:59 25.07.2019
4488 Clear 36 1016 20 10000 3.1 90 16:41 25.07.2019
4489 Clear 36 1016 22 10000 3.6 80 16:22 25.07.2019
4490 Clear 37 1016 22 10000 3.6 0 15:51 25.07.2019
4491 Clear 36 1016 20 10000 3.6 0 15:21 25.07.2019
4492 Clear 36 1016 22 10000 3.6 90 14:44 25.07.2019
4493 Clear 36 1016 22 10000 4.1 120 14:25 25.07.2019
4494 Clear 36 1016 24 10000 3.1 110 13:59 25.07.2019
4495 Clear 36 1016 24 10000 3.1 110 13:40 25.07.2019
4496 Clear 36 1017 23 10000 3.6 120 13:22 25.07.2019
4497 Clear 35 1017 24 10000 3.6 80 12:35 25.07.2019
4498 Clear 34 1017 28 10000 3.1 110 11:59 25.07.2019
4499 Clear 34 1017 28 10000 3.1 110 11:40 25.07.2019
4500 Clear 34 1017 28 10000 3.1 110 11:40 25.07.2019
4501 Clear 33 1017 31 10000 3.6 80 11:22 25.07.2019
4502 Clear 32 1017 31 10000 2.6 110 10:45 25.07.2019
4503 Clear 31 1017 35 10000 2.6 100 10:24 25.07.2019
4504 Clear 29 1017 37 10000 2.6 110 09:46 25.07.2019
4505 Clear 28 1017 42 10000 2.1 110 09:27 25.07.2019
4506 Clear 28 1017 42 10000 2.1 110 09:27 25.07.2019
4507 Clear 26 1017 47 10000 2.6 80 08:53 25.07.2019
4508 Clear 25 1017 47 10000 2.6 80 08:32 25.07.2019
4509 Clear 23 1017 60 10000 1 110 07:40 25.07.2019
4510 Clouds 21 1021 71 0 0.89 45 06:46 25.07.2019
4511 Clouds 20 1021 71 0 0.89 0 06:20 25.07.2019
4512 Clouds 21 1015 83 0 1.79 148.384 05:36 25.07.2019
4513 Clouds 20 1020 67 0 0.89 0 04:45 25.07.2019
4514 Clouds 22 1020 54 0 0.89 45 03:24 25.07.2019
4515 Clouds 22 1015 69 0 1.46 153.435 01:21 25.07.2019
4516 Clouds 24 1015 66 0 1.46 153.435 00:34 25.07.2019
4517 Clear 25 1020 48 0 1.34 45 23:56 24.07.2019
4518 Clear 25 1021 52 0 0.89 0 23:38 24.07.2019
4519 Clear 26 1016 42 10000 2.6 90 23:20 24.07.2019
4520 Clear 23 1016 42 10000 2.6 90 22:44 24.07.2019
4521 Clear 25 1016 42 10000 2.6 90 22:22 24.07.2019
4522 Clear 25 1015 39 10000 2.1 80 21:55 24.07.2019
4523 Clear 26 1015 39 10000 2.1 80 21:37 24.07.2019
4524 Clear 28 1015 33 10000 2.6 80 21:18 24.07.2019
4525 Clear 30 1015 29 10000 3.1 100 20:45 24.07.2019
4526 Clear 32 1015 28 10000 4.1 100 20:26 24.07.2019
4527 Clear 33 1015 28 10000 3.6 90 19:58 24.07.2019
4528 Clear 33 1015 28 10000 3.6 90 19:39 24.07.2019
4529 Clear 34 1015 26 10000 2.6 80 19:19 24.07.2019
4530 Clear 35 1015 26 10000 3.6 0 18:43 24.07.2019
4531 Clear 35 1015 24 10000 4.1 120 18:24 24.07.2019
4532 Clear 35 1015 24 10000 2.6 0 17:47 24.07.2019
4533 Clear 35 1015 25 10000 3.1 140 17:21 24.07.2019
4534 Clear 36 1015 24 10000 4.1 120 16:44 24.07.2019
4535 Clear 36 1016 24 10000 2.6 0 16:23 24.07.2019
4536 Clear 35 1016 23 10000 3.6 160 15:59 24.07.2019
4537 Clear 35 1016 23 10000 3.6 160 15:37 24.07.2019
4538 Clear 34 1016 24 10000 4.6 130 15:19 24.07.2019
4539 Clear 34 1016 24 10000 3.6 150 14:44 24.07.2019
4540 Clear 34 1016 26 10000 2.6 0 14:20 24.07.2019
4541 Clear 34 1016 26 10000 2.1 0 13:40 24.07.2019
4542 Clear 34 1017 28 10000 3.1 0 13:19 24.07.2019
4543 Clear 33 1017 27 10000 2.1 0 12:52 24.07.2019
4544 Clear 32 1017 27 10000 2.1 0 12:34 24.07.2019
4545 Clear 31 1017 31 10000 2.6 170 11:41 24.07.2019
4546 Clear 31 1017 37 10000 3.1 90 11:21 24.07.2019
4547 Clear 30 1018 40 10000 2.1 130 10:49 24.07.2019
4548 Clear 29 1018 45 10000 3.1 110 10:27 24.07.2019
4549 Clouds 27 1017 47 10000 3.6 100 09:59 24.07.2019
4550 Clouds 27 1017 47 10000 3.6 100 09:41 24.07.2019
4551 Clear 26 1017 57 10000 4.1 100 09:21 24.07.2019
4552 Clear 24 1017 57 10000 4.1 100 08:42 24.07.2019
4553 Clear 23 1018 68 10000 4.6 90 07:52 24.07.2019
4554 Clear 22 1018 68 10000 4.6 90 07:31 24.07.2019
4555 Clouds 20 1021 46 0 1.34 135 06:51 24.07.2019
4556 Clouds 17 1016 83 0 1.29 109.696 06:27 24.07.2019
4557 Clouds 17 1015 90 0 1.74 142.662 04:56 24.07.2019
4558 Clouds 18 1022 88 0 0.89 0 01:48 24.07.2019
4559 Clouds 20 1022 88 0 0.89 45 00:57 24.07.2019
4560 Clouds 20 1023 90 0 0.89 0 00:30 24.07.2019
4561 Clear 21 1023 86 0 0.45 0 23:52 23.07.2019
4562 Clear 21 1019 50 10000 1.5 0 23:26 23.07.2019
4563 Clear 21 1019 50 10000 1.5 0 22:58 23.07.2019
4564 Clear 22 1019 50 10000 1.5 0 22:37 23.07.2019
4565 Clear 22 1019 50 10000 1.5 0 22:18 23.07.2019
4566 Clear 22 1019 50 10000 1.5 0 22:18 23.07.2019
4567 Clear 24 1019 39 10000 1.5 0 21:45 23.07.2019
4568 Clear 26 1019 37 10000 1 0 21:26 23.07.2019
4569 Clear 28 1019 35 10000 1 0 20:49 23.07.2019
4570 Clear 29 1019 33 10000 1 0 20:29 23.07.2019
4571 Clear 30 1019 31 10000 1.5 0 19:44 23.07.2019
4572 Clear 31 1019 31 10000 2.6 310 19:24 23.07.2019
4573 Clear 31 1019 31 10000 2.6 310 19:24 23.07.2019
4574 Clear 31 1019 31 10000 2.6 310 18:58 23.07.2019
4575 Clear 32 1019 31 10000 2.6 310 18:39 23.07.2019
4576 Clear 32 1019 29 10000 2.6 0 18:20 23.07.2019
4577 Clear 32 1019 29 10000 2.6 270 17:43 23.07.2019
4578 Clear 32 1020 31 10000 1.5 0 17:22 23.07.2019
4579 Clear 32 1020 31 10000 2.6 330 16:44 23.07.2019
4580 Clear 32 1020 31 10000 3.1 290 16:26 23.07.2019
4581 Clear 31 1020 31 10000 3.1 350 15:52 23.07.2019
4582 Clear 31 1020 31 10000 3.1 350 15:34 23.07.2019
4583 Clear 30 1021 37 10000 2.1 0 14:56 23.07.2019
4584 Clear 30 1021 37 10000 2.1 0 14:36 23.07.2019
4585 Clear 30 1021 37 10000 2.1 0 14:18 23.07.2019
4586 Clear 30 1021 37 10000 2.1 0 14:18 23.07.2019
4587 Clear 30 1021 39 10000 2.1 0 13:55 23.07.2019
4588 Clear 30 1021 39 10000 2.1 0 13:36 23.07.2019
4589 Clear 30 1022 45 10000 2.6 300 13:18 23.07.2019
4590 Clear 29 1022 48 10000 2.6 0 12:42 23.07.2019
4591 Clear 28 1022 48 10000 2.1 330 12:22 23.07.2019
4592 Clear 27 1022 54 10000 2.6 300 11:41 23.07.2019
4593 Clear 27 1022 54 10000 2.6 270 11:21 23.07.2019
4594 Clear 26 1022 61 10000 2.6 0 10:49 23.07.2019
4595 Clear 25 1022 64 10000 1.5 0 10:23 23.07.2019
4596 Clear 24 1022 64 10000 1.5 0 09:43 23.07.2019
4597 Clear 24 1022 64 10000 1.5 0 09:43 23.07.2019
4598 Clear 23 1022 64 10000 1.5 0 09:22 23.07.2019
4599 Clear 22 1023 68 10000 2.1 240 08:54 23.07.2019
4600 Clear 22 1023 68 10000 2.1 240 08:36 23.07.2019
4601 Clear 22 1023 68 10000 2.1 240 08:36 23.07.2019
4602 Clear 21 1022 77 10000 1.5 0 08:18 23.07.2019
4603 Clear 19 1022 93 10000 1.27 252.236 07:38 23.07.2019
4604 Clouds 16 1025 99 0 1.27 252.236 06:57 23.07.2019
4605 Clouds 16 1025 99 0 1.27 252.236 06:36 23.07.2019
4606 Clouds 16 1021 90 0 1.6 222.796 04:28 23.07.2019
4607 Clouds 17 1026 94 0 0.89 0 01:46 23.07.2019
4608 Clouds 17 1021 80 0 2.21 218.656 00:46 23.07.2019
4609 Clouds 18 1025 91 0 0.45 0 00:20 23.07.2019
4610 Clouds 19 1025 90 0 0.89 0 23:39 22.07.2019
4611 Clear 19 1021 64 10000 1.67 220.382 23:20 22.07.2019
4612 Clear 19 1021 64 10000 1.67 220.382 22:46 22.07.2019
4613 Clear 20 1021 64 10000 1.67 220.382 22:24 22.07.2019
4614 Clear 21 1021 64 10000 1.67 220.382 21:57 22.07.2019
4615 Clear 21 1021 64 10000 1.67 220.382 21:39 22.07.2019
4616 Clear 23 1021 60 10000 0.5 70 21:19 22.07.2019
4617 Clear 24 1021 57 10000 2.92 269.136 20:42 22.07.2019
4618 Clear 25 1021 53 10000 1.5 0 20:22 22.07.2019
4619 Clear 25 1021 53 10000 1.5 0 19:43 22.07.2019
4620 Clouds 25 1021 57 10000 2.1 330 19:23 22.07.2019
4621 Clouds 24 1022 56 10000 3.6 270 18:55 22.07.2019
4622 Clouds 24 1022 56 10000 3.6 270 18:37 22.07.2019
4623 Clear 25 1021 50 10000 4.6 270 18:19 22.07.2019
4624 Clear 25 1021 44 10000 4.6 260 17:39 22.07.2019
4625 Clear 26 1021 41 10000 4.6 240 17:20 22.07.2019
4626 Clear 26 1021 41 10000 5.1 260 16:41 22.07.2019
4627 Clear 26 1021 39 10000 5.7 270 16:21 22.07.2019
4628 Clear 26 1022 41 10000 5.7 270 15:55 22.07.2019
4629 Clear 25 1022 41 10000 5.7 270 15:36 22.07.2019
4630 Clear 25 1022 41 10000 6.2 250 15:18 22.07.2019
4631 Clouds 25 1022 41 10000 6.2 240 14:41 22.07.2019
4632 Clouds 25 1022 41 10000 6.2 240 14:19 22.07.2019
4633 Clouds 25 1022 50 10000 3.6 280 13:45 22.07.2019
4634 Clouds 24 1022 53 10000 3.1 270 13:22 22.07.2019
4635 Clear 24 1023 56 10000 3.1 280 12:44 22.07.2019
4636 Clear 23 1023 60 10000 2.6 260 12:23 22.07.2019
4637 Clear 22 1023 60 10000 3.1 260 11:44 22.07.2019
4638 Clear 22 1023 64 10000 3.6 250 11:20 22.07.2019
4639 Clear 22 1023 64 10000 3.6 260 10:48 22.07.2019
4640 Clear 21 1023 64 10000 2.6 250 10:27 22.07.2019
4641 Clear 20 1023 64 10000 1.5 0 09:44 22.07.2019
4642 Clear 19 1022 64 10000 1.5 0 09:24 22.07.2019
4643 Clouds 17 1022 72 10000 1 0 08:44 22.07.2019
4644 Clouds 17 1022 77 10000 1.5 0 08:25 22.07.2019
4645 Clear 16 1022 93 10000 1 0 07:55 22.07.2019
4646 Clear 15 1022 93 10000 1 0 07:33 22.07.2019
4647 Clouds 14 1021 89 0 0.97 203.036 06:51 22.07.2019
4648 Clouds 13 1025 99 0 1.1 214.586 03:57 22.07.2019
4649 Clouds 14 1025 98 0 0.45 45 02:42 22.07.2019
4650 Clouds 15 1022 86 0 1.22 237.67 00:57 22.07.2019
4651 Clouds 15 1025 96 0 0.45 0 00:26 22.07.2019
4652 Clouds 16 1025 95 0 0.45 0 23:55 21.07.2019
4653 Clouds 16 1025 95 0 0.45 0 23:36 21.07.2019
4654 Clouds 16 1025 89 0 0.89 0 22:54 21.07.2019
4655 Clouds 17 1025 88 0 0.45 0 22:36 21.07.2019
4656 Clouds 17 1025 85 0 0.45 0 22:18 21.07.2019
4657 Clear 19 1021 46 10000 4.1 310 21:43 21.07.2019
4658 Clear 21 1021 46 10000 4.1 310 21:22 21.07.2019
4659 Clear 22 1021 46 10000 4.1 310 20:54 21.07.2019
4660 Clear 22 1021 46 10000 4.1 310 20:36 21.07.2019
4661 Clear 22 1021 46 10000 4.1 310 20:36 21.07.2019
4662 Clear 23 1020 44 10000 4.6 300 20:18 21.07.2019
4663 Clear 23 1020 44 10000 5.1 300 19:44 21.07.2019
4664 Clear 24 1020 41 10000 5.1 300 19:22 21.07.2019
4665 Clear 24 1020 41 10000 6.2 290 18:48 21.07.2019
4666 Clear 25 1020 41 10000 4.6 280 18:26 21.07.2019
4667 Clear 25 1020 41 10000 4.6 280 18:26 21.07.2019
4668 Clear 25 1020 38 10000 5.1 270 17:43 21.07.2019
4669 Clear 25 1020 41 10000 7.2 290 17:20 21.07.2019
4670 Clear 25 1020 41 10000 7.2 290 17:20 21.07.2019
4671 Clouds 25 1020 41 10000 6.7 280 16:58 21.07.2019
4672 Clouds 25 1020 41 10000 6.7 280 16:39 21.07.2019
4673 Clouds 25 1020 50 10000 5.7 280 16:20 21.07.2019
4674 Clouds 25 1019 47 10000 6.7 280 15:37 21.07.2019
4675 Clouds 25 1019 47 10000 5.7 280 15:19 21.07.2019
4676 Clouds 24 1019 50 10000 6.7 270 14:42 21.07.2019
4677 Clouds 24 1019 53 10000 5.7 280 14:22 21.07.2019
4678 Clouds 23 1019 56 10000 6.2 270 13:52 21.07.2019
4679 Clouds 23 1019 56 10000 6.2 270 13:32 21.07.2019
4680 Clouds 23 1019 60 10000 7.2 260 12:45 21.07.2019
4681 Clouds 22 1018 64 10000 6.7 250 12:26 21.07.2019
4682 Clouds 21 1018 68 10000 6.7 260 11:52 21.07.2019
4683 Clouds 21 1018 68 10000 6.7 260 11:31 21.07.2019
4684 Clouds 21 1017 73 10000 6.7 260 10:58 21.07.2019
4685 Clouds 21 1017 73 10000 6.7 260 10:40 21.07.2019
4686 Clouds 20 1017 77 10000 6.2 270 10:22 21.07.2019
4687 Clouds 19 1017 82 10000 6.2 270 09:38 21.07.2019
4688 Clouds 19 1017 88 10000 6.2 260 09:20 21.07.2019
4689 Clouds 19 1016 91 0 0.45 225 08:45 21.07.2019
4690 Clouds 18 1013 98 0 5.97 249.899 08:25 21.07.2019
4691 Clouds 18 1013 10 0 5.97 249.899 07:38 21.07.2019
4692 Clouds 16 1019 99 0 1.79 225 06:50 21.07.2019
4693 Clouds 15 1018 99 0 0.45 180 05:41 21.07.2019
4694 Rain 16 1017 99 0 1.79 225 02:52 21.07.2019
4695 Clouds 16 1015 92 0 3.72 226.002 01:19 21.07.2019
4696 Clouds 16 1010 10 0 3.72 226.002 00:40 21.07.2019
4697 Clouds 16 1012 96 0 0.89 270 00:18 21.07.2019
4698 Clouds 17 1016 99 0 0.45 0 23:40 20.07.2019
4699 Clouds 17 1016 99 0 4.71 218.548 23:21 20.07.2019
4700 Clouds 17 1016 99 0 4.71 218.548 22:44 20.07.2019
4701 Thunderstorm 17 1014 93 10000 5.1 300 22:22 20.07.2019
4702 Thunderstorm 18 1014 93 10000 5.1 300 21:46 20.07.2019
4703 Thunderstorm 18 1014 93 10000 5.1 300 21:28 20.07.2019
4704 Thunderstorm 18 1013 93 10000 4.1 220 20:58 20.07.2019
4705 Thunderstorm 18 1013 93 10000 4.1 220 20:38 20.07.2019
4706 Rain 18 1012 93 10000 2.1 260 20:18 20.07.2019
4707 Clear 19 1011 77 10000 2.1 0 19:45 20.07.2019
4708 Rain 20 1011 77 10000 5.1 330 19:20 20.07.2019
4709 Rain 23 1011 50 10000 6.7 320 18:42 20.07.2019
4710 Clear 26 1010 37 10000 5.1 220 18:20 20.07.2019
4711 Clear 27 1010 37 10000 5.1 200 17:53 20.07.2019
4712 Clear 30 1010 35 10000 4.6 220 17:23 20.07.2019
4713 Clear 29 1010 37 10000 4.1 210 16:44 20.07.2019
4714 Clear 29 1011 39 10000 4.6 210 16:26 20.07.2019
4715 Clear 28 1011 39 10000 5.1 240 15:58 20.07.2019
4716 Clear 28 1011 39 10000 5.1 240 15:38 20.07.2019
4717 Clear 29 1011 37 10000 4.1 220 15:20 20.07.2019
4718 Clear 29 1011 37 10000 4.6 190 14:47 20.07.2019
4719 Clear 29 1012 37 10000 4.1 220 14:24 20.07.2019
4720 Clear 29 1012 37 10000 3.1 170 13:39 20.07.2019
4721 Rain 29 1012 35 10000 4.1 200 13:20 20.07.2019
4722 Rain 29 1012 35 10000 4.1 200 13:20 20.07.2019
4723 Clear 28 1012 37 10000 4.6 210 12:54 20.07.2019
4724 Clear 26 1012 39 10000 4.6 220 12:24 20.07.2019
4725 Clear 26 1013 39 10000 4.1 170 11:57 20.07.2019
4726 Clear 26 1013 41 10000 3.1 190 11:27 20.07.2019
4727 Clear 25 1013 44 10000 4.1 190 10:58 20.07.2019
4728 Clear 25 1013 44 10000 4.1 190 10:37 20.07.2019
4729 Clear 24 1013 50 10000 2.6 140 10:18 20.07.2019
4730 Clear 24 1013 50 10000 2.6 140 10:18 20.07.2019
4731 Clear 23 1013 56 10000 3.1 160 09:45 20.07.2019
4732 Clear 21 1013 64 10000 2.6 160 09:22 20.07.2019
4733 Clouds 20 1016 66 0 3.13 225 08:46 20.07.2019
4734 Clouds 19 1016 68 0 3.58 202 08:20 20.07.2019
4735 Clouds 17 1016 70 0 1.79 202 07:26 20.07.2019
4736 Clouds 15 1017 99 0 0.45 0 06:43 20.07.2019
4737 Clouds 13 1017 99 0 2.08 159.208 04:57 20.07.2019
4738 Clouds 13 1017 99 0 0.45 0 04:30 20.07.2019
4739 Clouds 15 1017 96 0 1.66 172.196 01:21 20.07.2019
4740 Clouds 15 1014 86 0 1.66 172.196 00:49 20.07.2019
4741 Clouds 16 1013 83 0 1.66 172.196 00:26 20.07.2019
4742 Clouds 16 1014 89 0 2.24 28 23:49 19.07.2019
4743 Clouds 16 1013 80 0 1.17 214.4 23:27 19.07.2019
4744 Clouds 17 1013 79 0 1.17 214.4 22:52 19.07.2019
4745 Clear 18 1014 64 10000 1 0 22:26 19.07.2019
4746 Clear 18 1014 64 10000 1 0 21:59 19.07.2019
4747 Clear 18 1014 64 10000 1 0 21:39 19.07.2019
4748 Clear 20 1013 64 10000 1.5 0 21:21 19.07.2019
4749 Clear 22 1013 60 10000 2.6 220 20:42 19.07.2019
4750 Clear 22 1013 56 10000 3.6 240 20:23 19.07.2019
4751 Clear 23 1013 56 10000 3.6 230 19:39 19.07.2019
4752 Clouds 22 1013 60 10000 4.6 240 18:55 19.07.2019
4753 Clouds 22 1013 60 10000 4.6 240 18:37 19.07.2019
4754 Clear 23 1013 44 10000 3.6 270 18:18 19.07.2019
4755 Clear 23 1013 44 10000 3.6 260 17:41 19.07.2019
4756 Clear 24 1013 38 10000 4.1 300 17:23 19.07.2019
4757 Clear 24 1013 44 10000 3.1 320 16:47 19.07.2019
4758 Clear 24 1013 41 10000 3.6 290 16:25 19.07.2019
4759 Clouds 23 1013 41 10000 5.1 300 15:47 19.07.2019
4760 Clear 23 1013 41 10000 3.1 290 15:29 19.07.2019
4761 Clouds 23 1013 49 10000 3.1 280 14:55 19.07.2019
4762 Clouds 23 1013 49 10000 3.1 280 14:37 19.07.2019
4763 Clouds 22 1013 53 10000 4.1 310 14:19 19.07.2019
4764 Clouds 23 1013 53 10000 2.6 240 13:43 19.07.2019
4765 Clouds 22 1013 56 10000 3.6 260 13:22 19.07.2019
4766 Clouds 21 1013 64 10000 3.6 250 12:49 19.07.2019
4767 Clouds 20 1013 60 10000 4.1 250 12:29 19.07.2019
4768 Clouds 19 1013 64 10000 4.1 250 11:47 19.07.2019
4769 Clouds 19 1013 64 10000 4.6 280 11:20 19.07.2019
4770 Clouds 19 1013 64 10000 5.1 260 10:58 19.07.2019
4771 Clouds 19 1013 64 10000 5.1 260 10:39 19.07.2019
4772 Clear 19 1013 68 10000 5.1 260 10:20 19.07.2019
4773 Clear 19 1013 72 10000 4.1 260 09:44 19.07.2019
4774 Clear 18 1013 72 10000 3.6 260 09:22 19.07.2019
4775 Clouds 19 1012 77 10000 3.1 270 08:50 19.07.2019
4776 Clouds 18 1012 77 10000 3.1 270 08:32 19.07.2019
4777 Clear 17 1012 88 10000 1.5 250 07:34 19.07.2019
4778 Rain 16 1015 96 0 3.74 234.08 06:47 19.07.2019
4779 Rain 16 1015 94 0 1.8 216.921 05:39 19.07.2019
4780 Clouds 18 1008 70 0 2.8 235.538 01:56 19.07.2019
4781 Clouds 18 1008 70 0 2.86 243.462 00:58 19.07.2019
4782 Clouds 18 1012 73 0 2.24 40 00:21 19.07.2019
4783 Clouds 18 1010 70 0 2.35 177.001 23:41 18.07.2019
4784 Clear 19 1011 55 10000 2.35 177.001 23:23 18.07.2019
4785 Clear 19 1011 55 10000 2.35 177.001 22:57 18.07.2019
4786 Clear 19 1011 55 10000 2.35 177.001 22:39 18.07.2019
4787 Clear 19 1011 55 10000 2.35 177.001 22:18 18.07.2019
4788 Clear 20 1011 46 10000 2.35 177.001 21:39 18.07.2019
4789 Clear 21 1010 38 10000 2.1 260 21:20 18.07.2019
4790 Clear 22 1010 36 10000 2.6 260 20:48 18.07.2019
4791 Clear 23 1010 33 10000 2.6 260 20:27 18.07.2019
4792 Clear 24 1010 33 10000 1.5 0 19:51 18.07.2019
4793 Clear 24 1010 33 10000 2.6 240 19:28 18.07.2019
4794 Clear 25 1010 34 10000 2.1 240 18:52 18.07.2019
4795 Rain 25 1010 36 10000 2.6 250 18:24 18.07.2019
4796 Clear 25 1010 31 10000 2.6 280 17:57 18.07.2019
4797 Clear 25 1010 31 10000 2.6 280 17:38 18.07.2019
4798 Clear 25 1011 33 10000 2.1 0 17:19 18.07.2019
4799 Clear 26 1011 33 10000 2.6 210 16:53 18.07.2019
4800 Clear 25 1011 33 10000 2.1 0 16:29 18.07.2019
4801 Clear 25 1011 36 10000 3.1 130 15:58 18.07.2019
4802 Clear 25 1011 36 10000 3.1 130 15:36 18.07.2019
4803 Clear 25 1011 34 10000 2.6 0 14:57 18.07.2019
4804 Clear 25 1011 34 10000 2.6 0 14:38 18.07.2019
4805 Clear 24 1011 36 10000 2.6 0 14:20 18.07.2019
4806 Clear 24 1011 36 10000 2.6 130 13:43 18.07.2019
4807 Clear 24 1011 41 10000 1.5 0 13:22 18.07.2019
4808 Clear 23 1011 43 10000 1.5 0 12:48 18.07.2019
4809 Clear 23 1012 44 10000 2.1 0 12:21 18.07.2019
4810 Clear 21 1012 53 10000 2.1 110 11:52 18.07.2019
4811 Clear 22 1012 53 10000 2.1 110 11:34 18.07.2019
4812 Clear 22 1012 53 10000 2.1 110 11:34 18.07.2019
4813 Clear 21 1012 60 10000 1 0 10:58 18.07.2019
4814 Clear 21 1012 60 10000 1 0 10:38 18.07.2019
4815 Clear 19 1012 68 10000 1 0 09:48 18.07.2019
4816 Clear 17 1012 77 10000 1 0 09:25 18.07.2019
4817 Clear 17 1012 82 10000 1.5 90 08:50 18.07.2019
4818 Clear 16 1012 77 10000 1.5 90 08:21 18.07.2019
4819 Clear 15 1012 82 10000 1 80 07:48 18.07.2019
4820 Clear 14 1012 82 10000 1 80 07:27 18.07.2019
4821 Clear 13 1015 99 0 0.42 222.951 06:40 18.07.2019
4822 Clear 12 1015 99 0 0.96 216.679 05:57 18.07.2019
4823 Clear 12 1012 94 0 1.67 231.072 03:24 18.07.2019
4824 Clear 12 1016 96 0 0.89 0 01:52 18.07.2019
4825 Clear 12 1016 96 0 0.89 315 01:20 18.07.2019
4826 Clear 14 1013 59 10000 1.5 330 23:55 17.07.2019
4827 Clear 14 1013 63 10000 1 340 23:21 17.07.2019
4828 Clear 14 1013 59 10000 1 0 22:58 17.07.2019
4829 Clear 14 1013 59 10000 1 0 22:39 17.07.2019
4830 Clear 15 1013 55 10000 1.63 231.439 22:20 17.07.2019
4831 Clear 16 1013 52 10000 1 0 21:45 17.07.2019
4832 Clear 18 1013 40 10000 2.6 300 21:27 17.07.2019
4833 Clear 19 1013 35 10000 1.5 0 20:58 17.07.2019
4834 Clear 20 1013 35 10000 1.5 0 20:40 17.07.2019
4835 Clear 20 1013 35 10000 2.6 340 20:21 17.07.2019
4836 Clouds 20 1016 63 0 0.45 315 19:56 17.07.2019
4837 Clear 20 1013 35 10000 3.1 320 19:37 17.07.2019
4838 Clear 21 1013 35 10000 3.1 320 19:18 17.07.2019
4839 Clear 21 1013 35 10000 3.6 280 18:41 17.07.2019
4840 Clear 22 1013 35 10000 2.6 280 18:20 17.07.2019
4841 Clear 22 1014 35 10000 2.1 0 17:50 17.07.2019
4842 Clear 22 1014 35 10000 2.1 0 17:27 17.07.2019
4843 Clear 22 1014 38 10000 3.1 300 16:55 17.07.2019
4844 Clear 22 1014 43 10000 2.1 0 16:37 17.07.2019
4845 Clear 22 1014 43 10000 2.1 0 16:18 17.07.2019
4846 Clouds 22 1014 40 10000 2.6 0 15:47 17.07.2019
4847 Clear 21 1014 40 10000 3.6 310 15:25 17.07.2019
4848 Clouds 21 1015 43 10000 2.6 280 14:54 17.07.2019
4849 Clouds 21 1015 49 10000 3.6 290 14:36 17.07.2019
4850 Clouds 20 1015 49 10000 3.6 290 14:18 17.07.2019
4851 Clouds 19 1015 55 10000 3.1 0 13:41 17.07.2019
4852 Clouds 19 1015 55 10000 3.1 0 13:20 17.07.2019
4853 Clouds 19 1015 55 10000 2.1 0 12:40 17.07.2019
4854 Clouds 18 1015 55 10000 2.1 0 12:21 17.07.2019
4855 Clouds 17 1015 63 10000 3.1 320 11:45 17.07.2019
4856 Clouds 17 1015 63 10000 3.1 320 11:21 17.07.2019
4857 Clouds 16 1015 67 10000 2.6 330 10:51 17.07.2019
4858 Clouds 16 1015 67 10000 2.6 300 10:30 17.07.2019
4859 Clouds 15 1015 67 10000 3.1 310 09:58 17.07.2019
4860 Clouds 15 1015 77 10000 2.6 310 09:40 17.07.2019
4861 Clouds 15 1015 77 10000 2.6 310 09:20 17.07.2019
4862 Clouds 15 1015 82 10000 2.6 340 08:42 17.07.2019
4863 Clouds 14 1015 82 10000 2.6 340 08:22 17.07.2019
4864 Clouds 14 1015 87 10000 2.1 330 07:50 17.07.2019
4865 Clouds 14 1015 87 10000 2.1 320 07:24 17.07.2019
4866 Clouds 13 1017 99 0 0.89 0 06:56 17.07.2019
4867 Clouds 13 1017 99 0 1.44 298.234 06:30 17.07.2019
4868 Clouds 13 1017 99 0 1.66 267.762 05:49 17.07.2019
4869 Clouds 13 1017 99 0 1.66 267.762 05:28 17.07.2019
4870 Clouds 13 1017 99 0 1.66 267.762 04:42 17.07.2019
4871 Clouds 13 1018 99 0 2.54 252.837 03:19 17.07.2019
4872 Clouds 13 1018 99 0 2.54 252.837 01:59 17.07.2019
4873 Clouds 13 1018 99 0 0.89 90 01:26 17.07.2019
4874 Clouds 13 1018 99 0 0.45 180 00:55 17.07.2019
4875 Clouds 13 1018 99 0 0.89 270 00:36 17.07.2019
4876 Clouds 13 1018 99 0 0.89 202 00:18 17.07.2019
4877 Clouds 14 1019 99 0 0.89 270 23:36 16.07.2019
4878 Clouds 14 1016 82 10000 3.6 270 23:18 16.07.2019
4879 Clouds 14 1016 82 10000 3.6 270 22:42 16.07.2019
4880 Clouds 15 1016 82 10000 3.6 270 22:24 16.07.2019
4881 Clouds 15 1016 77 10000 3.6 280 21:47 16.07.2019
4882 Clouds 15 1016 82 10000 4.6 280 21:22 16.07.2019
4883 Clouds 16 1016 72 10000 5.7 270 20:58 16.07.2019
4884 Clouds 16 1016 72 10000 5.7 280 20:39 16.07.2019
4885 Clouds 16 1016 72 10000 5.7 280 20:21 16.07.2019
4886 Clouds 16 1016 72 10000 5.7 280 19:52 16.07.2019
4887 Clouds 16 1016 77 10000 5.7 270 19:29 16.07.2019
4888 Clouds 16 1016 77 10000 4.6 270 18:58 16.07.2019
4889 Clouds 16 1016 77 10000 5.7 280 18:39 16.07.2019
4890 Clouds 16 1016 77 10000 5.7 280 18:20 16.07.2019
4891 Clouds 16 1016 77 10000 6.2 280 17:44 16.07.2019
4892 Clouds 16 1016 77 10000 6.2 280 17:23 16.07.2019
4893 Clouds 16 1016 72 10000 5.7 280 16:48 16.07.2019
4894 Clouds 16 1016 82 10000 6.2 280 16:25 16.07.2019
4895 Clouds 16 1016 82 10000 5.1 280 15:56 16.07.2019
4896 Clouds 16 1016 77 10000 5.7 280 15:37 16.07.2019
4897 Clouds 16 1016 77 10000 5.7 280 15:18 16.07.2019
4898 Clouds 16 1016 82 10000 6.2 270 14:45 16.07.2019
4899 Clouds 16 1016 82 10000 6.2 270 14:27 16.07.2019
4900 Clouds 16 1016 82 10000 5.7 270 13:48 16.07.2019
4901 Clouds 15 1016 77 10000 5.7 280 13:27 16.07.2019
4902 Clouds 15 1016 77 10000 5.1 280 12:58 16.07.2019
4903 Clouds 15 1016 77 10000 5.1 280 12:39 16.07.2019
4904 Clouds 15 1016 77 10000 5.1 280 12:19 16.07.2019
4905 Clouds 15 1016 77 10000 5.7 290 11:45 16.07.2019
4906 Clouds 14 1016 77 10000 5.7 290 11:25 16.07.2019
4907 Clouds 14 1016 82 10000 5.1 280 10:59 16.07.2019
4908 Clouds 14 1016 77 10000 6.2 290 10:41 16.07.2019
4909 Clouds 14 1016 77 10000 6.2 290 10:19 16.07.2019
4910 Clouds 13 1016 82 10000 6.2 280 09:43 16.07.2019
4911 Clouds 13 1016 82 10000 6.2 280 09:20 16.07.2019
4912 Clouds 13 1016 87 10000 4.6 280 08:47 16.07.2019
4913 Clouds 12 1016 87 10000 5.1 280 08:27 16.07.2019
4914 Drizzle 12 1016 87 7000 4.6 280 07:51 16.07.2019
4915 Drizzle 12 1016 93 7000 5.1 280 07:32 16.07.2019
4916 Clouds 12 1016 92 0 2.68 286 06:58 16.07.2019
4917 Clouds 12 1013 92 0 4.17 278.229 06:37 16.07.2019
4918 Clouds 12 1012 92 0 4.22 266.292 05:52 16.07.2019
4919 Clouds 12 1018 92 0 2.24 270 05:27 16.07.2019
4920 Clouds 12 1018 92 0 0.89 45 04:34 16.07.2019
4921 Clouds 12 1016 94 0 4.22 266.292 03:43 16.07.2019
4922 Clouds 12 1016 86 0 3.68 268.615 02:44 16.07.2019
4923 Clouds 12 1017 92 0 3.68 268.615 02:24 16.07.2019
4924 Clouds 12 1013 93 0 3.68 268.615 01:26 16.07.2019
4925 Clouds 13 1016 67 10000 4.1 260 00:24 16.07.2019
4926 Clouds 13 1016 67 10000 4.1 260 23:58 15.07.2019
4927 Clouds 13 1016 67 10000 4.1 260 23:38 15.07.2019
4928 Clouds 13 1016 67 10000 4.1 260 23:18 15.07.2019
4929 Clouds 13 1016 67 10000 3.6 260 22:43 15.07.2019
4930 Clouds 14 1016 67 10000 3.6 260 22:20 15.07.2019
4931 Clouds 14 1016 63 10000 3.1 260 21:57 15.07.2019
4932 Clouds 14 1016 59 10000 4.6 270 21:38 15.07.2019
4933 Clouds 15 1016 59 10000 4.6 270 21:19 15.07.2019
4934 Clouds 15 1017 63 10000 4.6 290 20:44 15.07.2019
4935 Clouds 15 1017 63 10000 4.6 290 20:24 15.07.2019
4936 Clouds 15 1017 63 10000 4.6 290 19:57 15.07.2019
4937 Clouds 15 1017 59 10000 4.1 290 19:38 15.07.2019
4938 Clouds 16 1017 59 10000 4.1 290 19:18 15.07.2019
4939 Clouds 16 1017 63 10000 6.2 290 18:44 15.07.2019
4940 Clouds 16 1017 63 10000 6.2 290 18:21 15.07.2019
4941 Clouds 16 1017 59 10000 5.7 290 17:56 15.07.2019
4942 Clouds 16 1017 63 10000 5.1 280 17:38 15.07.2019
4943 Clouds 15 1017 63 10000 5.1 280 17:20 15.07.2019
4944 Clouds 16 1017 63 10000 5.1 290 16:57 15.07.2019
4945 Clouds 16 1017 63 10000 5.7 280 16:36 15.07.2019
4946 Clouds 16 1017 63 10000 5.7 280 16:18 15.07.2019
4947 Clouds 16 1017 63 10000 5.1 280 15:39 15.07.2019
4948 Clouds 16 1017 63 10000 5.1 280 15:21 15.07.2019
4949 Clouds 16 1018 63 10000 4.6 280 14:57 15.07.2019
4950 Clouds 16 1018 63 10000 5.1 290 14:37 15.07.2019
4951 Clouds 16 1018 63 10000 5.1 290 14:19 15.07.2019
4952 Clouds 15 1018 63 10000 5.7 280 13:45 15.07.2019
4953 Clouds 15 1018 63 10000 5.7 280 13:18 15.07.2019
4954 Clouds 15 1018 67 10000 4.6 300 12:43 15.07.2019
4955 Clouds 15 1018 67 10000 4.6 300 12:24 15.07.2019
4956 Clouds 14 1018 76 10000 4.1 290 11:44 15.07.2019
4957 Clouds 14 1018 76 10000 4.1 290 11:26 15.07.2019
4958 Clouds 14 1018 76 10000 4.1 300 10:59 15.07.2019
4959 Clouds 14 1018 76 10000 4.1 300 10:40 15.07.2019
4960 Clouds 14 1018 76 10000 4.1 300 10:22 15.07.2019
4961 Clouds 14 1018 76 10000 3.6 280 09:42 15.07.2019
4962 Clouds 13 1018 76 10000 3.6 280 09:19 15.07.2019
4963 Clouds 13 1018 82 10000 2.6 290 08:45 15.07.2019
4964 Clouds 13 1018 82 10000 2.6 290 08:24 15.07.2019
4965 Clouds 13 1018 87 10000 2.6 290 07:43 15.07.2019
4966 Clouds 13 1018 87 10000 2.6 290 07:21 15.07.2019
4967 Clouds 12 1019 94 0 0.45 225 06:40 15.07.2019
4968 Clouds 12 1019 94 0 1.7 264.845 06:18 15.07.2019
4969 Clouds 12 1019 94 0 1.7 264.845 06:18 15.07.2019
4970 Clouds 12 1019 94 0 0.89 225 05:38 15.07.2019
4971 Clouds 13 1019 95 0 0.45 315 04:45 15.07.2019
4972 Clouds 13 1019 95 0 0.45 0 04:23 15.07.2019
4973 Clouds 13 1017 92 0 1.69 250.321 02:51 15.07.2019
4974 Clouds 14 1020 91 0 1.69 250.321 01:55 15.07.2019
4975 Clouds 14 1020 92 0 1.68 282.851 01:33 15.07.2019
4976 Clouds 14 1020 93 0 0.89 0 00:53 15.07.2019
4977 Clouds 14 1020 94 0 1.68 282.851 00:28 15.07.2019
4978 Clouds 14 1020 94 0 1.56 290.646 23:58 14.07.2019
4979 Clouds 14 1020 93 0 1.56 290.646 23:40 14.07.2019
4980 Clouds 14 1020 93 0 1.56 290.646 23:19 14.07.2019
4981 Clouds 14 1017 88 0 1.56 290.646 22:57 14.07.2019
4982 Clouds 14 1014 84 0 1.56 290.646 22:38 14.07.2019
4983 Clouds 14 1018 90 0 1.56 290.646 22:20 14.07.2019
4984 Clouds 15 1017 84 0 1.56 290.646 21:42 14.07.2019
4985 Clouds 15 1018 72 10000 2.1 320 21:19 14.07.2019
4986 Clouds 15 1018 72 10000 2.1 320 20:57 14.07.2019
4987 Clouds 16 1018 72 10000 2.1 320 20:38 14.07.2019
4988 Clouds 16 1018 72 10000 2.1 320 20:19 14.07.2019
4989 Clouds 16 1018 67 10000 3.1 310 19:46 14.07.2019
4990 Clouds 16 1018 67 10000 3.1 310 19:28 14.07.2019
4991 Clouds 16 1018 67 10000 3.1 320 18:58 14.07.2019
4992 Clouds 16 1018 67 10000 3.6 310 18:39 14.07.2019
4993 Clouds 16 1018 67 10000 3.6 310 18:21 14.07.2019
4994 Clouds 16 1018 67 10000 2.6 280 17:54 14.07.2019
4995 Clouds 16 1018 72 10000 4.1 270 17:22 14.07.2019
4996 Clouds 16 1018 72 10000 4.1 270 17:22 14.07.2019
4997 Clouds 17 1018 67 10000 3.6 300 16:52 14.07.2019
4998 Clouds 16 1018 72 10000 4.1 320 16:24 14.07.2019
4999 Clouds 16 1018 67 10000 3.6 290 15:57 14.07.2019
5000 Clouds 16 1018 72 10000 3.6 280 15:35 14.07.2019
5001 Clouds 16 1018 67 10000 2.6 320 14:56 14.07.2019
5002 Clouds 16 1018 72 10000 4.1 300 14:37 14.07.2019
5003 Clouds 16 1018 72 10000 4.1 300 14:18 14.07.2019
5004 Clouds 16 1018 72 10000 3.1 290 13:44 14.07.2019
5005 Clouds 15 1018 72 10000 3.1 290 13:21 14.07.2019
5006 Clouds 16 1018 72 10000 3.1 320 12:43 14.07.2019
5007 Clouds 15 1018 72 10000 3.1 320 12:22 14.07.2019
5008 Clouds 15 1018 72 10000 1 0 11:57 14.07.2019
5009 Clouds 15 1018 77 10000 2.1 330 11:38 14.07.2019
5010 Clouds 15 1018 77 10000 2.1 330 11:19 14.07.2019
5011 Clouds 14 1018 87 10000 2.1 340 10:42 14.07.2019
5012 Clouds 15 1018 87 10000 2.1 340 10:19 14.07.2019
5013 Clouds 14 1017 82 10000 3.1 330 09:44 14.07.2019
5014 Clouds 14 1017 82 10000 3.1 330 09:24 14.07.2019
5015 Clouds 14 1016 91 0 2.28 286.205 08:45 14.07.2019
5016 Clouds 13 1018 92 0 1.34 294 08:20 14.07.2019
5017 Clouds 13 1018 99 0 0.89 270 07:39 14.07.2019
5018 Clouds 13 1019 99 0 0.45 315 06:58 14.07.2019
5019 Clouds 13 1016 94 0 2.64 283.963 05:45 14.07.2019
5020 Clouds 13 1016 93 0 2.64 283.963 03:48 14.07.2019
5021 Clouds 13 1016 97 0 2.64 283.963 03:30 14.07.2019
5022 Clouds 14 1016 89 0 2.26 308.771 02:41 14.07.2019
5023 Clouds 14 1016 89 0 2.26 308.771 02:22 14.07.2019
5024 Clouds 14 1016 90 0 2.49 298.399 01:34 14.07.2019
5025 Clouds 14 1013 91 0 2.49 298.399 00:58 14.07.2019
5026 Clouds 14 1013 92 0 2.49 298.399 00:39 14.07.2019
5027 Clouds 15 1016 97 0 2.56 308.185 00:20 14.07.2019
5028 Clouds 15 1016 92 0 2.56 308.185 23:45 13.07.2019
5029 Clouds 15 1019 97 0 0.45 22 23:25 13.07.2019
5030 Clouds 15 1013 92 0 2.56 308.185 22:56 13.07.2019
5031 Clouds 15 1013 92 0 2.56 308.185 22:37 13.07.2019
5032 Clouds 15 1016 96 0 2.56 308.185 22:19 13.07.2019
5033 Clouds 16 1015 89 0 2.56 308.185 21:42 13.07.2019
5034 Clouds 16 1015 77 10000 6.2 300 21:19 13.07.2019
5035 Clouds 16 1015 77 10000 6.2 300 21:19 13.07.2019
5036 Clouds 16 1015 77 10000 6.2 300 20:45 13.07.2019
5037 Clouds 17 1015 77 10000 6.2 300 20:26 13.07.2019
5038 Clouds 17 1015 77 10000 6.2 290 19:46 13.07.2019
5039 Clouds 17 1015 77 10000 6.2 290 19:27 13.07.2019
5040 Clouds 17 1015 72 10000 6.7 310 18:44 13.07.2019
5041 Clouds 18 1015 72 10000 6.7 310 18:21 13.07.2019
5042 Clouds 19 1014 72 10000 5.7 310 17:39 13.07.2019
5043 Clouds 18 1014 72 10000 5.7 310 17:20 13.07.2019
5044 Clouds 19 1014 68 10000 6.7 300 16:57 13.07.2019
5045 Clouds 19 1014 72 10000 6.7 290 16:37 13.07.2019
5046 Clouds 18 1014 72 10000 6.7 290 16:19 13.07.2019
5047 Clouds 18 1014 68 10000 6.7 300 15:43 13.07.2019
5048 Clouds 18 1014 68 10000 6.7 300 15:21 13.07.2019
5049 Clouds 18 1014 68 10000 3.1 300 14:44 13.07.2019
5050 Clouds 18 1014 68 10000 3.1 300 14:22 13.07.2019
5051 Clouds 18 1014 77 10000 2.6 310 13:46 13.07.2019
5052 Clouds 17 1014 77 10000 2.6 310 13:24 13.07.2019
5053 Clouds 17 1014 82 10000 2.6 300 12:59 13.07.2019
5054 Clouds 17 1014 82 10000 3.1 300 12:37 13.07.2019
5055 Clouds 16 1014 82 10000 3.1 300 12:18 13.07.2019
5056 Clouds 16 1014 88 10000 3.1 300 11:40 13.07.2019
5057 Clouds 16 1014 88 10000 3.1 300 11:19 13.07.2019
5058 Clouds 16 1013 93 9000 3.1 290 10:44 13.07.2019
5059 Clouds 15 1013 93 9000 3.1 290 10:23 13.07.2019
5060 Clouds 15 1013 93 9000 3.1 290 09:54 13.07.2019
5061 Clouds 15 1013 93 9000 3.1 290 09:54 13.07.2019
5062 Clouds 15 1013 100 8000 3.6 290 09:31 13.07.2019
5063 Clouds 15 1013 93 8000 2.6 290 08:58 13.07.2019
5064 Clouds 15 1012 93 8000 3.6 290 08:33 13.07.2019
5065 Clouds 15 1012 93 6000 4.1 280 07:58 13.07.2019
5066 Rain 14 1013 92 0 2.24 296 07:30 13.07.2019
5067 Rain 14 1009 99 0 3.75 275.308 06:39 13.07.2019
5068 Clouds 14 1015 99 0 0.89 225 05:57 13.07.2019
5069 Clouds 14 1014 99 0 1.79 112 04:49 13.07.2019
5070 Clouds 14 1014 99 0 1.34 45 04:22 13.07.2019
5071 Clouds 14 1014 99 0 0.89 45 03:55 13.07.2019
5072 Clouds 14 1014 99 0 0.89 270 03:37 13.07.2019
5073 Rain 14 1014 99 0 0.89 270 01:55 13.07.2019
5074 Rain 14 1014 99 0 1.79 315 01:37 13.07.2019
5075 Rain 14 1014 99 0 1.34 315 01:18 13.07.2019
5076 Rain 14 1014 99 0 0.45 270 00:51 13.07.2019
5077 Rain 14 1014 99 0 0.45 315 00:19 13.07.2019
5078 Rain 15 1014 99 0 1.79 270 23:44 12.07.2019
5079 Rain 15 1013 99 0 1.34 45 23:25 12.07.2019
5080 Rain 15 1010 93 10000 2.1 290 22:46 12.07.2019
5081 Rain 15 1010 93 10000 2.1 290 22:24 12.07.2019
5082 Drizzle 15 1010 93 10000 2.6 270 21:43 12.07.2019
5083 Drizzle 16 1010 93 10000 2.6 270 21:22 12.07.2019
5084 Rain 16 1010 93 10000 3.1 270 20:56 12.07.2019
5085 Rain 17 1010 93 10000 3.6 280 20:37 12.07.2019
5086 Rain 17 1010 93 10000 3.6 280 20:19 12.07.2019
5087 Rain 17 1010 93 10000 2.6 260 19:42 12.07.2019
5088 Rain 17 1010 93 10000 2.6 260 19:23 12.07.2019
5089 Rain 17 1009 77 10000 5.1 230 18:44 12.07.2019
5090 Rain 18 1009 77 10000 5.1 230 18:21 12.07.2019
5091 Rain 18 1009 72 10000 4.6 230 17:51 12.07.2019
5092 Rain 18 1009 64 10000 4.6 220 17:28 12.07.2019
5093 Rain 20 1008 44 10000 3.1 350 16:51 12.07.2019
5094 Rain 20 1009 46 10000 4.1 300 16:23 12.07.2019
5095 Clouds 20 1009 46 10000 3.6 320 15:54 12.07.2019
5096 Clouds 20 1009 44 10000 4.1 290 15:36 12.07.2019
5097 Clouds 21 1009 44 10000 4.1 290 15:18 12.07.2019
5098 Clouds 22 1009 47 10000 5.1 310 14:43 12.07.2019
5099 Clouds 22 1009 47 10000 5.1 310 14:20 12.07.2019
5100 Rain 21 1010 60 10000 3.6 250 13:43 12.07.2019
5101 Rain 21 1010 60 10000 3.6 250 13:21 12.07.2019
5102 Clouds 22 1010 60 10000 3.1 260 12:41 12.07.2019
5103 Clouds 21 1010 60 10000 3.1 260 12:23 12.07.2019
5104 Clouds 21 1010 64 10000 3.6 260 11:46 12.07.2019
5105 Clouds 21 1010 64 10000 3.6 260 11:24 12.07.2019
5106 Clouds 20 1010 72 10000 3.1 280 10:55 12.07.2019
5107 Clouds 19 1011 72 10000 3.1 250 10:37 12.07.2019
5108 Clouds 18 1011 72 10000 3.1 250 10:19 12.07.2019
5109 Clouds 18 1011 77 10000 2.6 260 09:51 12.07.2019
5110 Clouds 17 1011 82 10000 3.1 260 09:24 12.07.2019
5111 Clear 17 1011 77 10000 3.6 250 08:45 12.07.2019
5112 Clear 16 1011 77 10000 3.6 250 08:22 12.07.2019
5113 Clouds 15 1011 82 10000 3.1 250 07:47 12.07.2019
5114 Clouds 15 1011 87 10000 2.1 260 07:29 12.07.2019
5115 Clouds 14 1014 99 0 1.79 225 06:29 12.07.2019
5116 Clouds 14 1013 99 0 0.89 225 05:50 12.07.2019
5117 Clouds 14 1013 99 0 2.57 224.654 03:46 12.07.2019
5118 Rain 14 1014 99 0 0.89 270 01:51 12.07.2019
5119 Rain 15 1014 99 0 1.79 180 01:32 12.07.2019
5120 Clouds 15 1012 93 10000 1 0 00:35 12.07.2019
5121 Clear 15 1012 88 10000 1 200 23:57 11.07.2019
5122 Clear 15 1012 88 10000 1 200 23:38 11.07.2019
5123 Clear 16 1012 88 10000 1 200 23:19 11.07.2019
5124 Clear 16 1012 77 10000 3.1 250 22:43 11.07.2019
5125 Clear 16 1012 77 10000 3.1 250 22:24 11.07.2019
5126 Rain 16 1014 99 0 1.34 180 21:44 11.07.2019
5127 Clouds 17 1011 72 10000 4.6 270 21:20 11.07.2019
5128 Clear 17 1011 72 10000 4.1 280 20:59 11.07.2019
5129 Clouds 17 1011 60 10000 3.1 280 20:41 11.07.2019
5130 Clouds 18 1011 60 10000 3.1 280 20:22 11.07.2019
5131 Clouds 18 1011 56 10000 2.1 270 19:55 11.07.2019
5132 Rain 17 1015 99 0 2.24 202 19:37 11.07.2019
5133 Clouds 18 1011 53 10000 2.1 260 19:19 11.07.2019
5134 Clouds 18 1011 49 10000 1.5 0 18:40 11.07.2019
5135 Clouds 19 1011 49 10000 1.5 0 18:21 11.07.2019
5136 Clouds 20 1012 53 10000 2.1 330 17:47 11.07.2019
5137 Clouds 20 1012 53 10000 2.1 330 17:28 11.07.2019
5138 Clouds 20 1012 49 10000 2.6 300 16:52 11.07.2019
5139 Clouds 20 1012 53 10000 3.1 290 16:24 11.07.2019
5140 Clouds 20 1012 52 10000 2.1 0 15:57 11.07.2019
5141 Clouds 20 1012 56 10000 1.5 0 15:38 11.07.2019
5142 Clouds 20 1012 56 10000 1.5 0 15:19 11.07.2019
5143 Clouds 21 1013 52 10000 2.6 190 14:44 11.07.2019
5144 Clouds 21 1013 52 10000 2.6 190 14:23 11.07.2019
5145 Clouds 20 1013 56 10000 2.1 0 13:47 11.07.2019
5146 Clouds 20 1013 56 10000 2.6 0 13:29 11.07.2019
5147 -273 0 0 0 0 0 12:57 11.07.2019
5148 Clouds 20 1014 63 10000 2.1 170 12:37 11.07.2019
5149 Clouds 19 1014 63 10000 2.1 170 12:18 11.07.2019
5150 Clouds 18 1014 72 10000 2.1 200 11:41 11.07.2019
5151 Clouds 18 1014 72 10000 2.1 200 11:23 11.07.2019
5152 Clouds 17 1014 72 10000 2.1 220 10:51 11.07.2019
5153 Clouds 16 1014 67 10000 1.5 0 10:19 11.07.2019
5154 Clouds 16 1014 72 10000 1.5 0 09:49 11.07.2019
5155 Clouds 15 1014 77 10000 1 0 09:30 11.07.2019
5156 Clouds 15 1014 77 10000 1 0 09:30 11.07.2019
5157 Clouds 15 1014 82 10000 1.5 0 08:56 11.07.2019
5158 Clouds 15 1014 87 10000 1 0 08:36 11.07.2019
5159 Clouds 14 1014 87 10000 1 0 08:18 11.07.2019
5160 Clouds 14 1015 87 10000 1 90 07:41 11.07.2019
5161 Drizzle 13 1015 93 10000 0.69 100.686 06:42 11.07.2019
5162 Drizzle 13 1015 93 10000 1.13 265.497 06:18 11.07.2019
5163 Rain 13 1017 99 0 1.13 265.497 05:31 11.07.2019
5164 Rain 13 1017 99 0 1.34 225 04:56 11.07.2019
5165 Rain 13 1018 99 0 0.89 180 02:43 11.07.2019
5166 Rain 14 1018 98 0 0.45 180 01:53 11.07.2019
5167 Rain 15 1019 81 0 2.24 225 00:32 11.07.2019
5168 Clouds 16 1018 76 0 1.34 279 23:50 10.07.2019
5169 Clear 16 1016 52 10000 1.5 330 23:24 10.07.2019
5170 Clear 16 1016 52 10000 1.5 330 22:54 10.07.2019
5171 Clear 16 1016 52 10000 1.5 330 22:22 10.07.2019
5172 Clear 16 1016 52 10000 2.1 320 21:55 10.07.2019
5173 Clear 17 1016 48 10000 3.6 310 21:37 10.07.2019
5174 Clear 18 1016 48 10000 3.6 310 21:19 10.07.2019
5175 Clear 19 1017 45 10000 4.1 290 20:41 10.07.2019
5176 Clear 19 1017 45 10000 4.1 290 20:21 10.07.2019
5177 Clear 19 1017 45 10000 3.6 280 19:55 10.07.2019
5178 Clear 19 1017 45 10000 4.1 300 19:37 10.07.2019
5179 Clear 20 1017 45 10000 4.1 300 19:18 10.07.2019
5180 Clear 20 1017 43 10000 3.1 280 18:42 10.07.2019
5181 Clear 20 1017 43 10000 3.1 280 18:22 10.07.2019
5182 Clouds 20 1018 43 10000 3.6 300 17:44 10.07.2019
5183 Clouds 21 1018 43 10000 3.6 300 17:25 10.07.2019
5184 Clouds 20 1018 45 10000 4.1 280 16:46 10.07.2019
5185 Clouds 20 1018 45 10000 3.6 300 16:21 10.07.2019
5186 Clouds 20 1018 45 10000 4.1 270 15:47 10.07.2019
5187 Clear 20 1018 43 10000 3.1 300 15:25 10.07.2019
5188 Clouds 19 1018 46 10000 3.6 290 14:48 10.07.2019
5189 Clouds 19 1019 43 10000 3.1 300 14:28 10.07.2019
5190 Clouds 19 1019 48 10000 3.6 300 13:56 10.07.2019
5191 Clouds 18 1019 48 10000 3.6 300 13:36 10.07.2019
5192 Clouds 18 1019 48 10000 3.6 300 13:18 10.07.2019
5193 Clouds 18 1019 48 10000 3.6 300 13:18 10.07.2019
5194 Clouds 17 1019 55 10000 3.6 290 12:40 10.07.2019
5195 Clouds 17 1019 55 10000 3.6 290 12:21 10.07.2019
5196 Clouds 16 1019 52 10000 4.1 280 11:49 10.07.2019
5197 Clouds 15 1019 55 10000 3.6 280 11:22 10.07.2019
5198 Clouds 15 1019 59 10000 3.6 290 10:58 10.07.2019
5199 Clouds 14 1019 62 10000 3.6 290 10:24 10.07.2019
5200 Clouds 13 1019 62 10000 4.1 280 09:56 10.07.2019
5201 Clouds 13 1019 62 10000 3.6 290 09:37 10.07.2019
5202 Clouds 13 1019 62 10000 3.6 290 09:19 10.07.2019
5203 Clouds 12 1019 62 10000 3.6 290 08:48 10.07.2019
5204 Clouds 12 1019 71 10000 3.1 290 08:23 10.07.2019
5205 Clouds 12 1019 76 10000 2.6 280 07:46 10.07.2019
5206 Clouds 11 1019 76 10000 2.6 280 07:23 10.07.2019
5207 Clouds 10 1021 99 0 0.89 68 06:36 10.07.2019
5208 Clear 8 1021 99 0 2.77 254.344 05:40 10.07.2019
5209 Clear 8 1021 99 0 2.77 254.344 04:31 10.07.2019
5210 Clouds 9 1021 99 0 2.48 252.696 02:18 10.07.2019
5211 Clear 9 1021 99 0 0.45 0 00:44 10.07.2019
5212 Rain 10 1021 99 0 0.45 0 23:42 09.07.2019
5213 Clouds 11 1019 58 10000 3.1 310 23:23 09.07.2019
5214 Clouds 11 1019 58 10000 3.1 310 22:57 09.07.2019
5215 Clouds 11 1019 58 10000 3.1 310 22:38 09.07.2019
5216 Clouds 12 1019 58 10000 3.1 310 22:20 09.07.2019
5217 Rain 12 1020 90 0 2.29 293.914 21:46 09.07.2019
5218 Clear 14 1018 55 10000 3.1 340 21:26 09.07.2019
5219 Clouds 14 1018 55 10000 3.6 330 20:55 09.07.2019
5220 Clouds 15 1018 48 10000 3.1 330 20:36 09.07.2019
5221 Clouds 15 1018 48 10000 3.1 330 20:18 09.07.2019
5222 Clouds 15 1018 48 10000 4.6 320 19:37 09.07.2019
5223 Clouds 15 1018 48 10000 4.6 320 19:19 09.07.2019
5224 Clear 16 1018 45 10000 4.1 300 18:39 09.07.2019
5225 Clear 16 1018 45 10000 4.1 300 18:19 09.07.2019
5226 Clouds 16 1018 51 10000 3.6 290 17:44 09.07.2019
5227 Clouds 16 1018 51 10000 3.6 290 17:44 09.07.2019
5228 Clouds 17 1018 51 10000 3.6 290 17:22 09.07.2019
5229 Clouds 16 1018 51 10000 3.6 310 16:58 09.07.2019
5230 Clouds 16 1018 51 10000 5.1 310 16:40 09.07.2019
5231 Clouds 16 1018 51 10000 5.1 310 16:22 09.07.2019
5232 Clouds 17 1018 51 10000 4.6 290 15:42 09.07.2019
5233 Clouds 16 1018 51 10000 4.6 290 15:23 09.07.2019
5234 Clouds 16 1018 55 10000 6.7 290 14:45 09.07.2019
5235 Clouds 16 1018 55 10000 6.7 290 14:23 09.07.2019
5236 Clouds 16 1018 51 10000 5.1 290 13:56 09.07.2019
5237 Clouds 16 1018 51 10000 5.1 290 13:38 09.07.2019
5238 Clouds 16 1018 51 10000 5.1 290 13:18 09.07.2019
5239 Clouds 15 1018 62 10000 4.6 300 12:39 09.07.2019
5240 Clouds 15 1018 62 10000 4.6 300 12:19 09.07.2019
5241 Clouds 14 1018 62 10000 5.1 300 11:56 09.07.2019
5242 Clouds 14 1018 71 10000 5.1 290 11:37 09.07.2019
5243 Clouds 14 1018 71 10000 5.1 290 11:19 09.07.2019
5244 Clouds 14 1018 71 10000 5.1 280 10:47 09.07.2019
5245 Clouds 13 1018 71 10000 4.1 290 10:25 09.07.2019
5246 Clouds 12 1018 81 10000 4.1 300 09:38 09.07.2019
5247 Clouds 12 1018 81 10000 4.1 300 09:20 09.07.2019
5248 Clouds 12 1018 81 10000 4.1 280 08:44 09.07.2019
5249 Clouds 11 1018 81 10000 4.1 280 08:21 09.07.2019
5250 Clouds 15 1019 79 0 3.05 252.553 03:52 05.07.2019
5251 Clouds 15 1019 88 0 0.45 315 03:24 05.07.2019
5252 Clouds 15 1020 87 0 0.45 45 02:53 05.07.2019
5253 Clouds 15 1020 88 0 0.45 0 02:34 05.07.2019
5254 Clouds 15 1020 87 0 0.45 0 01:37 05.07.2019
5255 Clouds 15 1017 74 0 3.53 243.878 00:52 05.07.2019
5256 Clouds 15 1017 77 0 3.53 243.878 00:32 05.07.2019
5257 Clear 15 1018 52 10000 2.1 290 23:47 04.07.2019
5258 Clear 16 1018 52 10000 2.1 290 23:19 04.07.2019
5259 Clear 16 1019 48 10000 2.1 290 22:43 04.07.2019
5260 Clear 15 1019 48 10000 2.1 290 22:24 04.07.2019
5261 Clear 17 1018 45 10000 2.1 280 21:55 04.07.2019
5262 Clear 19 1019 40 10000 2.6 300 21:36 04.07.2019
5263 Clear 19 1019 40 10000 2.6 300 21:18 04.07.2019
5264 Clear 20 1019 40 10000 3.6 290 20:38 04.07.2019
5265 Clear 21 1019 40 10000 3.6 290 20:20 04.07.2019
5266 Clear 21 1020 35 10000 3.6 290 19:42 04.07.2019
5267 Clear 21 1020 35 10000 3.6 290 19:22 04.07.2019
5268 Clear 21 1020 35 10000 4.6 290 18:57 04.07.2019
5269 Clear 21 1020 35 10000 4.1 300 18:39 04.07.2019
5270 Clear 22 1020 35 10000 4.1 300 18:20 04.07.2019
5271 Clear 22 1021 35 10000 4.6 290 17:43 04.07.2019
5272 Clear 22 1021 35 10000 4.6 290 17:19 04.07.2019
5273 Clear 22 1022 33 10000 3.6 260 15:57 04.07.2019
5274 Clear 22 1022 33 10000 3.6 260 15:57 04.07.2019
5275 Clear 22 1022 35 10000 4.1 310 15:39 04.07.2019
5276 Clear 21 1022 35 10000 4.1 310 15:19 04.07.2019
5277 Clear 20 1023 37 10000 3.6 270 14:44 04.07.2019
5278 Clear 20 1023 37 10000 3.6 270 14:25 04.07.2019
5279 Clear 21 1023 37 10000 4.1 0 13:59 04.07.2019
5280 Clear 21 1024 39 10000 4.6 260 13:41 04.07.2019
5281 Clear 21 1024 39 10000 4.6 260 13:41 04.07.2019
5282 Clear 20 1024 39 10000 4.6 260 13:22 04.07.2019
5283 Clear 19 1024 37 10000 4.1 280 12:55 04.07.2019
5284 Clear 19 1024 42 10000 3.6 230 12:36 04.07.2019
5285 Clear 18 1024 42 10000 3.6 230 12:18 04.07.2019
5286 Clouds 17 1024 45 10000 3.1 290 11:39 04.07.2019
5287 Clouds 17 1024 45 10000 3.1 290 11:19 04.07.2019
5288 Clouds 17 1025 48 10000 3.6 270 10:40 04.07.2019
5289 Clouds 17 1025 48 10000 3.6 270 10:21 04.07.2019
5290 Clear 16 1025 62 10000 2.6 280 09:44 04.07.2019
5291 Clear 14 1025 62 10000 2.6 280 09:25 04.07.2019
5292 -273 0 0 0 0 0 08:56 04.07.2019
5293 Clear 14 1025 71 10000 2.6 290 08:23 04.07.2019
5294 Clear 12 1024 81 10000 1 0 07:45 04.07.2019
5295 Clear 11 1024 81 10000 1 0 07:23 04.07.2019
5296 Clear 10 1024 87 10000 1 300 06:55 04.07.2019
5297 Clear 7 1025 99 0 0.89 45 05:52 04.07.2019
5298 Clear 7 1025 99 0 0.89 45 05:33 04.07.2019
5299 Clear 8 1026 93 0 0.89 45 02:43 04.07.2019
5300 Clear 9 1025 89 0 0.45 90 01:42 04.07.2019
5301 Clear 9 1025 86 0 0.45 0 01:22 04.07.2019
5302 Clear 11 1025 72 0 0.89 45 23:59 03.07.2019
5303 Clear 11 1026 70 0 0.89 45 23:41 03.07.2019
5304 Clear 12 1026 69 0 1.34 45 23:20 03.07.2019
5305 Clear 12 1025 70 0 0.89 338 22:55 03.07.2019
5306 Clear 13 1023 39 10000 3.6 320 22:36 03.07.2019
5307 Clear 14 1023 39 10000 3.6 320 22:18 03.07.2019
5308 Clear 15 1023 39 10000 4.1 320 21:45 03.07.2019
5309 Clear 16 1023 39 10000 4.1 320 21:26 03.07.2019
5310 Clear 18 1023 37 10000 5.1 310 20:46 03.07.2019
5311 Clear 18 1023 37 10000 5.1 310 20:24 03.07.2019
5312 Clear 18 1023 37 10000 3.6 320 19:51 03.07.2019
5313 Clear 18 1023 32 10000 4.6 320 19:32 03.07.2019
5314 Clear 19 1023 37 10000 4.6 310 18:50 03.07.2019
5315 Clear 19 1023 32 10000 5.1 300 18:30 03.07.2019
5316 Clear 20 1023 34 10000 4.1 300 17:58 03.07.2019
5317 Clear 20 1023 37 10000 4.1 310 17:39 03.07.2019
5318 Clear 20 1023 37 10000 4.1 310 17:18 03.07.2019
5319 Clear 20 1023 35 10000 5.1 290 16:43 03.07.2019
5320 Clear 20 1023 35 10000 5.1 290 16:22 03.07.2019
5321 Clouds 20 1023 37 10000 4.6 300 15:50 03.07.2019
5322 Clear 20 1023 42 10000 3.1 360 15:31 03.07.2019
5323 Clouds 19 1023 42 10000 4.6 340 14:58 03.07.2019
5324 Clear 19 1023 42 10000 4.1 290 14:38 03.07.2019
5325 Clear 19 1023 42 10000 4.1 290 14:19 03.07.2019
5326 Clear 19 1023 42 10000 3.6 290 13:42 03.07.2019
5327 Clear 18 1023 42 10000 3.6 290 13:23 03.07.2019
5328 Clouds 19 1023 45 10000 4.1 300 12:45 03.07.2019
5329 Clouds 18 1023 45 10000 4.1 300 12:18 03.07.2019
5330 Clouds 18 1023 48 10000 3.6 320 11:43 03.07.2019
5331 Clouds 17 1023 48 10000 3.6 320 11:22 03.07.2019
5332 Clouds 17 1023 55 10000 3.6 290 10:43 03.07.2019
5333 Clouds 17 1023 55 10000 3.6 290 10:24 03.07.2019
5334 Clouds 17 1023 55 10000 3.6 320 09:56 03.07.2019
5335 Clouds 16 1023 62 10000 3.1 280 09:38 03.07.2019
5336 Clouds 15 1023 62 10000 3.1 280 09:19 03.07.2019
5337 Clear 14 1023 67 10000 3.1 270 08:50 03.07.2019
5338 Clear 15 1023 67 10000 2.1 250 08:26 03.07.2019
5339 Clear 13 1023 87 10000 1.82 299.616 07:39 03.07.2019
5340 Clear 12 1023 87 10000 1.82 299.616 07:19 03.07.2019
5341 Clear 9 1024 99 0 1.31 249.691 06:20 03.07.2019
5342 Clear 8 1022 88 0 1.31 249.691 05:32 03.07.2019
5343 Clear 8 1021 89 0 1.31 249.691 04:34 03.07.2019
5344 Clear 9 1024 97 0 1.1 262.623 03:23 03.07.2019
5345 Clear 10 1024 89 0 0.45 0 01:49 03.07.2019
5346 Clear 10 1024 87 0 1.18 259.704 01:21 03.07.2019
5347 Clear 10 1024 87 0 1.18 259.704 01:21 03.07.2019
5348 Clear 11 1024 83 0 0.45 45 00:45 03.07.2019
5349 Clear 12 1024 80 0 0.45 0 23:59 02.07.2019
5350 Clear 13 1023 78 0 0.89 45 23:37 02.07.2019
5351 Clear 13 1021 55 10000 3.1 320 23:19 02.07.2019
5352 Clear 13 1021 55 10000 3.1 320 22:56 02.07.2019
5353 Clear 14 1021 55 10000 3.1 320 22:38 02.07.2019
5354 Clear 14 1021 51 10000 3.1 330 22:19 02.07.2019
5355 Clear 15 1021 48 10000 4.1 340 21:43 02.07.2019
5356 Clear 17 1021 48 10000 4.1 340 21:23 02.07.2019
5357 Clear 18 1021 42 10000 4.1 320 20:58 02.07.2019
5358 Clear 18 1021 42 10000 4.1 320 20:39 02.07.2019
5359 Clear 19 1021 42 10000 4.1 320 20:20 02.07.2019
5360 Clear 19 1021 39 10000 3.6 320 19:42 02.07.2019
5361 Clear 19 1021 34 10000 3.1 330 19:23 02.07.2019
5362 Clear 19 1021 32 10000 4.1 310 18:50 02.07.2019
5363 Clear 20 1021 32 10000 4.1 330 18:19 02.07.2019
5364 Clear 21 1021 30 10000 5.1 300 17:45 02.07.2019
5365 Clear 20 1021 30 10000 5.1 300 17:24 02.07.2019
5366 Clear 21 1021 32 10000 5.7 300 16:57 02.07.2019
5367 Clear 21 1021 30 10000 6.2 300 16:39 02.07.2019
5368 Clear 21 1021 30 10000 6.2 300 16:21 02.07.2019
5369 Clear 21 1021 30 10000 6.2 290 15:40 02.07.2019
5370 Clear 21 1021 30 10000 6.2 290 15:21 02.07.2019
5371 Clear 20 1021 34 10000 5.1 310 14:45 02.07.2019
5372 Clear 20 1021 34 10000 5.1 310 14:25 02.07.2019
5373 Rain 20 1020 45 0 0.89 112 13:43 02.07.2019
5374 Clear 20 1021 39 10000 6.2 310 13:19 02.07.2019
5375 Clouds 20 1021 42 10000 6.2 300 12:45 02.07.2019
5376 Clouds 19 1021 42 10000 6.2 300 12:23 02.07.2019
5377 Clouds 19 1020 48 10000 6.2 300 11:45 02.07.2019
5378 Clouds 18 1020 48 10000 6.2 300 11:25 02.07.2019
5379 Clouds 18 1020 55 10000 5.7 300 10:59 02.07.2019
5380 Rain 18 1020 63 10000 4.6 300 10:39 02.07.2019
5381 Rain 18 1020 63 10000 4.6 300 10:21 02.07.2019
5382 Clouds 17 1020 72 10000 4.6 290 09:43 02.07.2019
5383 Clouds 16 1020 72 10000 4.6 290 09:20 02.07.2019
5384 Clouds 16 1019 72 10000 5.7 280 08:41 02.07.2019
5385 Clouds 16 1019 72 10000 5.7 280 08:20 02.07.2019
5386 Clouds 16 1019 72 10000 4.6 280 07:52 02.07.2019
5387 Clouds 16 1019 72 10000 4.6 280 07:20 02.07.2019
5388 Clouds 14 1018 78 0 4.33 283.786 06:42 02.07.2019
5389 Clear 13 1018 81 0 3.75 242.63 05:58 02.07.2019
5390 Clear 13 1018 76 0 3.75 242.63 03:53 02.07.2019
5391 Clouds 15 1018 71 0 3.24 241.195 00:56 02.07.2019
5392 Clouds 16 1017 66 0 3.52 278.342 23:47 01.07.2019
5393 Clouds 17 1018 66 0 0.45 327 23:20 01.07.2019
5394 Clear 17 1016 45 10000 4.6 310 22:45 01.07.2019
5395 Clear 17 1016 45 10000 4.6 310 22:27 01.07.2019
5396 Clear 20 1015 40 10000 5.1 310 21:47 01.07.2019
5397 Clear 21 1015 40 10000 5.1 310 21:26 01.07.2019
5398 Clear 22 1015 33 10000 4.6 300 20:51 01.07.2019
5399 Clear 23 1015 33 10000 6.7 290 20:22 01.07.2019
5400 Clear 23 1015 33 10000 6.7 290 20:22 01.07.2019
5401 Clear 24 1014 31 10000 6.7 290 19:59 01.07.2019
5402 Rain 23 1015 47 0 3.58 279 19:40 01.07.2019
5403 Clear 24 1014 31 10000 7.2 280 19:22 01.07.2019
5404 Clear 24 1014 29 10000 6.7 290 18:53 01.07.2019
5405 Clear 25 1013 33 10000 6.2 280 18:31 01.07.2019
5406 Clear 25 1014 31 10000 6.7 280 17:59 01.07.2019
5407 Clear 25 1014 36 10000 6.2 290 17:41 01.07.2019
5408 Clear 25 1014 36 10000 6.2 290 17:21 01.07.2019
5409 Clear 25 1014 36 10000 6.2 290 16:47 01.07.2019
5410 Clear 26 1014 34 10000 7.2 250 16:25 01.07.2019
5411 Clear 26 1014 30 10000 8.2 260 15:54 01.07.2019
5412 Clear 26 1014 30 10000 8.2 260 15:36 01.07.2019
5413 Clear 25 1014 33 10000 7.7 260 15:18 01.07.2019
5414 Clear 26 1014 34 10000 5.7 270 14:42 01.07.2019
5415 Clear 25 1014 34 10000 6.7 270 14:19 01.07.2019
5416 Clear 25 1014 36 10000 6.7 270 13:40 01.07.2019
5417 Clear 25 1014 41 10000 7.2 260 13:22 01.07.2019
5418 Clear 25 1014 41 10000 6.7 270 12:44 01.07.2019
5419 Clouds 24 1015 41 10000 6.7 260 12:23 01.07.2019
5420 Clouds 24 1015 44 10000 6.2 260 11:58 01.07.2019
5421 Clouds 24 1015 44 10000 6.2 260 11:38 01.07.2019
5422 Clouds 23 1015 49 10000 5.7 270 11:18 01.07.2019
5423 Clouds 23 1015 53 10000 5.1 270 10:46 01.07.2019
5424 Clouds 23 1015 56 10000 4.1 250 10:22 01.07.2019
5425 Clear 21 1015 60 10000 2.6 240 09:45 01.07.2019
5426 Clear 20 1015 64 10000 3.1 220 09:27 01.07.2019
5427 Clear 19 1015 68 10000 2.1 210 08:59 01.07.2019
5428 Clear 19 1015 68 10000 2.1 210 08:35 01.07.2019
5429 Clear 18 1015 77 10000 3.66 255.114 07:39 01.07.2019
5430 Rain 17 1018 87 0 3.66 255.114 06:52 01.07.2019
5431 Rain 16 1014 82 0 1.21 235.203 05:34 01.07.2019
5432 Rain 17 1019 70 0 1.23 255.057 01:27 01.07.2019
5433 Rain 21 1018 64 0 0.89 0 00:44 01.07.2019
5434 Clouds 21 1014 63 0 2 320.92 00:22 01.07.2019
5435 Clouds 22 1013 58 0 2 320.92 23:39 30.06.2019
5436 Clouds 23 1018 64 0 0.89 0 23:19 30.06.2019
5437 Clouds 24 1014 56 0 3.58 295 22:43 30.06.2019
5438 Clouds 18 1015 89 0 2 320.92 22:20 30.06.2019
5439 Clear 29 1011 48 10000 3.6 320 21:41 30.06.2019
5440 Clear 28 1011 48 10000 3.6 320 21:19 30.06.2019
5441 Clear 29 1011 48 10000 3.6 320 20:55 30.06.2019
5442 Clear 29 1011 48 10000 3.6 320 20:36 30.06.2019
5443 Clear 30 1011 45 10000 4.1 310 20:18 30.06.2019
5444 Clear 32 1011 40 10000 5.1 290 19:43 30.06.2019
5445 Clear 33 1011 41 10000 5.1 300 19:24 30.06.2019
5446 Clear 34 1011 34 10000 7.2 270 18:26 30.06.2019
5447 Clear 34 1011 28 10000 7.2 260 17:59 30.06.2019
5448 Clear 35 1011 28 10000 7.2 260 17:39 30.06.2019
5449 Clear 35 1011 25 10000 7.2 250 17:18 30.06.2019
5450 Clear 36 1011 23 10000 6.7 260 16:48 30.06.2019
5451 Clear 36 1011 25 10000 6.7 260 16:26 30.06.2019
5452 Clear 35 1011 24 10000 7.2 250 15:38 30.06.2019
5453 Clear 35 1011 24 10000 5.7 260 15:19 30.06.2019
5454 Clear 35 1011 21 10000 6.2 240 14:53 30.06.2019
5455 Clear 35 1011 21 10000 6.2 240 14:35 30.06.2019
5456 Clear 34 1011 24 10000 5.1 230 13:49 30.06.2019
5457 Clear 34 1011 24 10000 5.7 220 13:29 30.06.2019
5458 Clear 33 1011 26 10000 6.2 250 12:57 30.06.2019
5459 Clear 33 1011 26 10000 6.2 250 12:39 30.06.2019
5460 Clear 32 1012 24 10000 6.2 250 12:19 30.06.2019
5461 Clear 31 1012 22 10000 5.7 220 11:45 30.06.2019
5462 Clear 31 1012 25 10000 5.1 240 11:21 30.06.2019
5463 Clear 31 1012 25 10000 5.1 240 11:21 30.06.2019
5464 Clear 30 1012 30 10000 4.6 220 10:55 30.06.2019
5465 Clear 30 1012 30 10000 4.6 220 10:36 30.06.2019
5466 Clear 30 1012 30 10000 4.6 220 10:18 30.06.2019
5467 Clear 28 1013 32 10000 3.1 200 09:43 30.06.2019
5468 Clear 25 1013 54 0 0.89 32 09:20 30.06.2019
5469 Clear 23 1013 48 0 0.45 292 08:40 30.06.2019
5470 Clear 24 1013 48 0 0.45 292 08:22 30.06.2019
5471 Clear 23 1013 51 0 0.45 270 07:51 30.06.2019
5472 Clear 20 1013 54 0 2.14 200.901 07:26 30.06.2019
5473 Clear 18 1013 55 0 0.45 270 06:39 30.06.2019
5474 Clear 15 1013 56 0 0.89 270 04:48 30.06.2019
5475 Clear 16 1014 61 0 2.08 171.022 02:27 30.06.2019
5476 Clear 17 1014 66 0 1.98 171 01:23 30.06.2019
5477 Clear 18 1015 59 0 1.96 186.162 00:24 30.06.2019
5478 Clear 18 1015 59 0 1.96 186.162 23:53 29.06.2019
5479 Clear 19 1015 56 0 1.96 186.162 23:24 29.06.2019
5480 Clear 18 1015 55 0 1.96 186.162 22:55 29.06.2019
5481 Clear 19 1016 66 0 1.96 186.162 22:25 29.06.2019
5482 Clear 20 1016 77 0 0.45 190 21:57 29.06.2019
5483 Clear 24 1017 28 10000 1.5 150 21:39 29.06.2019
5484 Clear 25 1017 28 10000 1.5 150 21:20 29.06.2019
5485 Clear 27 1017 28 10000 1.5 150 20:40 29.06.2019
5486 Clear 29 1017 27 10000 1.5 0 20:21 29.06.2019
5487 Clear 29 1017 23 10000 2.1 160 19:43 29.06.2019
5488 Clear 30 1018 27 10000 3.1 180 19:23 29.06.2019
5489 Clear 30 1018 28 10000 2.1 170 18:48 29.06.2019
5490 Clear 30 1018 28 10000 2.6 120 18:25 29.06.2019
5491 Clear 30 1018 23 10000 2.6 130 17:42 29.06.2019
5492 Clear 30 1019 22 10000 2.1 0 17:22 29.06.2019
5493 Clear 30 1019 22 10000 2.6 180 16:54 29.06.2019
5494 Clear 30 1019 19 10000 2.6 160 16:29 29.06.2019
5495 Clear 30 1019 22 10000 2.6 0 15:48 29.06.2019
5496 Clear 29 1020 26 10000 2.6 140 15:24 29.06.2019
5497 Clear 28 1020 25 10000 2.1 0 14:43 29.06.2019
5498 Clear 28 1020 26 10000 2.6 160 14:25 29.06.2019
5499 Clear 28 1021 29 10000 2.1 0 13:46 29.06.2019
5500 Clear 28 1021 29 10000 2.1 0 13:26 29.06.2019
5501 Clear 28 1021 29 10000 2.1 0 12:51 29.06.2019
5502 Clear 27 1021 34 10000 2.6 0 12:33 29.06.2019
5503 Clear 25 1022 38 10000 1.5 0 11:54 29.06.2019
5504 Clear 25 1022 41 10000 2.1 200 11:33 29.06.2019
5505 Clear 24 1022 40 10000 2.6 150 10:57 29.06.2019
5506 Clear 24 1022 40 10000 2.6 150 10:38 29.06.2019
5507 Clear 23 1022 49 10000 2.6 150 10:20 29.06.2019
5508 Clear 22 1022 49 10000 2.1 170 09:44 29.06.2019
5509 Clear 20 1022 59 10000 1 0 08:50 29.06.2019
5510 Clear 18 1022 72 10000 0.69 116.972 08:22 29.06.2019
5511 Clear 16 1021 70 0 0.69 116.972 07:44 29.06.2019
5512 Clear 14 1021 77 0 0.69 116.972 06:47 29.06.2019
5513 Clear 12 1021 83 0 0.84 204.455 06:24 29.06.2019
5514 Clear 12 1021 83 0 0.84 204.455 06:24 29.06.2019
5515 Clear 12 1023 79 0 1 196.464 02:51 29.06.2019
5516 Clear 13 1022 82 0 1.14 203.053 01:22 29.06.2019
5517 Clear 14 1022 76 0 1.14 203.053 00:29 29.06.2019
5518 Clouds 15 1022 74 0 1.46 200.114 23:37 28.06.2019
5519 Clouds 15 1022 74 0 1.46 200.114 23:37 28.06.2019
5520 Clouds 15 1022 74 0 1.46 200.114 23:19 28.06.2019
5521 Clouds 15 1022 71 0 0.45 90 22:45 28.06.2019
5522 Clear 17 1023 46 10000 1 0 21:58 28.06.2019
5523 Clear 21 1023 40 10000 1 0 21:26 28.06.2019
5524 Clear 22 1023 40 10000 2.1 70 20:49 28.06.2019
5525 Clear 23 1023 38 10000 2.1 70 20:30 28.06.2019
5526 Clear 23 1023 36 10000 1 0 19:57 28.06.2019
5527 Clear 23 1022 50 0 0.57 68.516 19:37 28.06.2019
5528 Clear 23 1023 36 10000 2.1 330 19:18 28.06.2019
5529 Clear 23 1023 33 10000 1.5 0 18:41 28.06.2019
5530 Clear 24 1024 36 10000 1.5 0 18:20 28.06.2019
5531 Clear 23 1024 36 10000 2.6 0 17:37 28.06.2019
5532 Clear 23 1024 38 10000 2.1 0 17:18 28.06.2019
5533 Clear 24 1024 33 10000 2.6 0 16:41 28.06.2019
5534 Clear 24 1024 40 10000 2.1 0 16:18 28.06.2019
5535 Clear 23 1024 38 10000 2.1 0 15:39 28.06.2019
5536 Clear 22 1025 43 10000 2.6 0 15:18 28.06.2019
5537 Clear 22 1025 43 10000 2.6 0 14:39 28.06.2019
5538 Clouds 22 1025 43 10000 2.6 0 14:20 28.06.2019
5539 Clouds 22 1025 46 10000 2.6 0 13:45 28.06.2019
5540 Clouds 21 1025 52 10000 3.1 0 13:25 28.06.2019
5541 Clouds 21 1025 52 10000 2.6 280 12:50 28.06.2019
5542 Clouds 20 1025 55 10000 3.1 300 12:32 28.06.2019
5543 Clouds 18 1026 55 10000 2.1 310 11:29 28.06.2019
5544 Clouds 18 1026 59 10000 2.6 0 10:58 28.06.2019
5545 Clouds 17 1026 59 10000 2.6 0 10:38 28.06.2019
5546 Clouds 16 1026 59 10000 2.1 320 10:18 28.06.2019
5547 Clouds 15 1026 62 10000 2.6 300 09:43 28.06.2019
5548 Clouds 15 1026 62 10000 3.1 330 09:24 28.06.2019
5549 Clouds 15 1026 62 10000 2.6 300 08:42 28.06.2019
5550 Clouds 14 1026 67 10000 2.6 310 08:23 28.06.2019
5551 Clouds 14 1026 71 10000 1.5 0 07:42 28.06.2019
5552 Clouds 13 1025 80 0 1.79 325.563 06:52 28.06.2019
5553 Clouds 13 1024 81 0 1.27 309.487 03:59 28.06.2019
5554 Clouds 13 1024 85 0 1.81 309.234 00:47 28.06.2019
5555 Clouds 13 1025 83 0 2.4 308.443 00:19 28.06.2019
5556 Clouds 14 1025 81 0 2.4 308.443 23:46 27.06.2019
5557 Clear 15 1025 63 10000 3.6 320 23:24 27.06.2019
5558 Clear 15 1025 63 10000 3.6 320 22:43 27.06.2019
5559 Clear 16 1025 63 10000 3.6 320 22:25 27.06.2019
5560 Clear 16 1025 59 10000 4.6 330 21:58 27.06.2019
5561 Clear 18 1025 59 10000 4.6 330 21:39 27.06.2019
5562 Clear 18 1025 55 10000 4.6 320 21:20 27.06.2019
5563 Clear 19 1025 52 10000 4.1 320 20:49 27.06.2019
5564 Clouds 19 1025 55 10000 4.6 320 20:31 27.06.2019
5565 Clouds 21 1025 52 10000 5.7 310 19:50 27.06.2019
5566 Clouds 20 1025 52 10000 5.7 310 19:29 27.06.2019
5567 Clouds 21 1025 49 10000 5.7 320 18:53 27.06.2019
5568 Clear 22 1025 46 10000 5.1 310 18:32 27.06.2019
5569 Clear 22 1025 49 10000 5.1 300 17:58 27.06.2019
5570 Clear 23 1025 49 10000 5.1 300 17:37 27.06.2019
5571 Clear 23 1025 49 10000 5.7 290 17:19 27.06.2019
5572 Clear 23 1025 46 10000 5.1 300 16:39 27.06.2019
5573 Clear 23 1025 46 10000 5.1 280 16:19 27.06.2019
5574 Clear 24 1025 43 10000 5.1 310 15:45 27.06.2019
5575 Clear 23 1025 43 10000 5.7 280 15:26 27.06.2019
5576 Clear 22 1025 46 10000 6.7 280 14:52 27.06.2019
5577 Clear 22 1025 46 10000 6.7 280 14:52 27.06.2019
5578 Clear 22 1026 46 10000 5.1 300 14:30 27.06.2019
5579 Clear 22 1026 49 10000 5.1 280 13:56 27.06.2019
5580 Clear 22 1026 49 10000 5.1 280 13:36 27.06.2019
5581 Clear 21 1026 49 10000 5.1 280 13:18 27.06.2019
5582 Clear 21 1026 49 10000 5.1 320 12:40 27.06.2019
5583 Clear 19 1026 48 10000 5.1 290 12:21 27.06.2019
5584 Clear 19 1026 55 10000 5.1 290 11:42 27.06.2019
5585 Clouds 19 1027 55 10000 4.6 300 11:21 27.06.2019
5586 Clouds 18 1027 59 10000 5.1 270 10:56 27.06.2019
5587 Clouds 17 1027 59 10000 5.1 270 10:36 27.06.2019
5588 Clouds 17 1027 59 10000 5.1 300 10:18 27.06.2019
5589 Clouds 16 1027 63 10000 4.6 280 09:37 27.06.2019
5590 Clouds 16 1026 67 10000 4.1 280 09:19 27.06.2019
5591 Clouds 15 1026 71 10000 4.6 300 08:45 27.06.2019
5592 Clouds 15 1026 71 10000 5.7 300 08:23 27.06.2019
5593 Clouds 14 1026 71 10000 4.1 300 07:40 27.06.2019
5594 Clouds 14 1025 84 0 3.7 295.421 06:56 27.06.2019
5595 Clouds 14 1025 85 0 3.7 295.421 06:29 27.06.2019
5596 Clouds 15 1024 91 0 3.47 303.433 03:50 27.06.2019
5597 Clouds 16 1024 87 0 2.87 295.254 02:41 27.06.2019
5598 Clear 16 1024 83 0 2.74 291.095 01:19 27.06.2019
5599 Clear 17 1024 80 0 2.74 291.095 00:48 27.06.2019
5600 Clear 18 1023 75 0 3.51 304.909 00:26 27.06.2019
5601 Clear 19 1023 73 0 3.51 304.909 23:48 26.06.2019
5602 Clear 20 1023 72 0 3.51 304.909 23:23 26.06.2019
5603 Clear 20 1023 72 0 3.51 304.909 23:23 26.06.2019
5604 Clear 21 1023 53 10000 4.1 330 22:57 26.06.2019
5605 Clear 21 1023 53 10000 4.1 330 22:38 26.06.2019
5606 Clear 22 1023 53 10000 4.1 330 22:19 26.06.2019
5607 Clear 24 1023 53 10000 4.1 320 21:41 26.06.2019
5608 Clear 25 1022 50 10000 4.6 320 21:20 26.06.2019
5609 Clear 26 1022 51 10000 4.6 320 20:55 26.06.2019
5610 Clear 26 1022 51 10000 4.6 320 20:37 26.06.2019
5611 Clear 27 1022 48 10000 4.6 320 20:18 26.06.2019
5612 Clear 31 1022 45 10000 5.1 320 19:41 26.06.2019
5613 Clear 31 1021 45 10000 5.1 330 19:22 26.06.2019
5614 Clear 31 1021 43 10000 5.7 310 18:45 26.06.2019
5615 Clear 31 1021 40 10000 5.1 320 18:22 26.06.2019
5616 Clear 32 1021 41 10000 5.7 310 17:57 26.06.2019
5617 Clear 32 1021 41 10000 5.7 310 17:28 26.06.2019
5618 Clear 32 1021 36 10000 6.2 300 16:57 26.06.2019
5619 Clear 32 1021 36 10000 6.2 300 16:39 26.06.2019
5620 Clear 33 1021 34 10000 6.7 270 16:19 26.06.2019
5621 Clear 32 1021 32 10000 6.2 290 15:37 26.06.2019
5622 Clear 33 1021 36 10000 5.7 290 15:19 26.06.2019
5623 Clear 32 1021 38 10000 5.7 290 14:38 26.06.2019
5624 Clouds 32 1021 43 10000 6.7 270 14:19 26.06.2019
5625 Clouds 32 1021 43 10000 6.2 280 13:41 26.06.2019
5626 Clouds 32 1021 46 10000 6.2 290 13:19 26.06.2019
5627 Clear 32 1021 46 10000 5.1 290 12:41 26.06.2019
5628 Clear 31 1021 49 10000 6.2 280 12:22 26.06.2019
5629 Clear 31 1021 46 10000 5.7 290 11:44 26.06.2019
5630 Clear 31 1021 46 10000 4.6 310 11:19 26.06.2019
5631 Clear 30 1021 48 10000 4.6 290 10:41 26.06.2019
5632 Clear 29 1021 51 10000 4.1 290 10:21 26.06.2019
5633 Clear 28 1020 54 10000 4.6 280 09:42 26.06.2019
5634 Clear 27 1020 58 10000 4.6 280 09:18 26.06.2019
5635 Clear 27 1020 58 10000 4.6 260 08:41 26.06.2019
5636 Clear 26 1019 57 10000 3.6 260 08:19 26.06.2019
5637 Clear 25 1019 61 10000 2.6 250 07:45 26.06.2019
5638 Clear 22 1019 73 10000 2.97 240.291 06:38 26.06.2019
5639 Clear 21 1019 73 10000 3.24 222.332 06:20 26.06.2019
5640 Clear 21 1018 73 0 2.47 207.862 01:24 26.06.2019
5641 Clear 22 1020 69 0 3.58 35 00:24 26.06.2019
5642 Clear 23 1019 69 10000 2.56 167.318 23:45 25.06.2019
5643 Clear 23 1019 69 10000 2.56 167.318 23:27 25.06.2019
5644 Clear 23 1019 69 10000 2.56 167.318 22:56 25.06.2019
5645 Clear 23 1019 69 10000 2.56 167.318 22:38 25.06.2019
5646 Clear 24 1019 57 10000 2.56 167.318 22:20 25.06.2019
5647 Clear 26 1019 54 10000 2.56 167.318 21:43 25.06.2019
5648 Clear 27 1018 48 10000 1 100 21:22 25.06.2019
5649 Clear 29 1018 45 10000 1.5 100 20:45 25.06.2019
5650 Clear 29 1018 45 10000 1.5 100 20:45 25.06.2019
5651 Clear 30 1018 38 10000 2.6 110 20:22 25.06.2019
5652 Clear 31 1018 33 10000 3.6 110 19:46 25.06.2019
5653 Clear 31 1019 31 10000 4.1 110 19:23 25.06.2019
5654 Clear 32 1019 32 10000 3.6 140 18:47 25.06.2019
5655 Clear 32 1019 31 10000 4.1 150 18:29 25.06.2019
5656 Clear 32 1019 31 10000 5.1 120 18:01 25.06.2019
5657 Clear 32 1019 31 10000 5.1 120 18:01 25.06.2019
5658 Clear 33 1019 31 10000 5.7 130 17:30 25.06.2019
5659 Clear 32 1019 31 10000 4.6 140 16:58 25.06.2019
5660 Clear 33 1019 31 10000 4.6 140 16:39 25.06.2019
5661 Clear 33 1019 31 10000 5.7 140 16:21 25.06.2019
5662 Clear 32 1020 35 10000 6.2 120 15:42 25.06.2019
5663 Clear 32 1020 33 10000 5.7 140 15:24 25.06.2019
5664 Clear 32 1020 33 10000 5.7 140 15:24 25.06.2019
5665 Clear 32 1020 33 10000 5.7 160 14:54 25.06.2019
5666 Clear 32 1020 33 10000 5.7 160 14:35 25.06.2019
5667 Clear 31 1020 35 10000 5.7 150 13:47 25.06.2019
5668 Clear 31 1020 33 10000 4.6 160 13:29 25.06.2019
5669 Clear 31 1020 35 10000 4.6 160 12:55 25.06.2019
5670 Clear 31 1020 35 10000 4.6 160 12:36 25.06.2019
5671 Clear 29 1020 38 10000 5.1 150 12:18 25.06.2019
5672 Clear 29 1020 37 10000 4.1 160 11:41 25.06.2019
5673 Clear 29 1020 40 10000 4.1 160 11:20 25.06.2019
5674 Clear 28 1020 45 10000 2.6 150 10:43 25.06.2019
5675 Clear 27 1020 47 10000 2.6 140 10:22 25.06.2019
5676 Clear 26 1021 50 10000 1.5 0 09:55 25.06.2019
5677 Clear 26 1021 50 10000 1.5 0 09:37 25.06.2019
5678 Clear 24 1020 53 10000 2.1 110 09:18 25.06.2019
5679 Clear 23 1020 56 10000 2.1 100 08:42 25.06.2019
5680 Clear 22 1020 56 10000 2.6 100 08:23 25.06.2019
5681 Clear 21 1020 60 10000 2.1 100 07:39 25.06.2019
5682 Clouds 19 1019 63 0 2.19 119.486 06:54 25.06.2019
5683 Clouds 18 1019 69 0 2.19 119.486 06:36 25.06.2019
5684 Clouds 18 1019 74 0 2.76 134.458 02:47 25.06.2019
5685 Clouds 17 1020 66 0 2.76 134.458 01:41 25.06.2019
5686 Clear 18 1021 59 10000 2.1 90 00:37 25.06.2019
5687 Clear 20 1021 59 10000 2.1 90 23:56 24.06.2019
5688 Clear 19 1021 59 10000 2.1 90 23:38 24.06.2019
5689 Clear 20 1021 56 10000 1.5 80 23:20 24.06.2019
5690 Clear 20 1021 49 10000 2.1 90 22:41 24.06.2019
5691 Clear 21 1021 43 10000 2.1 90 22:19 24.06.2019
5692 Clear 21 1021 43 10000 2.1 90 22:19 24.06.2019
5693 Clear 26 1021 38 10000 2.1 90 21:39 24.06.2019
5694 Clear 24 1021 36 10000 2.1 100 21:19 24.06.2019
5695 Clear 25 1021 32 10000 3.6 110 20:56 24.06.2019
5696 Clear 26 1021 32 10000 3.6 110 20:38 24.06.2019
5697 Clouds 27 1019 37 0 0.45 90 20:20 24.06.2019
5698 Clear 28 1021 28 10000 4.6 120 19:44 24.06.2019
5699 Clear 29 1021 28 10000 5.1 130 19:21 24.06.2019
5700 Clear 29 1021 28 10000 5.1 110 18:45 24.06.2019
5701 Clouds 28 1019 38 0 0.89 90 18:26 24.06.2019
5702 Clear 29 1022 28 10000 5.7 110 17:47 24.06.2019
5703 Clear 29 1022 28 10000 6.2 100 17:25 24.06.2019
5704 Clouds 29 1022 30 10000 5.1 120 16:48 24.06.2019
5705 Clear 29 1022 30 10000 6.2 110 16:21 24.06.2019
5706 Clear 29 1022 28 10000 5.7 110 15:56 24.06.2019
5707 Clear 29 1022 28 10000 5.7 110 15:38 24.06.2019
5708 Clear 29 1022 30 10000 6.2 120 15:19 24.06.2019
5709 Clear 28 1022 30 10000 6.2 120 14:33 24.06.2019
5710 Clear 28 1023 32 10000 6.7 120 13:49 24.06.2019
5711 Clear 28 1023 34 10000 6.7 110 13:24 24.06.2019
5712 Clear 27 1023 34 10000 4.6 120 12:44 24.06.2019
5713 Clear 27 1023 30 10000 5.7 140 12:22 24.06.2019
5714 Clear 26 1023 39 10000 4.6 120 11:55 24.06.2019
5715 Clear 26 1023 39 10000 4.6 120 11:37 24.06.2019
5716 Clear 26 1023 50 10000 3.6 100 11:18 24.06.2019
5717 Clear 26 1023 57 10000 3.6 100 10:41 24.06.2019
5718 Clear 25 1023 56 10000 3.1 100 10:20 24.06.2019
5719 Clouds 24 1021 60 0 5.54 99.811 09:48 24.06.2019
5720 Clear 22 1023 68 10000 4.1 90 09:19 24.06.2019
5721 Clear 21 1023 72 10000 4.6 100 08:51 24.06.2019
5722 Clear 20 1023 77 10000 3.6 90 08:22 24.06.2019
5723 Clear 19 1024 77 10000 2.1 80 07:44 24.06.2019
5724 Clear 18 1023 82 10000 3.1 90 07:24 24.06.2019
5725 Clouds 16 1021 77 0 3.63 108.025 06:27 24.06.2019
5726 Clouds 14 1021 83 0 2.51 125.479 05:56 24.06.2019
5727 Clouds 14 1021 78 0 2.51 125.479 04:59 24.06.2019
5728 Clouds 14 1021 75 0 2.51 125.479 04:21 24.06.2019
5729 Clouds 16 1021 73 0 2.94 112.406 02:53 24.06.2019
5730 Clouds 17 1021 70 0 2.94 112.406 01:58 24.06.2019
5731 Clouds 16 1021 69 0 2.94 112.406 01:40 24.06.2019
5732 Clouds 16 1022 68 0 2.35 113.295 01:21 24.06.2019
5733 Clouds 17 1022 76 0 1.79 78 00:38 24.06.2019
5734 Clear 18 1020 64 0 2.52 98.779 00:18 24.06.2019
5735 Clear 19 1020 59 0 2.52 98.779 23:42 23.06.2019
5736 Clear 19 1020 51 0 2.52 98.779 23:21 23.06.2019
5737 Clear 18 1021 63 0 1.34 95 22:42 23.06.2019
5738 Clear 19 1021 60 0 0.89 124 22:20 23.06.2019
5739 Clear 21 1021 41 10000 2.6 70 21:43 23.06.2019
5740 Clear 23 1021 41 10000 2.6 70 21:25 23.06.2019
5741 Clear 24 1021 41 10000 2.6 70 20:57 23.06.2019
5742 Clear 25 1021 41 10000 2.6 70 20:38 23.06.2019
5743 Clear 25 1021 36 10000 2.1 60 20:19 23.06.2019
5744 Clear 27 1020 34 10000 3.1 90 19:43 23.06.2019
5745 Clear 26 1020 30 10000 3.6 80 19:20 23.06.2019
5746 Clear 27 1020 28 10000 4.1 100 18:48 23.06.2019
5747 Clear 27 1020 28 10000 4.1 100 18:20 23.06.2019
5748 Clear 27 1018 35 0 1.34 90 17:46 23.06.2019
5749 Clear 27 1021 28 10000 4.6 110 17:25 23.06.2019
5750 Clear 27 1021 31 10000 5.1 100 16:47 23.06.2019
5751 -273 0 0 0 0 0 16:26 23.06.2019
5752 Clear 27 1019 40 0 1.34 90 15:59 23.06.2019
5753 Clear 27 1021 36 10000 5.1 90 15:40 23.06.2019
5754 Clear 27 1021 32 10000 5.7 110 15:19 23.06.2019
5755 Clear 27 1022 34 10000 5.1 130 14:39 23.06.2019
5756 Clear 26 1022 36 10000 4.6 130 14:21 23.06.2019
5757 Clear 26 1022 41 10000 5.1 110 13:56 23.06.2019
5758 Clear 27 1022 41 10000 5.1 110 13:36 23.06.2019
5759 Clear 26 1022 41 10000 5.1 110 13:18 23.06.2019
5760 Clouds 25 1022 47 10000 4.1 100 12:42 23.06.2019
5761 Clear 24 1022 49 10000 4.1 100 12:20 23.06.2019
5762 Clear 24 1022 49 10000 4.1 100 11:50 23.06.2019
5763 Clear 24 1020 62 0 4.7 97.648 11:29 23.06.2019
5764 Clear 23 1022 56 10000 4.1 90 10:53 23.06.2019
5765 Clear 22 1022 55 10000 4.1 100 10:22 23.06.2019
5766 Clear 21 1022 59 10000 3.6 90 09:59 23.06.2019
5767 Clear 19 1022 59 10000 4.1 90 09:25 23.06.2019
5768 Clouds 19 1020 73 0 3.5 89.181 08:56 23.06.2019
5769 Clouds 18 1020 74 0 3.5 89.181 08:37 23.06.2019
5770 Clouds 18 1020 74 0 0.45 112 08:19 23.06.2019
5771 Clouds 18 1019 74 0 3.44 89.551 07:51 23.06.2019
5772 Clouds 17 1019 75 0 3.44 89.551 07:20 23.06.2019
5773 Clouds 16 1019 79 0 3.44 89.551 06:53 23.06.2019
5774 Clouds 15 1020 70 0 0.45 59 05:53 23.06.2019
5775 Clouds 16 1019 77 0 2.91 108.043 03:30 23.06.2019
5776 Clouds 17 1019 68 0 1.34 90 01:43 23.06.2019
5777 Clouds 18 1019 68 0 0.45 90 01:24 23.06.2019
5778 Clouds 18 1020 78 0 2.82 88.112 00:34 23.06.2019
5779 Clouds 18 1019 66 0 2.24 71 23:52 22.06.2019
5780 Clouds 18 1019 65 0 2.74 80.466 23:27 22.06.2019
5781 Clouds 19 1020 69 0 3.13 43 22:49 22.06.2019
5782 Clouds 19 1017 73 0 2.74 80.466 22:29 22.06.2019
5783 Clouds 19 1020 66 0 2.68 53 21:59 22.06.2019
5784 Clear 21 1020 49 10000 2.1 50 21:37 22.06.2019
5785 Clear 21 1020 49 10000 2.1 50 21:18 22.06.2019
5786 Clear 22 1020 49 10000 2.1 50 20:48 22.06.2019
5787 Clear 22 1020 46 10000 3.1 50 20:25 22.06.2019
5788 Rain 23 1018 58 0 3.77 61.077 19:46 22.06.2019
5789 Clear 23 1020 44 10000 3.1 50 19:22 22.06.2019
5790 Clear 24 1020 44 10000 3.6 60 18:48 22.06.2019
5791 Clear 24 1020 44 10000 4.1 70 18:30 22.06.2019
5792 Clear 24 1020 44 10000 3.1 50 17:56 22.06.2019
5793 Clear 24 1020 44 10000 3.1 50 17:33 22.06.2019
5794 Clouds 24 1021 44 10000 4.1 90 16:50 22.06.2019
5795 Clouds 24 1021 44 10000 3.6 80 16:24 22.06.2019
5796 Clouds 24 1021 44 10000 3.6 60 15:55 22.06.2019
5797 Clouds 24 1021 44 10000 3.6 60 15:34 22.06.2019
5798 Clouds 23 1022 46 10000 3.6 80 14:58 22.06.2019
5799 Clouds 23 1022 46 10000 3.6 80 14:34 22.06.2019
5800 Clouds 23 1022 46 10000 3.6 90 13:59 22.06.2019
5801 Clouds 24 1022 46 10000 3.6 90 13:40 22.06.2019
5802 Clear 23 1023 52 10000 3.6 60 13:19 22.06.2019
5803 Clouds 23 1023 49 10000 4.1 80 12:50 22.06.2019
5804 Clouds 22 1023 60 10000 3.6 80 12:31 22.06.2019
5805 Clouds 21 1023 56 10000 3.1 90 11:57 22.06.2019
5806 Clouds 21 1023 60 10000 3.6 90 11:31 22.06.2019
5807 Clouds 21 1023 59 10000 3.6 80 10:49 22.06.2019
5808 Clear 19 1023 63 10000 4.1 90 10:21 22.06.2019
5809 Clear 18 1023 63 10000 4.1 90 09:46 22.06.2019
5810 Clear 17 1023 67 10000 3.6 80 09:22 22.06.2019
5811 Clear 16 1020 75 0 0.45 90 08:42 22.06.2019
5812 Clear 16 1021 75 0 2.4 72.781 08:20 22.06.2019
5813 Clear 14 1021 78 0 2.4 72.781 07:31 22.06.2019
5814 Clear 12 1021 82 0 2.4 72.781 06:47 22.06.2019
5815 Clear 11 1021 88 0 0.87 56.218 05:22 22.06.2019
5816 Clear 12 1021 89 0 0.95 105.271 02:33 22.06.2019
5817 Clear 13 1020 87 0 0.57 109.889 01:18 22.06.2019
5818 Clear 14 1020 87 0 0.57 109.889 00:38 22.06.2019
5819 Clear 14 1020 83 0 0.95 272.706 00:19 22.06.2019
5820 Clear 14 1020 81 0 0.95 272.706 23:42 21.06.2019
5821 Clear 15 1019 67 10000 0.5 0 23:21 21.06.2019
5822 Clear 15 1019 67 10000 0.5 0 22:47 21.06.2019
5823 Clear 15 1019 67 10000 0.5 0 22:47 21.06.2019
5824 Clear 16 1019 67 10000 0.5 0 22:23 21.06.2019
5825 Clear 17 1019 55 10000 1.5 0 21:40 21.06.2019
5826 Clear 19 1019 43 10000 2.6 290 21:22 21.06.2019
5827 Clear 20 1018 40 10000 3.1 300 20:53 21.06.2019
5828 Clear 21 1018 37 10000 3.6 290 20:27 21.06.2019
5829 Clear 21 1018 40 10000 4.1 290 19:59 21.06.2019
5830 Clear 21 1018 43 10000 3.6 0 19:31 21.06.2019
5831 Clear 22 1018 43 10000 3.6 300 18:48 21.06.2019
5832 Clear 22 1018 40 10000 4.1 290 18:28 21.06.2019
5833 Clear 23 1018 46 10000 2.6 290 17:46 21.06.2019
5834 Clear 22 1018 46 10000 4.1 310 17:28 21.06.2019
5835 Clear 22 1018 43 10000 5.7 270 16:40 21.06.2019
5836 Clear 22 1018 49 10000 4.6 280 16:22 21.06.2019
5837 Clear 22 1018 46 10000 3.6 300 15:40 21.06.2019
5838 Clouds 22 1018 40 10000 5.1 260 15:20 21.06.2019
5839 Clouds 21 1018 49 10000 3.6 290 14:49 21.06.2019
5840 Clouds 22 1018 56 10000 3.1 300 14:30 21.06.2019
5841 Clouds 22 1018 52 10000 3.6 260 13:54 21.06.2019
5842 Clouds 21 1018 52 10000 3.6 260 13:33 21.06.2019
5843 Clouds 21 1018 52 10000 3.6 250 12:59 21.06.2019
5844 Clouds 21 1018 52 10000 3.6 250 12:39 21.06.2019
5845 Clouds 20 1018 63 10000 2.6 290 12:18 21.06.2019
5846 Clouds 20 1018 63 10000 2.6 290 12:18 21.06.2019
5847 Clouds 20 1018 56 10000 3.1 310 11:46 21.06.2019
5848 Clouds 20 1018 60 10000 2.6 0 11:24 21.06.2019
5849 Clear 20 1018 68 10000 2.6 310 10:51 21.06.2019
5850 Clouds 20 1018 68 10000 2.6 330 10:22 21.06.2019
5851 Clouds 19 1017 77 10000 2.6 310 09:59 21.06.2019
5852 Clouds 18 1017 77 10000 2.6 310 09:40 21.06.2019
5853 Clouds 17 1017 77 10000 2.1 320 09:19 21.06.2019
5854 Clouds 17 1017 82 10000 3.1 300 08:43 21.06.2019
5855 Clouds 16 1017 93 10000 2.6 290 08:23 21.06.2019
5856 Clear 16 1016 87 10000 3.1 280 07:51 21.06.2019
5857 Clouds 16 1016 93 8000 1.5 0 07:29 21.06.2019
5858 Clouds 15 1016 100 7000 1.5 280 06:54 21.06.2019
5859 Clouds 15 1016 98 0 1.97 256.826 06:21 21.06.2019
5860 Clouds 15 1014 94 0 1.97 256.826 05:25 21.06.2019
5861 Clouds 15 1014 94 0 1.97 256.826 04:29 21.06.2019
5862 Clouds 15 1014 92 0 1.97 256.826 03:34 21.06.2019
5863 Rain 16 1014 90 0 2.13 257.873 02:52 21.06.2019
5864 Rain 16 1014 88 0 2.13 257.873 01:49 21.06.2019
5865 Rain 17 1013 91 0 1.91 252.569 00:56 21.06.2019
5866 Rain 17 1013 91 0 1.69 247.476 00:23 21.06.2019
5867 Rain 17 1013 91 0 1.69 247.476 23:49 20.06.2019
5868 Thunderstorm 17 1012 68 10000 1 0 23:23 20.06.2019
5869 Thunderstorm 17 1012 68 10000 1 0 22:58 20.06.2019
5870 Thunderstorm 17 1012 68 10000 1 0 22:39 20.06.2019
5871 Thunderstorm 18 1012 68 10000 1 0 22:20 20.06.2019
5872 Clouds 18 1012 64 10000 1.5 0 21:49 20.06.2019
5873 Clouds 20 1011 60 10000 2.6 320 21:19 20.06.2019
5874 Clear 20 1011 53 10000 2.1 290 20:50 20.06.2019
5875 Clear 20 1011 53 10000 3.1 290 20:27 20.06.2019
5876 Clear 21 1011 50 10000 3.1 300 19:59 20.06.2019
5877 Clear 22 1011 50 10000 3.1 300 19:39 20.06.2019
5878 Clouds 22 1010 47 10000 3.6 310 19:18 20.06.2019
5879 Clouds 22 1011 50 10000 4.1 260 18:43 20.06.2019
5880 Clouds 24 1010 53 10000 3.1 300 18:23 20.06.2019
5881 Clouds 25 1011 53 10000 4.6 280 17:56 20.06.2019
5882 Clouds 25 1011 53 10000 4.6 280 17:38 20.06.2019
5883 Clouds 25 1011 50 10000 5.1 260 16:58 20.06.2019
5884 Clouds 25 1011 50 10000 5.1 260 16:39 20.06.2019
5885 Clouds 25 1011 50 10000 5.1 260 16:39 20.06.2019
5886 Rain 25 1010 58 0 0.45 270 16:19 20.06.2019
5887 Rain 25 1010 58 0 0.45 270 16:19 20.06.2019
5888 Clouds 24 1011 56 10000 5.1 280 15:43 20.06.2019
5889 Clouds 24 1011 53 10000 5.7 270 15:23 20.06.2019
5890 Clouds 24 1011 53 10000 5.7 270 15:23 20.06.2019
5891 Clouds 23 1011 57 10000 4.6 280 14:52 20.06.2019
5892 Clouds 24 1011 56 10000 4.6 270 14:24 20.06.2019
5893 Clouds 23 1011 56 10000 5.7 250 13:59 20.06.2019
5894 Clouds 23 1011 56 10000 5.7 250 13:37 20.06.2019
5895 Clouds 23 1011 60 10000 6.2 260 13:18 20.06.2019
5896 Clouds 22 1011 60 10000 5.1 270 12:41 20.06.2019
5897 Clouds 22 1011 64 10000 4.1 280 12:19 20.06.2019
5898 Clouds 22 1010 64 10000 5.7 260 11:40 20.06.2019
5899 Clouds 21 1010 72 10000 5.1 270 11:22 20.06.2019
5900 Clouds 21 1010 73 10000 5.7 270 10:43 20.06.2019
5901 Clouds 21 1010 72 10000 5.7 260 10:23 20.06.2019
5902 Clear 20 1010 77 10000 4.6 230 09:46 20.06.2019
5903 Clear 19 1010 77 10000 3.6 220 09:24 20.06.2019
5904 Clear 19 1010 77 10000 3.6 240 08:58 20.06.2019
5905 Clear 18 1010 77 10000 3.6 240 08:40 20.06.2019
5906 Clear 18 1009 82 10000 3.1 250 08:19 20.06.2019
5907 Clear 17 1009 88 10000 2.6 220 07:42 20.06.2019
5908 Clear 16 1009 88 10000 3.6 220 07:23 20.06.2019
5909 Clear 16 1009 93 10000 2.1 240 06:19 20.06.2019
5910 Clouds 16 1007 94 0 2.91 223.358 03:40 20.06.2019
5911 Rain 17 1008 94 0 1.81 257.327 01:56 20.06.2019
5912 Rain 17 1008 93 0 2.83 213.909 00:33 20.06.2019
5913 Rain 17 1008 92 0 0.89 225 23:45 19.06.2019
5914 Rain 18 1006 92 0 2.46 175.83 23:27 19.06.2019
5915 Thunderstorm 18 1008 68 10000 4.1 170 22:48 19.06.2019
5916 Thunderstorm 18 1008 68 10000 4.1 170 22:24 19.06.2019
5917 Thunderstorm 18 1007 72 10000 4.6 150 21:58 19.06.2019
5918 Thunderstorm 19 1007 72 10000 4.6 150 21:37 19.06.2019
5919 Thunderstorm 19 1007 77 10000 3.6 150 21:19 19.06.2019
5920 Thunderstorm 20 1007 64 10000 4.6 150 20:41 19.06.2019
5921 Rain 19 1007 92 0 2.28 219.135 20:21 19.06.2019
5922 Clouds 21 1007 53 10000 2.6 190 19:46 19.06.2019
5923 Thunderstorm 21 1008 64 10000 3.1 280 19:26 19.06.2019
5924 Thunderstorm 22 1007 41 10000 6.2 280 18:56 19.06.2019
5925 Clear 26 1007 37 10000 4.6 280 18:24 19.06.2019
5926 Clear 25 1007 35 10000 4.1 260 17:47 19.06.2019
5927 Clear 29 1007 29 10000 4.6 260 17:26 19.06.2019
5928 Clear 30 1007 27 10000 4.1 210 16:56 19.06.2019
5929 Clear 30 1007 27 10000 4.1 210 16:37 19.06.2019
5930 Clear 30 1007 29 10000 3.6 200 16:19 19.06.2019
5931 Clear 31 1007 31 10000 4.1 140 15:44 19.06.2019
5932 Clear 31 1007 33 10000 4.6 160 15:22 19.06.2019
5933 Clear 31 1008 33 10000 3.1 150 14:43 19.06.2019
5934 Clear 31 1008 27 10000 4.6 230 14:25 19.06.2019
5935 Clear 31 1008 29 10000 3.1 230 13:47 19.06.2019
5936 Clear 31 1008 33 10000 3.6 240 13:28 19.06.2019
5937 Clear 31 1008 30 10000 4.1 240 12:59 19.06.2019
5938 Clear 30 1008 30 10000 4.1 240 12:40 19.06.2019
5939 Clear 29 1008 33 10000 3.1 180 12:18 19.06.2019
5940 Clear 29 1009 35 10000 2.6 210 11:42 19.06.2019
5941 Clear 28 1009 39 10000 2.6 140 11:21 19.06.2019
5942 Clear 29 1009 45 10000 2.1 130 10:49 19.06.2019
5943 Clear 28 1009 54 10000 2.1 140 10:28 19.06.2019
5944 Clear 28 1009 54 10000 2.1 140 10:28 19.06.2019
5945 Clear 26 1009 57 10000 2.6 150 09:56 19.06.2019
5946 Clear 26 1009 57 10000 2.6 150 09:38 19.06.2019
5947 Clear 26 1009 57 10000 2.6 150 09:38 19.06.2019
5948 Clear 24 1009 57 10000 2.6 150 09:18 19.06.2019
5949 Clear 23 1010 60 10000 1.5 0 08:43 19.06.2019
5950 Clear 22 1010 68 10000 1.5 0 08:25 19.06.2019
5951 Clear 21 1010 68 10000 1.5 0 07:44 19.06.2019
5952 Clear 20 1010 77 10000 2.1 90 07:23 19.06.2019
5953 Clouds 18 1009 77 0 0.5 180.114 06:42 19.06.2019
5954 Clouds 17 1009 82 0 1.47 188.527 06:20 19.06.2019
5955 Clouds 16 1009 85 0 1.47 188.527 05:41 19.06.2019
5956 Clouds 17 1009 84 0 1.47 188.527 03:58 19.06.2019
5957 Rain 17 1010 81 0 2.45 168.663 02:52 19.06.2019
5958 Rain 18 1010 78 0 2.45 168.663 01:44 19.06.2019
5959 Clouds 19 1011 71 0 2.28 166.61 00:56 19.06.2019
5960 Clouds 19 1011 72 0 2.28 166.61 00:38 19.06.2019
5961 Clouds 19 1011 69 0 2.48 163.234 00:19 19.06.2019
5962 Clouds 20 1011 69 0 2.48 163.234 23:43 18.06.2019
5963 Clear 20 1012 64 10000 1.5 90 23:25 18.06.2019
5964 Clear 20 1012 64 10000 1.5 90 22:42 18.06.2019
5965 Clear 21 1012 64 10000 1.5 90 22:23 18.06.2019
5966 Clear 22 1012 53 10000 1.5 80 21:56 18.06.2019
5967 Clear 23 1012 53 10000 1.5 80 21:37 18.06.2019
5968 Clear 24 1012 50 10000 1 0 21:19 18.06.2019
5969 Clear 25 1012 44 10000 2.6 140 20:42 18.06.2019
5970 Clear 26 1012 39 10000 2.6 130 20:23 18.06.2019
5971 Clear 27 1012 37 10000 3.6 130 19:41 18.06.2019
5972 Clear 27 1012 32 10000 3.1 160 19:23 18.06.2019
5973 Clear 28 1013 35 10000 3.6 130 18:56 18.06.2019
5974 Clear 28 1013 32 10000 3.6 160 18:26 18.06.2019
5975 Clear 29 1013 30 10000 3.1 140 17:56 18.06.2019
5976 Clear 29 1013 30 10000 3.1 140 17:56 18.06.2019
5977 Clear 29 1013 30 10000 3.1 140 17:38 18.06.2019
5978 Clear 29 1013 32 10000 4.1 170 17:19 18.06.2019
5979 Clear 28 1014 32 10000 4.6 130 16:42 18.06.2019
5980 Clear 28 1014 32 10000 5.1 110 16:22 18.06.2019
5981 Clear 28 1014 32 10000 4.6 140 15:43 18.06.2019
5982 Clear 28 1014 32 10000 4.6 130 15:23 18.06.2019
5983 Rain 28 1013 37 0 1.34 292 14:58 18.06.2019
5984 Clear 28 1015 35 10000 4.6 150 14:39 18.06.2019
5985 Clear 28 1015 32 10000 4.6 130 14:19 18.06.2019
5986 Clear 28 1015 34 10000 5.1 130 13:52 18.06.2019
5987 Clear 28 1015 37 10000 5.1 140 13:31 18.06.2019
5988 Clear 28 1016 39 10000 5.1 150 12:47 18.06.2019
5989 Clear 27 1016 39 10000 5.7 140 12:29 18.06.2019
5990 Clear 27 1016 42 10000 4.1 130 11:56 18.06.2019
5991 Clear 27 1016 42 10000 4.1 130 11:38 18.06.2019
5992 Clear 26 1016 47 10000 3.6 150 11:20 18.06.2019
5993 Clear 25 1016 50 10000 3.1 170 10:43 18.06.2019
5994 Clear 25 1016 50 10000 3.1 170 10:22 18.06.2019
5995 Clear 23 1017 53 10000 3.1 130 09:52 18.06.2019
5996 Clear 22 1017 60 10000 2.6 130 09:25 18.06.2019
5997 Clear 22 1017 68 10000 2.1 110 08:58 18.06.2019
5998 Clear 21 1017 68 10000 2.1 110 08:39 18.06.2019
5999 Clear 20 1017 72 10000 2.1 100 08:21 18.06.2019
6000 Clear 18 1017 77 10000 2.1 110 07:27 18.06.2019
6001 Clear 18 1017 77 10000 2.1 110 07:27 18.06.2019
6002 Clouds 17 1016 79 0 1.44 126.299 06:59 18.06.2019
6003 Clear 14 1016 92 0 2.29 152.302 05:28 18.06.2019
6004 Clear 14 1017 84 0 2.29 152.302 04:22 18.06.2019
6005 Clouds 15 1017 74 0 0.89 40 02:50 18.06.2019
6006 Clouds 15 1017 87 0 2.35 147.344 01:49 18.06.2019
6007 Clear 16 1017 86 0 2.28 149.897 01:24 18.06.2019
6008 Clear 16 1018 75 0 1.34 40 00:40 18.06.2019
6009 Clear 16 1017 79 0 2.13 150.572 00:22 18.06.2019
6010 Clear 17 1017 80 0 2.13 150.572 23:39 17.06.2019
6011 Clear 18 1018 60 10000 2.13 150.572 23:19 17.06.2019
6012 Clear 17 1018 60 10000 2.13 150.572 22:41 17.06.2019
6013 Clear 18 1018 60 10000 2.13 150.572 22:21 17.06.2019
6014 Clear 18 1018 60 10000 2.13 150.572 22:21 17.06.2019
6015 Clear 20 1018 60 10000 2.13 150.572 21:56 17.06.2019
6016 Clear 21 1018 60 10000 2.13 150.572 21:38 17.06.2019
6017 Clear 22 1018 53 10000 1.5 0 21:18 17.06.2019
6018 Clear 24 1019 47 10000 1.5 80 20:36 17.06.2019
6019 Clear 24 1019 44 10000 1.5 0 20:18 17.06.2019
6020 Clear 25 1019 41 10000 2.6 110 19:41 17.06.2019
6021 Clear 25 1019 41 10000 3.1 110 19:22 17.06.2019
6022 Clear 25 1019 41 10000 2.6 150 18:57 17.06.2019
6023 Clear 25 1019 41 10000 2.6 150 18:37 17.06.2019
6024 Clear 25 1020 41 10000 3.6 140 18:18 17.06.2019
6025 Clear 26 1020 44 10000 4.1 120 17:42 17.06.2019
6026 Clear 25 1020 44 10000 4.1 120 17:24 17.06.2019
6027 Clouds 25 1020 44 10000 2.6 0 16:46 17.06.2019
6028 Clouds 25 1020 44 10000 2.6 0 16:28 17.06.2019
6029 Clouds 25 1021 44 10000 3.1 0 15:56 17.06.2019
6030 Clouds 25 1021 41 10000 3.6 150 15:38 17.06.2019
6031 Clouds 25 1021 41 10000 3.6 150 15:18 17.06.2019
6032 Clouds 25 1021 50 10000 3.1 160 14:48 17.06.2019
6033 Clouds 25 1021 50 10000 3.1 160 14:30 17.06.2019
6034 Clouds 25 1021 47 10000 3.1 130 13:50 17.06.2019
6035 Clouds 25 1021 47 10000 3.1 100 13:24 17.06.2019
6036 Clouds 24 1022 53 10000 3.1 110 12:52 17.06.2019
6037 Clouds 23 1022 49 10000 3.1 110 12:31 17.06.2019
6038 Clouds 23 1022 56 10000 2.6 140 11:49 17.06.2019
6039 Clouds 22 1022 60 10000 3.1 90 11:26 17.06.2019
6040 Clouds 22 1022 73 10000 2.6 90 10:59 17.06.2019
6041 Clear 22 1022 68 10000 2.6 90 10:40 17.06.2019
6042 Clear 22 1022 68 10000 2.6 90 10:22 17.06.2019
6043 Clear 21 1022 68 10000 2.1 110 09:55 17.06.2019
6044 Clear 20 1022 77 10000 0.5 0 09:30 17.06.2019
6045 Clear 18 1022 93 10000 1 0 08:42 17.06.2019
6046 Clear 18 1022 93 10000 1 0 08:23 17.06.2019
6047 Clear 17 1022 100 10000 0.5 0 07:46 17.06.2019
6048 Clear 16 1022 100 10000 0.5 0 07:28 17.06.2019
6049 Clear 14 1021 94 0 0.32 79.325 06:44 17.06.2019
6050 Clear 13 1021 95 0 1.12 208.391 05:50 17.06.2019
6051 Clear 13 1020 95 0 1.12 208.391 04:52 17.06.2019
6052 Clear 13 1021 95 0 1.12 208.391 03:50 17.06.2019
6053 Clouds 14 1021 95 0 1.56 214.493 03:20 17.06.2019
6054 Clouds 14 1022 92 0 1.34 37 02:41 17.06.2019
6055 Clouds 14 1021 95 0 1.56 214.493 02:18 17.06.2019
6056 Clouds 14 1020 95 0 1.56 214.493 01:34 17.06.2019
6057 Clouds 14 1020 94 0 1.63 220.399 00:45 17.06.2019
6058 Rain 14 1020 93 0 2.03 206.767 00:24 17.06.2019
6059 Rain 14 1020 92 0 2.03 206.767 23:56 16.06.2019
6060 Rain 15 1020 91 0 2.03 206.767 23:36 16.06.2019
6061 Rain 15 1020 90 0 2.03 206.767 23:18 16.06.2019
6062 Rain 15 1020 88 0 2.03 206.767 22:39 16.06.2019
6063 Rain 16 1020 88 0 2.03 206.767 22:19 16.06.2019
6064 Clear 16 1021 88 10000 2.1 180 21:56 16.06.2019
6065 Clear 17 1021 88 10000 2.1 180 21:38 16.06.2019
6066 Clear 17 1021 88 10000 2.1 180 21:19 16.06.2019
6067 Clear 18 1021 88 10000 2.1 160 20:38 16.06.2019
6068 Clear 18 1021 88 10000 2.1 160 20:19 16.06.2019
6069 Clear 18 1020 77 10000 3.1 130 19:58 16.06.2019
6070 Clouds 18 1020 88 10000 3.6 130 19:38 16.06.2019
6071 Clouds 18 1020 88 10000 3.6 130 19:19 16.06.2019
6072 Clouds 18 1021 77 10000 4.1 150 18:41 16.06.2019
6073 Clouds 18 1021 77 10000 4.1 150 18:21 16.06.2019
6074 Clouds 19 1020 64 10000 2.1 310 17:49 16.06.2019
6075 Clouds 19 1021 56 10000 2.6 240 17:25 16.06.2019
6076 Clouds 19 1021 56 10000 3.1 240 16:58 16.06.2019
6077 Clouds 19 1021 56 10000 3.1 240 16:58 16.06.2019
6078 Clouds 20 1021 60 10000 3.6 240 16:40 16.06.2019
6079 Clouds 20 1021 60 10000 3.6 240 16:21 16.06.2019
6080 Clouds 20 1020 52 10000 3.6 220 15:57 16.06.2019
6081 Clouds 20 1020 56 10000 3.1 220 15:38 16.06.2019
6082 Clouds 21 1020 56 10000 3.1 220 15:19 16.06.2019
6083 Clouds 20 1020 56 10000 2.6 220 14:37 16.06.2019
6084 Clouds 21 1020 56 10000 2.6 220 14:19 16.06.2019
6085 Clouds 20 1020 72 10000 3.1 140 13:46 16.06.2019
6086 Clouds 21 1020 72 10000 3.1 140 13:25 16.06.2019
6087 Clouds 20 1020 64 10000 2.1 170 12:45 16.06.2019
6088 Clouds 20 1020 64 10000 2.1 170 12:22 16.06.2019
6089 Clear 20 1020 64 10000 1.5 0 11:56 16.06.2019
6090 Clear 19 1020 68 10000 2.1 160 11:38 16.06.2019
6091 Clear 19 1020 68 10000 2.1 160 11:18 16.06.2019
6092 Clear 18 1020 77 10000 1.5 0 10:44 16.06.2019
6093 Clear 18 1020 77 10000 1.5 0 10:19 16.06.2019
6094 Clear 17 1019 87 10000 2.1 90 09:43 16.06.2019
6095 Clear 17 1019 87 10000 2.1 90 09:23 16.06.2019
6096 Clouds 16 1018 84 0 1.5 253.304 08:47 16.06.2019
6097 Clouds 16 1018 87 0 1.5 253.304 08:21 16.06.2019
6098 Clouds 15 1017 86 0 0.45 270 07:49 16.06.2019
6099 Clouds 14 1017 87 0 1.5 253.304 07:31 16.06.2019
6100 Clouds 13 1017 90 0 1.5 253.304 06:55 16.06.2019
6101 Clear 13 1016 90 0 1.79 239.926 05:57 16.06.2019
6102 Clear 12 1016 91 0 1.79 239.926 05:24 16.06.2019
6103 Clear 12 1016 91 0 1.79 239.926 04:22 16.06.2019
6104 Clear 13 1017 90 0 1.79 239.926 03:43 16.06.2019
6105 Clouds 13 1016 91 0 1.71 265.267 03:23 16.06.2019
6106 Clouds 14 1016 89 0 1.71 265.267 01:51 16.06.2019
6107 Clouds 14 1016 89 0 1.71 265.267 01:33 16.06.2019
6108 Clouds 14 1016 87 0 1.75 248.794 00:49 16.06.2019
6109 Clouds 15 1015 86 0 2.31 279.544 00:26 16.06.2019
6110 Clouds 15 1015 86 0 2.31 279.544 23:59 15.06.2019
6111 Clouds 15 1014 85 0 2.31 279.544 23:39 15.06.2019
6112 Clouds 16 1014 85 0 2.31 279.544 23:20 15.06.2019
6113 Clouds 16 1014 83 0 2.31 279.544 22:48 15.06.2019
6114 Clouds 17 1014 77 0 2.31 279.544 22:26 15.06.2019
6115 Clear 18 1014 56 10000 5.7 280 21:45 15.06.2019
6116 Clear 19 1014 56 10000 5.7 280 21:21 15.06.2019
6117 Clouds 21 1014 56 10000 6.2 290 20:46 15.06.2019
6118 Clouds 21 1014 56 10000 6.2 290 20:23 15.06.2019
6119 Rain 21 1013 62 0 0.45 270 19:53 15.06.2019
6120 Clouds 22 1013 64 10000 7.2 270 19:29 15.06.2019
6121 Clear 23 1013 56 10000 7.7 270 18:59 15.06.2019
6122 Clear 23 1012 56 10000 7.7 280 18:37 15.06.2019
6123 Clouds 23 1012 60 10000 8.2 270 18:18 15.06.2019
6124 Clouds 23 1012 60 10000 8.2 270 18:18 15.06.2019
6125 Clouds 23 1012 57 10000 6.2 280 17:40 15.06.2019
6126 Clouds 23 1012 57 10000 6.2 280 17:21 15.06.2019
6127 Clouds 23 1012 64 10000 4.6 300 16:44 15.06.2019
6128 Clouds 23 1012 64 10000 4.6 300 16:18 15.06.2019
6129 Clouds 24 1011 64 10000 7.7 270 15:41 15.06.2019
6130 Clouds 24 1011 64 10000 7.7 270 15:22 15.06.2019
6131 Clouds 24 1011 64 10000 7.7 260 14:39 15.06.2019
6132 Clouds 24 1011 64 10000 7.7 260 14:18 15.06.2019
6133 Clouds 25 1009 57 10000 7.7 250 13:44 15.06.2019
6134 Clouds 25 1009 57 10000 7.7 250 13:22 15.06.2019
6135 Clouds 25 1008 54 10000 6.7 250 13:00 15.06.2019
6136 Clear 26 1008 54 10000 6.2 240 12:41 15.06.2019
6137 Clear 25 1008 54 10000 6.2 240 12:23 15.06.2019
6138 Clear 24 1007 69 10000 4.1 160 11:47 15.06.2019
6139 Clear 24 1007 69 10000 4.1 160 11:28 15.06.2019
6140 Clouds 25 1007 64 0 2.24 270 10:43 15.06.2019
6141 Clear 24 1007 78 10000 3.1 90 10:25 15.06.2019
6142 Clouds 22 1007 77 10000 2.6 60 09:48 15.06.2019
6143 Drizzle 21 1008 82 10000 1 0 09:27 15.06.2019
6144 Rain 21 1006 80 0 1.93 130.067 08:54 15.06.2019
6145 Rain 20 1008 86 0 1.93 130.067 08:36 15.06.2019
6146 Rain 20 1006 82 0 1.93 130.067 08:18 15.06.2019
6147 Rain 20 1006 76 0 1.93 130.067 07:26 15.06.2019
6148 Rain 20 1006 76 0 1.93 130.067 07:25 15.06.2019
6149 Rain 19 1006 77 0 1.93 130.067 06:48 15.06.2019
6150 Rain 19 1007 76 0 2.34 109.766 06:25 15.06.2019
6151 Rain 19 1007 73 0 2.34 109.766 05:39 15.06.2019
6152 Rain 19 1007 73 0 2.34 109.766 05:39 15.06.2019
6153 Rain 20 1008 68 0 2.34 109.766 04:52 15.06.2019
6154 Rain 20 1007 64 0 0.89 270 04:19 15.06.2019
6155 Rain 20 1008 76 0 2.25 134.047 03:22 15.06.2019
6156 Rain 20 1008 83 0 2.25 134.047 02:31 15.06.2019
6157 Rain 20 1010 66 0 2.25 134.047 01:57 15.06.2019
6158 Rain 20 1012 67 0 0.89 33 01:20 15.06.2019
6159 Rain 21 1012 69 0 0.45 148 00:42 15.06.2019
6160 Clouds 21 1012 52 0 1.1 119.48 00:23 15.06.2019
6161 Clouds 21 1014 75 0 0.9 122.968 23:46 14.06.2019
6162 Clear 21 1013 73 10000 1.5 90 23:19 14.06.2019
6163 Clear 21 1013 73 10000 1.5 90 22:41 14.06.2019
6164 Clear 21 1013 73 10000 1.5 90 22:21 14.06.2019
6165 Clear 21 1014 60 10000 1 0 21:48 14.06.2019
6166 Clear 22 1014 53 10000 2.1 90 21:28 14.06.2019
6167 Clear 24 1014 53 10000 1.5 0 20:55 14.06.2019
6168 Clear 24 1014 53 10000 2.1 100 20:36 14.06.2019
6169 Clear 24 1014 47 10000 3.6 110 20:18 14.06.2019
6170 Clear 25 1014 41 10000 3.6 110 19:41 14.06.2019
6171 Clear 25 1014 41 10000 3.6 110 19:22 14.06.2019
6172 Clear 26 1014 39 10000 4.6 140 18:54 14.06.2019
6173 Clear 26 1014 39 10000 5.1 140 18:36 14.06.2019
6174 Clear 27 1014 39 10000 5.1 140 18:18 14.06.2019
6175 Clear 27 1014 37 10000 5.1 140 17:45 14.06.2019
6176 Clear 28 1014 37 10000 5.1 140 17:23 14.06.2019
6177 Clear 28 1015 34 10000 6.7 140 16:53 14.06.2019
6178 Clear 28 1015 30 10000 6.2 140 16:27 14.06.2019
6179 Clear 28 1015 28 10000 5.7 140 15:59 14.06.2019
6180 Clear 28 1015 28 10000 5.7 140 15:59 14.06.2019
6181 Clear 28 1015 32 10000 6.7 130 15:39 14.06.2019
6182 Clear 28 1015 32 10000 6.7 130 15:20 14.06.2019
6183 Clear 28 1016 37 10000 5.7 130 14:48 14.06.2019
6184 Clear 28 1016 42 10000 5.7 140 14:29 14.06.2019
6185 Clear 28 1016 44 10000 5.7 150 13:49 14.06.2019
6186 Clear 28 1016 44 10000 6.7 140 13:30 14.06.2019
6187 Clear 27 1016 47 10000 6.2 120 12:59 14.06.2019
6188 Clear 27 1017 50 10000 7.2 130 12:40 14.06.2019
6189 Clear 26 1017 50 10000 7.2 130 12:21 14.06.2019
6190 Clear 25 1017 44 10000 6.7 140 11:43 14.06.2019
6191 Clear 25 1017 44 10000 6.7 140 11:24 14.06.2019
6192 Clear 24 1017 43 10000 6.2 120 10:50 14.06.2019
6193 Clear 23 1017 46 10000 5.1 130 10:22 14.06.2019
6194 Clear 23 1017 53 10000 4.6 130 09:56 14.06.2019
6195 Clear 22 1017 60 10000 4.1 130 09:37 14.06.2019
6196 Clear 20 1017 60 10000 4.1 130 09:19 14.06.2019
6197 Clear 19 1016 87 10000 3.1 100 08:41 14.06.2019
6198 Clear 18 1017 93 10000 2.1 100 08:18 14.06.2019
6199 Clouds 18 1016 75 0 1.79 5 07:45 14.06.2019
6200 Clear 15 1016 100 10000 2.1 100 07:19 14.06.2019
6201 Clouds 13 1018 85 0 4.27 139.213 06:27 14.06.2019
6202 Clouds 13 1018 85 0 4.27 139.213 06:27 14.06.2019
6203 Clouds 11 1016 88 0 2.24 40 05:53 14.06.2019
6204 Clouds 12 1014 86 0 3.42 153.592 04:56 14.06.2019
6205 Clouds 11 1015 85 0 3.42 153.592 04:32 14.06.2019
6206 Clouds 11 1015 83 0 3.42 153.592 03:46 14.06.2019
6207 Clouds 11 1015 85 0 3.02 170.819 03:23 14.06.2019
6208 Clouds 11 1014 84 0 3.02 170.819 02:43 14.06.2019
6209 Clouds 12 1014 86 0 3.02 170.819 01:54 14.06.2019
6210 Clouds 14 1016 95 0 3.13 47 00:46 14.06.2019
6211 Clear 14 1014 80 0 3.73 169.338 00:22 14.06.2019
6212 Clear 14 1014 74 0 3.73 169.338 23:52 13.06.2019
6213 Clear 14 1014 64 0 1.79 221 23:27 13.06.2019
6214 Clear 15 1014 77 10000 2.1 160 22:58 13.06.2019
6215 Clear 15 1014 77 10000 2.1 160 22:38 13.06.2019
6216 Clear 15 1014 77 10000 2.1 160 22:19 13.06.2019
6217 Clear 16 1013 82 10000 1.5 100 21:38 13.06.2019
6218 Clear 16 1013 82 10000 1.5 100 21:38 13.06.2019
6219 Clear 18 1013 82 10000 1.5 100 21:19 13.06.2019
6220 Thunderstorm 19 1013 72 10000 3.1 140 20:45 13.06.2019
6221 Thunderstorm 20 1013 72 10000 3.1 140 20:21 13.06.2019
6222 Thunderstorm 18 1013 38 10000 3.6 230 19:56 13.06.2019
6223 Clear 19 1013 38 10000 3.1 220 19:37 13.06.2019
6224 Clear 21 1013 38 10000 4.1 210 19:18 13.06.2019
6225 Clear 23 1013 40 10000 3.1 180 18:45 13.06.2019
6226 Clear 23 1013 40 10000 3.1 180 18:45 13.06.2019
6227 Clear 24 1013 40 10000 3.1 180 18:27 13.06.2019
6228 Clear 24 1013 38 10000 4.1 190 17:58 13.06.2019
6229 Clear 24 1013 38 10000 4.1 200 17:39 13.06.2019
6230 Clear 24 1013 38 10000 4.1 200 17:19 13.06.2019
6231 Clear 24 1013 35 10000 5.1 210 16:45 13.06.2019
6232 Clear 24 1013 35 10000 5.1 210 16:21 13.06.2019
6233 Clear 24 1013 36 10000 5.7 190 15:56 13.06.2019
6234 Clear 24 1013 33 10000 6.2 200 15:38 13.06.2019
6235 Clear 23 1013 38 10000 4.6 200 15:18 13.06.2019
6236 Clear 24 1013 35 10000 5.1 220 14:44 13.06.2019
6237 Clear 23 1013 35 10000 5.1 220 14:23 13.06.2019
6238 Clouds 24 1014 53 10000 4.1 160 13:44 13.06.2019
6239 Clouds 23 1014 53 10000 4.1 160 13:21 13.06.2019
6240 Clear 22 1014 60 10000 3.6 160 12:44 13.06.2019
6241 Clear 22 1014 60 10000 3.6 160 12:23 13.06.2019
6242 Clear 22 1014 60 10000 3.6 160 12:23 13.06.2019
6243 Clear 21 1014 60 10000 3.1 190 11:57 13.06.2019
6244 Clear 21 1014 63 10000 2.6 150 11:39 13.06.2019
6245 Clear 20 1014 63 10000 2.6 150 11:21 13.06.2019
6246 Clear 19 1014 68 10000 1.5 0 10:45 13.06.2019
6247 Clear 19 1014 68 10000 1.5 0 10:27 13.06.2019
6248 Clear 17 1013 82 10000 2.6 150 09:44 13.06.2019
6249 Clear 17 1013 82 10000 2.6 150 09:24 13.06.2019
6250 Clear 17 1013 82 10000 2.6 150 09:24 13.06.2019
6251 Clear 17 1013 82 10000 2.6 150 09:24 13.06.2019
6252 Clear 17 1013 82 10000 2.1 150 08:49 13.06.2019
6253 Clear 16 1013 82 10000 2.1 150 08:28 13.06.2019
6254 Clear 15 1013 82 10000 2.6 180 07:59 13.06.2019
6255 Clear 14 1013 93 10000 1.5 0 07:30 13.06.2019
6256 Clouds 13 1012 87 0 0.45 270 06:52 13.06.2019
6257 Clear 13 1012 88 0 0.45 270 06:24 13.06.2019
6258 Clear 12 1011 89 0 0.45 270 05:57 13.06.2019
6259 Clear 12 1011 88 0 0.45 270 05:37 13.06.2019
6260 Clear 12 1011 90 0 0.45 270 04:59 13.06.2019
6261 Clear 12 1011 89 0 4.23 193.421 03:28 13.06.2019
6262 Clouds 12 1011 88 0 3.47 209.923 01:27 13.06.2019
6263 Clouds 12 1011 88 0 0.45 270 00:29 13.06.2019
6264 Clear 14 1011 87 10000 1.5 0 23:26 12.06.2019
6265 Clear 14 1011 87 10000 1.5 0 22:47 12.06.2019
6266 Clear 14 1011 87 10000 1.5 0 22:28 12.06.2019
6267 Clear 15 1010 82 10000 2.6 260 21:59 12.06.2019
6268 Clouds 16 1009 77 10000 4.1 250 21:40 12.06.2019
6269 Clouds 16 1009 77 10000 4.1 250 21:22 12.06.2019
6270 Clouds 17 1009 72 10000 5.1 260 20:48 12.06.2019
6271 Clouds 18 1009 72 10000 5.1 260 20:29 12.06.2019
6272 Clouds 17 1009 82 10000 3.6 230 19:57 12.06.2019
6273 Clear 17 1009 82 10000 4.1 240 19:37 12.06.2019
6274 Clear 17 1009 82 10000 4.1 240 19:19 12.06.2019
6275 Clear 18 1009 88 10000 2.6 140 18:42 12.06.2019
6276 Clear 18 1009 88 10000 2.6 140 18:23 12.06.2019
6277 Rain 18 1009 88 10000 5.1 260 17:45 12.06.2019
6278 Rain 18 1009 88 10000 5.1 260 17:21 12.06.2019
6279 Clouds 18 1009 82 10000 4.6 240 16:43 12.06.2019
6280 Clouds 18 1009 82 10000 4.6 240 16:25 12.06.2019
6281 Clouds 19 1008 82 10000 3.6 260 15:58 12.06.2019
6282 Clouds 19 1007 77 10000 1.5 0 15:33 12.06.2019
6283 Clouds 20 1007 77 10000 1 0 14:57 12.06.2019
6284 Clouds 20 1007 77 10000 1 0 14:33 12.06.2019
6285 Clouds 20 1007 77 10000 1.5 0 13:58 12.06.2019
6286 -273 0 0 0 0 0 13:58 12.06.2019
6287 Clouds 20 1007 77 10000 1.5 0 13:39 12.06.2019
6288 Clouds 20 1007 77 10000 1.5 0 13:19 12.06.2019
6289 Clouds 19 1008 82 10000 1.5 0 12:40 12.06.2019
6290 Clouds 19 1008 82 10000 1.5 0 12:21 12.06.2019
6291 Clouds 19 1008 88 10000 1.5 0 11:55 12.06.2019
6292 Clouds 19 1008 88 10000 1.5 0 11:37 12.06.2019
6293 Clouds 18 1008 88 10000 1.5 0 11:19 12.06.2019
6294 Clouds 18 1008 93 10000 1.5 0 10:42 12.06.2019
6295 Clouds 18 1008 93 10000 1.5 0 10:19 12.06.2019
6296 Clouds 17 1008 100 10000 2.1 10 09:41 12.06.2019
6297 Clouds 17 1008 100 10000 2.1 10 09:22 12.06.2019
6298 Fog 17 1009 93 700 1 0 08:37 12.06.2019
6299 Fog 17 1009 93 700 1 0 08:18 12.06.2019
6300 Clear 15 1009 100 10000 2 358.799 07:20 12.06.2019
6301 Rain 15 1007 96 0 2 358.799 06:40 12.06.2019
6302 Rain 14 1009 97 0 2.77 350.453 05:25 12.06.2019
6303 Rain 15 1008 95 0 2.77 350.453 03:41 12.06.2019
6304 Rain 17 1009 95 0 2.12 355.589 00:47 12.06.2019
6305 Rain 17 1011 95 0 0.89 270 00:20 12.06.2019
6306 Rain 17 1007 94 0 0.45 90 23:43 11.06.2019
6307 Clear 18 1011 68 10000 2.6 310 23:24 11.06.2019
6308 Clear 19 1011 68 10000 2.6 310 22:43 11.06.2019
6309 Clear 19 1011 64 10000 2.6 320 22:18 11.06.2019
6310 Clear 19 1011 64 10000 2.6 320 21:56 11.06.2019
6311 Clear 19 1011 64 10000 2.1 320 21:37 11.06.2019
6312 Clear 20 1011 64 10000 2.1 320 21:19 11.06.2019
6313 Clear 21 1011 56 10000 2.6 310 20:46 11.06.2019
6314 Clear 21 1011 56 10000 2.6 310 20:23 11.06.2019
6315 Clear 21 1011 53 10000 2.1 310 19:53 11.06.2019
6316 Clouds 22 1011 53 10000 1.5 0 19:31 11.06.2019
6317 Clear 22 1011 49 10000 2.1 360 18:55 11.06.2019
6318 Clouds 22 1011 60 10000 2.1 340 18:21 11.06.2019
6319 Clouds 23 1011 60 10000 1.5 0 17:42 11.06.2019
6320 Clouds 22 1011 60 10000 1.5 0 17:22 11.06.2019
6321 Clouds 23 1011 60 10000 2.6 310 16:56 11.06.2019
6322 Clouds 23 1011 60 10000 2.1 0 16:37 11.06.2019
6323 Clouds 22 1011 64 10000 2.6 0 16:19 11.06.2019
6324 Clouds 22 1011 68 10000 2.6 310 15:41 11.06.2019
6325 Clouds 21 1011 68 10000 2.6 310 15:21 11.06.2019
6326 Clouds 21 1011 77 10000 3.1 290 14:44 11.06.2019
6327 Clouds 20 1011 77 10000 3.1 290 14:21 11.06.2019
6328 Clouds 20 1011 77 10000 2.6 290 13:50 11.06.2019
6329 Clouds 20 1011 77 10000 3.1 290 13:24 11.06.2019
6330 Clouds 19 1011 77 10000 3.6 290 12:55 11.06.2019
6331 Clouds 19 1011 77 10000 3.6 290 12:37 11.06.2019
6332 Clouds 19 1011 77 10000 3.6 290 12:18 11.06.2019
6333 Clouds 18 1010 82 10000 3.6 280 11:39 11.06.2019
6334 Clouds 18 1010 82 10000 3.6 280 11:19 11.06.2019
6335 Clouds 17 1010 88 10000 3.1 280 10:45 11.06.2019
6336 Clouds 17 1010 88 10000 3.1 280 10:25 11.06.2019
6337 Clouds 17 1010 88 10000 4.6 270 09:49 11.06.2019
6338 Clouds 16 1010 88 10000 4.6 260 09:24 11.06.2019
6339 Clouds 16 1010 88 10000 4.6 260 09:24 11.06.2019
6340 Clear 17 1010 82 10000 4.1 240 08:45 11.06.2019
6341 Clear 17 1010 82 10000 4.1 240 08:26 11.06.2019
6342 Clear 17 1009 82 10000 3.1 260 07:38 11.06.2019
6343 Rain 16 1011 96 0 2.84 251.137 06:56 11.06.2019
6344 Rain 16 1008 95 0 2.84 251.137 06:34 11.06.2019
6345 Rain 16 1007 94 0 1.85 220.403 04:55 11.06.2019
6346 Rain 16 1008 94 0 1.85 220.403 03:42 11.06.2019
6347 Rain 17 1009 93 0 5.64 254.035 01:40 11.06.2019
6348 Rain 17 1009 94 0 5.64 254.035 00:47 11.06.2019
6349 Rain 18 1008 94 0 2.38 17.006 23:48 10.06.2019
6350 Rain 19 1008 93 0 2.38 17.006 23:25 10.06.2019
6351 Rain 18 1009 93 0 2.12 41.589 22:56 10.06.2019
6352 Rain 18 1009 92 0 2.12 41.589 22:37 10.06.2019
6353 Rain 18 1009 92 0 2.12 41.589 22:19 10.06.2019
6354 Clear 19 1010 64 10000 1 0 21:41 10.06.2019
6355 Clear 20 1010 64 10000 1 0 21:22 10.06.2019
6356 Clear 21 1010 64 10000 1.59 97.138 20:46 10.06.2019
6357 Clear 22 1010 64 10000 1.59 97.138 20:25 10.06.2019
6358 Clear 23 1010 60 10000 1 0 19:56 10.06.2019
6359 Clear 23 1010 57 10000 1.5 0 19:36 10.06.2019
6360 Clear 23 1010 53 10000 2.1 110 19:18 10.06.2019
6361 Clear 24 1010 53 10000 2.1 110 18:55 10.06.2019
6362 Clear 24 1010 50 10000 3.6 130 18:36 10.06.2019
6363 Clouds 25 1011 50 10000 3.6 140 18:18 10.06.2019
6364 Clear 25 1011 47 10000 3.1 110 17:39 10.06.2019
6365 Clear 25 1011 47 10000 3.1 110 17:20 10.06.2019
6366 Clear 26 1011 47 10000 1.5 0 16:44 10.06.2019
6367 Clear 26 1011 47 10000 1.5 0 16:25 10.06.2019
6368 Clouds 26 1012 50 10000 1.5 0 15:42 10.06.2019
6369 Clouds 25 1012 50 10000 1.5 0 15:24 10.06.2019
6370 Clouds 25 1012 47 10000 3.1 150 14:58 10.06.2019
6371 Clouds 26 1012 47 10000 3.6 120 14:38 10.06.2019
6372 Clouds 25 1012 47 10000 3.6 120 14:20 10.06.2019
6373 Clouds 25 1013 53 10000 3.1 100 13:43 10.06.2019
6374 Clouds 25 1013 53 10000 3.1 100 13:22 10.06.2019
6375 Clouds 24 1013 50 10000 1.5 0 12:45 10.06.2019
6376 Clouds 24 1013 50 10000 1.5 0 12:26 10.06.2019
6377 Clear 23 1013 53 10000 1.5 0 11:46 10.06.2019
6378 Clear 23 1013 53 10000 1.5 0 11:46 10.06.2019
6379 Clear 23 1013 53 10000 1.5 0 11:28 10.06.2019
6380 Clear 22 1013 60 10000 1.5 0 10:46 10.06.2019
6381 Clear 22 1013 60 10000 1.5 0 10:22 10.06.2019
6382 Clear 21 1014 63 10000 2.6 110 09:58 10.06.2019
6383 Clear 21 1013 68 10000 3.1 100 09:39 10.06.2019
6384 Clouds 20 1012 67 0 0.72 153.045 09:19 10.06.2019
6385 Clouds 19 1012 72 0 0.45 247 08:45 10.06.2019
6386 Clouds 18 1012 76 0 0.72 153.045 08:25 10.06.2019
6387 Clouds 16 1012 80 0 0.72 153.045 07:26 10.06.2019
6388 Clouds 15 1014 84 0 1.2 116.374 04:41 10.06.2019
6389 Clouds 16 1015 72 0 2.47 79.009 01:59 10.06.2019
6390 Clouds 17 1015 73 0 2.47 79.009 01:27 10.06.2019
6391 Clouds 17 1016 68 0 2.47 79.009 00:59 10.06.2019
6392 Clouds 18 1016 66 0 3.04 71.142 00:24 10.06.2019
6393 Clouds 18 1017 60 0 0.45 90 23:45 09.06.2019
6394 Clouds 19 1017 59 0 0.45 90 23:21 09.06.2019
6395 Clouds 19 1017 59 0 0.45 90 23:21 09.06.2019
6396 Clouds 19 1017 61 0 3.04 71.142 22:45 09.06.2019
6397 Clouds 19 1017 64 0 3.04 71.142 22:25 09.06.2019
6398 Clear 19 1020 49 10000 1 0 21:46 09.06.2019
6399 Clear 19 1020 49 10000 1 0 21:28 09.06.2019
6400 Clear 20 1020 49 10000 1 0 20:58 09.06.2019
6401 Clear 20 1020 46 10000 1.5 0 20:40 09.06.2019
6402 Clear 20 1020 46 10000 1.5 0 20:21 09.06.2019
6403 Clear 21 1020 43 10000 2.6 80 19:42 09.06.2019
6404 Clear 21 1021 43 10000 2.1 80 19:18 09.06.2019
6405 Clear 22 1021 43 10000 2.1 70 18:43 09.06.2019
6406 Clear 22 1021 43 10000 2.1 70 18:24 09.06.2019
6407 Clear 22 1021 40 10000 3.1 120 17:50 09.06.2019
6408 Clear 22 1021 38 10000 3.1 110 17:30 09.06.2019
6409 Clear 22 1022 37 10000 2.1 70 16:58 09.06.2019
6410 Clear 23 1022 40 10000 2.1 0 16:39 09.06.2019
6411 Clear 23 1022 40 10000 2.1 0 16:20 09.06.2019
6412 Clear 23 1022 40 10000 2.1 0 16:20 09.06.2019
6413 Clear 23 1023 40 10000 1.5 0 15:49 09.06.2019
6414 Clear 22 1023 43 10000 1.5 0 15:28 09.06.2019
6415 Clear 22 1023 43 10000 3.6 0 14:51 09.06.2019
6416 Clear 22 1023 43 10000 3.6 0 14:51 09.06.2019
6417 Clear 22 1023 40 10000 2.1 0 14:33 09.06.2019
6418 Clear 23 1024 40 10000 1.5 0 13:57 09.06.2019
6419 Clouds 22 1024 42 10000 2.1 0 13:38 09.06.2019
6420 Clear 22 1024 45 10000 3.1 250 12:55 09.06.2019
6421 Clouds 21 1024 49 10000 1.5 0 12:34 09.06.2019
6422 Clouds 20 1025 52 10000 2.1 240 11:51 09.06.2019
6423 Clouds 19 1025 55 10000 4.1 260 11:30 09.06.2019
6424 -273 0 0 0 0 0 10:58 09.06.2019
6425 -273 0 0 0 0 0 10:58 09.06.2019
6426 Clear 19 1025 55 10000 3.1 260 10:38 09.06.2019
6427 Clear 19 1025 55 10000 3.1 260 10:19 09.06.2019
6428 Clear 19 1025 55 10000 3.1 260 10:19 09.06.2019
6429 Clear 17 1025 59 10000 3.6 240 09:38 09.06.2019
6430 Clear 17 1025 59 10000 3.6 240 09:19 09.06.2019
6431 Clear 17 1025 59 10000 3.6 240 09:19 09.06.2019
6432 Clouds 16 1024 69 0 3.29 223.668 08:44 09.06.2019
6433 Clouds 14 1024 70 0 3.29 223.668 07:53 09.06.2019
6434 Clouds 12 1023 77 0 3.29 223.668 06:45 09.06.2019
6435 Clouds 10 1023 78 0 3.56 207.321 06:20 09.06.2019
6436 Clear 11 1022 74 0 3.8 210.728 02:59 09.06.2019
6437 Clear 12 1022 72 0 3.8 210.728 01:37 09.06.2019
6438 Clear 13 1022 71 0 0.45 270 01:19 09.06.2019
6439 Clear 12 1021 71 0 0.45 292 00:29 09.06.2019
6440 Clear 13 1023 70 0 3.94 212.697 23:41 08.06.2019
6441 Clear 13 1021 66 0 3.94 212.697 23:23 08.06.2019
6442 Clear 13 1021 64 0 0.45 292 22:55 08.06.2019
6443 Clear 13 1021 61 0 0.45 225 22:36 08.06.2019
6444 Clear 14 1021 61 0 0.45 292 22:18 08.06.2019
6445 Clear 16 1020 39 10000 5.7 220 21:41 08.06.2019
6446 Clear 17 1020 39 10000 5.7 220 21:23 08.06.2019
6447 Clear 18 1020 39 10000 6.2 220 20:45 08.06.2019
6448 Clear 18 1020 39 10000 6.2 220 20:25 08.06.2019
6449 Clear 18 1020 34 10000 7.2 230 19:58 08.06.2019
6450 Clear 19 1020 37 10000 6.7 240 19:38 08.06.2019
6451 Clear 19 1020 37 10000 6.7 240 19:19 08.06.2019
6452 Clear 19 1020 37 10000 7.7 230 18:41 08.06.2019
6453 Clear 19 1020 37 10000 7.7 230 18:23 08.06.2019
6454 Clear 19 1020 34 10000 7.2 240 17:45 08.06.2019
6455 Clear 19 1020 34 10000 7.2 240 17:22 08.06.2019
6456 Clear 19 1020 37 10000 8.7 240 16:53 08.06.2019
6457 Clear 20 1019 40 10000 7.2 230 16:35 08.06.2019
6458 Clear 19 1019 37 10000 6.7 230 15:53 08.06.2019
6459 Clear 19 1019 39 10000 6.7 220 15:33 08.06.2019
6460 Clear 18 1019 39 10000 8.7 220 14:48 08.06.2019
6461 Clear 18 1019 42 10000 7.2 230 14:29 08.06.2019
6462 Clear 19 1018 37 10000 7.7 220 13:49 08.06.2019
6463 Clear 19 1018 39 10000 8.7 220 12:54 08.06.2019
6464 Clear 18 1018 39 10000 8.2 230 12:35 08.06.2019
6465 Clouds 17 1017 42 10000 8.2 230 11:56 08.06.2019
6466 Clouds 17 1017 48 10000 7.2 240 11:37 08.06.2019
6467 Clouds 17 1017 48 10000 7.2 240 11:19 08.06.2019
6468 Clouds 17 1017 55 10000 8.2 210 10:42 08.06.2019
6469 Clouds 17 1017 55 10000 8.2 210 10:19 08.06.2019
6470 Clear 16 1016 63 10000 5.1 210 09:33 08.06.2019
6471 Clouds 15 1015 69 0 2.68 292 08:58 08.06.2019
6472 Clouds 14 1014 80 0 1.79 292 08:22 08.06.2019
6473 Clouds 13 1014 83 0 1.79 270 07:39 08.06.2019
6474 Clouds 13 1016 92 0 7.84 208.774 06:45 08.06.2019
6475 Rain 13 1015 94 0 6.35 216.859 03:40 08.06.2019
6476 Rain 13 1013 91 0 0.89 292 02:20 08.06.2019
6477 Rain 14 1016 98 0 3.58 225 00:32 08.06.2019
6478 Rain 15 1012 92 0 3.74 192.857 23:59 07.06.2019
6479 Rain 16 1012 91 0 3.74 192.857 23:21 07.06.2019
6480 Clear 17 1009 64 10000 3.1 110 22:54 07.06.2019
6481 Clear 19 1009 64 10000 3.1 110 22:35 07.06.2019
6482 Clear 20 1009 64 10000 2.6 110 21:56 07.06.2019
6483 Clear 21 1009 56 10000 3.1 130 21:38 07.06.2019
6484 Clear 22 1009 56 10000 3.1 130 21:20 07.06.2019
6485 Clear 22 1009 53 10000 4.6 140 20:42 07.06.2019
6486 Clear 23 1009 53 10000 4.6 140 20:23 07.06.2019
6487 Clear 23 1009 50 10000 7.2 120 19:46 07.06.2019
6488 Clear 23 1009 50 10000 7.2 120 19:20 07.06.2019
6489 Clear 23 1010 47 10000 5.7 140 18:47 07.06.2019
6490 Clear 24 1010 47 10000 5.7 140 18:28 07.06.2019
6491 Clear 23 1011 44 10000 5.7 140 17:46 07.06.2019
6492 Clear 23 1011 44 10000 5.7 140 17:46 07.06.2019
6493 Clear 24 1011 44 10000 5.7 140 17:24 07.06.2019
6494 Clear 23 1011 49 10000 5.7 120 16:47 07.06.2019
6495 Clear 23 1011 49 10000 5.7 120 16:29 07.06.2019
6496 Clouds 23 1012 46 10000 5.7 120 15:50 07.06.2019
6497 Clouds 23 1012 46 10000 5.7 120 15:21 07.06.2019
6498 Clouds 22 1013 49 10000 5.1 100 14:46 07.06.2019
6499 Clouds 22 1013 49 10000 5.1 100 14:23 07.06.2019
6500 Clouds 22 1014 49 10000 3.6 120 13:39 07.06.2019
6501 Clouds 21 1014 49 10000 3.6 120 13:20 07.06.2019
6502 Clouds 20 1014 48 10000 3.6 130 12:41 07.06.2019
6503 Clouds 19 1014 48 10000 3.6 130 12:19 07.06.2019
6504 Clouds 19 1015 52 10000 4.1 120 11:41 07.06.2019
6505 Clouds 18 1015 52 10000 4.1 120 11:22 07.06.2019
6506 Clouds 18 1015 55 10000 3.6 100 10:48 07.06.2019
6507 Clouds 17 1015 55 10000 3.1 120 10:22 07.06.2019
6508 Clouds 18 1015 59 10000 4.1 90 09:50 07.06.2019
6509 Clouds 17 1015 59 10000 3.1 90 09:29 07.06.2019
6510 Clear 16 1016 67 10000 2.1 110 08:56 07.06.2019
6511 Clear 15 1016 77 10000 2.6 120 08:28 07.06.2019
6512 Clear 13 1015 93 10000 1.5 90 07:55 07.06.2019
6513 Clear 12 1016 93 10000 1 90 07:24 07.06.2019
6514 Clear 11 1015 93 0 1.71 99.92 06:50 07.06.2019
6515 Clear 10 1014 93 0 1.71 99.92 06:28 07.06.2019
6516 Clear 9 1014 93 0 1.24 205.613 05:46 07.06.2019
6517 Clear 12 1014 92 0 1.24 205.613 03:35 07.06.2019
6518 Clouds 13 1014 86 0 2.35 235.397 01:40 07.06.2019
6519 Clouds 13 1014 86 0 0.86 267.321 00:51 07.06.2019
6520 Clouds 13 1014 86 0 2.19 254.802 00:26 07.06.2019
6521 Clouds 14 1014 84 0 2.19 254.802 23:43 06.06.2019
6522 Clear 15 1014 63 10000 3.1 290 23:22 06.06.2019
6523 Clear 14 1014 63 10000 3.1 290 22:40 06.06.2019
6524 Clear 15 1014 63 10000 3.1 290 22:21 06.06.2019
6525 Clear 15 1014 63 10000 4.1 280 21:57 06.06.2019
6526 Clear 15 1014 67 10000 3.1 300 21:39 06.06.2019
6527 Clear 15 1014 67 10000 3.1 300 21:20 06.06.2019
6528 Clear 16 1014 67 10000 4.1 280 20:49 06.06.2019
6529 Clouds 16 1014 63 10000 4.1 300 20:25 06.06.2019
6530 Clouds 16 1013 59 10000 5.1 280 19:40 06.06.2019
6531 Clouds 16 1013 59 10000 5.1 280 19:20 06.06.2019
6532 Clouds 17 1012 59 10000 5.7 270 18:57 06.06.2019
6533 Clouds 17 1012 59 10000 5.7 270 18:57 06.06.2019
6534 Clouds 17 1013 63 10000 5.1 270 18:33 06.06.2019
6535 Clouds 17 1013 67 10000 6.2 270 17:59 06.06.2019
6536 Clouds 17 1012 72 10000 5.7 270 17:40 06.06.2019
6537 Clouds 17 1012 72 10000 5.7 270 17:20 06.06.2019
6538 Clouds 16 1012 72 10000 6.7 280 16:44 06.06.2019
6539 Clouds 16 1012 72 10000 6.7 280 16:22 06.06.2019
6540 Clouds 15 1012 77 10000 6.7 280 15:52 06.06.2019
6541 Clouds 15 1012 77 10000 7.7 280 15:27 06.06.2019
6542 Clouds 15 1012 72 10000 6.7 280 14:55 06.06.2019
6543 Clouds 15 1011 72 10000 7.2 270 14:37 06.06.2019
6544 Clouds 15 1011 77 10000 7.2 280 14:18 06.06.2019
6545 Clouds 15 1011 72 10000 5.7 270 13:42 06.06.2019
6546 Clouds 15 1011 72 10000 5.7 270 13:21 06.06.2019
6547 Clouds 15 1010 84 0 7.05 268.294 12:44 06.06.2019
6548 Clouds 17 1009 60 10000 6.2 260 12:24 06.06.2019
6549 Clear 18 1008 64 10000 4.6 270 11:49 06.06.2019
6550 Clear 19 1008 64 10000 4.6 270 11:28 06.06.2019
6551 Clear 21 1007 60 10000 4.6 280 10:50 06.06.2019
6552 Clear 21 1007 56 10000 4.1 290 10:30 06.06.2019
6553 Clear 21 1007 56 10000 4.1 300 09:51 06.06.2019
6554 Clear 21 1006 56 10000 3.6 300 09:31 06.06.2019
6555 Clear 20 1006 56 10000 3.1 330 08:55 06.06.2019
6556 Clear 21 1006 60 10000 4.1 290 08:36 06.06.2019
6557 Clear 20 1006 60 10000 5.1 300 08:18 06.06.2019
6558 Clear 20 1005 60 10000 4.6 300 07:44 06.06.2019
6559 Rain 20 1005 69 0 4.27 232.497 06:54 06.06.2019
6560 Rain 20 1005 69 0 4.27 232.497 06:35 06.06.2019
6561 Clear 19 1002 79 0 3.53 132.133 04:41 06.06.2019
6562 Clear 20 1001 76 0 3.53 132.133 04:23 06.06.2019
6563 Clear 21 1003 65 0 1.79 143 02:19 06.06.2019
6564 Clear 22 1003 63 0 4.37 125.821 01:26 06.06.2019
6565 Clear 22 1002 66 0 3.89 128.133 00:36 06.06.2019
6566 Clear 22 1002 67 0 3.35 119.416 00:18 06.06.2019
6567 Clear 23 1003 55 0 4.29 120.739 23:32 05.06.2019
6568 Clear 22 1005 53 10000 2.6 80 22:57 05.06.2019
6569 Clear 23 1005 53 10000 2.6 80 22:37 05.06.2019
6570 Clear 24 1005 53 10000 2.6 80 22:19 05.06.2019
6571 Clear 25 1005 47 10000 2.6 80 21:43 05.06.2019
6572 Clear 26 1005 47 10000 2.6 80 21:25 05.06.2019
6573 Clear 27 1005 37 10000 3.1 70 20:48 05.06.2019
6574 Clear 28 1005 37 10000 3.1 70 20:29 05.06.2019
6575 Clear 28 1005 40 10000 2.6 70 19:50 05.06.2019
6576 Clear 29 1005 42 10000 1.5 100 19:24 05.06.2019
6577 Clear 30 1005 33 10000 2.6 110 18:52 05.06.2019
6578 Clear 30 1005 29 10000 3.1 100 18:34 05.06.2019
6579 Clear 31 1006 26 10000 3.1 150 17:52 05.06.2019
6580 Clear 31 1006 26 10000 3.6 150 17:32 05.06.2019
6581 Clear 31 1007 27 10000 4.1 110 16:46 05.06.2019
6582 Clear 31 1007 27 10000 4.1 110 16:25 05.06.2019
6583 Clear 31 1007 33 10000 3.1 0 15:59 05.06.2019
6584 Clear 32 1007 29 10000 4.1 220 15:37 05.06.2019
6585 Clear 32 1007 29 10000 4.1 220 15:37 05.06.2019
6586 Clear 31 1007 29 10000 4.1 220 15:19 05.06.2019
6587 Clear 31 1007 35 10000 2.6 100 14:40 05.06.2019
6588 Clear 31 1007 35 10000 2.6 100 14:21 05.06.2019
6589 Clear 30 1008 38 10000 2.6 140 13:57 05.06.2019
6590 Clear 30 1008 38 10000 2.1 90 13:38 05.06.2019
6591 Clear 30 1008 38 10000 2.1 90 13:19 05.06.2019
6592 Clear 30 1008 45 10000 1.5 0 12:45 05.06.2019
6593 Clear 29 1008 45 10000 1.5 0 12:20 05.06.2019
6594 Clear 28 1008 42 10000 2.6 150 11:47 05.06.2019
6595 Clear 28 1008 42 10000 2.6 150 11:21 05.06.2019
6596 Clear 27 1008 51 10000 2.1 240 10:47 05.06.2019
6597 Clear 26 1008 51 10000 2.1 240 10:25 05.06.2019
6598 Clear 25 1008 53 10000 2.6 190 09:55 05.06.2019
6599 Clear 24 1007 60 10000 1.5 0 09:28 05.06.2019
6600 Clear 23 1007 64 10000 1 0 08:51 05.06.2019
6601 Clear 22 1007 73 10000 1 0 08:23 05.06.2019
6602 Clear 21 1007 72 10000 1 80 07:36 05.06.2019
6603 Clouds 20 1008 73 0 0.89 44 06:54 05.06.2019
6604 Clouds 19 1008 72 0 0.45 37 06:20 05.06.2019
6605 Clouds 19 1006 75 0 3.6 162.164 05:41 05.06.2019
6606 Clouds 21 1006 62 0 0.45 270 02:35 05.06.2019
6607 Clouds 21 1006 59 0 0.45 292 01:31 05.06.2019
6608 Clouds 21 1006 56 0 3.97 152.989 00:48 05.06.2019
6609 Clouds 22 1006 55 0 0.45 270 00:18 05.06.2019
6610 Clouds 22 1007 73 0 0.89 105 23:42 04.06.2019
6611 Clear 22 1008 64 10000 2.6 100 23:22 04.06.2019
6612 Clear 22 1008 64 10000 2.6 100 22:55 04.06.2019
6613 Clear 22 1008 64 10000 2.6 100 22:36 04.06.2019
6614 Clear 22 1007 60 10000 2.1 90 22:18 04.06.2019
6615 Clear 23 1008 64 10000 2.6 90 21:39 04.06.2019
6616 Clear 24 1008 64 10000 2.6 90 21:20 04.06.2019
6617 Clear 25 1008 54 10000 2.1 80 20:41 04.06.2019
6618 Clear 26 1008 54 10000 2.1 80 20:20 04.06.2019
6619 Clear 26 1008 54 10000 2.1 80 20:20 04.06.2019
6620 Clear 26 1008 54 10000 2.6 90 19:56 04.06.2019
6621 Clear 26 1009 51 10000 2.6 90 19:38 04.06.2019
6622 Clear 27 1009 51 10000 2.6 100 19:19 04.06.2019
6623 Clear 27 1009 54 10000 2.1 130 18:42 04.06.2019
6624 Clear 27 1009 54 10000 2.1 130 18:21 04.06.2019
6625 Clear 27 1010 47 10000 1.5 0 17:44 04.06.2019
6626 Clear 27 1010 47 10000 1.5 0 17:24 04.06.2019
6627 Clouds 27 1011 54 10000 2.1 0 16:43 04.06.2019
6628 Clouds 27 1011 54 10000 2.6 130 16:18 04.06.2019
6629 Clouds 26 1011 57 10000 1.5 0 15:42 04.06.2019
6630 Clouds 26 1011 57 10000 1.5 0 15:24 04.06.2019
6631 Clouds 26 1012 64 10000 1.5 0 14:38 04.06.2019
6632 Clouds 25 1012 64 10000 1.5 0 14:20 04.06.2019
6633 Clouds 24 1013 69 10000 2.1 360 13:44 04.06.2019
6634 Clouds 23 1013 69 10000 2.1 360 13:21 04.06.2019
6635 Clouds 22 1013 73 10000 1.5 0 12:42 04.06.2019
6636 Clouds 22 1013 73 10000 1.5 0 12:23 04.06.2019
6637 Clouds 21 1013 94 10000 1.5 0 11:46 04.06.2019
6638 Clouds 21 1013 94 10000 1.5 0 11:25 04.06.2019
6639 Clouds 20 1013 100 9000 2.1 90 10:58 04.06.2019
6640 Clouds 19 1013 100 8000 2.1 90 10:21 04.06.2019
6641 Mist 18 1013 100 4300 2.1 110 09:57 04.06.2019
6642 Mist 18 1013 100 4100 1.5 0 09:38 04.06.2019
6643 Mist 17 1013 100 3600 1.5 0 09:18 04.06.2019
6644 Mist 17 1013 100 3300 1.5 0 08:47 04.06.2019
6645 Mist 17 1013 100 3300 1.5 0 08:28 04.06.2019
6646 Mist 16 1013 100 4000 0.5 0 07:50 04.06.2019
6647 Mist 15 1013 100 4000 0.29 202.697 07:28 04.06.2019
6648 Clear 14 1012 97 0 0.29 202.697 06:50 04.06.2019
6649 Clear 14 1012 97 0 0.29 202.697 06:29 04.06.2019
6650 Clear 14 1013 97 0 0.45 35 05:54 04.06.2019
6651 Clear 14 1012 97 0 0.99 245.938 05:19 04.06.2019
6652 Clear 14 1012 97 0 0.99 245.938 04:29 04.06.2019
6653 Clear 15 1012 97 0 0.99 245.938 03:50 04.06.2019
6654 Rain 15 1013 97 0 1.55 207.819 02:35 04.06.2019
6655 Rain 15 1013 96 0 1.55 207.819 01:43 04.06.2019
6656 Clouds 16 1013 96 0 0.88 285.17 00:53 04.06.2019
6657 Clouds 16 1014 97 0 0.88 285.17 00:35 04.06.2019
6658 Clouds 16 1013 96 0 1.89 304.296 23:44 03.06.2019
6659 Clear 17 1013 93 10000 2.6 310 23:22 03.06.2019
6660 Clear 17 1013 93 10000 2.6 310 22:56 03.06.2019
6661 Clear 17 1013 93 10000 2.6 310 22:37 03.06.2019
6662 Clear 17 1013 93 10000 1 0 22:18 03.06.2019
6663 Clear 17 1014 93 10000 1 0 21:41 03.06.2019
6664 Clear 17 1014 93 10000 1 0 21:20 03.06.2019
6665 Thunderstorm 17 1015 93 10000 6.7 250 20:45 03.06.2019
6666 Thunderstorm 17 1015 93 10000 6.7 250 20:45 03.06.2019
6667 Thunderstorm 18 1015 93 10000 6.7 250 20:25 03.06.2019
6668 Thunderstorm 18 1014 93 7000 5.7 260 19:59 03.06.2019
6669 Thunderstorm 18 1015 88 10000 3.1 230 19:41 03.06.2019
6670 Thunderstorm 18 1015 88 10000 3.1 230 19:22 03.06.2019
6671 Clouds 18 1012 88 10000 4.1 300 18:59 03.06.2019
6672 Rain 19 1012 77 10000 2.1 340 18:41 03.06.2019
6673 Rain 21 1012 77 10000 2.1 340 18:22 03.06.2019
6674 Clear 21 1012 82 10000 3.6 110 17:46 03.06.2019
6675 Clear 20 1012 82 10000 3.6 110 17:27 03.06.2019
6676 Clear 21 1012 77 10000 3.1 20 16:50 03.06.2019
6677 Rain 23 1013 68 10000 3.1 310 16:20 03.06.2019
6678 Clear 23 1014 56 10000 9.3 280 15:59 03.06.2019
6679 Thunderstorm 23 1013 42 10000 1.5 0 15:40 03.06.2019
6680 Thunderstorm 25 1013 42 10000 1.5 0 15:22 03.06.2019
6681 Clear 27 1012 35 10000 2.6 0 14:45 03.06.2019
6682 Clear 28 1012 35 10000 2.6 0 14:25 03.06.2019
6683 Clear 29 1013 37 10000 4.1 320 13:42 03.06.2019
6684 Clear 28 1013 37 10000 4.1 320 13:21 03.06.2019
6685 Clear 29 1013 39 10000 5.1 300 12:42 03.06.2019
6686 Clear 28 1013 39 10000 5.1 300 12:23 03.06.2019
6687 Clear 28 1013 39 10000 4.1 0 11:51 03.06.2019
6688 Clear 27 1013 42 10000 3.1 260 11:23 03.06.2019
6689 Clear<